<?xml version='1.0' encoding='UTF-8'?><gpx version="1.1" creator="JPX - https://github.com/jenetics/jpx" xmlns="http://www.topografix.com/GPX/1/1"><trk><trkseg><trkpt lat="43.778645325919776" lon="7.671098688244733"><ele>12.0</ele><time>2026-04-26T05:02:50.834Z</time></trkpt><trkpt lat="43.77870449493096" lon="7.671164326229465"><ele>12.0</ele><time>2026-04-26T05:02:54.834Z</time></trkpt><trkpt lat="43.77879916610258" lon="7.671053216592638"><ele>12.0</ele><time>2026-04-26T05:02:56.834Z</time></trkpt><trkpt lat="43.77886679015279" lon="7.671002698467438"><ele>12.0</ele><time>2026-04-26T05:02:57.834Z</time></trkpt><trkpt lat="43.77893420352797" lon="7.670909733211514"><ele>12.0</ele><time>2026-04-26T05:02:58.834Z</time></trkpt><trkpt lat="43.779013563208956" lon="7.670803202456084"><ele>12.0</ele><time>2026-04-26T05:02:59.834Z</time></trkpt><trkpt lat="43.77909437525586" lon="7.670697062985314"><ele>12.0</ele><time>2026-04-26T05:03:00.834Z</time></trkpt><trkpt lat="43.77918538160974" lon="7.670584452320018"><ele>12.0</ele><time>2026-04-26T05:03:01.834Z</time></trkpt><trkpt lat="43.779271136331495" lon="7.670480329298936"><ele>12.0</ele><time>2026-04-26T05:03:02.834Z</time></trkpt><trkpt lat="43.779350509267154" lon="7.670371100123514"><ele>11.8</ele><time>2026-04-26T05:03:03.834Z</time></trkpt><trkpt lat="43.779426830143414" lon="7.670292041789922"><ele>11.6</ele><time>2026-04-26T05:03:04.834Z</time></trkpt><trkpt lat="43.77951051806761" lon="7.670267900762034"><ele>11.4</ele><time>2026-04-26T05:03:05.834Z</time></trkpt><trkpt lat="43.77961322672131" lon="7.6702923132553416"><ele>11.200000000000001</ele><time>2026-04-26T05:03:06.834Z</time></trkpt><trkpt lat="43.7797068993029" lon="7.670356118524912"><ele>11.0</ele><time>2026-04-26T05:03:07.834Z</time></trkpt><trkpt lat="43.77978891896582" lon="7.670459621247139"><ele>13.0</ele><time>2026-04-26T05:03:08.834Z</time></trkpt><trkpt lat="43.7798625277284" lon="7.670588190723991"><ele>15.0</ele><time>2026-04-26T05:03:09.834Z</time></trkpt><trkpt lat="43.77990755041309" lon="7.670763896429835"><ele>17.0</ele><time>2026-04-26T05:03:10.834Z</time></trkpt><trkpt lat="43.77997524159363" lon="7.670903031226207"><ele>19.0</ele><time>2026-04-26T05:03:11.834Z</time></trkpt><trkpt lat="43.78005065362784" lon="7.671031342258121"><ele>21.2</ele><time>2026-04-26T05:03:12.834Z</time></trkpt><trkpt lat="43.78011416814311" lon="7.67116494897715"><ele>23.4</ele><time>2026-04-26T05:03:13.833Z</time></trkpt><trkpt lat="43.780210634161" lon="7.671246120611557"><ele>25.6</ele><time>2026-04-26T05:03:14.833Z</time></trkpt><trkpt lat="43.78030532310127" lon="7.671280004357916"><ele>27.8</ele><time>2026-04-26T05:03:15.833Z</time></trkpt><trkpt lat="43.78040058896708" lon="7.671278803561314"><ele>30.0</ele><time>2026-04-26T05:03:16.833Z</time></trkpt><trkpt lat="43.780512536602544" lon="7.671242964271556"><ele>28.75</ele><time>2026-04-26T05:03:17.833Z</time></trkpt><trkpt lat="43.780600810006646" lon="7.6711506077746625"><ele>27.5</ele><time>2026-04-26T05:03:18.833Z</time></trkpt><trkpt lat="43.780676341149324" lon="7.671031970474204"><ele>26.25</ele><time>2026-04-26T05:03:19.833Z</time></trkpt><trkpt lat="43.780727509436474" lon="7.670851008403976"><ele>25.0</ele><time>2026-04-26T05:03:20.833Z</time></trkpt><trkpt lat="43.78078185726256" lon="7.670702451713708"><ele>25.0</ele><time>2026-04-26T05:03:21.833Z</time></trkpt><trkpt lat="43.78083288251196" lon="7.670558330377675"><ele>25.0</ele><time>2026-04-26T05:03:22.833Z</time></trkpt><trkpt lat="43.780881737962055" lon="7.670432997555781"><ele>25.0</ele><time>2026-04-26T05:03:23.833Z</time></trkpt><trkpt lat="43.780958021777565" lon="7.670348924593547"><ele>25.0</ele><time>2026-04-26T05:03:24.833Z</time></trkpt><trkpt lat="43.78105258459475" lon="7.67035440927484"><ele>25.0</ele><time>2026-04-26T05:03:25.833Z</time></trkpt><trkpt lat="43.78115346918269" lon="7.670421122074501"><ele>27.75</ele><time>2026-04-26T05:03:26.833Z</time></trkpt><trkpt lat="43.781234360921346" lon="7.670555882595693"><ele>30.5</ele><time>2026-04-26T05:03:27.833Z</time></trkpt><trkpt lat="43.781323734246314" lon="7.670626041022116"><ele>33.25</ele><time>2026-04-26T05:03:28.833Z</time></trkpt><trkpt lat="43.78140978982514" lon="7.670639987003803"><ele>36.0</ele><time>2026-04-26T05:03:30.833Z</time></trkpt><trkpt lat="43.78151730836151" lon="7.670451325676324"><ele>36.0</ele><time>2026-04-26T05:03:32.833Z</time></trkpt><trkpt lat="43.781565822852" lon="7.67033151226117"><ele>36.0</ele><time>2026-04-26T05:03:33.833Z</time></trkpt><trkpt lat="43.781603849600664" lon="7.67017230771105"><ele>36.0</ele><time>2026-04-26T05:03:34.833Z</time></trkpt><trkpt lat="43.78166777978777" lon="7.67001468293225"><ele>36.0</ele><time>2026-04-26T05:03:35.833Z</time></trkpt><trkpt lat="43.78174328172381" lon="7.669859985828266"><ele>36.5</ele><time>2026-04-26T05:03:36.833Z</time></trkpt><trkpt lat="43.78185131757294" lon="7.669723214467819"><ele>37.0</ele><time>2026-04-26T05:03:37.833Z</time></trkpt><trkpt lat="43.78193615059788" lon="7.669558111206638"><ele>37.5</ele><time>2026-04-26T05:03:38.833Z</time></trkpt><trkpt lat="43.782040501336134" lon="7.669406907133484"><ele>38.0</ele><time>2026-04-26T05:03:39.833Z</time></trkpt><trkpt lat="43.782092643892" lon="7.669202033644602"><ele>38.0</ele><time>2026-04-26T05:03:40.833Z</time></trkpt><trkpt lat="43.78215862561051" lon="7.669012544639137"><ele>38.0</ele><time>2026-04-26T05:03:41.833Z</time></trkpt><trkpt lat="43.78221578424028" lon="7.6687945289791655"><ele>38.0</ele><time>2026-04-26T05:03:42.833Z</time></trkpt><trkpt lat="43.782289173726525" lon="7.668600158885055"><ele>35.666666666666664</ele><time>2026-04-26T05:03:43.833Z</time></trkpt><trkpt lat="43.78235790460996" lon="7.668395793974123"><ele>33.333333333333336</ele><time>2026-04-26T05:03:44.833Z</time></trkpt><trkpt lat="43.78242008583242" lon="7.6682080450153345"><ele>31.0</ele><time>2026-04-26T05:03:45.833Z</time></trkpt><trkpt lat="43.78247657749729" lon="7.668032323352573"><ele>31.0</ele><time>2026-04-26T05:03:46.832Z</time></trkpt><trkpt lat="43.78252760969124" lon="7.667847877170448"><ele>31.0</ele><time>2026-04-26T05:03:47.832Z</time></trkpt><trkpt lat="43.78259032533197" lon="7.667664359095698"><ele>31.0</ele><time>2026-04-26T05:03:48.832Z</time></trkpt><trkpt lat="43.78265176033139" lon="7.667479303207595"><ele>31.0</ele><time>2026-04-26T05:03:49.832Z</time></trkpt><trkpt lat="43.78272691123959" lon="7.667293151538791"><ele>32.0</ele><time>2026-04-26T05:03:50.832Z</time></trkpt><trkpt lat="43.78278408642943" lon="7.667100074922312"><ele>33.0</ele><time>2026-04-26T05:03:51.832Z</time></trkpt><trkpt lat="43.782845784934224" lon="7.666903737530886"><ele>34.0</ele><time>2026-04-26T05:03:52.832Z</time></trkpt><trkpt lat="43.782907174743" lon="7.6667139357774"><ele>34.0</ele><time>2026-04-26T05:03:53.832Z</time></trkpt><trkpt lat="43.78296704331412" lon="7.666528141168141"><ele>34.0</ele><time>2026-04-26T05:03:54.832Z</time></trkpt><trkpt lat="43.783027138264984" lon="7.666349538348149"><ele>34.0</ele><time>2026-04-26T05:03:55.834Z</time></trkpt><trkpt lat="43.78308666740416" lon="7.666166914945857"><ele>34.0</ele><time>2026-04-26T05:03:56.834Z</time></trkpt><trkpt lat="43.783146769101116" lon="7.665983077944924"><ele>33.0</ele><time>2026-04-26T05:03:57.834Z</time></trkpt><trkpt lat="43.783201078524364" lon="7.665823117926659"><ele>32.0</ele><time>2026-04-26T05:03:58.834Z</time></trkpt><trkpt lat="43.78325444941249" lon="7.665670350942498"><ele>31.0</ele><time>2026-04-26T05:03:59.834Z</time></trkpt><trkpt lat="43.78330929390977" lon="7.6655191393663555"><ele>30.0</ele><time>2026-04-26T05:04:00.834Z</time></trkpt><trkpt lat="43.78335593809856" lon="7.665350904378412"><ele>29.0</ele><time>2026-04-26T05:04:01.834Z</time></trkpt><trkpt lat="43.78341567554463" lon="7.665185539347481"><ele>28.0</ele><time>2026-04-26T05:04:02.834Z</time></trkpt><trkpt lat="43.78347062250396" lon="7.664997749136989"><ele>27.0</ele><time>2026-04-26T05:04:03.834Z</time></trkpt><trkpt lat="43.78351502555303" lon="7.66480920347278"><ele>26.0</ele><time>2026-04-26T05:04:04.834Z</time></trkpt><trkpt lat="43.78354466419861" lon="7.664623468727991"><ele>28.0</ele><time>2026-04-26T05:04:05.834Z</time></trkpt><trkpt lat="43.783587627577106" lon="7.6644186923307105"><ele>30.0</ele><time>2026-04-26T05:04:06.834Z</time></trkpt><trkpt lat="43.78360820356968" lon="7.664224378053898"><ele>32.0</ele><time>2026-04-26T05:04:07.834Z</time></trkpt><trkpt lat="43.78360835901008" lon="7.66405767070211"><ele>34.0</ele><time>2026-04-26T05:04:08.834Z</time></trkpt><trkpt lat="43.78360180462202" lon="7.663880952071834"><ele>34.0</ele><time>2026-04-26T05:04:09.834Z</time></trkpt><trkpt lat="43.783597936187576" lon="7.663694777510131"><ele>34.0</ele><time>2026-04-26T05:04:10.834Z</time></trkpt><trkpt lat="43.78360866617904" lon="7.663530682872827"><ele>34.0</ele><time>2026-04-26T05:04:11.834Z</time></trkpt><trkpt lat="43.78361949237135" lon="7.663347585144292"><ele>34.0</ele><time>2026-04-26T05:04:12.834Z</time></trkpt><trkpt lat="43.78361741766009" lon="7.663153051716562"><ele>33.0</ele><time>2026-04-26T05:04:13.834Z</time></trkpt><trkpt lat="43.78362608334286" lon="7.662936083015426"><ele>32.0</ele><time>2026-04-26T05:04:14.833Z</time></trkpt><trkpt lat="43.783626013983024" lon="7.662703228478281"><ele>31.0</ele><time>2026-04-26T05:04:15.833Z</time></trkpt><trkpt lat="43.78362795167837" lon="7.662485908259993"><ele>29.333333333333336</ele><time>2026-04-26T05:04:16.833Z</time></trkpt><trkpt lat="43.783641748439074" lon="7.662275233348022"><ele>27.666666666666664</ele><time>2026-04-26T05:04:17.833Z</time></trkpt><trkpt lat="43.78368084860837" lon="7.6620715983793986"><ele>26.0</ele><time>2026-04-26T05:04:18.833Z</time></trkpt><trkpt lat="43.783731944989505" lon="7.661881865445821"><ele>24.25</ele><time>2026-04-26T05:04:19.833Z</time></trkpt><trkpt lat="43.78379004189493" lon="7.661710836865472"><ele>22.5</ele><time>2026-04-26T05:04:20.833Z</time></trkpt><trkpt lat="43.783858129573545" lon="7.661535984821819"><ele>20.75</ele><time>2026-04-26T05:04:21.833Z</time></trkpt><trkpt lat="43.783935479117865" lon="7.661365952980765"><ele>19.0</ele><time>2026-04-26T05:04:22.833Z</time></trkpt><trkpt lat="43.784011377172625" lon="7.6611979906748"><ele>18.0</ele><time>2026-04-26T05:04:23.833Z</time></trkpt><trkpt lat="43.78409481425075" lon="7.661030574961992"><ele>17.0</ele><time>2026-04-26T05:04:24.833Z</time></trkpt><trkpt lat="43.784172969385445" lon="7.660864335835861"><ele>16.0</ele><time>2026-04-26T05:04:25.833Z</time></trkpt><trkpt lat="43.78424430619723" lon="7.6607052733135195"><ele>15.0</ele><time>2026-04-26T05:04:26.833Z</time></trkpt><trkpt lat="43.784301308402306" lon="7.66053642986003"><ele>16.75</ele><time>2026-04-26T05:04:27.833Z</time></trkpt><trkpt lat="43.78434882542082" lon="7.660364833970305"><ele>18.5</ele><time>2026-04-26T05:04:28.833Z</time></trkpt><trkpt lat="43.784401413352064" lon="7.660193124601803"><ele>20.25</ele><time>2026-04-26T05:04:29.833Z</time></trkpt><trkpt lat="43.784436680240205" lon="7.659998319495271"><ele>22.0</ele><time>2026-04-26T05:04:30.833Z</time></trkpt><trkpt lat="43.7844540048293" lon="7.659775308571472"><ele>22.0</ele><time>2026-04-26T05:04:31.833Z</time></trkpt><trkpt lat="43.78449487890894" lon="7.659567583223168"><ele>22.0</ele><time>2026-04-26T05:04:32.833Z</time></trkpt><trkpt lat="43.78453293826651" lon="7.659363155484096"><ele>22.0</ele><time>2026-04-26T05:04:33.833Z</time></trkpt><trkpt lat="43.784576771408915" lon="7.659171038615607"><ele>21.25</ele><time>2026-04-26T05:04:34.833Z</time></trkpt><trkpt lat="43.784656805058205" lon="7.658989461296934"><ele>20.5</ele><time>2026-04-26T05:04:35.833Z</time></trkpt><trkpt lat="43.784720749738106" lon="7.658820613021366"><ele>19.75</ele><time>2026-04-26T05:04:36.833Z</time></trkpt><trkpt lat="43.784771326836086" lon="7.658630724693937"><ele>19.0</ele><time>2026-04-26T05:04:37.833Z</time></trkpt><trkpt lat="43.78483762537887" lon="7.658465730926111"><ele>18.5</ele><time>2026-04-26T05:04:38.833Z</time></trkpt><trkpt lat="43.784896997237304" lon="7.658288218031332"><ele>18.0</ele><time>2026-04-26T05:04:39.833Z</time></trkpt><trkpt lat="43.78496184781601" lon="7.658107167999804"><ele>17.5</ele><time>2026-04-26T05:04:40.833Z</time></trkpt><trkpt lat="43.7850232845564" lon="7.657920120370025"><ele>17.0</ele><time>2026-04-26T05:04:41.833Z</time></trkpt><trkpt lat="43.78509381040562" lon="7.6577243014251035"><ele>16.5</ele><time>2026-04-26T05:04:42.833Z</time></trkpt><trkpt lat="43.785166278122844" lon="7.6575553776241865"><ele>16.0</ele><time>2026-04-26T05:04:43.833Z</time></trkpt><trkpt lat="43.78521448235881" lon="7.657392280966652"><ele>15.5</ele><time>2026-04-26T05:04:44.833Z</time></trkpt><trkpt lat="43.7852597897331" lon="7.657233331551293"><ele>15.0</ele><time>2026-04-26T05:04:45.833Z</time></trkpt><trkpt lat="43.785333534103145" lon="7.657101269203243"><ele>15.0</ele><time>2026-04-26T05:04:46.833Z</time></trkpt><trkpt lat="43.785376669186896" lon="7.6569685471622"><ele>15.0</ele><time>2026-04-26T05:04:47.832Z</time></trkpt><trkpt lat="43.78541839476451" lon="7.656859652236121"><ele>15.0</ele><time>2026-04-26T05:04:48.832Z</time></trkpt><trkpt lat="43.78546796550427" lon="7.6567712260718706"><ele>15.0</ele><time>2026-04-26T05:04:49.832Z</time></trkpt><trkpt lat="43.785515907574556" lon="7.656698198990402"><ele>15.0</ele><time>2026-04-26T05:04:50.832Z</time></trkpt><trkpt lat="43.78556624053209" lon="7.656629714851214"><ele>15.0</ele><time>2026-04-26T05:04:51.832Z</time></trkpt><trkpt lat="43.785657024473444" lon="7.656611997644823"><ele>15.0</ele><time>2026-04-26T05:04:52.832Z</time></trkpt><trkpt lat="43.785747674118795" lon="7.656559079821425"><ele>15.0</ele><time>2026-04-26T05:04:53.832Z</time></trkpt><trkpt lat="43.785860768931116" lon="7.656512594265123"><ele>15.0</ele><time>2026-04-26T05:04:54.832Z</time></trkpt><trkpt lat="43.7859865035135" lon="7.656472072830665"><ele>15.0</ele><time>2026-04-26T05:04:55.832Z</time></trkpt><trkpt lat="43.78612198656454" lon="7.656438866523048"><ele>15.0</ele><time>2026-04-26T05:04:56.832Z</time></trkpt><trkpt lat="43.78623968534604" lon="7.656417168643396"><ele>15.0</ele><time>2026-04-26T05:04:57.832Z</time></trkpt><trkpt lat="43.78634426379733" lon="7.656399778115881"><ele>15.0</ele><time>2026-04-26T05:04:58.832Z</time></trkpt><trkpt lat="43.78644322091162" lon="7.6563960268390225"><ele>15.0</ele><time>2026-04-26T05:04:59.832Z</time></trkpt><trkpt lat="43.78651770780335" lon="7.656256199931928"><ele>15.0</ele><time>2026-04-26T05:05:00.832Z</time></trkpt><trkpt lat="43.78659085178259" lon="7.656131524780322"><ele>15.75</ele><time>2026-04-26T05:05:01.832Z</time></trkpt><trkpt lat="43.78665071681453" lon="7.6559826970822655"><ele>16.5</ele><time>2026-04-26T05:05:02.832Z</time></trkpt><trkpt lat="43.78671048425468" lon="7.655814490627164"><ele>17.25</ele><time>2026-04-26T05:05:03.832Z</time></trkpt><trkpt lat="43.78676480922908" lon="7.655656554225945"><ele>18.0</ele><time>2026-04-26T05:05:04.832Z</time></trkpt><trkpt lat="43.78682472461576" lon="7.655498132289219"><ele>19.2</ele><time>2026-04-26T05:05:05.832Z</time></trkpt><trkpt lat="43.78689172187006" lon="7.655366852614847"><ele>20.4</ele><time>2026-04-26T05:05:06.832Z</time></trkpt><trkpt lat="43.78697686925939" lon="7.6552729295351"><ele>21.599999999999998</ele><time>2026-04-26T05:05:07.832Z</time></trkpt><trkpt lat="43.78705113831986" lon="7.655161577770869"><ele>22.8</ele><time>2026-04-26T05:05:08.832Z</time></trkpt><trkpt lat="43.78710257094916" lon="7.65503058156259"><ele>24.0</ele><time>2026-04-26T05:05:09.832Z</time></trkpt><trkpt lat="43.787130150778914" lon="7.654862682968864"><ele>26.5</ele><time>2026-04-26T05:05:10.832Z</time></trkpt><trkpt lat="43.787160073112034" lon="7.654690568527929"><ele>29.0</ele><time>2026-04-26T05:05:11.832Z</time></trkpt><trkpt lat="43.787178877709714" lon="7.654490397000655"><ele>31.5</ele><time>2026-04-26T05:05:12.832Z</time></trkpt><trkpt lat="43.78718418811297" lon="7.654286621736745"><ele>34.0</ele><time>2026-04-26T05:05:13.832Z</time></trkpt><trkpt lat="43.7872086192248" lon="7.654090525829463"><ele>34.0</ele><time>2026-04-26T05:05:14.832Z</time></trkpt><trkpt lat="43.78723767044648" lon="7.653892369096198"><ele>34.0</ele><time>2026-04-26T05:05:15.832Z</time></trkpt><trkpt lat="43.7872752239167" lon="7.653714349234139"><ele>34.0</ele><time>2026-04-26T05:05:16.832Z</time></trkpt><trkpt lat="43.787340495763104" lon="7.653534770519919"><ele>34.0</ele><time>2026-04-26T05:05:17.832Z</time></trkpt><trkpt lat="43.787408125857304" lon="7.653357374386995"><ele>33.0</ele><time>2026-04-26T05:05:18.832Z</time></trkpt><trkpt lat="43.78746800519594" lon="7.653196822109448"><ele>32.0</ele><time>2026-04-26T05:05:19.832Z</time></trkpt><trkpt lat="43.787524414909626" lon="7.6530530723970625"><ele>31.0</ele><time>2026-04-26T05:05:20.831Z</time></trkpt><trkpt lat="43.78757244812118" lon="7.652940331289665"><ele>30.0</ele><time>2026-04-26T05:05:21.831Z</time></trkpt><trkpt lat="43.787635157627925" lon="7.652839564491086"><ele>29.0</ele><time>2026-04-26T05:05:23.831Z</time></trkpt><trkpt lat="43.78764038970207" lon="7.652736999439758"><ele>28.2</ele><time>2026-04-26T05:05:41.831Z</time></trkpt><trkpt lat="43.78767606162868" lon="7.652605331528143"><ele>27.4</ele><time>2026-04-26T05:05:43.831Z</time></trkpt><trkpt lat="43.78771402655354" lon="7.652520011945905"><ele>26.6</ele><time>2026-04-26T05:05:44.831Z</time></trkpt><trkpt lat="43.78777482369455" lon="7.65243070080176"><ele>25.8</ele><time>2026-04-26T05:05:45.831Z</time></trkpt><trkpt lat="43.78780587450056" lon="7.652290965924943"><ele>25.0</ele><time>2026-04-26T05:05:46.831Z</time></trkpt><trkpt lat="43.78788253626471" lon="7.652161658427584"><ele>27.75</ele><time>2026-04-26T05:05:47.831Z</time></trkpt><trkpt lat="43.787927454485825" lon="7.652010993191258"><ele>30.5</ele><time>2026-04-26T05:05:48.831Z</time></trkpt><trkpt lat="43.78798566699453" lon="7.651854852170436"><ele>33.25</ele><time>2026-04-26T05:05:49.831Z</time></trkpt><trkpt lat="43.78804409369377" lon="7.651708183148623"><ele>36.0</ele><time>2026-04-26T05:05:50.831Z</time></trkpt><trkpt lat="43.78808751449596" lon="7.651548416026742"><ele>36.0</ele><time>2026-04-26T05:05:51.831Z</time></trkpt><trkpt lat="43.788119373705854" lon="7.651395609307361"><ele>36.0</ele><time>2026-04-26T05:05:52.831Z</time></trkpt><trkpt lat="43.788132831398016" lon="7.65123133016034"><ele>36.0</ele><time>2026-04-26T05:05:53.83Z</time></trkpt><trkpt lat="43.788137375501925" lon="7.651070570572571"><ele>36.0</ele><time>2026-04-26T05:05:54.83Z</time></trkpt><trkpt lat="43.78812873182604" lon="7.650894593219713"><ele>34.25</ele><time>2026-04-26T05:05:55.83Z</time></trkpt><trkpt lat="43.788123571640824" lon="7.650718515961253"><ele>32.5</ele><time>2026-04-26T05:05:56.83Z</time></trkpt><trkpt lat="43.788131334431384" lon="7.65054533018985"><ele>30.75</ele><time>2026-04-26T05:05:57.83Z</time></trkpt><trkpt lat="43.788157676048534" lon="7.650363387467938"><ele>29.0</ele><time>2026-04-26T05:05:58.83Z</time></trkpt><trkpt lat="43.78819022811503" lon="7.650190592839459"><ele>28.5</ele><time>2026-04-26T05:05:59.83Z</time></trkpt><trkpt lat="43.788246270269454" lon="7.650021334357026"><ele>28.0</ele><time>2026-04-26T05:06:00.83Z</time></trkpt><trkpt lat="43.788319035096016" lon="7.649860060670156"><ele>27.5</ele><time>2026-04-26T05:06:01.832Z</time></trkpt><trkpt lat="43.78838194242643" lon="7.649691141295624"><ele>27.0</ele><time>2026-04-26T05:06:02.833Z</time></trkpt><trkpt lat="43.78843774853073" lon="7.6495172739256345"><ele>26.0</ele><time>2026-04-26T05:06:03.833Z</time></trkpt><trkpt lat="43.788484915115006" lon="7.649335147039704"><ele>25.0</ele><time>2026-04-26T05:06:04.832Z</time></trkpt><trkpt lat="43.78853753004164" lon="7.6491680293600774"><ele>24.0</ele><time>2026-04-26T05:06:05.833Z</time></trkpt><trkpt lat="43.78858002525116" lon="7.648999809464326"><ele>23.0</ele><time>2026-04-26T05:06:06.833Z</time></trkpt><trkpt lat="43.78862914666025" lon="7.648814857458487"><ele>26.0</ele><time>2026-04-26T05:06:07.833Z</time></trkpt><trkpt lat="43.788684316340834" lon="7.648628287147691"><ele>29.0</ele><time>2026-04-26T05:06:08.833Z</time></trkpt><trkpt lat="43.78874721548158" lon="7.6484396395658845"><ele>32.0</ele><time>2026-04-26T05:06:09.833Z</time></trkpt><trkpt lat="43.78881901471232" lon="7.64825401406766"><ele>35.0</ele><time>2026-04-26T05:06:10.833Z</time></trkpt><trkpt lat="43.78889045910327" lon="7.648055121088443"><ele>35.0</ele><time>2026-04-26T05:06:11.833Z</time></trkpt><trkpt lat="43.78894853980384" lon="7.647865012022591"><ele>35.0</ele><time>2026-04-26T05:06:12.833Z</time></trkpt><trkpt lat="43.78901247004005" lon="7.6476900630668"><ele>35.0</ele><time>2026-04-26T05:06:13.833Z</time></trkpt><trkpt lat="43.78906194567822" lon="7.64749542543605"><ele>35.0</ele><time>2026-04-26T05:06:14.832Z</time></trkpt><trkpt lat="43.789108264874415" lon="7.647301244097487"><ele>33.5</ele><time>2026-04-26T05:06:15.832Z</time></trkpt><trkpt lat="43.789150159571044" lon="7.647123907697734"><ele>32.0</ele><time>2026-04-26T05:06:16.832Z</time></trkpt><trkpt lat="43.78917987913849" lon="7.646935339603958"><ele>30.5</ele><time>2026-04-26T05:06:17.832Z</time></trkpt><trkpt lat="43.789197393020146" lon="7.646775477511347"><ele>29.0</ele><time>2026-04-26T05:06:18.832Z</time></trkpt><trkpt lat="43.78921845257872" lon="7.646643063127635"><ele>27.6</ele><time>2026-04-26T05:06:19.832Z</time></trkpt><trkpt lat="43.78923355527482" lon="7.646506589405977"><ele>26.2</ele><time>2026-04-26T05:06:20.832Z</time></trkpt><trkpt lat="43.78925236445301" lon="7.646359086756256"><ele>24.8</ele><time>2026-04-26T05:06:21.832Z</time></trkpt><trkpt lat="43.78926933478385" lon="7.646196114516798"><ele>23.400000000000002</ele><time>2026-04-26T05:06:22.832Z</time></trkpt><trkpt lat="43.789273437961086" lon="7.646048408542752"><ele>22.0</ele><time>2026-04-26T05:06:23.831Z</time></trkpt><trkpt lat="43.789277597517135" lon="7.645899654513657"><ele>21.75</ele><time>2026-04-26T05:06:24.831Z</time></trkpt><trkpt lat="43.78928894901325" lon="7.645737166031073"><ele>21.5</ele><time>2026-04-26T05:06:25.831Z</time></trkpt><trkpt lat="43.78932419000285" lon="7.645567796037536"><ele>21.25</ele><time>2026-04-26T05:06:26.831Z</time></trkpt><trkpt lat="43.78936460413397" lon="7.6453951994243985"><ele>21.0</ele><time>2026-04-26T05:06:27.831Z</time></trkpt><trkpt lat="43.789417951067406" lon="7.645229863083952"><ele>19.6</ele><time>2026-04-26T05:06:28.831Z</time></trkpt><trkpt lat="43.78947706871111" lon="7.645077327487531"><ele>18.200000000000003</ele><time>2026-04-26T05:06:29.831Z</time></trkpt><trkpt lat="43.7895296630264" lon="7.644955544531961"><ele>16.799999999999997</ele><time>2026-04-26T05:06:30.831Z</time></trkpt><trkpt lat="43.78958852189905" lon="7.644845253882467"><ele>15.399999999999999</ele><time>2026-04-26T05:06:31.831Z</time></trkpt><trkpt lat="43.789631566770595" lon="7.644753365716393"><ele>14.0</ele><time>2026-04-26T05:06:32.831Z</time></trkpt><trkpt lat="43.78966036884801" lon="7.644644992115593"><ele>14.0</ele><time>2026-04-26T05:06:33.831Z</time></trkpt><trkpt lat="43.78965092379388" lon="7.644504827051652"><ele>14.0</ele><time>2026-04-26T05:06:34.831Z</time></trkpt><trkpt lat="43.78965557779073" lon="7.644332572096949"><ele>14.0</ele><time>2026-04-26T05:06:35.831Z</time></trkpt><trkpt lat="43.78966043859499" lon="7.644141299414592"><ele>14.0</ele><time>2026-04-26T05:06:36.831Z</time></trkpt><trkpt lat="43.78967636567797" lon="7.643961793443522"><ele>14.25</ele><time>2026-04-26T05:06:37.831Z</time></trkpt><trkpt lat="43.789682968238466" lon="7.643782815136671"><ele>14.5</ele><time>2026-04-26T05:06:38.831Z</time></trkpt><trkpt lat="43.78969287995743" lon="7.64360388082384"><ele>14.75</ele><time>2026-04-26T05:06:39.831Z</time></trkpt><trkpt lat="43.7897090446753" lon="7.643424309622195"><ele>15.0</ele><time>2026-04-26T05:06:40.831Z</time></trkpt><trkpt lat="43.78972631756858" lon="7.643264222913218"><ele>14.833333333333334</ele><time>2026-04-26T05:06:41.831Z</time></trkpt><trkpt lat="43.78973086964185" lon="7.64313533806984"><ele>14.666666666666668</ele><time>2026-04-26T05:06:42.831Z</time></trkpt><trkpt lat="43.78973180018982" lon="7.643019359421351"><ele>14.5</ele><time>2026-04-26T05:06:43.831Z</time></trkpt><trkpt lat="43.789730605345014" lon="7.64290120002985"><ele>14.333333333333334</ele><time>2026-04-26T05:06:44.831Z</time></trkpt><trkpt lat="43.789756570886375" lon="7.642803594289976"><ele>14.166666666666668</ele><time>2026-04-26T05:06:45.831Z</time></trkpt><trkpt lat="43.78980557931227" lon="7.642726524625709"><ele>14.0</ele><time>2026-04-26T05:06:46.831Z</time></trkpt><trkpt lat="43.789824793080115" lon="7.6426331156484135"><ele>14.0</ele><time>2026-04-26T05:06:47.831Z</time></trkpt><trkpt lat="43.789811878927445" lon="7.642536819420357"><ele>13.999999999999998</ele><time>2026-04-26T05:06:48.831Z</time></trkpt><trkpt lat="43.78977920046015" lon="7.642443382840758"><ele>13.999999999999998</ele><time>2026-04-26T05:06:49.831Z</time></trkpt><trkpt lat="43.789739366978935" lon="7.642313583289505"><ele>14.0</ele><time>2026-04-26T05:06:50.831Z</time></trkpt><trkpt lat="43.789712968668965" lon="7.642131566111413"><ele>14.0</ele><time>2026-04-26T05:06:51.831Z</time></trkpt><trkpt lat="43.78969612009246" lon="7.641934242899246"><ele>14.0</ele><time>2026-04-26T05:06:52.831Z</time></trkpt><trkpt lat="43.7896850537063" lon="7.641735678107656"><ele>14.0</ele><time>2026-04-26T05:06:53.831Z</time></trkpt><trkpt lat="43.789664409191026" lon="7.6415265794174685"><ele>14.0</ele><time>2026-04-26T05:06:54.831Z</time></trkpt><trkpt lat="43.7896556109497" lon="7.64132783085964"><ele>14.0</ele><time>2026-04-26T05:06:55.831Z</time></trkpt><trkpt lat="43.789670365725605" lon="7.641134048965365"><ele>14.25</ele><time>2026-04-26T05:06:56.83Z</time></trkpt><trkpt lat="43.78967183150343" lon="7.640939926793308"><ele>14.5</ele><time>2026-04-26T05:06:57.83Z</time></trkpt><trkpt lat="43.78967485746476" lon="7.640733684492327"><ele>14.75</ele><time>2026-04-26T05:06:58.83Z</time></trkpt><trkpt lat="43.789673614984636" lon="7.640539391083312"><ele>15.0</ele><time>2026-04-26T05:06:59.83Z</time></trkpt><trkpt lat="43.78968366884323" lon="7.640347171907637"><ele>15.666666666666668</ele><time>2026-04-26T05:07:00.83Z</time></trkpt><trkpt lat="43.789693665901645" lon="7.640135701595607"><ele>16.333333333333336</ele><time>2026-04-26T05:07:01.83Z</time></trkpt><trkpt lat="43.7897352907318" lon="7.639933981415606"><ele>17.0</ele><time>2026-04-26T05:07:02.83Z</time></trkpt><trkpt lat="43.7897827055549" lon="7.639729199080705"><ele>16.0</ele><time>2026-04-26T05:07:03.83Z</time></trkpt><trkpt lat="43.78985257852265" lon="7.639304455163708"><ele>15.0</ele><time>2026-04-26T05:07:05.83Z</time></trkpt><trkpt lat="43.78988622372957" lon="7.639088217218077"><ele>15.0</ele><time>2026-04-26T05:07:06.83Z</time></trkpt><trkpt lat="43.78991511570807" lon="7.638906775110468"><ele>15.0</ele><time>2026-04-26T05:07:07.83Z</time></trkpt><trkpt lat="43.78993473770663" lon="7.638724483454905"><ele>15.0</ele><time>2026-04-26T05:07:08.83Z</time></trkpt><trkpt lat="43.78995959210772" lon="7.638544804355827"><ele>15.0</ele><time>2026-04-26T05:07:09.83Z</time></trkpt><trkpt lat="43.78997995605439" lon="7.638379972703763"><ele>14.75</ele><time>2026-04-26T05:07:10.83Z</time></trkpt><trkpt lat="43.79001113993479" lon="7.638208163053959"><ele>14.5</ele><time>2026-04-26T05:07:11.83Z</time></trkpt><trkpt lat="43.79003008703404" lon="7.638021915887226"><ele>14.25</ele><time>2026-04-26T05:07:12.83Z</time></trkpt><trkpt lat="43.79005103862696" lon="7.637859549755939"><ele>14.0</ele><time>2026-04-26T05:07:13.83Z</time></trkpt><trkpt lat="43.79007757389292" lon="7.637715692193897"><ele>13.75</ele><time>2026-04-26T05:07:14.83Z</time></trkpt><trkpt lat="43.79011900781274" lon="7.637562005781543"><ele>13.5</ele><time>2026-04-26T05:07:15.83Z</time></trkpt><trkpt lat="43.79016508945045" lon="7.637414530052862"><ele>13.25</ele><time>2026-04-26T05:07:16.83Z</time></trkpt><trkpt lat="43.79020776178456" lon="7.63728482149278"><ele>13.0</ele><time>2026-04-26T05:07:17.83Z</time></trkpt><trkpt lat="43.79026057050391" lon="7.6371395886337305"><ele>12.75</ele><time>2026-04-26T05:07:18.83Z</time></trkpt><trkpt lat="43.79031362046986" lon="7.636984404479455"><ele>12.5</ele><time>2026-04-26T05:07:19.83Z</time></trkpt><trkpt lat="43.79036782496419" lon="7.636829560470114"><ele>12.25</ele><time>2026-04-26T05:07:20.83Z</time></trkpt><trkpt lat="43.79042251401464" lon="7.636683564256928"><ele>12.0</ele><time>2026-04-26T05:07:21.83Z</time></trkpt><trkpt lat="43.790465131294106" lon="7.636522252587888"><ele>12.0</ele><time>2026-04-26T05:07:22.83Z</time></trkpt><trkpt lat="43.79046801133892" lon="7.636370799247382"><ele>12.0</ele><time>2026-04-26T05:07:23.83Z</time></trkpt><trkpt lat="43.79042655775435" lon="7.636201408276565"><ele>12.0</ele><time>2026-04-26T05:07:24.83Z</time></trkpt><trkpt lat="43.790386944706924" lon="7.6360523990197064"><ele>12.0</ele><time>2026-04-26T05:07:25.83Z</time></trkpt><trkpt lat="43.7903735709507" lon="7.635932829626048"><ele>12.0</ele><time>2026-04-26T05:07:26.83Z</time></trkpt><trkpt lat="43.79036198614426" lon="7.635844719371085"><ele>11.0</ele><time>2026-04-26T05:07:27.83Z</time></trkpt><trkpt lat="43.79034983677776" lon="7.635757866612992"><ele>10.0</ele><time>2026-04-26T05:07:28.83Z</time></trkpt><trkpt lat="43.790340742124926" lon="7.635592914083261"><ele>9.0</ele><time>2026-04-26T05:07:29.829Z</time></trkpt><trkpt lat="43.79039351559042" lon="7.63539795120658"><ele>8.0</ele><time>2026-04-26T05:07:30.829Z</time></trkpt><trkpt lat="43.79042673106952" lon="7.635233672274982"><ele>8.0</ele><time>2026-04-26T05:07:31.829Z</time></trkpt><trkpt lat="43.790448388756" lon="7.635066646159866"><ele>8.0</ele><time>2026-04-26T05:07:32.829Z</time></trkpt><trkpt lat="43.79050441525974" lon="7.6349204920556515"><ele>8.0</ele><time>2026-04-26T05:07:33.829Z</time></trkpt><trkpt lat="43.7905872602347" lon="7.6348018649999085"><ele>8.0</ele><time>2026-04-26T05:07:34.829Z</time></trkpt><trkpt lat="43.7906402777041" lon="7.6346808253814995"><ele>7.999999999999999</ele><time>2026-04-26T05:07:35.829Z</time></trkpt><trkpt lat="43.7906455020234" lon="7.634541472824015"><ele>8.0</ele><time>2026-04-26T05:07:36.829Z</time></trkpt><trkpt lat="43.790673769360254" lon="7.634426364323099"><ele>8.0</ele><time>2026-04-26T05:07:37.829Z</time></trkpt><trkpt lat="43.79070817036196" lon="7.63435021628657"><ele>8.0</ele><time>2026-04-26T05:07:38.829Z</time></trkpt><trkpt lat="43.79077935804035" lon="7.634311235683776"><ele>7.999999999999999</ele><time>2026-04-26T05:07:39.829Z</time></trkpt><trkpt lat="43.790887131329534" lon="7.63426830194914"><ele>8.0</ele><time>2026-04-26T05:07:40.829Z</time></trkpt><trkpt lat="43.791005565099226" lon="7.6342441245454715"><ele>7.25</ele><time>2026-04-26T05:07:41.829Z</time></trkpt><trkpt lat="43.79113729340702" lon="7.634242624558463"><ele>6.5</ele><time>2026-04-26T05:07:42.829Z</time></trkpt><trkpt lat="43.79127573263868" lon="7.634234068610243"><ele>5.75</ele><time>2026-04-26T05:07:43.829Z</time></trkpt><trkpt lat="43.79142516515434" lon="7.634214517738678"><ele>5.0</ele><time>2026-04-26T05:07:44.829Z</time></trkpt><trkpt lat="43.79158559731883" lon="7.634197559038331"><ele>5.0</ele><time>2026-04-26T05:07:45.829Z</time></trkpt><trkpt lat="43.79175376836879" lon="7.634190889637876"><ele>5.0</ele><time>2026-04-26T05:07:46.829Z</time></trkpt><trkpt lat="43.79191425933855" lon="7.634177418269002"><ele>5.0</ele><time>2026-04-26T05:07:47.829Z</time></trkpt><trkpt lat="43.79207638348472" lon="7.634174631630204"><ele>5.333333333333334</ele><time>2026-04-26T05:07:48.829Z</time></trkpt><trkpt lat="43.792241836676354" lon="7.634178459423184"><ele>5.666666666666667</ele><time>2026-04-26T05:07:49.829Z</time></trkpt><trkpt lat="43.792409857006206" lon="7.63417350120559"><ele>6.0</ele><time>2026-04-26T05:07:50.829Z</time></trkpt><trkpt lat="43.79257802884949" lon="7.634175018124125"><ele>6.666666666666666</ele><time>2026-04-26T05:07:51.829Z</time></trkpt><trkpt lat="43.79274579153742" lon="7.634182196357927"><ele>7.333333333333333</ele><time>2026-04-26T05:07:52.829Z</time></trkpt><trkpt lat="43.792908581901976" lon="7.634213317990774"><ele>8.0</ele><time>2026-04-26T05:07:53.829Z</time></trkpt><trkpt lat="43.79306496701931" lon="7.634199190242465"><ele>8.0</ele><time>2026-04-26T05:07:54.829Z</time></trkpt><trkpt lat="43.79322610107451" lon="7.634206261868634"><ele>8.0</ele><time>2026-04-26T05:07:55.829Z</time></trkpt><trkpt lat="43.79337483488149" lon="7.634193902037509"><ele>8.0</ele><time>2026-04-26T05:07:56.829Z</time></trkpt><trkpt lat="43.79352208930097" lon="7.634187417758914"><ele>8.25</ele><time>2026-04-26T05:07:57.829Z</time></trkpt><trkpt lat="43.793657053921685" lon="7.634138656233107"><ele>8.5</ele><time>2026-04-26T05:07:58.829Z</time></trkpt><trkpt lat="43.79378950734294" lon="7.634064036765473"><ele>8.75</ele><time>2026-04-26T05:07:59.829Z</time></trkpt><trkpt lat="43.79391777770161" lon="7.633969113757411"><ele>9.0</ele><time>2026-04-26T05:08:00.829Z</time></trkpt><trkpt lat="43.79404568414691" lon="7.633857682501539"><ele>9.0</ele><time>2026-04-26T05:08:01.828Z</time></trkpt><trkpt lat="43.794174055796354" lon="7.633727985265417"><ele>9.0</ele><time>2026-04-26T05:08:02.828Z</time></trkpt><trkpt lat="43.79430632870553" lon="7.6335982677898855"><ele>9.0</ele><time>2026-04-26T05:08:03.828Z</time></trkpt><trkpt lat="43.79443704111982" lon="7.633467611518009"><ele>9.0</ele><time>2026-04-26T05:08:04.828Z</time></trkpt><trkpt lat="43.794564947855584" lon="7.633330433530153"><ele>9.0</ele><time>2026-04-26T05:08:05.828Z</time></trkpt><trkpt lat="43.79469003473016" lon="7.633186090146447"><ele>9.0</ele><time>2026-04-26T05:08:06.828Z</time></trkpt><trkpt lat="43.79482453375369" lon="7.633066496476353"><ele>9.0</ele><time>2026-04-26T05:08:07.831Z</time></trkpt><trkpt lat="43.79496158865667" lon="7.632980022813831"><ele>9.0</ele><time>2026-04-26T05:08:08.83Z</time></trkpt><trkpt lat="43.79510405329016" lon="7.632927321597223"><ele>9.0</ele><time>2026-04-26T05:08:09.83Z</time></trkpt><trkpt lat="43.79524613107551" lon="7.6328747364196365"><ele>9.0</ele><time>2026-04-26T05:08:10.831Z</time></trkpt><trkpt lat="43.79537531697276" lon="7.63279997484027"><ele>9.0</ele><time>2026-04-26T05:08:11.831Z</time></trkpt><trkpt lat="43.79550180556062" lon="7.632698827402207"><ele>9.0</ele><time>2026-04-26T05:08:12.831Z</time></trkpt><trkpt lat="43.79562664871169" lon="7.632579406880113"><ele>9.0</ele><time>2026-04-26T05:08:13.831Z</time></trkpt><trkpt lat="43.79576482974174" lon="7.632476118821978"><ele>9.0</ele><time>2026-04-26T05:08:14.831Z</time></trkpt><trkpt lat="43.79588651853998" lon="7.632343211039248"><ele>9.0</ele><time>2026-04-26T05:08:15.831Z</time></trkpt><trkpt lat="43.79600745896893" lon="7.632211120893289"><ele>9.0</ele><time>2026-04-26T05:08:16.831Z</time></trkpt><trkpt lat="43.79612784583667" lon="7.6320595276159375"><ele>8.666666666666666</ele><time>2026-04-26T05:08:17.83Z</time></trkpt><trkpt lat="43.79625389375513" lon="7.6319285309597475"><ele>8.333333333333332</ele><time>2026-04-26T05:08:18.83Z</time></trkpt><trkpt lat="43.7963779750527" lon="7.631796714055135"><ele>8.0</ele><time>2026-04-26T05:08:19.831Z</time></trkpt><trkpt lat="43.796502999327245" lon="7.631656042247546"><ele>8.0</ele><time>2026-04-26T05:08:20.831Z</time></trkpt><trkpt lat="43.79661586552876" lon="7.631500070204533"><ele>8.0</ele><time>2026-04-26T05:08:21.831Z</time></trkpt><trkpt lat="43.79671938696114" lon="7.6313405961620076"><ele>8.0</ele><time>2026-04-26T05:08:22.831Z</time></trkpt><trkpt lat="43.79681883465857" lon="7.631181365787019"><ele>8.333333333333332</ele><time>2026-04-26T05:08:23.83Z</time></trkpt><trkpt lat="43.79692678089274" lon="7.63104162188751"><ele>8.666666666666666</ele><time>2026-04-26T05:08:24.83Z</time></trkpt><trkpt lat="43.797054692744695" lon="7.630931835790891"><ele>9.0</ele><time>2026-04-26T05:08:25.83Z</time></trkpt><trkpt lat="43.79720061816189" lon="7.630843387437872"><ele>9.0</ele><time>2026-04-26T05:08:26.83Z</time></trkpt><trkpt lat="43.79734501854679" lon="7.6307585490928815"><ele>9.0</ele><time>2026-04-26T05:08:27.83Z</time></trkpt><trkpt lat="43.7974893189065" lon="7.63068537405896"><ele>9.0</ele><time>2026-04-26T05:08:28.83Z</time></trkpt><trkpt lat="43.79763461795434" lon="7.630612953085936"><ele>9.25</ele><time>2026-04-26T05:08:29.83Z</time></trkpt><trkpt lat="43.797775822112044" lon="7.630546019818243"><ele>9.5</ele><time>2026-04-26T05:08:30.83Z</time></trkpt><trkpt lat="43.797907892717625" lon="7.630486888168769"><ele>9.75</ele><time>2026-04-26T05:08:31.83Z</time></trkpt><trkpt lat="43.79803796507006" lon="7.630418990230503"><ele>10.0</ele><time>2026-04-26T05:08:32.83Z</time></trkpt><trkpt lat="43.798158006172706" lon="7.6303445562281516"><ele>10.2</ele><time>2026-04-26T05:08:33.83Z</time></trkpt><trkpt lat="43.798271242743915" lon="7.630266020197134"><ele>10.4</ele><time>2026-04-26T05:08:34.83Z</time></trkpt><trkpt lat="43.79837121668693" lon="7.630197708731353"><ele>10.600000000000001</ele><time>2026-04-26T05:08:35.83Z</time></trkpt><trkpt lat="43.79845208825796" lon="7.6301319203949"><ele>10.8</ele><time>2026-04-26T05:08:36.83Z</time></trkpt><trkpt lat="43.798526963866294" lon="7.630060004809879"><ele>11.0</ele><time>2026-04-26T05:08:37.83Z</time></trkpt><trkpt lat="43.79861007544299" lon="7.62998421978545"><ele>11.0</ele><time>2026-04-26T05:08:38.83Z</time></trkpt><trkpt lat="43.7986966885415" lon="7.629909387781737"><ele>11.0</ele><time>2026-04-26T05:08:39.83Z</time></trkpt><trkpt lat="43.79879542400342" lon="7.629825459943733"><ele>11.0</ele><time>2026-04-26T05:08:40.83Z</time></trkpt><trkpt lat="43.79889731381718" lon="7.62974298895884"><ele>11.0</ele><time>2026-04-26T05:08:41.83Z</time></trkpt><trkpt lat="43.79900166188903" lon="7.629658132650999"><ele>11.0</ele><time>2026-04-26T05:08:42.83Z</time></trkpt><trkpt lat="43.79911868919156" lon="7.6295643938814015"><ele>11.0</ele><time>2026-04-26T05:08:43.83Z</time></trkpt><trkpt lat="43.79923761844753" lon="7.629467711895119"><ele>11.0</ele><time>2026-04-26T05:08:44.83Z</time></trkpt><trkpt lat="43.799358098555224" lon="7.629364768358826"><ele>11.0</ele><time>2026-04-26T05:08:45.83Z</time></trkpt><trkpt lat="43.79947176635306" lon="7.629264930855569"><ele>11.0</ele><time>2026-04-26T05:08:46.83Z</time></trkpt><trkpt lat="43.79958323463734" lon="7.629167311256981"><ele>11.0</ele><time>2026-04-26T05:08:47.83Z</time></trkpt><trkpt lat="43.79969573482007" lon="7.629070910096456"><ele>11.0</ele><time>2026-04-26T05:08:48.83Z</time></trkpt><trkpt lat="43.79980235937457" lon="7.628993740668847"><ele>11.0</ele><time>2026-04-26T05:08:49.83Z</time></trkpt><trkpt lat="43.79991359084069" lon="7.628927679954702"><ele>11.0</ele><time>2026-04-26T05:08:50.83Z</time></trkpt><trkpt lat="43.80002866307007" lon="7.6288752015893495"><ele>11.0</ele><time>2026-04-26T05:08:51.83Z</time></trkpt><trkpt lat="43.80015451113886" lon="7.628869114390763"><ele>11.0</ele><time>2026-04-26T05:08:52.83Z</time></trkpt><trkpt lat="43.80027216327126" lon="7.628842505067203"><ele>11.0</ele><time>2026-04-26T05:08:53.83Z</time></trkpt><trkpt lat="43.80039083982638" lon="7.62879351140527"><ele>11.75</ele><time>2026-04-26T05:08:54.83Z</time></trkpt><trkpt lat="43.80052295437766" lon="7.628765505231084"><ele>12.5</ele><time>2026-04-26T05:08:55.83Z</time></trkpt><trkpt lat="43.80064497702246" lon="7.628735926311905"><ele>13.25</ele><time>2026-04-26T05:08:56.829Z</time></trkpt><trkpt lat="43.80076945729658" lon="7.628705719771502"><ele>14.0</ele><time>2026-04-26T05:08:57.829Z</time></trkpt><trkpt lat="43.80089629528494" lon="7.628705498578246"><ele>14.0</ele><time>2026-04-26T05:08:58.829Z</time></trkpt><trkpt lat="43.801029821986106" lon="7.628687449862185"><ele>14.0</ele><time>2026-04-26T05:08:59.829Z</time></trkpt><trkpt lat="43.80116417549688" lon="7.628669567454244"><ele>14.0</ele><time>2026-04-26T05:09:00.829Z</time></trkpt><trkpt lat="43.8012915278583" lon="7.628652183761553"><ele>14.0</ele><time>2026-04-26T05:09:01.829Z</time></trkpt><trkpt lat="43.8014302978016" lon="7.6286332416167975"><ele>14.25</ele><time>2026-04-26T05:09:02.829Z</time></trkpt><trkpt lat="43.80156554763671" lon="7.628607795056403"><ele>14.5</ele><time>2026-04-26T05:09:03.829Z</time></trkpt><trkpt lat="43.80169407876864" lon="7.6285851372798446"><ele>14.75</ele><time>2026-04-26T05:09:04.829Z</time></trkpt><trkpt lat="43.801824506990776" lon="7.628539215772752"><ele>15.0</ele><time>2026-04-26T05:09:05.829Z</time></trkpt><trkpt lat="43.80196228501351" lon="7.62853778987791"><ele>14.5</ele><time>2026-04-26T05:09:06.829Z</time></trkpt><trkpt lat="43.802082205048684" lon="7.6285092165350274"><ele>14.0</ele><time>2026-04-26T05:09:07.829Z</time></trkpt><trkpt lat="43.80219771961514" lon="7.628487956029959"><ele>13.5</ele><time>2026-04-26T05:09:08.829Z</time></trkpt><trkpt lat="43.80231340586318" lon="7.62846440776133"><ele>13.0</ele><time>2026-04-26T05:09:09.829Z</time></trkpt><trkpt lat="43.80241479615684" lon="7.6284419327877675"><ele>12.999999999999998</ele><time>2026-04-26T05:09:10.829Z</time></trkpt><trkpt lat="43.80250273696383" lon="7.628425270798681"><ele>13.0</ele><time>2026-04-26T05:09:11.829Z</time></trkpt><trkpt lat="43.80258564625866" lon="7.628405613435521"><ele>13.0</ele><time>2026-04-26T05:09:12.829Z</time></trkpt><trkpt lat="43.80266928869097" lon="7.6283964215860545"><ele>13.0</ele><time>2026-04-26T05:09:13.829Z</time></trkpt><trkpt lat="43.80274671907454" lon="7.628386131223709"><ele>12.999999999999998</ele><time>2026-04-26T05:09:14.829Z</time></trkpt><trkpt lat="43.80283069277783" lon="7.628369442083859"><ele>13.0</ele><time>2026-04-26T05:09:15.829Z</time></trkpt><trkpt lat="43.80292053324198" lon="7.62835957698301"><ele>13.2</ele><time>2026-04-26T05:09:16.829Z</time></trkpt><trkpt lat="43.80301500032874" lon="7.628345741445714"><ele>13.4</ele><time>2026-04-26T05:09:17.829Z</time></trkpt><trkpt lat="43.80310876063415" lon="7.628349378002107"><ele>13.599999999999998</ele><time>2026-04-26T05:09:18.829Z</time></trkpt><trkpt lat="43.803201069292165" lon="7.628358435029477"><ele>13.799999999999999</ele><time>2026-04-26T05:09:19.829Z</time></trkpt><trkpt lat="43.80329138814077" lon="7.628358815416174"><ele>14.0</ele><time>2026-04-26T05:09:20.829Z</time></trkpt><trkpt lat="43.803378840684054" lon="7.628370418814256"><ele>14.0</ele><time>2026-04-26T05:09:21.829Z</time></trkpt><trkpt lat="43.803474505500745" lon="7.62837207302714"><ele>13.999999999999998</ele><time>2026-04-26T05:09:22.829Z</time></trkpt><trkpt lat="43.803585452488335" lon="7.628375123685404"><ele>13.999999999999998</ele><time>2026-04-26T05:09:23.829Z</time></trkpt><trkpt lat="43.80369059792753" lon="7.628379067799837"><ele>14.0</ele><time>2026-04-26T05:09:24.829Z</time></trkpt><trkpt lat="43.803793124058764" lon="7.6283806342395675"><ele>14.0</ele><time>2026-04-26T05:09:25.829Z</time></trkpt><trkpt lat="43.80389208166182" lon="7.62837374503465"><ele>14.2</ele><time>2026-04-26T05:09:26.829Z</time></trkpt><trkpt lat="43.804002624461994" lon="7.628365228112618"><ele>14.399999999999999</ele><time>2026-04-26T05:09:27.829Z</time></trkpt><trkpt lat="43.804102907476064" lon="7.628365783263124"><ele>14.6</ele><time>2026-04-26T05:09:28.829Z</time></trkpt><trkpt lat="43.80418717097328" lon="7.628364181041856"><ele>14.8</ele><time>2026-04-26T05:09:29.828Z</time></trkpt><trkpt lat="43.80428209056145" lon="7.6283609286301965"><ele>15.0</ele><time>2026-04-26T05:09:30.828Z</time></trkpt><trkpt lat="43.80436449123345" lon="7.628344217364516"><ele>15.2</ele><time>2026-04-26T05:09:31.828Z</time></trkpt><trkpt lat="43.80444873674745" lon="7.628263623360108"><ele>15.4</ele><time>2026-04-26T05:09:32.828Z</time></trkpt><trkpt lat="43.80451988023894" lon="7.628121810740058"><ele>15.600000000000001</ele><time>2026-04-26T05:09:33.828Z</time></trkpt><trkpt lat="43.80458221525121" lon="7.6279854046747415"><ele>15.8</ele><time>2026-04-26T05:09:34.828Z</time></trkpt><trkpt lat="43.80464081988437" lon="7.627866710123498"><ele>16.0</ele><time>2026-04-26T05:09:35.828Z</time></trkpt><trkpt lat="43.80467967702498" lon="7.627757166553605"><ele>16.2</ele><time>2026-04-26T05:09:36.828Z</time></trkpt><trkpt lat="43.80470834392182" lon="7.627630407047653"><ele>16.400000000000002</ele><time>2026-04-26T05:09:37.828Z</time></trkpt><trkpt lat="43.80471740275037" lon="7.627486149670976"><ele>16.6</ele><time>2026-04-26T05:09:38.828Z</time></trkpt><trkpt lat="43.80472892472166" lon="7.627326317331931"><ele>16.8</ele><time>2026-04-26T05:09:39.828Z</time></trkpt><trkpt lat="43.804753115221736" lon="7.627157168401164"><ele>17.0</ele><time>2026-04-26T05:09:40.828Z</time></trkpt><trkpt lat="43.80477929817592" lon="7.626974793270375"><ele>15.666666666666668</ele><time>2026-04-26T05:09:41.828Z</time></trkpt><trkpt lat="43.80483859277133" lon="7.626620986385138"><ele>14.333333333333332</ele><time>2026-04-26T05:09:43.828Z</time></trkpt><trkpt lat="43.804865553090934" lon="7.626431052117515"><ele>13.0</ele><time>2026-04-26T05:09:44.828Z</time></trkpt><trkpt lat="43.80489120211055" lon="7.626231744785445"><ele>12.75</ele><time>2026-04-26T05:09:45.828Z</time></trkpt><trkpt lat="43.804918538509604" lon="7.626034556719878"><ele>12.5</ele><time>2026-04-26T05:09:46.828Z</time></trkpt><trkpt lat="43.80494312133761" lon="7.625840815776323"><ele>12.25</ele><time>2026-04-26T05:09:47.828Z</time></trkpt><trkpt lat="43.80496818526413" lon="7.625663779875911"><ele>12.0</ele><time>2026-04-26T05:09:48.828Z</time></trkpt><trkpt lat="43.8049885381275" lon="7.625509594330323"><ele>12.0</ele><time>2026-04-26T05:09:49.828Z</time></trkpt><trkpt lat="43.805007062470004" lon="7.625367830775496"><ele>12.0</ele><time>2026-04-26T05:09:50.828Z</time></trkpt><trkpt lat="43.80502066249514" lon="7.625240322376826"><ele>12.0</ele><time>2026-04-26T05:09:51.828Z</time></trkpt><trkpt lat="43.805040960375855" lon="7.625147915578537"><ele>12.0</ele><time>2026-04-26T05:09:52.828Z</time></trkpt><trkpt lat="43.80508214703173" lon="7.62507947564591"><ele>12.0</ele><time>2026-04-26T05:09:53.828Z</time></trkpt><trkpt lat="43.805225852169265" lon="7.624945493955321"><ele>15.25</ele><time>2026-04-26T05:09:55.828Z</time></trkpt><trkpt lat="43.805326460035104" lon="7.624890111562721"><ele>18.5</ele><time>2026-04-26T05:09:56.828Z</time></trkpt><trkpt lat="43.80544800499351" lon="7.624857216315291"><ele>21.75</ele><time>2026-04-26T05:09:57.828Z</time></trkpt><trkpt lat="43.80557517955221" lon="7.624852238941261"><ele>25.0</ele><time>2026-04-26T05:09:58.828Z</time></trkpt><trkpt lat="43.80570812566487" lon="7.62487075273079"><ele>25.0</ele><time>2026-04-26T05:09:59.828Z</time></trkpt><trkpt lat="43.80583796727552" lon="7.624902079047765"><ele>25.0</ele><time>2026-04-26T05:10:00.828Z</time></trkpt><trkpt lat="43.8059840096501" lon="7.624920471472691"><ele>25.0</ele><time>2026-04-26T05:10:01.828Z</time></trkpt><trkpt lat="43.806139875999605" lon="7.624920038774702"><ele>25.0</ele><time>2026-04-26T05:10:02.827Z</time></trkpt><trkpt lat="43.80628859305088" lon="7.624932003610681"><ele>25.333333333333336</ele><time>2026-04-26T05:10:03.827Z</time></trkpt><trkpt lat="43.80644338999876" lon="7.624941552555101"><ele>25.666666666666664</ele><time>2026-04-26T05:10:04.827Z</time></trkpt><trkpt lat="43.806607811308375" lon="7.624958795681046"><ele>26.0</ele><time>2026-04-26T05:10:05.827Z</time></trkpt><trkpt lat="43.80676594304464" lon="7.6249692724016365"><ele>24.666666666666664</ele><time>2026-04-26T05:10:06.827Z</time></trkpt><trkpt lat="43.80692773002962" lon="7.62497356525853"><ele>23.333333333333332</ele><time>2026-04-26T05:10:07.827Z</time></trkpt><trkpt lat="43.80708107653292" lon="7.624986017640393"><ele>22.0</ele><time>2026-04-26T05:10:08.827Z</time></trkpt><trkpt lat="43.80723774202096" lon="7.625027241605365"><ele>22.0</ele><time>2026-04-26T05:10:09.827Z</time></trkpt><trkpt lat="43.80739966701827" lon="7.625056548734432"><ele>22.0</ele><time>2026-04-26T05:10:10.827Z</time></trkpt><trkpt lat="43.8075518046068" lon="7.625092952788419"><ele>22.0</ele><time>2026-04-26T05:10:11.827Z</time></trkpt><trkpt lat="43.807696393098915" lon="7.625137058813018"><ele>21.0</ele><time>2026-04-26T05:10:12.827Z</time></trkpt><trkpt lat="43.80784930246233" lon="7.625158165139943"><ele>20.0</ele><time>2026-04-26T05:10:13.829Z</time></trkpt><trkpt lat="43.807992958975596" lon="7.625222466548291"><ele>19.0</ele><time>2026-04-26T05:10:14.83Z</time></trkpt><trkpt lat="43.80814024445536" lon="7.62529484176563"><ele>18.666666666666664</ele><time>2026-04-26T05:10:15.83Z</time></trkpt><trkpt lat="43.808283106122566" lon="7.625378983315875"><ele>18.333333333333332</ele><time>2026-04-26T05:10:16.83Z</time></trkpt><trkpt lat="43.80840855406992" lon="7.625507280821544"><ele>18.0</ele><time>2026-04-26T05:10:17.829Z</time></trkpt><trkpt lat="43.80867145911021" lon="7.625715803712394"><ele>18.0</ele><time>2026-04-26T05:10:19.83Z</time></trkpt><trkpt lat="43.80879872745482" lon="7.625834128561952"><ele>18.0</ele><time>2026-04-26T05:10:20.83Z</time></trkpt><trkpt lat="43.80893245552534" lon="7.625936117330036"><ele>18.0</ele><time>2026-04-26T05:10:21.83Z</time></trkpt><trkpt lat="43.80905953819665" lon="7.626048871525657"><ele>18.0</ele><time>2026-04-26T05:10:22.83Z</time></trkpt><trkpt lat="43.809183173867375" lon="7.626169509150582"><ele>18.0</ele><time>2026-04-26T05:10:23.829Z</time></trkpt><trkpt lat="43.80930822625136" lon="7.626285880754522"><ele>18.0</ele><time>2026-04-26T05:10:24.829Z</time></trkpt><trkpt lat="43.80942902210648" lon="7.6264144683866535"><ele>18.333333333333332</ele><time>2026-04-26T05:10:25.829Z</time></trkpt><trkpt lat="43.80954902280048" lon="7.626533655501756"><ele>18.666666666666664</ele><time>2026-04-26T05:10:26.829Z</time></trkpt><trkpt lat="43.80967785116804" lon="7.626662141405071"><ele>19.0</ele><time>2026-04-26T05:10:27.829Z</time></trkpt><trkpt lat="43.80980560591571" lon="7.626787400981044"><ele>19.0</ele><time>2026-04-26T05:10:28.829Z</time></trkpt><trkpt lat="43.809926278125786" lon="7.6269107949357835"><ele>19.0</ele><time>2026-04-26T05:10:29.829Z</time></trkpt><trkpt lat="43.8100519441546" lon="7.627030534282652"><ele>19.0</ele><time>2026-04-26T05:10:30.829Z</time></trkpt><trkpt lat="43.810157724837424" lon="7.627166134725053"><ele>19.0</ele><time>2026-04-26T05:10:31.829Z</time></trkpt><trkpt lat="43.81027576229408" lon="7.627280505854028"><ele>18.666666666666664</ele><time>2026-04-26T05:10:32.829Z</time></trkpt><trkpt lat="43.81039967762375" lon="7.627400111293472"><ele>18.333333333333332</ele><time>2026-04-26T05:10:33.829Z</time></trkpt><trkpt lat="43.810520097422" lon="7.627516884793885"><ele>18.0</ele><time>2026-04-26T05:10:34.829Z</time></trkpt><trkpt lat="43.81064695547085" lon="7.627637683847963"><ele>18.0</ele><time>2026-04-26T05:10:35.829Z</time></trkpt><trkpt lat="43.81077782398024" lon="7.627748236941871"><ele>18.0</ele><time>2026-04-26T05:10:36.829Z</time></trkpt><trkpt lat="43.81092016762736" lon="7.627848158134525"><ele>18.0</ele><time>2026-04-26T05:10:37.829Z</time></trkpt><trkpt lat="43.81106061342705" lon="7.627927696471998"><ele>18.666666666666668</ele><time>2026-04-26T05:10:38.829Z</time></trkpt><trkpt lat="43.81120835616926" lon="7.628003334415299"><ele>19.333333333333336</ele><time>2026-04-26T05:10:39.829Z</time></trkpt><trkpt lat="43.811358107286054" lon="7.628075732213791"><ele>20.0</ele><time>2026-04-26T05:10:40.829Z</time></trkpt><trkpt lat="43.811502336637986" lon="7.6281440401033365"><ele>20.0</ele><time>2026-04-26T05:10:41.828Z</time></trkpt><trkpt lat="43.81164312820706" lon="7.628210769715009"><ele>20.0</ele><time>2026-04-26T05:10:42.828Z</time></trkpt><trkpt lat="43.811791731297845" lon="7.628281255157313"><ele>20.0</ele><time>2026-04-26T05:10:43.828Z</time></trkpt><trkpt lat="43.81194306832864" lon="7.628352454651187"><ele>21.666666666666668</ele><time>2026-04-26T05:10:44.828Z</time></trkpt><trkpt lat="43.81208042801077" lon="7.628415538878912"><ele>23.333333333333336</ele><time>2026-04-26T05:10:45.828Z</time></trkpt><trkpt lat="43.81223385702234" lon="7.628451210818437"><ele>25.0</ele><time>2026-04-26T05:10:46.828Z</time></trkpt><trkpt lat="43.81237641973506" lon="7.628520268291344"><ele>25.0</ele><time>2026-04-26T05:10:47.828Z</time></trkpt><trkpt lat="43.81251601494821" lon="7.628581836104552"><ele>25.0</ele><time>2026-04-26T05:10:48.828Z</time></trkpt><trkpt lat="43.81265161998309" lon="7.628645749543145"><ele>25.0</ele><time>2026-04-26T05:10:49.828Z</time></trkpt><trkpt lat="43.81278116220001" lon="7.628738089910623"><ele>25.0</ele><time>2026-04-26T05:10:50.828Z</time></trkpt><trkpt lat="43.81292523777794" lon="7.628804162739672"><ele>25.0</ele><time>2026-04-26T05:10:51.828Z</time></trkpt><trkpt lat="43.813078724751314" lon="7.628874169704698"><ele>25.0</ele><time>2026-04-26T05:10:52.828Z</time></trkpt><trkpt lat="43.81321975921534" lon="7.6289245606641805"><ele>25.0</ele><time>2026-04-26T05:10:53.828Z</time></trkpt><trkpt lat="43.81335828150849" lon="7.6289336612338206"><ele>25.0</ele><time>2026-04-26T05:10:54.828Z</time></trkpt><trkpt lat="43.81349332636389" lon="7.6289396870994075"><ele>25.25</ele><time>2026-04-26T05:10:55.828Z</time></trkpt><trkpt lat="43.813636926819115" lon="7.62892812566515"><ele>25.5</ele><time>2026-04-26T05:10:56.828Z</time></trkpt><trkpt lat="43.81378928503891" lon="7.628883980995842"><ele>25.75</ele><time>2026-04-26T05:10:57.828Z</time></trkpt><trkpt lat="43.8139020393615" lon="7.6288664530717005"><ele>26.0</ele><time>2026-04-26T05:10:58.828Z</time></trkpt><trkpt lat="43.81395840236264" lon="7.6288239733648116"><ele>26.0</ele><time>2026-04-26T05:10:59.828Z</time></trkpt><trkpt lat="43.81406272844881" lon="7.628775775609008"><ele>26.0</ele><time>2026-04-26T05:11:10.828Z</time></trkpt><trkpt lat="43.81416508280506" lon="7.628650581487259"><ele>26.0</ele><time>2026-04-26T05:11:12.828Z</time></trkpt><trkpt lat="43.81421791997787" lon="7.628549737135057"><ele>26.0</ele><time>2026-04-26T05:11:13.828Z</time></trkpt><trkpt lat="43.814272823892836" lon="7.628446533307378"><ele>26.0</ele><time>2026-04-26T05:11:14.827Z</time></trkpt><trkpt lat="43.81433629359703" lon="7.628334454849597"><ele>28.0</ele><time>2026-04-26T05:11:15.827Z</time></trkpt><trkpt lat="43.814416807477855" lon="7.62822933101413"><ele>30.0</ele><time>2026-04-26T05:11:16.827Z</time></trkpt><trkpt lat="43.8145182774808" lon="7.628135675715325"><ele>32.0</ele><time>2026-04-26T05:11:17.827Z</time></trkpt><trkpt lat="43.81462423317024" lon="7.628040139663872"><ele>34.0</ele><time>2026-04-26T05:11:18.827Z</time></trkpt><trkpt lat="43.81475195924757" lon="7.627940393231241"><ele>34.0</ele><time>2026-04-26T05:11:19.827Z</time></trkpt><trkpt lat="43.81487247284403" lon="7.627830026459348"><ele>34.0</ele><time>2026-04-26T05:11:20.827Z</time></trkpt><trkpt lat="43.81499749834975" lon="7.627721841268975"><ele>34.0</ele><time>2026-04-26T05:11:21.827Z</time></trkpt><trkpt lat="43.815116952878626" lon="7.627615644354429"><ele>34.0</ele><time>2026-04-26T05:11:22.827Z</time></trkpt><trkpt lat="43.81522298119153" lon="7.6275123748001805"><ele>35.333333333333336</ele><time>2026-04-26T05:11:23.827Z</time></trkpt><trkpt lat="43.815340030218586" lon="7.627427892252053"><ele>36.666666666666664</ele><time>2026-04-26T05:11:24.827Z</time></trkpt><trkpt lat="43.815500396265755" lon="7.62738551251102"><ele>38.0</ele><time>2026-04-26T05:11:25.827Z</time></trkpt><trkpt lat="43.81567036575649" lon="7.62739858290553"><ele>38.0</ele><time>2026-04-26T05:11:26.827Z</time></trkpt><trkpt lat="43.815847027810676" lon="7.627415761719843"><ele>38.0</ele><time>2026-04-26T05:11:27.827Z</time></trkpt><trkpt lat="43.816009458771916" lon="7.627441588525393"><ele>38.0</ele><time>2026-04-26T05:11:28.827Z</time></trkpt><trkpt lat="43.81610114445402" lon="7.627508479194683"><ele>38.0</ele><time>2026-04-26T05:11:29.827Z</time></trkpt><trkpt lat="43.8159875976794" lon="7.627476982359722"><ele>37.75</ele><time>2026-04-26T05:11:30.827Z</time></trkpt><trkpt lat="43.81603872430959" lon="7.62761196851334"><ele>37.5</ele><time>2026-04-26T05:11:31.827Z</time></trkpt><trkpt lat="43.81612816093422" lon="7.627725251394367"><ele>37.25</ele><time>2026-04-26T05:11:32.827Z</time></trkpt><trkpt lat="43.816223929777664" lon="7.627818900756372"><ele>37.0</ele><time>2026-04-26T05:11:33.827Z</time></trkpt><trkpt lat="43.816339455523305" lon="7.627840858894465"><ele>37.0</ele><time>2026-04-26T05:11:34.827Z</time></trkpt><trkpt lat="43.81643589940246" lon="7.627862966309447"><ele>37.0</ele><time>2026-04-26T05:11:35.827Z</time></trkpt><trkpt lat="43.816547986860634" lon="7.627877200461559"><ele>37.0</ele><time>2026-04-26T05:11:36.827Z</time></trkpt><trkpt lat="43.81668203757738" lon="7.627847843118496"><ele>37.0</ele><time>2026-04-26T05:11:37.827Z</time></trkpt><trkpt lat="43.81680987310237" lon="7.627831926421344"><ele>38.66666666666667</ele><time>2026-04-26T05:11:38.827Z</time></trkpt><trkpt lat="43.81695680935761" lon="7.627799564857504"><ele>40.333333333333336</ele><time>2026-04-26T05:11:39.827Z</time></trkpt><trkpt lat="43.81710238262974" lon="7.62777546794764"><ele>42.0</ele><time>2026-04-26T05:11:40.827Z</time></trkpt><trkpt lat="43.81725945210407" lon="7.6277498769507694"><ele>42.0</ele><time>2026-04-26T05:11:41.827Z</time></trkpt><trkpt lat="43.817418481653725" lon="7.6277362406918305"><ele>42.0</ele><time>2026-04-26T05:11:42.827Z</time></trkpt><trkpt lat="43.817564944160296" lon="7.627720776745943"><ele>42.0</ele><time>2026-04-26T05:11:43.827Z</time></trkpt><trkpt lat="43.81770413599701" lon="7.627711903465647"><ele>42.0</ele><time>2026-04-26T05:11:44.827Z</time></trkpt><trkpt lat="43.81783619788048" lon="7.627697714883562"><ele>42.0</ele><time>2026-04-26T05:11:45.827Z</time></trkpt><trkpt lat="43.817966088294675" lon="7.627683397239346"><ele>42.0</ele><time>2026-04-26T05:11:46.827Z</time></trkpt><trkpt lat="43.818100567438634" lon="7.627671701312899"><ele>42.0</ele><time>2026-04-26T05:11:47.826Z</time></trkpt><trkpt lat="43.81823989865198" lon="7.627652309142042"><ele>42.0</ele><time>2026-04-26T05:11:48.826Z</time></trkpt><trkpt lat="43.818382540571065" lon="7.627633512430914"><ele>41.333333333333336</ele><time>2026-04-26T05:11:49.826Z</time></trkpt><trkpt lat="43.81853059023355" lon="7.627614034129056"><ele>40.66666666666667</ele><time>2026-04-26T05:11:50.826Z</time></trkpt><trkpt lat="43.81868035032315" lon="7.627590657853547"><ele>40.0</ele><time>2026-04-26T05:11:51.826Z</time></trkpt><trkpt lat="43.81883908180866" lon="7.627572681391893"><ele>40.0</ele><time>2026-04-26T05:11:52.826Z</time></trkpt><trkpt lat="43.819008054115386" lon="7.627556070654699"><ele>40.0</ele><time>2026-04-26T05:11:53.826Z</time></trkpt><trkpt lat="43.819179117758644" lon="7.627536749108751"><ele>40.0</ele><time>2026-04-26T05:11:54.826Z</time></trkpt><trkpt lat="43.81935037644488" lon="7.627514895551443"><ele>40.66666666666667</ele><time>2026-04-26T05:11:55.826Z</time></trkpt><trkpt lat="43.81951737635029" lon="7.627504604316069"><ele>41.333333333333336</ele><time>2026-04-26T05:11:56.826Z</time></trkpt><trkpt lat="43.8196811810742" lon="7.627509491031313"><ele>42.0</ele><time>2026-04-26T05:11:57.826Z</time></trkpt><trkpt lat="43.819851582161526" lon="7.627531961481496"><ele>42.0</ele><time>2026-04-26T05:11:58.826Z</time></trkpt><trkpt lat="43.82001116323016" lon="7.627569956035803"><ele>42.0</ele><time>2026-04-26T05:11:59.826Z</time></trkpt><trkpt lat="43.82016788343008" lon="7.62762615771902"><ele>42.0</ele><time>2026-04-26T05:12:00.826Z</time></trkpt><trkpt lat="43.820319553289636" lon="7.627694476385804"><ele>42.0</ele><time>2026-04-26T05:12:01.826Z</time></trkpt><trkpt lat="43.820471426703484" lon="7.627762622517985"><ele>42.0</ele><time>2026-04-26T05:12:02.826Z</time></trkpt><trkpt lat="43.82060863601655" lon="7.627821458487062"><ele>42.0</ele><time>2026-04-26T05:12:03.826Z</time></trkpt><trkpt lat="43.82074780265417" lon="7.627878724105952"><ele>42.0</ele><time>2026-04-26T05:12:04.826Z</time></trkpt><trkpt lat="43.820877629441085" lon="7.627947672612207"><ele>42.0</ele><time>2026-04-26T05:12:05.826Z</time></trkpt><trkpt lat="43.82101390705004" lon="7.627994223102403"><ele>42.0</ele><time>2026-04-26T05:12:06.826Z</time></trkpt><trkpt lat="43.821153985611474" lon="7.628050618320975"><ele>42.0</ele><time>2026-04-26T05:12:07.826Z</time></trkpt><trkpt lat="43.82130127986375" lon="7.628118393514184"><ele>42.0</ele><time>2026-04-26T05:12:08.826Z</time></trkpt><trkpt lat="43.82145484717866" lon="7.6281748610350855"><ele>42.0</ele><time>2026-04-26T05:12:09.826Z</time></trkpt><trkpt lat="43.821607785330336" lon="7.628230946204956"><ele>42.0</ele><time>2026-04-26T05:12:10.826Z</time></trkpt><trkpt lat="43.82176601258196" lon="7.628286953161967"><ele>42.0</ele><time>2026-04-26T05:12:11.826Z</time></trkpt><trkpt lat="43.82193254062861" lon="7.628319838050733"><ele>42.0</ele><time>2026-04-26T05:12:12.826Z</time></trkpt><trkpt lat="43.82210014258796" lon="7.628339231373925"><ele>42.0</ele><time>2026-04-26T05:12:13.826Z</time></trkpt><trkpt lat="43.822271560710995" lon="7.628338006643702"><ele>42.0</ele><time>2026-04-26T05:12:14.826Z</time></trkpt><trkpt lat="43.82244288197865" lon="7.628334493116757"><ele>42.0</ele><time>2026-04-26T05:12:15.826Z</time></trkpt><trkpt lat="43.8226019905855" lon="7.628345198965057"><ele>42.0</ele><time>2026-04-26T05:12:16.826Z</time></trkpt><trkpt lat="43.822761298153516" lon="7.6283505262902"><ele>42.0</ele><time>2026-04-26T05:12:17.826Z</time></trkpt><trkpt lat="43.822906483189506" lon="7.628362854277724"><ele>42.0</ele><time>2026-04-26T05:12:18.826Z</time></trkpt><trkpt lat="43.82304750493126" lon="7.628364484727654"><ele>42.0</ele><time>2026-04-26T05:12:19.828Z</time></trkpt><trkpt lat="43.82318585445715" lon="7.628370427440384"><ele>42.0</ele><time>2026-04-26T05:12:20.828Z</time></trkpt><trkpt lat="43.82332586882176" lon="7.628380373387138"><ele>42.0</ele><time>2026-04-26T05:12:21.828Z</time></trkpt><trkpt lat="43.823474045796964" lon="7.628383082472116"><ele>41.666666666666664</ele><time>2026-04-26T05:12:22.828Z</time></trkpt><trkpt lat="43.82362918158101" lon="7.628389348096254"><ele>41.33333333333333</ele><time>2026-04-26T05:12:23.828Z</time></trkpt><trkpt lat="43.82378813865678" lon="7.628399346813859"><ele>41.0</ele><time>2026-04-26T05:12:24.828Z</time></trkpt><trkpt lat="43.823956811518336" lon="7.628408623600953"><ele>41.0</ele><time>2026-04-26T05:12:25.828Z</time></trkpt><trkpt lat="43.82412286240662" lon="7.628420724728839"><ele>41.0</ele><time>2026-04-26T05:12:26.828Z</time></trkpt><trkpt lat="43.82428177728539" lon="7.628431414260572"><ele>41.0</ele><time>2026-04-26T05:12:27.828Z</time></trkpt><trkpt lat="43.82444945847258" lon="7.628435896973897"><ele>40.666666666666664</ele><time>2026-04-26T05:12:28.828Z</time></trkpt><trkpt lat="43.82461369992406" lon="7.628440887680728"><ele>40.333333333333336</ele><time>2026-04-26T05:12:29.827Z</time></trkpt><trkpt lat="43.8247831617638" lon="7.628441309141586"><ele>40.0</ele><time>2026-04-26T05:12:30.827Z</time></trkpt><trkpt lat="43.82494689864204" lon="7.628437653788997"><ele>40.0</ele><time>2026-04-26T05:12:31.828Z</time></trkpt><trkpt lat="43.82511126576179" lon="7.628418079789701"><ele>40.0</ele><time>2026-04-26T05:12:32.828Z</time></trkpt><trkpt lat="43.82527689170247" lon="7.6283954349233944"><ele>40.0</ele><time>2026-04-26T05:12:33.828Z</time></trkpt><trkpt lat="43.82544926191124" lon="7.628341089714683"><ele>40.333333333333336</ele><time>2026-04-26T05:12:34.828Z</time></trkpt><trkpt lat="43.825615446991335" lon="7.628283960170755"><ele>40.666666666666664</ele><time>2026-04-26T05:12:35.828Z</time></trkpt><trkpt lat="43.825782238053065" lon="7.628210127287985"><ele>41.0</ele><time>2026-04-26T05:12:36.828Z</time></trkpt><trkpt lat="43.8259518010676" lon="7.62814617409568"><ele>39.666666666666664</ele><time>2026-04-26T05:12:37.828Z</time></trkpt><trkpt lat="43.82611360534019" lon="7.628067353155404"><ele>38.333333333333336</ele><time>2026-04-26T05:12:38.828Z</time></trkpt><trkpt lat="43.82627574966121" lon="7.6279924072164444"><ele>37.0</ele><time>2026-04-26T05:12:39.828Z</time></trkpt><trkpt lat="43.82643581269582" lon="7.627926638278473"><ele>37.0</ele><time>2026-04-26T05:12:40.828Z</time></trkpt><trkpt lat="43.82659365485384" lon="7.62785310643667"><ele>37.0</ele><time>2026-04-26T05:12:41.828Z</time></trkpt><trkpt lat="43.82675393826355" lon="7.627776813025099"><ele>37.0</ele><time>2026-04-26T05:12:42.828Z</time></trkpt><trkpt lat="43.826910905081114" lon="7.627708657390552"><ele>41.66666666666667</ele><time>2026-04-26T05:12:43.828Z</time></trkpt><trkpt lat="43.82707403692778" lon="7.627661455961003"><ele>46.333333333333336</ele><time>2026-04-26T05:12:44.828Z</time></trkpt><trkpt lat="43.827236553641505" lon="7.627650418597584"><ele>51.0</ele><time>2026-04-26T05:12:45.828Z</time></trkpt><trkpt lat="43.8273983574326" lon="7.627663860829243"><ele>51.0</ele><time>2026-04-26T05:12:46.828Z</time></trkpt><trkpt lat="43.82756397140877" lon="7.6276999874883105"><ele>51.0</ele><time>2026-04-26T05:12:47.828Z</time></trkpt><trkpt lat="43.82773179643299" lon="7.627749473672437"><ele>51.0</ele><time>2026-04-26T05:12:48.828Z</time></trkpt><trkpt lat="43.82789737191501" lon="7.627804232634307"><ele>48.666666666666664</ele><time>2026-04-26T05:12:49.828Z</time></trkpt><trkpt lat="43.828063300806505" lon="7.627847979554231"><ele>46.33333333333333</ele><time>2026-04-26T05:12:50.828Z</time></trkpt><trkpt lat="43.82821770811967" lon="7.627897215303125"><ele>44.0</ele><time>2026-04-26T05:12:51.828Z</time></trkpt><trkpt lat="43.82838281712422" lon="7.627942863006611"><ele>45.666666666666664</ele><time>2026-04-26T05:12:52.828Z</time></trkpt><trkpt lat="43.82854944710665" lon="7.627972822248294"><ele>47.33333333333333</ele><time>2026-04-26T05:12:53.827Z</time></trkpt><trkpt lat="43.82872164536172" lon="7.627999100081691"><ele>49.0</ele><time>2026-04-26T05:12:54.827Z</time></trkpt><trkpt lat="43.82889498274086" lon="7.62799778380009"><ele>49.0</ele><time>2026-04-26T05:12:55.827Z</time></trkpt><trkpt lat="43.82907041573516" lon="7.627993972891873"><ele>49.0</ele><time>2026-04-26T05:12:56.827Z</time></trkpt><trkpt lat="43.82923740117022" lon="7.627994909014678"><ele>49.0</ele><time>2026-04-26T05:12:57.827Z</time></trkpt><trkpt lat="43.829397651412556" lon="7.627993079803926"><ele>50.33333333333333</ele><time>2026-04-26T05:12:58.827Z</time></trkpt><trkpt lat="43.82955957275175" lon="7.627991670259297"><ele>51.66666666666667</ele><time>2026-04-26T05:12:59.827Z</time></trkpt><trkpt lat="43.829724556229365" lon="7.627984055598549"><ele>53.0</ele><time>2026-04-26T05:13:00.827Z</time></trkpt><trkpt lat="43.82988389265004" lon="7.6279600106591205"><ele>53.0</ele><time>2026-04-26T05:13:01.827Z</time></trkpt><trkpt lat="43.830035532567486" lon="7.62790936945978"><ele>53.0</ele><time>2026-04-26T05:13:02.827Z</time></trkpt><trkpt lat="43.830186678642974" lon="7.6278285954982445"><ele>53.0</ele><time>2026-04-26T05:13:03.827Z</time></trkpt><trkpt lat="43.830337855457465" lon="7.62774784765848"><ele>58.333333333333336</ele><time>2026-04-26T05:13:04.827Z</time></trkpt><trkpt lat="43.83049703161689" lon="7.627711445108479"><ele>63.66666666666667</ele><time>2026-04-26T05:13:05.827Z</time></trkpt><trkpt lat="43.8306574913733" lon="7.627710323849721"><ele>69.0</ele><time>2026-04-26T05:13:06.827Z</time></trkpt><trkpt lat="43.83081741854394" lon="7.627767072064849"><ele>66.33333333333333</ele><time>2026-04-26T05:13:07.827Z</time></trkpt><trkpt lat="43.8309751029407" lon="7.6277862428351355"><ele>63.666666666666664</ele><time>2026-04-26T05:13:08.827Z</time></trkpt><trkpt lat="43.831133518858806" lon="7.627761799255438"><ele>61.0</ele><time>2026-04-26T05:13:09.827Z</time></trkpt><trkpt lat="43.831290351939906" lon="7.62773501915373"><ele>61.0</ele><time>2026-04-26T05:13:10.827Z</time></trkpt><trkpt lat="43.83145464889181" lon="7.627705382676099"><ele>61.0</ele><time>2026-04-26T05:13:11.827Z</time></trkpt><trkpt lat="43.8316052280187" lon="7.62765271679142"><ele>61.0</ele><time>2026-04-26T05:13:12.827Z</time></trkpt><trkpt lat="43.83175396448229" lon="7.627574523613837"><ele>56.666666666666664</ele><time>2026-04-26T05:13:13.827Z</time></trkpt><trkpt lat="43.831898331693615" lon="7.627470653545201"><ele>52.33333333333333</ele><time>2026-04-26T05:13:14.827Z</time></trkpt><trkpt lat="43.832034607903545" lon="7.627353905993475"><ele>48.0</ele><time>2026-04-26T05:13:15.827Z</time></trkpt><trkpt lat="43.83215678143724" lon="7.6272072057047025"><ele>48.0</ele><time>2026-04-26T05:13:16.827Z</time></trkpt><trkpt lat="43.83228897319935" lon="7.62707492308757"><ele>48.0</ele><time>2026-04-26T05:13:17.827Z</time></trkpt><trkpt lat="43.83241960149949" lon="7.6269693585082425"><ele>48.0</ele><time>2026-04-26T05:13:18.827Z</time></trkpt><trkpt lat="43.83255132924956" lon="7.626898468678976"><ele>56.0</ele><time>2026-04-26T05:13:19.827Z</time></trkpt><trkpt lat="43.83269529654143" lon="7.6268723270654375"><ele>64.0</ele><time>2026-04-26T05:13:20.827Z</time></trkpt><trkpt lat="43.83285218266429" lon="7.6268837198851145"><ele>72.0</ele><time>2026-04-26T05:13:21.827Z</time></trkpt><trkpt lat="43.83301922374857" lon="7.626906067989514"><ele>72.0</ele><time>2026-04-26T05:13:22.827Z</time></trkpt><trkpt lat="43.83318009868758" lon="7.626893647615398"><ele>72.0</ele><time>2026-04-26T05:13:23.827Z</time></trkpt><trkpt lat="43.8333453092505" lon="7.62691769805457"><ele>72.0</ele><time>2026-04-26T05:13:24.827Z</time></trkpt><trkpt lat="43.83352051454284" lon="7.626927130967088"><ele>69.33333333333333</ele><time>2026-04-26T05:13:25.827Z</time></trkpt><trkpt lat="43.83369180306123" lon="7.6269222265805485"><ele>66.66666666666666</ele><time>2026-04-26T05:13:26.826Z</time></trkpt><trkpt lat="43.83386542533652" lon="7.626889775444591"><ele>64.0</ele><time>2026-04-26T05:13:27.826Z</time></trkpt><trkpt lat="43.83403625234856" lon="7.626843077731094"><ele>64.0</ele><time>2026-04-26T05:13:28.826Z</time></trkpt><trkpt lat="43.83420363277669" lon="7.626800408336316"><ele>64.0</ele><time>2026-04-26T05:13:29.826Z</time></trkpt><trkpt lat="43.83436882261149" lon="7.626756641800418"><ele>64.0</ele><time>2026-04-26T05:13:30.826Z</time></trkpt><trkpt lat="43.83453552882176" lon="7.626723459679849"><ele>62.33333333333333</ele><time>2026-04-26T05:13:31.826Z</time></trkpt><trkpt lat="43.83470191616259" lon="7.626694019168479"><ele>60.66666666666667</ele><time>2026-04-26T05:13:32.826Z</time></trkpt><trkpt lat="43.83486904351831" lon="7.626671261081124"><ele>59.0</ele><time>2026-04-26T05:13:33.826Z</time></trkpt><trkpt lat="43.83503839668477" lon="7.626649500500935"><ele>58.0</ele><time>2026-04-26T05:13:34.826Z</time></trkpt><trkpt lat="43.83520097978819" lon="7.626620905209983"><ele>57.0</ele><time>2026-04-26T05:13:35.826Z</time></trkpt><trkpt lat="43.83536245535309" lon="7.626594062720073"><ele>56.0</ele><time>2026-04-26T05:13:36.826Z</time></trkpt><trkpt lat="43.835520854838514" lon="7.626571483385651"><ele>56.0</ele><time>2026-04-26T05:13:37.826Z</time></trkpt><trkpt lat="43.835679059094616" lon="7.62657407781159"><ele>56.0</ele><time>2026-04-26T05:13:38.826Z</time></trkpt><trkpt lat="43.8358303830973" lon="7.626605702054966"><ele>56.0</ele><time>2026-04-26T05:13:39.826Z</time></trkpt><trkpt lat="43.835981760662264" lon="7.626699123412639"><ele>58.66666666666667</ele><time>2026-04-26T05:13:40.826Z</time></trkpt><trkpt lat="43.83613483312407" lon="7.626780100632565"><ele>61.33333333333333</ele><time>2026-04-26T05:13:41.826Z</time></trkpt><trkpt lat="43.83628827975586" lon="7.626832801267796"><ele>64.0</ele><time>2026-04-26T05:13:42.826Z</time></trkpt><trkpt lat="43.836432801084314" lon="7.626884082982561"><ele>64.0</ele><time>2026-04-26T05:13:43.826Z</time></trkpt><trkpt lat="43.836594586246264" lon="7.626890125912509"><ele>64.0</ele><time>2026-04-26T05:13:44.826Z</time></trkpt><trkpt lat="43.8367615919312" lon="7.626854552541163"><ele>64.0</ele><time>2026-04-26T05:13:45.826Z</time></trkpt><trkpt lat="43.83692264197659" lon="7.626800717399322"><ele>63.33333333333333</ele><time>2026-04-26T05:13:46.826Z</time></trkpt><trkpt lat="43.83708430126232" lon="7.626746899694277"><ele>62.66666666666667</ele><time>2026-04-26T05:13:47.826Z</time></trkpt><trkpt lat="43.837251187677055" lon="7.626710970139868"><ele>62.0</ele><time>2026-04-26T05:13:48.826Z</time></trkpt><trkpt lat="43.83740847018268" lon="7.626679676609642"><ele>62.0</ele><time>2026-04-26T05:13:49.826Z</time></trkpt><trkpt lat="43.83756009645905" lon="7.626666056556503"><ele>62.0</ele><time>2026-04-26T05:13:50.826Z</time></trkpt><trkpt lat="43.837708531889966" lon="7.626634991172955"><ele>62.0</ele><time>2026-04-26T05:13:51.826Z</time></trkpt><trkpt lat="43.83785257689957" lon="7.626630436895878"><ele>62.0</ele><time>2026-04-26T05:13:52.826Z</time></trkpt><trkpt lat="43.83799423094552" lon="7.626667360773458"><ele>62.66666666666667</ele><time>2026-04-26T05:13:53.826Z</time></trkpt><trkpt lat="43.8381378168437" lon="7.626746085669025"><ele>63.33333333333333</ele><time>2026-04-26T05:13:54.826Z</time></trkpt><trkpt lat="43.83828718029083" lon="7.626829726761887"><ele>64.0</ele><time>2026-04-26T05:13:55.826Z</time></trkpt><trkpt lat="43.83843832151845" lon="7.6268763290324655"><ele>64.66666666666666</ele><time>2026-04-26T05:13:56.826Z</time></trkpt><trkpt lat="43.83860711532381" lon="7.626904364800932"><ele>65.33333333333333</ele><time>2026-04-26T05:13:57.826Z</time></trkpt><trkpt lat="43.838759777123585" lon="7.626889940977207"><ele>66.0</ele><time>2026-04-26T05:13:58.825Z</time></trkpt><trkpt lat="43.838918838742096" lon="7.6268610851912095"><ele>66.0</ele><time>2026-04-26T05:13:59.825Z</time></trkpt><trkpt lat="43.83906710711361" lon="7.626838735089931"><ele>66.0</ele><time>2026-04-26T05:14:00.825Z</time></trkpt><trkpt lat="43.83920011341637" lon="7.626803950782116"><ele>66.0</ele><time>2026-04-26T05:14:01.825Z</time></trkpt><trkpt lat="43.839327590844896" lon="7.626746838140263"><ele>66.0</ele><time>2026-04-26T05:14:02.825Z</time></trkpt><trkpt lat="43.83945580746565" lon="7.626672789226463"><ele>62.5</ele><time>2026-04-26T05:14:03.825Z</time></trkpt><trkpt lat="43.839568827930854" lon="7.6265754144060685"><ele>59.0</ele><time>2026-04-26T05:14:04.825Z</time></trkpt><trkpt lat="43.83966774302736" lon="7.626455948234055"><ele>55.5</ele><time>2026-04-26T05:14:05.825Z</time></trkpt><trkpt lat="43.83976039605021" lon="7.626305728305685"><ele>52.0</ele><time>2026-04-26T05:14:06.825Z</time></trkpt><trkpt lat="43.83984931960309" lon="7.626184614707988"><ele>54.75</ele><time>2026-04-26T05:14:07.825Z</time></trkpt><trkpt lat="43.839960024388915" lon="7.626087005559939"><ele>57.5</ele><time>2026-04-26T05:14:08.825Z</time></trkpt><trkpt lat="43.840095291411956" lon="7.626024152802057"><ele>60.25</ele><time>2026-04-26T05:14:09.825Z</time></trkpt><trkpt lat="43.840233641567984" lon="7.625986541104926"><ele>63.0</ele><time>2026-04-26T05:14:10.825Z</time></trkpt><trkpt lat="43.840396061816605" lon="7.625937586732732"><ele>63.0</ele><time>2026-04-26T05:14:11.825Z</time></trkpt><trkpt lat="43.840552440900666" lon="7.625905333660454"><ele>63.0</ele><time>2026-04-26T05:14:12.825Z</time></trkpt><trkpt lat="43.84071202396597" lon="7.625899435270378"><ele>63.0</ele><time>2026-04-26T05:14:13.825Z</time></trkpt><trkpt lat="43.84086911438758" lon="7.625908134816285"><ele>62.66666666666667</ele><time>2026-04-26T05:14:14.825Z</time></trkpt><trkpt lat="43.84102861471931" lon="7.625922961493223"><ele>62.333333333333336</ele><time>2026-04-26T05:14:15.825Z</time></trkpt><trkpt lat="43.84118353121741" lon="7.625928580238335"><ele>62.0</ele><time>2026-04-26T05:14:16.825Z</time></trkpt><trkpt lat="43.841341651754256" lon="7.625922105525342"><ele>62.0</ele><time>2026-04-26T05:14:17.825Z</time></trkpt><trkpt lat="43.8414984802035" lon="7.625903407172243"><ele>62.0</ele><time>2026-04-26T05:14:18.825Z</time></trkpt><trkpt lat="43.8416618453864" lon="7.625873083574617"><ele>62.0</ele><time>2026-04-26T05:14:19.825Z</time></trkpt><trkpt lat="43.84181820678389" lon="7.625846944402245"><ele>61.0</ele><time>2026-04-26T05:14:20.825Z</time></trkpt><trkpt lat="43.84196871351164" lon="7.625831477273929"><ele>60.0</ele><time>2026-04-26T05:14:21.825Z</time></trkpt><trkpt lat="43.84211249527973" lon="7.625818720236591"><ele>59.0</ele><time>2026-04-26T05:14:22.825Z</time></trkpt><trkpt lat="43.84225427687944" lon="7.625790992327679"><ele>58.0</ele><time>2026-04-26T05:14:23.825Z</time></trkpt><trkpt lat="43.8423942803769" lon="7.625731795597553"><ele>58.0</ele><time>2026-04-26T05:14:24.825Z</time></trkpt><trkpt lat="43.84253174450141" lon="7.625654659429559"><ele>58.0</ele><time>2026-04-26T05:14:25.826Z</time></trkpt><trkpt lat="43.842676650985744" lon="7.62555957942703"><ele>58.0</ele><time>2026-04-26T05:14:26.826Z</time></trkpt><trkpt lat="43.84281823176309" lon="7.62545452062923"><ele>58.666666666666664</ele><time>2026-04-26T05:14:27.826Z</time></trkpt><trkpt lat="43.84295026825882" lon="7.6253415179167785"><ele>59.33333333333333</ele><time>2026-04-26T05:14:28.826Z</time></trkpt><trkpt lat="43.843081163975135" lon="7.625236869091395"><ele>60.0</ele><time>2026-04-26T05:14:29.826Z</time></trkpt><trkpt lat="43.84321481310042" lon="7.6251390987313705"><ele>60.0</ele><time>2026-04-26T05:14:30.826Z</time></trkpt><trkpt lat="43.843356171382055" lon="7.6250734232007495"><ele>60.0</ele><time>2026-04-26T05:14:31.826Z</time></trkpt><trkpt lat="43.843483187966235" lon="7.624973633891397"><ele>60.0</ele><time>2026-04-26T05:14:32.827Z</time></trkpt><trkpt lat="43.84363082244911" lon="7.624943500156887"><ele>60.0</ele><time>2026-04-26T05:14:33.827Z</time></trkpt><trkpt lat="43.84378086019878" lon="7.62489376636398"><ele>59.33333333333333</ele><time>2026-04-26T05:14:34.827Z</time></trkpt><trkpt lat="43.84392900413345" lon="7.624849602719559"><ele>58.666666666666664</ele><time>2026-04-26T05:14:35.826Z</time></trkpt><trkpt lat="43.844081257375166" lon="7.6248029980506695"><ele>58.0</ele><time>2026-04-26T05:14:36.826Z</time></trkpt><trkpt lat="43.84423527821066" lon="7.624754080312961"><ele>57.33333333333333</ele><time>2026-04-26T05:14:37.827Z</time></trkpt><trkpt lat="43.84439018446042" lon="7.624710156058371"><ele>56.66666666666667</ele><time>2026-04-26T05:14:38.826Z</time></trkpt><trkpt lat="43.844546178133875" lon="7.624665855107541"><ele>56.0</ele><time>2026-04-26T05:14:39.826Z</time></trkpt><trkpt lat="43.84470391321467" lon="7.624630906097651"><ele>56.0</ele><time>2026-04-26T05:14:40.826Z</time></trkpt><trkpt lat="43.84486430911039" lon="7.624600228266353"><ele>56.0</ele><time>2026-04-26T05:14:41.826Z</time></trkpt><trkpt lat="43.84502895461518" lon="7.624570257161363"><ele>56.0</ele><time>2026-04-26T05:14:42.826Z</time></trkpt><trkpt lat="43.84520034185417" lon="7.624529073504471"><ele>57.0</ele><time>2026-04-26T05:14:43.826Z</time></trkpt><trkpt lat="43.84536632272103" lon="7.624481791848118"><ele>58.0</ele><time>2026-04-26T05:14:44.826Z</time></trkpt><trkpt lat="43.845524534631004" lon="7.624438890642451"><ele>59.0</ele><time>2026-04-26T05:14:45.826Z</time></trkpt><trkpt lat="43.84566761515499" lon="7.624387991112249"><ele>59.0</ele><time>2026-04-26T05:14:46.826Z</time></trkpt><trkpt lat="43.845810889079885" lon="7.624328638604703"><ele>59.0</ele><time>2026-04-26T05:14:47.826Z</time></trkpt><trkpt lat="43.8459530406716" lon="7.6242748833312985"><ele>59.0</ele><time>2026-04-26T05:14:48.826Z</time></trkpt><trkpt lat="43.84609552741507" lon="7.624228259119518"><ele>59.0</ele><time>2026-04-26T05:14:49.826Z</time></trkpt><trkpt lat="43.84623481060666" lon="7.624181485320017"><ele>58.0</ele><time>2026-04-26T05:14:50.826Z</time></trkpt><trkpt lat="43.84637662326519" lon="7.62414344655379"><ele>57.0</ele><time>2026-04-26T05:14:51.826Z</time></trkpt><trkpt lat="43.846510754664564" lon="7.624110830311068"><ele>56.0</ele><time>2026-04-26T05:14:52.826Z</time></trkpt><trkpt lat="43.84664412375205" lon="7.624108522768506"><ele>55.0</ele><time>2026-04-26T05:14:53.826Z</time></trkpt><trkpt lat="43.84677940699009" lon="7.624063409352918"><ele>54.5</ele><time>2026-04-26T05:14:54.826Z</time></trkpt><trkpt lat="43.8469195279898" lon="7.624037522170919"><ele>54.0</ele><time>2026-04-26T05:14:55.826Z</time></trkpt><trkpt lat="43.847069164440065" lon="7.624010528986105"><ele>53.5</ele><time>2026-04-26T05:14:56.826Z</time></trkpt><trkpt lat="43.84722120122777" lon="7.6240050980346386"><ele>53.0</ele><time>2026-04-26T05:14:57.826Z</time></trkpt><trkpt lat="43.84736902908248" lon="7.623978461422099"><ele>53.0</ele><time>2026-04-26T05:14:58.826Z</time></trkpt><trkpt lat="43.84751807149934" lon="7.623953120537002"><ele>53.0</ele><time>2026-04-26T05:14:59.826Z</time></trkpt><trkpt lat="43.84766532905055" lon="7.623927429228221"><ele>53.0</ele><time>2026-04-26T05:15:00.826Z</time></trkpt><trkpt lat="43.84780696800152" lon="7.623901706925178"><ele>53.0</ele><time>2026-04-26T05:15:01.826Z</time></trkpt><trkpt lat="43.84794655776213" lon="7.623856096629997"><ele>53.25</ele><time>2026-04-26T05:15:02.826Z</time></trkpt><trkpt lat="43.84807160753005" lon="7.623852296054259"><ele>53.5</ele><time>2026-04-26T05:15:03.825Z</time></trkpt><trkpt lat="43.84818824281771" lon="7.623818981339556"><ele>53.75</ele><time>2026-04-26T05:15:04.825Z</time></trkpt><trkpt lat="43.848318523548336" lon="7.623807517639693"><ele>54.0</ele><time>2026-04-26T05:15:05.825Z</time></trkpt><trkpt lat="43.84845330310102" lon="7.6237891233412025"><ele>53.75</ele><time>2026-04-26T05:15:06.825Z</time></trkpt><trkpt lat="43.848588918802065" lon="7.623761189707599"><ele>53.5</ele><time>2026-04-26T05:15:07.825Z</time></trkpt><trkpt lat="43.8487250907273" lon="7.623732683311632"><ele>53.25</ele><time>2026-04-26T05:15:08.825Z</time></trkpt><trkpt lat="43.84887359137107" lon="7.623712119982398"><ele>53.0</ele><time>2026-04-26T05:15:09.825Z</time></trkpt><trkpt lat="43.849011384585424" lon="7.623691915820209"><ele>53.0</ele><time>2026-04-26T05:15:10.825Z</time></trkpt><trkpt lat="43.849147319077915" lon="7.6236718083796795"><ele>53.0</ele><time>2026-04-26T05:15:11.825Z</time></trkpt><trkpt lat="43.84928065699572" lon="7.623622358681157"><ele>53.0</ele><time>2026-04-26T05:15:12.825Z</time></trkpt><trkpt lat="43.84941540906115" lon="7.623572290999234"><ele>53.0</ele><time>2026-04-26T05:15:13.825Z</time></trkpt><trkpt lat="43.84955737738512" lon="7.623538785188785"><ele>55.0</ele><time>2026-04-26T05:15:14.825Z</time></trkpt><trkpt lat="43.84967738259115" lon="7.623489720666763"><ele>57.0</ele><time>2026-04-26T05:15:15.825Z</time></trkpt><trkpt lat="43.8497803308272" lon="7.623413850331968"><ele>59.0</ele><time>2026-04-26T05:15:16.825Z</time></trkpt><trkpt lat="43.849890340978924" lon="7.62335087931734"><ele>61.0</ele><time>2026-04-26T05:15:17.825Z</time></trkpt><trkpt lat="43.85001071533062" lon="7.623291745110251"><ele>61.0</ele><time>2026-04-26T05:15:18.825Z</time></trkpt><trkpt lat="43.85012843136201" lon="7.62322649002291"><ele>61.0</ele><time>2026-04-26T05:15:19.825Z</time></trkpt><trkpt lat="43.85024693358678" lon="7.623135435593197"><ele>61.0</ele><time>2026-04-26T05:15:20.825Z</time></trkpt><trkpt lat="43.850351363403284" lon="7.62307019185632"><ele>61.0</ele><time>2026-04-26T05:15:21.825Z</time></trkpt><trkpt lat="43.85044893244261" lon="7.623016317240398"><ele>61.0</ele><time>2026-04-26T05:15:22.825Z</time></trkpt><trkpt lat="43.85053259623171" lon="7.622970641518031"><ele>60.99999999999999</ele><time>2026-04-26T05:15:23.825Z</time></trkpt><trkpt lat="43.850629931433986" lon="7.62296639989817"><ele>60.99999999999999</ele><time>2026-04-26T05:15:24.825Z</time></trkpt><trkpt lat="43.850737165081334" lon="7.623000243304045"><ele>61.0</ele><time>2026-04-26T05:15:25.825Z</time></trkpt><trkpt lat="43.85083725390072" lon="7.623065849044635"><ele>61.0</ele><time>2026-04-26T05:15:26.825Z</time></trkpt><trkpt lat="43.85094521582858" lon="7.623128779476524"><ele>61.75</ele><time>2026-04-26T05:15:27.825Z</time></trkpt><trkpt lat="43.851048783481616" lon="7.623196334817016"><ele>62.5</ele><time>2026-04-26T05:15:28.825Z</time></trkpt><trkpt lat="43.851159140031605" lon="7.623270269265792"><ele>63.25</ele><time>2026-04-26T05:15:29.825Z</time></trkpt><trkpt lat="43.85127186121361" lon="7.623348982836508"><ele>64.0</ele><time>2026-04-26T05:15:30.825Z</time></trkpt><trkpt lat="43.851391280241735" lon="7.623423810094171"><ele>64.0</ele><time>2026-04-26T05:15:31.825Z</time></trkpt><trkpt lat="43.85153157067315" lon="7.623506680109866"><ele>64.0</ele><time>2026-04-26T05:15:32.825Z</time></trkpt><trkpt lat="43.85166598056808" lon="7.623575127647207"><ele>64.0</ele><time>2026-04-26T05:15:33.825Z</time></trkpt><trkpt lat="43.8517919067785" lon="7.6236505333842635"><ele>64.0</ele><time>2026-04-26T05:15:34.825Z</time></trkpt><trkpt lat="43.85190956969042" lon="7.623736152526941"><ele>63.25</ele><time>2026-04-26T05:15:35.824Z</time></trkpt><trkpt lat="43.852024942348564" lon="7.6238220089397135"><ele>62.5</ele><time>2026-04-26T05:15:36.824Z</time></trkpt><trkpt lat="43.85214259189803" lon="7.623910116456548"><ele>61.75</ele><time>2026-04-26T05:15:37.824Z</time></trkpt><trkpt lat="43.85225011084232" lon="7.6239930775557445"><ele>61.0</ele><time>2026-04-26T05:15:38.824Z</time></trkpt><trkpt lat="43.85236232345564" lon="7.6240788204814836"><ele>61.0</ele><time>2026-04-26T05:15:39.824Z</time></trkpt><trkpt lat="43.85246558573852" lon="7.624140117699017"><ele>61.0</ele><time>2026-04-26T05:15:40.824Z</time></trkpt><trkpt lat="43.85256832734786" lon="7.624174766700049"><ele>61.0</ele><time>2026-04-26T05:15:41.824Z</time></trkpt><trkpt lat="43.8526741662256" lon="7.624252404373514"><ele>61.0</ele><time>2026-04-26T05:15:42.824Z</time></trkpt><trkpt lat="43.85280190471806" lon="7.624367932360061"><ele>61.5</ele><time>2026-04-26T05:15:43.824Z</time></trkpt><trkpt lat="43.85290882520084" lon="7.624381631157823"><ele>62.0</ele><time>2026-04-26T05:15:44.824Z</time></trkpt><trkpt lat="43.85306165545842" lon="7.624322773020985"><ele>62.5</ele><time>2026-04-26T05:15:45.824Z</time></trkpt><trkpt lat="43.853198882639155" lon="7.624254253316004"><ele>63.0</ele><time>2026-04-26T05:15:46.824Z</time></trkpt><trkpt lat="43.85334493110703" lon="7.624183765834611"><ele>62.25</ele><time>2026-04-26T05:15:47.824Z</time></trkpt><trkpt lat="43.85349357542542" lon="7.6242132203652435"><ele>61.5</ele><time>2026-04-26T05:15:48.824Z</time></trkpt><trkpt lat="43.85363800530545" lon="7.624188555419483"><ele>60.75</ele><time>2026-04-26T05:15:49.824Z</time></trkpt><trkpt lat="43.853788098574036" lon="7.624171361616393"><ele>60.0</ele><time>2026-04-26T05:15:50.824Z</time></trkpt><trkpt lat="43.85393871672091" lon="7.624139047750704"><ele>60.0</ele><time>2026-04-26T05:15:51.824Z</time></trkpt><trkpt lat="43.85407571397295" lon="7.624104989980364"><ele>60.0</ele><time>2026-04-26T05:15:52.824Z</time></trkpt><trkpt lat="43.85421562059693" lon="7.624068747297399"><ele>60.0</ele><time>2026-04-26T05:15:53.824Z</time></trkpt><trkpt lat="43.85433814261127" lon="7.624038650601516"><ele>60.0</ele><time>2026-04-26T05:15:54.824Z</time></trkpt><trkpt lat="43.85445840298261" lon="7.6240070392054315"><ele>61.0</ele><time>2026-04-26T05:15:55.824Z</time></trkpt><trkpt lat="43.85457571428591" lon="7.6239876516964005"><ele>62.0</ele><time>2026-04-26T05:15:56.824Z</time></trkpt><trkpt lat="43.854700619334295" lon="7.623956105940784"><ele>63.0</ele><time>2026-04-26T05:15:57.824Z</time></trkpt><trkpt lat="43.854845922990435" lon="7.623960126800354"><ele>64.0</ele><time>2026-04-26T05:15:58.824Z</time></trkpt><trkpt lat="43.85498782238596" lon="7.623936570707704"><ele>63.33333333333333</ele><time>2026-04-26T05:15:59.824Z</time></trkpt><trkpt lat="43.8551344710378" lon="7.623891078705875"><ele>62.66666666666667</ele><time>2026-04-26T05:16:00.824Z</time></trkpt><trkpt lat="43.855287266409434" lon="7.623860765933499"><ele>62.0</ele><time>2026-04-26T05:16:01.824Z</time></trkpt><trkpt lat="43.85543550189878" lon="7.623828282463534"><ele>62.0</ele><time>2026-04-26T05:16:02.824Z</time></trkpt><trkpt lat="43.8555755479046" lon="7.623794868310924"><ele>62.0</ele><time>2026-04-26T05:16:03.824Z</time></trkpt><trkpt lat="43.855717800407305" lon="7.623759047430162"><ele>62.0</ele><time>2026-04-26T05:16:04.824Z</time></trkpt><trkpt lat="43.855860173428326" lon="7.623730470415802"><ele>62.0</ele><time>2026-04-26T05:16:05.824Z</time></trkpt><trkpt lat="43.85600098093397" lon="7.623713565126668"><ele>62.5</ele><time>2026-04-26T05:16:06.824Z</time></trkpt><trkpt lat="43.8561424502279" lon="7.623711654302545"><ele>63.0</ele><time>2026-04-26T05:16:07.824Z</time></trkpt><trkpt lat="43.85629003301893" lon="7.623723085560796"><ele>63.5</ele><time>2026-04-26T05:16:08.823Z</time></trkpt><trkpt lat="43.856443804475205" lon="7.6237452105224595"><ele>64.0</ele><time>2026-04-26T05:16:09.823Z</time></trkpt><trkpt lat="43.856601200988365" lon="7.623774322438914"><ele>64.0</ele><time>2026-04-26T05:16:10.823Z</time></trkpt><trkpt lat="43.85676671126265" lon="7.623809270485908"><ele>64.0</ele><time>2026-04-26T05:16:11.823Z</time></trkpt><trkpt lat="43.85693816923008" lon="7.62383540664299"><ele>64.0</ele><time>2026-04-26T05:16:12.823Z</time></trkpt><trkpt lat="43.85710972315262" lon="7.623870003131206"><ele>63.666666666666664</ele><time>2026-04-26T05:16:13.823Z</time></trkpt><trkpt lat="43.85727767015915" lon="7.623882573017999"><ele>63.33333333333333</ele><time>2026-04-26T05:16:14.823Z</time></trkpt><trkpt lat="43.85743480833098" lon="7.623916003041669"><ele>63.0</ele><time>2026-04-26T05:16:15.823Z</time></trkpt><trkpt lat="43.85760429182584" lon="7.623954374923504"><ele>62.75</ele><time>2026-04-26T05:16:16.823Z</time></trkpt><trkpt lat="43.85777403601206" lon="7.6240002026044555"><ele>62.5</ele><time>2026-04-26T05:16:17.823Z</time></trkpt><trkpt lat="43.857858019818345" lon="7.623966568527888"><ele>62.25</ele><time>2026-04-26T05:16:18.823Z</time></trkpt><trkpt lat="43.85801610633442" lon="7.623963784624304"><ele>62.0</ele><time>2026-04-26T05:16:19.823Z</time></trkpt><trkpt lat="43.85817686974304" lon="7.623946902017507"><ele>62.0</ele><time>2026-04-26T05:16:20.823Z</time></trkpt><trkpt lat="43.85834119756551" lon="7.623934160055883"><ele>62.0</ele><time>2026-04-26T05:16:21.823Z</time></trkpt><trkpt lat="43.85850679886969" lon="7.623914356633659"><ele>62.0</ele><time>2026-04-26T05:16:22.823Z</time></trkpt><trkpt lat="43.85867534839544" lon="7.623892332725298"><ele>63.0</ele><time>2026-04-26T05:16:23.823Z</time></trkpt><trkpt lat="43.85884535626617" lon="7.623877578265348"><ele>64.0</ele><time>2026-04-26T05:16:24.823Z</time></trkpt><trkpt lat="43.85901519053733" lon="7.6238634168200425"><ele>65.0</ele><time>2026-04-26T05:16:25.823Z</time></trkpt><trkpt lat="43.85917933753339" lon="7.623850490873277"><ele>65.33333333333334</ele><time>2026-04-26T05:16:26.823Z</time></trkpt><trkpt lat="43.859338616459524" lon="7.6238471091205895"><ele>65.66666666666667</ele><time>2026-04-26T05:16:27.823Z</time></trkpt><trkpt lat="43.85950490221617" lon="7.6238475414307505"><ele>66.0</ele><time>2026-04-26T05:16:28.823Z</time></trkpt><trkpt lat="43.85966973347323" lon="7.623833406090799"><ele>66.0</ele><time>2026-04-26T05:16:29.823Z</time></trkpt><trkpt lat="43.859838197985304" lon="7.62381845957683"><ele>66.0</ele><time>2026-04-26T05:16:30.823Z</time></trkpt><trkpt lat="43.86000292812439" lon="7.62379699209882"><ele>66.0</ele><time>2026-04-26T05:16:31.825Z</time></trkpt><trkpt lat="43.860159963924175" lon="7.62377134515921"><ele>67.33333333333333</ele><time>2026-04-26T05:16:32.825Z</time></trkpt><trkpt lat="43.86030709089059" lon="7.623726730034556"><ele>68.66666666666666</ele><time>2026-04-26T05:16:33.825Z</time></trkpt><trkpt lat="43.86045272540266" lon="7.623679275965795"><ele>70.0</ele><time>2026-04-26T05:16:34.888Z</time></trkpt><trkpt lat="43.860588325220355" lon="7.623584865614818"><ele>70.33333333333333</ele><time>2026-04-26T05:16:35.887Z</time></trkpt><trkpt lat="43.86071916249652" lon="7.6234653471521625"><ele>70.66666666666667</ele><time>2026-04-26T05:16:36.888Z</time></trkpt><trkpt lat="43.860843722560986" lon="7.6233506476349335"><ele>71.0</ele><time>2026-04-26T05:16:37.888Z</time></trkpt><trkpt lat="43.86097114613659" lon="7.623256156162116"><ele>71.0</ele><time>2026-04-26T05:16:38.888Z</time></trkpt><trkpt lat="43.86108603819783" lon="7.623168191586475"><ele>71.0</ele><time>2026-04-26T05:16:39.888Z</time></trkpt><trkpt lat="43.861195972303726" lon="7.62308272955058"><ele>71.0</ele><time>2026-04-26T05:16:40.888Z</time></trkpt><trkpt lat="43.861265972290255" lon="7.622945568474319"><ele>71.0</ele><time>2026-04-26T05:16:41.888Z</time></trkpt><trkpt lat="43.861319420051615" lon="7.6227963068397875"><ele>70.5</ele><time>2026-04-26T05:16:42.888Z</time></trkpt><trkpt lat="43.86134898185662" lon="7.622618972858329"><ele>70.0</ele><time>2026-04-26T05:16:43.888Z</time></trkpt><trkpt lat="43.86136380167591" lon="7.622460969871688"><ele>69.5</ele><time>2026-04-26T05:16:44.888Z</time></trkpt><trkpt lat="43.86140851815584" lon="7.622321497423803"><ele>69.0</ele><time>2026-04-26T05:16:45.888Z</time></trkpt><trkpt lat="43.861493474884384" lon="7.622219831568492"><ele>69.0</ele><time>2026-04-26T05:16:46.888Z</time></trkpt><trkpt lat="43.86156557949134" lon="7.622106290752436"><ele>69.0</ele><time>2026-04-26T05:16:47.888Z</time></trkpt><trkpt lat="43.86167764197429" lon="7.622055582676675"><ele>69.0</ele><time>2026-04-26T05:16:48.888Z</time></trkpt><trkpt lat="43.8617762878627" lon="7.622047882853894"><ele>69.0</ele><time>2026-04-26T05:16:49.888Z</time></trkpt><trkpt lat="43.861866990077964" lon="7.622065791890557"><ele>69.0</ele><time>2026-04-26T05:16:50.888Z</time></trkpt><trkpt lat="43.861947792219986" lon="7.622075567922007"><ele>70.2</ele><time>2026-04-26T05:16:51.888Z</time></trkpt><trkpt lat="43.86203283092041" lon="7.622103073500923"><ele>71.4</ele><time>2026-04-26T05:16:52.888Z</time></trkpt><trkpt lat="43.86210177293261" lon="7.622182957707281"><ele>72.6</ele><time>2026-04-26T05:16:53.888Z</time></trkpt><trkpt lat="43.862153511449456" lon="7.622319258479223"><ele>73.8</ele><time>2026-04-26T05:16:54.888Z</time></trkpt><trkpt lat="43.86224289128736" lon="7.622440803562564"><ele>75.0</ele><time>2026-04-26T05:16:55.888Z</time></trkpt><trkpt lat="43.86233876765851" lon="7.622564370609923"><ele>75.0</ele><time>2026-04-26T05:16:56.888Z</time></trkpt><trkpt lat="43.86245652484286" lon="7.622661168360457"><ele>75.0</ele><time>2026-04-26T05:16:57.888Z</time></trkpt><trkpt lat="43.86261601435566" lon="7.622740129651985"><ele>75.0</ele><time>2026-04-26T05:16:58.888Z</time></trkpt><trkpt lat="43.86278192336436" lon="7.622818592152252"><ele>75.66666666666667</ele><time>2026-04-26T05:16:59.888Z</time></trkpt><trkpt lat="43.86296066918702" lon="7.622873131064818"><ele>76.33333333333334</ele><time>2026-04-26T05:17:00.888Z</time></trkpt><trkpt lat="43.8631396337581" lon="7.622904484249909"><ele>77.0</ele><time>2026-04-26T05:17:01.888Z</time></trkpt><trkpt lat="43.863310485876646" lon="7.622908704415888"><ele>78.66666666666667</ele><time>2026-04-26T05:17:02.888Z</time></trkpt><trkpt lat="43.863465893323045" lon="7.622879283795983"><ele>80.33333333333333</ele><time>2026-04-26T05:17:03.888Z</time></trkpt><trkpt lat="43.86361658600992" lon="7.622789699793416"><ele>82.0</ele><time>2026-04-26T05:17:04.888Z</time></trkpt><trkpt lat="43.86376873870604" lon="7.62272082392338"><ele>82.0</ele><time>2026-04-26T05:17:05.888Z</time></trkpt><trkpt lat="43.86391646590027" lon="7.622685606025958"><ele>82.0</ele><time>2026-04-26T05:17:06.888Z</time></trkpt><trkpt lat="43.864059119645646" lon="7.622706356585203"><ele>82.0</ele><time>2026-04-26T05:17:07.888Z</time></trkpt><trkpt lat="43.86419515868528" lon="7.622733586539951"><ele>82.0</ele><time>2026-04-26T05:17:08.888Z</time></trkpt><trkpt lat="43.86432688791489" lon="7.622779077207356"><ele>80.25</ele><time>2026-04-26T05:17:09.888Z</time></trkpt><trkpt lat="43.864450417179285" lon="7.6228589684472245"><ele>78.5</ele><time>2026-04-26T05:17:10.888Z</time></trkpt><trkpt lat="43.8645698968081" lon="7.6229743394347045"><ele>76.75</ele><time>2026-04-26T05:17:11.888Z</time></trkpt><trkpt lat="43.86469076957217" lon="7.623091472077767"><ele>75.0</ele><time>2026-04-26T05:17:12.888Z</time></trkpt><trkpt lat="43.86479556514081" lon="7.623224853737679"><ele>75.0</ele><time>2026-04-26T05:17:13.888Z</time></trkpt><trkpt lat="43.864907493451355" lon="7.623365757421327"><ele>75.0</ele><time>2026-04-26T05:17:14.888Z</time></trkpt><trkpt lat="43.865025584982526" lon="7.623508545676479"><ele>75.0</ele><time>2026-04-26T05:17:15.888Z</time></trkpt><trkpt lat="43.8651433963551" lon="7.623654956674385"><ele>77.0</ele><time>2026-04-26T05:17:16.888Z</time></trkpt><trkpt lat="43.865258449917455" lon="7.62379718311146"><ele>79.0</ele><time>2026-04-26T05:17:17.888Z</time></trkpt><trkpt lat="43.86537850188033" lon="7.623939935469242"><ele>81.0</ele><time>2026-04-26T05:17:18.888Z</time></trkpt><trkpt lat="43.86549835790961" lon="7.6240634751129095"><ele>81.0</ele><time>2026-04-26T05:17:19.888Z</time></trkpt><trkpt lat="43.8656201351728" lon="7.624196872727875"><ele>81.0</ele><time>2026-04-26T05:17:20.887Z</time></trkpt><trkpt lat="43.865730802107656" lon="7.62432481138814"><ele>81.0</ele><time>2026-04-26T05:17:21.887Z</time></trkpt><trkpt lat="43.865841191758264" lon="7.624452644816239"><ele>81.0</ele><time>2026-04-26T05:17:22.887Z</time></trkpt><trkpt lat="43.865948357537036" lon="7.62457122784254"><ele>82.0</ele><time>2026-04-26T05:17:23.887Z</time></trkpt><trkpt lat="43.86607891002933" lon="7.624667503781686"><ele>83.0</ele><time>2026-04-26T05:17:24.887Z</time></trkpt><trkpt lat="43.86621980969208" lon="7.624743807106936"><ele>84.0</ele><time>2026-04-26T05:17:25.887Z</time></trkpt><trkpt lat="43.86636734842835" lon="7.624810123786128"><ele>84.0</ele><time>2026-04-26T05:17:26.887Z</time></trkpt><trkpt lat="43.866512489637444" lon="7.624872025992664"><ele>84.0</ele><time>2026-04-26T05:17:27.887Z</time></trkpt><trkpt lat="43.866667094985445" lon="7.624931137662155"><ele>84.0</ele><time>2026-04-26T05:17:28.887Z</time></trkpt><trkpt lat="43.86681739440013" lon="7.624991965652647"><ele>84.66666666666667</ele><time>2026-04-26T05:17:29.887Z</time></trkpt><trkpt lat="43.86696508456428" lon="7.625058834389639"><ele>85.33333333333334</ele><time>2026-04-26T05:17:30.887Z</time></trkpt><trkpt lat="43.86711076027064" lon="7.625127258250904"><ele>86.0</ele><time>2026-04-26T05:17:31.887Z</time></trkpt><trkpt lat="43.8672605915975" lon="7.62519022346856"><ele>86.0</ele><time>2026-04-26T05:17:32.887Z</time></trkpt><trkpt lat="43.86740864809503" lon="7.625257838556408"><ele>86.0</ele><time>2026-04-26T05:17:33.887Z</time></trkpt><trkpt lat="43.86756318272111" lon="7.625309832102385"><ele>86.0</ele><time>2026-04-26T05:17:34.887Z</time></trkpt><trkpt lat="43.86772053594754" lon="7.625349069617041"><ele>88.0</ele><time>2026-04-26T05:17:35.887Z</time></trkpt><trkpt lat="43.86788615356853" lon="7.625361279581666"><ele>90.0</ele><time>2026-04-26T05:17:36.887Z</time></trkpt><trkpt lat="43.868046766984314" lon="7.625369786520678"><ele>92.0</ele><time>2026-04-26T05:17:37.887Z</time></trkpt><trkpt lat="43.86819717438855" lon="7.625367887440968"><ele>92.0</ele><time>2026-04-26T05:17:38.887Z</time></trkpt><trkpt lat="43.868363270201726" lon="7.625373147852016"><ele>92.0</ele><time>2026-04-26T05:17:39.887Z</time></trkpt><trkpt lat="43.868512587370844" lon="7.625382657431995"><ele>92.0</ele><time>2026-04-26T05:17:40.887Z</time></trkpt><trkpt lat="43.86868031497768" lon="7.6253862767537735"><ele>89.33333333333334</ele><time>2026-04-26T05:17:41.887Z</time></trkpt><trkpt lat="43.86884445836398" lon="7.625397998096079"><ele>86.66666666666667</ele><time>2026-04-26T05:17:42.887Z</time></trkpt><trkpt lat="43.869006950383536" lon="7.62540200686861"><ele>84.0</ele><time>2026-04-26T05:17:43.887Z</time></trkpt><trkpt lat="43.86916160497015" lon="7.62541208582314"><ele>82.33333333333333</ele><time>2026-04-26T05:17:44.887Z</time></trkpt><trkpt lat="43.86931281387289" lon="7.625418331760557"><ele>80.66666666666666</ele><time>2026-04-26T05:17:45.887Z</time></trkpt><trkpt lat="43.86946515023871" lon="7.625424297183273"><ele>79.0</ele><time>2026-04-26T05:17:46.887Z</time></trkpt><trkpt lat="43.869620400056206" lon="7.625414917948333"><ele>79.0</ele><time>2026-04-26T05:17:47.887Z</time></trkpt><trkpt lat="43.86977421849043" lon="7.625393885393455"><ele>79.0</ele><time>2026-04-26T05:17:48.887Z</time></trkpt><trkpt lat="43.86992690175446" lon="7.625375868011877"><ele>79.0</ele><time>2026-04-26T05:17:49.887Z</time></trkpt><trkpt lat="43.8700864202326" lon="7.625359461326084"><ele>80.33333333333333</ele><time>2026-04-26T05:17:50.887Z</time></trkpt><trkpt lat="43.87024077685956" lon="7.625356796038387"><ele>81.66666666666667</ele><time>2026-04-26T05:17:51.887Z</time></trkpt><trkpt lat="43.87039973367651" lon="7.625380445387245"><ele>83.0</ele><time>2026-04-26T05:17:52.887Z</time></trkpt><trkpt lat="43.870548644503145" lon="7.625403091851252"><ele>83.0</ele><time>2026-04-26T05:17:53.887Z</time></trkpt><trkpt lat="43.870704156611595" lon="7.625446030554399"><ele>83.0</ele><time>2026-04-26T05:17:54.887Z</time></trkpt><trkpt lat="43.87084731900078" lon="7.6255007580504035"><ele>83.0</ele><time>2026-04-26T05:17:55.887Z</time></trkpt><trkpt lat="43.87097360537696" lon="7.625582690641062"><ele>83.0</ele><time>2026-04-26T05:17:56.887Z</time></trkpt><trkpt lat="43.87110447770621" lon="7.625673245969149"><ele>87.0</ele><time>2026-04-26T05:17:57.887Z</time></trkpt><trkpt lat="43.871206687242825" lon="7.625816467755407"><ele>91.0</ele><time>2026-04-26T05:17:58.887Z</time></trkpt><trkpt lat="43.871272028880995" lon="7.62598660900761"><ele>95.0</ele><time>2026-04-26T05:17:59.887Z</time></trkpt><trkpt lat="43.871333935961495" lon="7.626157412516594"><ele>99.0</ele><time>2026-04-26T05:18:00.887Z</time></trkpt><trkpt lat="43.87145945738661" lon="7.626299060731623"><ele>99.0</ele><time>2026-04-26T05:18:01.887Z</time></trkpt><trkpt lat="43.87141180207738" lon="7.626562906215792"><ele>99.0</ele><time>2026-04-26T05:18:02.887Z</time></trkpt><trkpt lat="43.87142355319004" lon="7.626778003564182"><ele>99.0</ele><time>2026-04-26T05:18:03.887Z</time></trkpt><trkpt lat="43.871420301547836" lon="7.6269945637131"><ele>95.33333333333333</ele><time>2026-04-26T05:18:04.887Z</time></trkpt><trkpt lat="43.8714324434314" lon="7.627200024042963"><ele>91.66666666666666</ele><time>2026-04-26T05:18:05.887Z</time></trkpt><trkpt lat="43.87144868527002" lon="7.627421606196265"><ele>88.0</ele><time>2026-04-26T05:18:06.887Z</time></trkpt><trkpt lat="43.871461467023344" lon="7.6276382624035755"><ele>87.33333333333333</ele><time>2026-04-26T05:18:07.887Z</time></trkpt><trkpt lat="43.87147166164321" lon="7.627851082224629"><ele>86.66666666666667</ele><time>2026-04-26T05:18:08.887Z</time></trkpt><trkpt lat="43.87149114287502" lon="7.628061934442693"><ele>86.0</ele><time>2026-04-26T05:18:09.887Z</time></trkpt><trkpt lat="43.87151552628523" lon="7.628264104242914"><ele>86.0</ele><time>2026-04-26T05:18:10.887Z</time></trkpt><trkpt lat="43.87154215239441" lon="7.628455063022513"><ele>86.0</ele><time>2026-04-26T05:18:11.887Z</time></trkpt><trkpt lat="43.87157896754645" lon="7.6286449445598015"><ele>86.0</ele><time>2026-04-26T05:18:12.887Z</time></trkpt><trkpt lat="43.87163639825483" lon="7.628844260669291"><ele>86.0</ele><time>2026-04-26T05:18:13.887Z</time></trkpt><trkpt lat="43.871709930786395" lon="7.629031043898331"><ele>86.0</ele><time>2026-04-26T05:18:14.887Z</time></trkpt><trkpt lat="43.87179010746828" lon="7.6292013987427225"><ele>86.0</ele><time>2026-04-26T05:18:15.887Z</time></trkpt><trkpt lat="43.871899294458444" lon="7.629359303685329"><ele>86.0</ele><time>2026-04-26T05:18:16.887Z</time></trkpt><trkpt lat="43.87201740443076" lon="7.62949117056272"><ele>86.0</ele><time>2026-04-26T05:18:17.887Z</time></trkpt><trkpt lat="43.872145884543066" lon="7.629585751873029"><ele>86.0</ele><time>2026-04-26T05:18:18.887Z</time></trkpt><trkpt lat="43.87226538772949" lon="7.62965483760193"><ele>86.0</ele><time>2026-04-26T05:18:19.886Z</time></trkpt><trkpt lat="43.87241326648491" lon="7.629685341486087"><ele>86.0</ele><time>2026-04-26T05:18:20.886Z</time></trkpt><trkpt lat="43.87256256108599" lon="7.629699398959637"><ele>86.0</ele><time>2026-04-26T05:18:21.886Z</time></trkpt><trkpt lat="43.872709309500785" lon="7.629682580697993"><ele>86.0</ele><time>2026-04-26T05:18:22.886Z</time></trkpt><trkpt lat="43.87284857367642" lon="7.629642788527401"><ele>86.0</ele><time>2026-04-26T05:18:23.886Z</time></trkpt><trkpt lat="43.87298001260083" lon="7.629579247065492"><ele>86.0</ele><time>2026-04-26T05:18:24.886Z</time></trkpt><trkpt lat="43.873111672052914" lon="7.62950898534558"><ele>89.5</ele><time>2026-04-26T05:18:25.886Z</time></trkpt><trkpt lat="43.873242967034614" lon="7.629451224372632"><ele>93.0</ele><time>2026-04-26T05:18:26.886Z</time></trkpt><trkpt lat="43.87337508755485" lon="7.629393900048489"><ele>96.5</ele><time>2026-04-26T05:18:27.886Z</time></trkpt><trkpt lat="43.87350682571132" lon="7.629345985297782"><ele>100.0</ele><time>2026-04-26T05:18:28.886Z</time></trkpt><trkpt lat="43.87362779563271" lon="7.629350058281296"><ele>99.75</ele><time>2026-04-26T05:18:29.886Z</time></trkpt><trkpt lat="43.873758087345344" lon="7.629407029560468"><ele>99.5</ele><time>2026-04-26T05:18:30.886Z</time></trkpt><trkpt lat="43.873871796577326" lon="7.62950122025386"><ele>99.25</ele><time>2026-04-26T05:18:31.886Z</time></trkpt><trkpt lat="43.87395038079486" lon="7.6296465170772"><ele>99.0</ele><time>2026-04-26T05:18:32.886Z</time></trkpt><trkpt lat="43.87402273648723" lon="7.62979811782715"><ele>99.0</ele><time>2026-04-26T05:18:33.886Z</time></trkpt><trkpt lat="43.87408547227112" lon="7.629957306854613"><ele>99.0</ele><time>2026-04-26T05:18:34.886Z</time></trkpt><trkpt lat="43.87415119460061" lon="7.630112862956494"><ele>99.0</ele><time>2026-04-26T05:18:35.886Z</time></trkpt><trkpt lat="43.874212824842004" lon="7.630252189876427"><ele>99.0</ele><time>2026-04-26T05:18:36.886Z</time></trkpt><trkpt lat="43.87427267975058" lon="7.6303809878530515"><ele>103.0</ele><time>2026-04-26T05:18:37.889Z</time></trkpt><trkpt lat="43.874336034714766" lon="7.63052341325602"><ele>107.0</ele><time>2026-04-26T05:18:38.888Z</time></trkpt><trkpt lat="43.874394989311725" lon="7.630678711303673"><ele>111.0</ele><time>2026-04-26T05:18:39.888Z</time></trkpt><trkpt lat="43.874446103449635" lon="7.630845200753844"><ele>115.0</ele><time>2026-04-26T05:18:40.889Z</time></trkpt><trkpt lat="43.87449410649314" lon="7.6310146845956774"><ele>112.75</ele><time>2026-04-26T05:18:41.889Z</time></trkpt><trkpt lat="43.87453278455674" lon="7.631193337237361"><ele>110.5</ele><time>2026-04-26T05:18:42.889Z</time></trkpt><trkpt lat="43.8745651826122" lon="7.631368840197453"><ele>108.25</ele><time>2026-04-26T05:18:43.889Z</time></trkpt><trkpt lat="43.87459354496603" lon="7.631546463833335"><ele>106.0</ele><time>2026-04-26T05:18:44.888Z</time></trkpt><trkpt lat="43.87461913544486" lon="7.631731322351288"><ele>106.0</ele><time>2026-04-26T05:18:45.888Z</time></trkpt><trkpt lat="43.87463579320415" lon="7.6319248945474705"><ele>106.0</ele><time>2026-04-26T05:18:46.889Z</time></trkpt><trkpt lat="43.874642232541255" lon="7.632131948293396"><ele>106.0</ele><time>2026-04-26T05:18:47.889Z</time></trkpt><trkpt lat="43.87464639702549" lon="7.632336731092672"><ele>106.0</ele><time>2026-04-26T05:18:48.889Z</time></trkpt><trkpt lat="43.87465884951208" lon="7.632549248867327"><ele>104.75</ele><time>2026-04-26T05:18:49.889Z</time></trkpt><trkpt lat="43.8746630370759" lon="7.632754705875212"><ele>103.5</ele><time>2026-04-26T05:18:50.888Z</time></trkpt><trkpt lat="43.874676668536196" lon="7.632944962401031"><ele>102.25</ele><time>2026-04-26T05:18:51.888Z</time></trkpt><trkpt lat="43.87468804066986" lon="7.6331334224616985"><ele>101.0</ele><time>2026-04-26T05:18:52.888Z</time></trkpt><trkpt lat="43.87469753920975" lon="7.633316195787045"><ele>101.0</ele><time>2026-04-26T05:18:53.888Z</time></trkpt><trkpt lat="43.87471129757062" lon="7.633495615935073"><ele>101.0</ele><time>2026-04-26T05:18:54.888Z</time></trkpt><trkpt lat="43.8747323312286" lon="7.633669380628231"><ele>101.0</ele><time>2026-04-26T05:18:55.888Z</time></trkpt><trkpt lat="43.87476406115765" lon="7.6338286009021425"><ele>101.0</ele><time>2026-04-26T05:18:56.888Z</time></trkpt><trkpt lat="43.87482390468614" lon="7.633994547185609"><ele>99.5</ele><time>2026-04-26T05:18:57.888Z</time></trkpt><trkpt lat="43.87490011721418" lon="7.634155994185636"><ele>98.0</ele><time>2026-04-26T05:18:58.888Z</time></trkpt><trkpt lat="43.87499149484486" lon="7.634310955810237"><ele>96.5</ele><time>2026-04-26T05:18:59.888Z</time></trkpt><trkpt lat="43.87509344500742" lon="7.634452833055805"><ele>95.0</ele><time>2026-04-26T05:19:00.888Z</time></trkpt><trkpt lat="43.875208916034246" lon="7.634581567965601"><ele>95.0</ele><time>2026-04-26T05:19:01.888Z</time></trkpt><trkpt lat="43.8753255005494" lon="7.634682416266499"><ele>95.0</ele><time>2026-04-26T05:19:02.888Z</time></trkpt><trkpt lat="43.87543671327521" lon="7.6347719829175915"><ele>95.0</ele><time>2026-04-26T05:19:03.888Z</time></trkpt><trkpt lat="43.8755374018334" lon="7.634865474872524"><ele>95.0</ele><time>2026-04-26T05:19:04.888Z</time></trkpt><trkpt lat="43.875642946455756" lon="7.634964457047576"><ele>95.0</ele><time>2026-04-26T05:19:05.888Z</time></trkpt><trkpt lat="43.875751996845324" lon="7.635067823890412"><ele>95.0</ele><time>2026-04-26T05:19:06.888Z</time></trkpt><trkpt lat="43.87586351663684" lon="7.635170955629852"><ele>95.0</ele><time>2026-04-26T05:19:07.888Z</time></trkpt><trkpt lat="43.87597007963259" lon="7.635275209512632"><ele>95.0</ele><time>2026-04-26T05:19:08.888Z</time></trkpt><trkpt lat="43.876068614350245" lon="7.635380069915084"><ele>95.8</ele><time>2026-04-26T05:19:09.888Z</time></trkpt><trkpt lat="43.87614666266869" lon="7.635493789433802"><ele>96.6</ele><time>2026-04-26T05:19:10.888Z</time></trkpt><trkpt lat="43.87622229530816" lon="7.635574056997649"><ele>97.4</ele><time>2026-04-26T05:19:11.888Z</time></trkpt><trkpt lat="43.87627827053521" lon="7.635627416536376"><ele>98.2</ele><time>2026-04-26T05:19:12.888Z</time></trkpt><trkpt lat="43.87634380384118" lon="7.635672739670592"><ele>99.0</ele><time>2026-04-26T05:19:14.888Z</time></trkpt><trkpt lat="43.87644591603181" lon="7.635583842216843"><ele>99.0</ele><time>2026-04-26T05:19:17.888Z</time></trkpt><trkpt lat="43.87648365954753" lon="7.63550316888652"><ele>99.0</ele><time>2026-04-26T05:19:18.888Z</time></trkpt><trkpt lat="43.876542961912776" lon="7.635437495162768"><ele>99.0</ele><time>2026-04-26T05:19:19.888Z</time></trkpt><trkpt lat="43.876599034538856" lon="7.635351836018986"><ele>99.0</ele><time>2026-04-26T05:19:20.888Z</time></trkpt><trkpt lat="43.87665425582844" lon="7.63526747744361"><ele>99.0</ele><time>2026-04-26T05:19:21.888Z</time></trkpt><trkpt lat="43.8766996511061" lon="7.635173814978392"><ele>99.0</ele><time>2026-04-26T05:19:22.888Z</time></trkpt><trkpt lat="43.87674563463786" lon="7.635107758447853"><ele>101.0</ele><time>2026-04-26T05:19:23.888Z</time></trkpt><trkpt lat="43.87679389867253" lon="7.635040079408131"><ele>103.0</ele><time>2026-04-26T05:19:24.888Z</time></trkpt><trkpt lat="43.87674434787736" lon="7.634941448606522"><ele>105.0</ele><time>2026-04-26T05:19:25.888Z</time></trkpt><trkpt lat="43.876733614580665" lon="7.634834270437167"><ele>107.0</ele><time>2026-04-26T05:19:27.888Z</time></trkpt><trkpt lat="43.87680786892516" lon="7.634820468091199"><ele>109.0</ele><time>2026-04-26T05:19:29.887Z</time></trkpt><trkpt lat="43.876891273305496" lon="7.6349308959264865"><ele>111.0</ele><time>2026-04-26T05:19:31.887Z</time></trkpt><trkpt lat="43.87695775239001" lon="7.634984984740246"><ele>117.0</ele><time>2026-04-26T05:19:32.887Z</time></trkpt><trkpt lat="43.877030107436745" lon="7.635036938308364"><ele>123.0</ele><time>2026-04-26T05:19:33.887Z</time></trkpt><trkpt lat="43.877101991133" lon="7.635125560055708"><ele>129.0</ele><time>2026-04-26T05:19:34.887Z</time></trkpt><trkpt lat="43.87718118805586" lon="7.635186170072755"><ele>135.0</ele><time>2026-04-26T05:19:35.887Z</time></trkpt><trkpt lat="43.877244668936214" lon="7.635223321343213"><ele>141.0</ele><time>2026-04-26T05:19:36.887Z</time></trkpt><trkpt lat="43.87731252365879" lon="7.635259303245024"><ele>147.0</ele><time>2026-04-26T05:19:38.887Z</time></trkpt><trkpt lat="43.87737069772395" lon="7.635185282272016"><ele>147.0</ele><time>2026-04-26T05:19:39.887Z</time></trkpt><trkpt lat="43.87732341878772" lon="7.635056225583378"><ele>147.0</ele><time>2026-04-26T05:19:40.887Z</time></trkpt><trkpt lat="43.877238414027794" lon="7.63500710911437"><ele>147.0</ele><time>2026-04-26T05:19:41.887Z</time></trkpt><trkpt lat="43.87714797760777" lon="7.634933963964525"><ele>147.0</ele><time>2026-04-26T05:19:43.887Z</time></trkpt><trkpt lat="43.877092815988185" lon="7.634832835199967"><ele>147.0</ele><time>2026-04-26T05:19:45.887Z</time></trkpt><trkpt lat="43.87702326775118" lon="7.634686646803471"><ele>147.0</ele><time>2026-04-26T05:19:47.887Z</time></trkpt><trkpt lat="43.87697686241799" lon="7.634576900725563"><ele>147.0</ele><time>2026-04-26T05:19:48.887Z</time></trkpt><trkpt lat="43.87692792348646" lon="7.634467339768674"><ele>147.0</ele><time>2026-04-26T05:19:49.887Z</time></trkpt><trkpt lat="43.87687807896978" lon="7.634348062487463"><ele>147.0</ele><time>2026-04-26T05:19:50.887Z</time></trkpt><trkpt lat="43.87683180728207" lon="7.6342848269006005"><ele>147.0</ele><time>2026-04-26T05:19:51.887Z</time></trkpt><trkpt lat="43.876769142647554" lon="7.634164202290612"><ele>144.79999999999998</ele><time>2026-04-26T05:19:52.887Z</time></trkpt><trkpt lat="43.87670083763213" lon="7.634073624005258"><ele>142.6</ele><time>2026-04-26T05:19:53.887Z</time></trkpt><trkpt lat="43.876609459748664" lon="7.63400863291531"><ele>140.39999999999998</ele><time>2026-04-26T05:19:54.887Z</time></trkpt><trkpt lat="43.87653311184054" lon="7.633948057988437"><ele>138.2</ele><time>2026-04-26T05:19:55.887Z</time></trkpt><trkpt lat="43.876460701955416" lon="7.6338607855834795"><ele>136.0</ele><time>2026-04-26T05:19:56.887Z</time></trkpt><trkpt lat="43.876403471505185" lon="7.633764419921614"><ele>136.0</ele><time>2026-04-26T05:19:57.887Z</time></trkpt><trkpt lat="43.87636336598128" lon="7.63364083894594"><ele>136.0</ele><time>2026-04-26T05:19:58.887Z</time></trkpt><trkpt lat="43.87634833507794" lon="7.633487496079984"><ele>136.0</ele><time>2026-04-26T05:19:59.887Z</time></trkpt><trkpt lat="43.87631386779143" lon="7.633335763850195"><ele>136.0</ele><time>2026-04-26T05:20:00.887Z</time></trkpt><trkpt lat="43.87628430479101" lon="7.6331873263968415"><ele>136.0</ele><time>2026-04-26T05:20:01.887Z</time></trkpt><trkpt lat="43.87626797234916" lon="7.6330233785575325"><ele>141.75</ele><time>2026-04-26T05:20:02.887Z</time></trkpt><trkpt lat="43.8762295651792" lon="7.632841758030591"><ele>147.5</ele><time>2026-04-26T05:20:03.887Z</time></trkpt><trkpt lat="43.8761832081221" lon="7.632665194228925"><ele>153.25</ele><time>2026-04-26T05:20:04.887Z</time></trkpt><trkpt lat="43.87612356345872" lon="7.632509519229468"><ele>159.0</ele><time>2026-04-26T05:20:05.887Z</time></trkpt><trkpt lat="43.876072920621624" lon="7.632391697521599"><ele>162.5</ele><time>2026-04-26T05:20:06.887Z</time></trkpt><trkpt lat="43.876003020819404" lon="7.632290251153886"><ele>166.0</ele><time>2026-04-26T05:20:07.887Z</time></trkpt><trkpt lat="43.87594594550634" lon="7.632205247308059"><ele>169.5</ele><time>2026-04-26T05:20:08.887Z</time></trkpt><trkpt lat="43.875904382183556" lon="7.63213726852469"><ele>173.0</ele><time>2026-04-26T05:20:09.887Z</time></trkpt><trkpt lat="43.87589182559724" lon="7.632028488688596"><ele>176.5</ele><time>2026-04-26T05:20:11.887Z</time></trkpt><trkpt lat="43.875980424562044" lon="7.631965819122742"><ele>180.0</ele><time>2026-04-26T05:20:12.887Z</time></trkpt><trkpt lat="43.876039460019335" lon="7.632089572873294"><ele>180.0</ele><time>2026-04-26T05:20:13.887Z</time></trkpt><trkpt lat="43.8760685027463" lon="7.632235155319292"><ele>180.0</ele><time>2026-04-26T05:20:14.887Z</time></trkpt><trkpt lat="43.87613608040293" lon="7.632358719330634"><ele>180.0</ele><time>2026-04-26T05:20:15.887Z</time></trkpt><trkpt lat="43.87619974483369" lon="7.632467595028528"><ele>180.0</ele><time>2026-04-26T05:20:16.887Z</time></trkpt><trkpt lat="43.87625767962099" lon="7.632598715499147"><ele>180.0</ele><time>2026-04-26T05:20:17.887Z</time></trkpt><trkpt lat="43.87630881179628" lon="7.632732620717156"><ele>175.8</ele><time>2026-04-26T05:20:18.887Z</time></trkpt><trkpt lat="43.87635105640039" lon="7.632850882532993"><ele>171.6</ele><time>2026-04-26T05:20:19.887Z</time></trkpt><trkpt lat="43.87639237771182" lon="7.632972887997486"><ele>167.4</ele><time>2026-04-26T05:20:20.887Z</time></trkpt><trkpt lat="43.8764384822726" lon="7.633093295279532"><ele>163.2</ele><time>2026-04-26T05:20:21.887Z</time></trkpt><trkpt lat="43.876519526454715" lon="7.63328164384842"><ele>159.0</ele><time>2026-04-26T05:20:23.887Z</time></trkpt><trkpt lat="43.876597039409425" lon="7.633364512642352"><ele>159.0</ele><time>2026-04-26T05:20:24.886Z</time></trkpt><trkpt lat="43.876658668723444" lon="7.6334798887860265"><ele>159.0</ele><time>2026-04-26T05:20:25.886Z</time></trkpt><trkpt lat="43.87672692822856" lon="7.6335995435639425"><ele>159.0</ele><time>2026-04-26T05:20:26.886Z</time></trkpt><trkpt lat="43.876807318336" lon="7.633702301385372"><ele>159.0</ele><time>2026-04-26T05:20:27.886Z</time></trkpt><trkpt lat="43.87688572976403" lon="7.633779008419197"><ele>159.0</ele><time>2026-04-26T05:20:28.886Z</time></trkpt><trkpt lat="43.876957059873256" lon="7.633849886944603"><ele>162.2</ele><time>2026-04-26T05:20:29.886Z</time></trkpt><trkpt lat="43.87701296211689" lon="7.633927681360342"><ele>165.4</ele><time>2026-04-26T05:20:30.886Z</time></trkpt><trkpt lat="43.8770516953109" lon="7.634021095570656"><ele>168.6</ele><time>2026-04-26T05:20:31.886Z</time></trkpt><trkpt lat="43.877100780464936" lon="7.634149831728623"><ele>171.8</ele><time>2026-04-26T05:20:32.886Z</time></trkpt><trkpt lat="43.87718510269953" lon="7.634263685284022"><ele>175.0</ele><time>2026-04-26T05:20:33.886Z</time></trkpt><trkpt lat="43.877258086637454" lon="7.63436459253579"><ele>176.8</ele><time>2026-04-26T05:20:34.886Z</time></trkpt><trkpt lat="43.877321432721324" lon="7.634474930742238"><ele>178.6</ele><time>2026-04-26T05:20:35.886Z</time></trkpt><trkpt lat="43.87738044389501" lon="7.634560487317382"><ele>180.39999999999998</ele><time>2026-04-26T05:20:36.886Z</time></trkpt><trkpt lat="43.87743432846556" lon="7.634623202177938"><ele>182.2</ele><time>2026-04-26T05:20:37.886Z</time></trkpt><trkpt lat="43.87754223435559" lon="7.63462277034904"><ele>184.0</ele><time>2026-04-26T05:20:38.886Z</time></trkpt><trkpt lat="43.877639952054196" lon="7.634641597733183"><ele>184.0</ele><time>2026-04-26T05:20:39.886Z</time></trkpt><trkpt lat="43.877707220750935" lon="7.634722576087705"><ele>184.0</ele><time>2026-04-26T05:20:40.886Z</time></trkpt><trkpt lat="43.8777426049954" lon="7.634809019979636"><ele>184.0</ele><time>2026-04-26T05:20:41.886Z</time></trkpt><trkpt lat="43.877746981203565" lon="7.634912889035961"><ele>184.0</ele><time>2026-04-26T05:20:42.886Z</time></trkpt><trkpt lat="43.87773721331288" lon="7.635008455836665"><ele>184.0</ele><time>2026-04-26T05:20:43.889Z</time></trkpt><trkpt lat="43.877768736248" lon="7.635105673057081"><ele>184.0</ele><time>2026-04-26T05:20:44.889Z</time></trkpt><trkpt lat="43.877865593461685" lon="7.635213664844121"><ele>177.0</ele><time>2026-04-26T05:20:45.889Z</time></trkpt><trkpt lat="43.87795458545841" lon="7.635323988921961"><ele>170.0</ele><time>2026-04-26T05:20:46.889Z</time></trkpt><trkpt lat="43.878046301821236" lon="7.635440408914911"><ele>163.0</ele><time>2026-04-26T05:20:47.888Z</time></trkpt><trkpt lat="43.87814407149564" lon="7.635566815566069"><ele>156.0</ele><time>2026-04-26T05:20:48.888Z</time></trkpt><trkpt lat="43.878238692903906" lon="7.635690936306604"><ele>156.0</ele><time>2026-04-26T05:20:49.889Z</time></trkpt><trkpt lat="43.87832608599361" lon="7.635804465781794"><ele>156.0</ele><time>2026-04-26T05:20:50.888Z</time></trkpt><trkpt lat="43.878413038226114" lon="7.635908208510307"><ele>156.0</ele><time>2026-04-26T05:20:51.888Z</time></trkpt><trkpt lat="43.878510102648654" lon="7.635986922821228"><ele>156.0</ele><time>2026-04-26T05:20:52.889Z</time></trkpt><trkpt lat="43.87858102545484" lon="7.636097193305622"><ele>157.8</ele><time>2026-04-26T05:20:53.889Z</time></trkpt><trkpt lat="43.878657237428776" lon="7.636199959004547"><ele>159.6</ele><time>2026-04-26T05:20:54.889Z</time></trkpt><trkpt lat="43.878741873817056" lon="7.636309453955694"><ele>161.4</ele><time>2026-04-26T05:20:55.889Z</time></trkpt><trkpt lat="43.87881732916402" lon="7.636417672120271"><ele>163.2</ele><time>2026-04-26T05:20:56.889Z</time></trkpt><trkpt lat="43.87888865860212" lon="7.636512304364391"><ele>165.0</ele><time>2026-04-26T05:20:57.889Z</time></trkpt><trkpt lat="43.87895073604501" lon="7.6365905420308104"><ele>165.0</ele><time>2026-04-26T05:20:58.889Z</time></trkpt><trkpt lat="43.879031046509446" lon="7.636650503019907"><ele>165.0</ele><time>2026-04-26T05:20:59.889Z</time></trkpt><trkpt lat="43.87912003296576" lon="7.636680346907018"><ele>165.0</ele><time>2026-04-26T05:21:00.889Z</time></trkpt><trkpt lat="43.87922182472661" lon="7.636678678261116"><ele>165.0</ele><time>2026-04-26T05:21:01.889Z</time></trkpt><trkpt lat="43.87932327194385" lon="7.636655995759426"><ele>165.0</ele><time>2026-04-26T05:21:02.889Z</time></trkpt><trkpt lat="43.87941795202884" lon="7.636620766401453"><ele>167.0</ele><time>2026-04-26T05:21:03.889Z</time></trkpt><trkpt lat="43.879515359223724" lon="7.636580611870738"><ele>169.0</ele><time>2026-04-26T05:21:04.889Z</time></trkpt><trkpt lat="43.879615595994395" lon="7.636532661725192"><ele>171.0</ele><time>2026-04-26T05:21:05.889Z</time></trkpt><trkpt lat="43.879698261215346" lon="7.6364707685910505"><ele>173.0</ele><time>2026-04-26T05:21:06.889Z</time></trkpt><trkpt lat="43.879780918240186" lon="7.636396257211162"><ele>175.0</ele><time>2026-04-26T05:21:07.889Z</time></trkpt><trkpt lat="43.87986294385513" lon="7.636313363345312"><ele>175.0</ele><time>2026-04-26T05:21:08.889Z</time></trkpt><trkpt lat="43.879944971984195" lon="7.636229143068035"><ele>175.0</ele><time>2026-04-26T05:21:09.889Z</time></trkpt><trkpt lat="43.88003320025188" lon="7.63622542576175"><ele>175.0</ele><time>2026-04-26T05:21:10.889Z</time></trkpt><trkpt lat="43.88013952121043" lon="7.636244948071945"><ele>175.0</ele><time>2026-04-26T05:21:11.889Z</time></trkpt><trkpt lat="43.88024965787281" lon="7.636217581191838"><ele>175.0</ele><time>2026-04-26T05:21:12.889Z</time></trkpt><trkpt lat="43.88034780637323" lon="7.636159459093269"><ele>176.4</ele><time>2026-04-26T05:21:13.889Z</time></trkpt><trkpt lat="43.88045201302692" lon="7.636153631023602"><ele>177.8</ele><time>2026-04-26T05:21:14.889Z</time></trkpt><trkpt lat="43.88055855710186" lon="7.636149279919211"><ele>179.2</ele><time>2026-04-26T05:21:15.889Z</time></trkpt><trkpt lat="43.880663068972886" lon="7.636151574640342"><ele>180.6</ele><time>2026-04-26T05:21:16.889Z</time></trkpt><trkpt lat="43.880758173374645" lon="7.636145526857974"><ele>182.0</ele><time>2026-04-26T05:21:17.889Z</time></trkpt><trkpt lat="43.88083964891547" lon="7.636126121698888"><ele>182.0</ele><time>2026-04-26T05:21:18.889Z</time></trkpt><trkpt lat="43.88091268310295" lon="7.636146508043282"><ele>182.0</ele><time>2026-04-26T05:21:19.889Z</time></trkpt><trkpt lat="43.88102814236514" lon="7.636225274852361"><ele>182.0</ele><time>2026-04-26T05:21:21.889Z</time></trkpt><trkpt lat="43.88104332826636" lon="7.636356359159373"><ele>182.0</ele><time>2026-04-26T05:21:22.889Z</time></trkpt><trkpt lat="43.88110521529881" lon="7.636454765371181"><ele>182.0</ele><time>2026-04-26T05:21:23.889Z</time></trkpt><trkpt lat="43.88115297794068" lon="7.63654543171347"><ele>184.2</ele><time>2026-04-26T05:21:24.889Z</time></trkpt><trkpt lat="43.881224281975186" lon="7.63658671681381"><ele>186.39999999999998</ele><time>2026-04-26T05:21:25.889Z</time></trkpt><trkpt lat="43.88132516247296" lon="7.636594575159044"><ele>188.60000000000002</ele><time>2026-04-26T05:21:26.889Z</time></trkpt><trkpt lat="43.88142834538687" lon="7.636588942966313"><ele>190.8</ele><time>2026-04-26T05:21:27.889Z</time></trkpt><trkpt lat="43.88153527016757" lon="7.6365590692132805"><ele>193.0</ele><time>2026-04-26T05:21:28.889Z</time></trkpt><trkpt lat="43.88164149980111" lon="7.636520021416208"><ele>193.0</ele><time>2026-04-26T05:21:29.889Z</time></trkpt><trkpt lat="43.881747113140534" lon="7.636502460990572"><ele>193.0</ele><time>2026-04-26T05:21:30.889Z</time></trkpt><trkpt lat="43.88184520411745" lon="7.636505807870806"><ele>193.0</ele><time>2026-04-26T05:21:31.889Z</time></trkpt><trkpt lat="43.88193396297064" lon="7.636518424668667"><ele>193.0</ele><time>2026-04-26T05:21:32.889Z</time></trkpt><trkpt lat="43.88199980466842" lon="7.636578098885477"><ele>193.0</ele><time>2026-04-26T05:21:33.889Z</time></trkpt><trkpt lat="43.88206752874964" lon="7.636692079541232"><ele>195.60000000000002</ele><time>2026-04-26T05:21:34.889Z</time></trkpt><trkpt lat="43.88214226993915" lon="7.636745473856485"><ele>198.20000000000002</ele><time>2026-04-26T05:21:35.888Z</time></trkpt><trkpt lat="43.88222164706565" lon="7.636811425887412"><ele>200.8</ele><time>2026-04-26T05:21:36.888Z</time></trkpt><trkpt lat="43.88231700866385" lon="7.636848550554475"><ele>203.4</ele><time>2026-04-26T05:21:37.888Z</time></trkpt><trkpt lat="43.88241142730345" lon="7.6368736539231925"><ele>206.0</ele><time>2026-04-26T05:21:38.888Z</time></trkpt><trkpt lat="43.882505543706245" lon="7.636875150147297"><ele>206.0</ele><time>2026-04-26T05:21:39.888Z</time></trkpt><trkpt lat="43.882595371118875" lon="7.636846797038756"><ele>206.0</ele><time>2026-04-26T05:21:40.888Z</time></trkpt><trkpt lat="43.882680134718534" lon="7.636785467468313"><ele>206.0</ele><time>2026-04-26T05:21:41.888Z</time></trkpt><trkpt lat="43.88274756842875" lon="7.636724563336226"><ele>206.0</ele><time>2026-04-26T05:21:42.888Z</time></trkpt><trkpt lat="43.88289500416256" lon="7.636645996204986"><ele>206.0</ele><time>2026-04-26T05:21:44.888Z</time></trkpt><trkpt lat="43.88296657520515" lon="7.636709607138279"><ele>208.0</ele><time>2026-04-26T05:21:45.888Z</time></trkpt><trkpt lat="43.88303612478512" lon="7.636798859780606"><ele>210.0</ele><time>2026-04-26T05:21:46.888Z</time></trkpt><trkpt lat="43.88309422495244" lon="7.636896037647469"><ele>212.00000000000003</ele><time>2026-04-26T05:21:47.888Z</time></trkpt><trkpt lat="43.883142915041844" lon="7.636969332986493"><ele>214.0</ele><time>2026-04-26T05:21:48.888Z</time></trkpt><trkpt lat="43.88327167472977" lon="7.636980284819171"><ele>216.0</ele><time>2026-04-26T05:21:50.888Z</time></trkpt><trkpt lat="43.88334139743896" lon="7.63691582597167"><ele>216.0</ele><time>2026-04-26T05:21:51.888Z</time></trkpt><trkpt lat="43.883425708944685" lon="7.636822328130676"><ele>216.00000000000003</ele><time>2026-04-26T05:21:52.888Z</time></trkpt><trkpt lat="43.883515808507006" lon="7.636747316568488"><ele>216.00000000000003</ele><time>2026-04-26T05:21:53.888Z</time></trkpt><trkpt lat="43.88362474184699" lon="7.636707876016686"><ele>216.0</ele><time>2026-04-26T05:21:54.888Z</time></trkpt><trkpt lat="43.883715554391244" lon="7.636619783639072"><ele>216.0</ele><time>2026-04-26T05:21:55.888Z</time></trkpt><trkpt lat="43.883817858674306" lon="7.636557426524785"><ele>216.0</ele><time>2026-04-26T05:21:56.888Z</time></trkpt><trkpt lat="43.88391073615606" lon="7.636468975364816"><ele>216.00000000000003</ele><time>2026-04-26T05:21:57.888Z</time></trkpt><trkpt lat="43.88399644507336" lon="7.636400581956316"><ele>216.00000000000003</ele><time>2026-04-26T05:21:58.888Z</time></trkpt><trkpt lat="43.884087553342916" lon="7.636355518392856"><ele>216.0</ele><time>2026-04-26T05:21:59.888Z</time></trkpt><trkpt lat="43.88418747115567" lon="7.636357874078201"><ele>216.0</ele><time>2026-04-26T05:22:00.888Z</time></trkpt><trkpt lat="43.88429056546925" lon="7.6363232970978885"><ele>218.33333333333334</ele><time>2026-04-26T05:22:01.888Z</time></trkpt><trkpt lat="43.88438991351208" lon="7.63628749372916"><ele>220.66666666666669</ele><time>2026-04-26T05:22:02.888Z</time></trkpt><trkpt lat="43.88448819476487" lon="7.63625428822222"><ele>223.0</ele><time>2026-04-26T05:22:03.888Z</time></trkpt><trkpt lat="43.8845720600956" lon="7.636238771644424"><ele>225.33333333333334</ele><time>2026-04-26T05:22:04.888Z</time></trkpt><trkpt lat="43.884656255018776" lon="7.6362472445706935"><ele>227.66666666666669</ele><time>2026-04-26T05:22:05.888Z</time></trkpt><trkpt lat="43.88472638708821" lon="7.636282123044932"><ele>230.0</ele><time>2026-04-26T05:22:06.888Z</time></trkpt><trkpt lat="43.88478021097322" lon="7.636350015068242"><ele>230.00000000000003</ele><time>2026-04-26T05:22:07.888Z</time></trkpt><trkpt lat="43.884796178863866" lon="7.636474257111935"><ele>230.0</ele><time>2026-04-26T05:22:08.888Z</time></trkpt><trkpt lat="43.884826327795274" lon="7.63659805539659"><ele>230.0</ele><time>2026-04-26T05:22:09.888Z</time></trkpt><trkpt lat="43.88483458871789" lon="7.6367103588546055"><ele>230.0</ele><time>2026-04-26T05:22:10.888Z</time></trkpt><trkpt lat="43.884868519310324" lon="7.636810464816114"><ele>230.00000000000003</ele><time>2026-04-26T05:22:11.888Z</time></trkpt><trkpt lat="43.88492586639804" lon="7.636868469291519"><ele>230.0</ele><time>2026-04-26T05:22:12.888Z</time></trkpt><trkpt lat="43.88506087160787" lon="7.636996786298859"><ele>230.25</ele><time>2026-04-26T05:22:14.888Z</time></trkpt><trkpt lat="43.88515575038537" lon="7.637034474567597"><ele>230.5</ele><time>2026-04-26T05:22:15.888Z</time></trkpt><trkpt lat="43.88525766630048" lon="7.636837975726928"><ele>230.75</ele><time>2026-04-26T05:22:16.888Z</time></trkpt><trkpt lat="43.885328372807585" lon="7.636781162617107"><ele>231.0</ele><time>2026-04-26T05:22:17.888Z</time></trkpt><trkpt lat="43.88540528477364" lon="7.636642167361136"><ele>231.0</ele><time>2026-04-26T05:22:18.888Z</time></trkpt><trkpt lat="43.88548632934312" lon="7.63653062647655"><ele>231.00000000000003</ele><time>2026-04-26T05:22:19.888Z</time></trkpt><trkpt lat="43.885588916498854" lon="7.636476743853442"><ele>231.00000000000003</ele><time>2026-04-26T05:22:20.888Z</time></trkpt><trkpt lat="43.88567495929815" lon="7.6363794039959085"><ele>231.0</ele><time>2026-04-26T05:22:21.888Z</time></trkpt><trkpt lat="43.885757451381075" lon="7.636286318909289"><ele>231.0</ele><time>2026-04-26T05:22:22.888Z</time></trkpt><trkpt lat="43.88584261581602" lon="7.636211432923388"><ele>231.0</ele><time>2026-04-26T05:22:23.888Z</time></trkpt><trkpt lat="43.88592537789854" lon="7.636157122395926"><ele>231.00000000000003</ele><time>2026-04-26T05:22:24.888Z</time></trkpt><trkpt lat="43.88600740990042" lon="7.636122000641455"><ele>231.00000000000003</ele><time>2026-04-26T05:22:25.888Z</time></trkpt><trkpt lat="43.88609508668289" lon="7.636090908611486"><ele>231.0</ele><time>2026-04-26T05:22:26.888Z</time></trkpt><trkpt lat="43.886196972699004" lon="7.636118873098237"><ele>231.0</ele><time>2026-04-26T05:22:27.888Z</time></trkpt><trkpt lat="43.886298620118154" lon="7.6361566364100115"><ele>232.20000000000002</ele><time>2026-04-26T05:22:28.888Z</time></trkpt><trkpt lat="43.88640590183056" lon="7.636175067838806"><ele>233.40000000000003</ele><time>2026-04-26T05:22:29.888Z</time></trkpt><trkpt lat="43.88650699490067" lon="7.636226917009539"><ele>234.6</ele><time>2026-04-26T05:22:30.888Z</time></trkpt><trkpt lat="43.88660923950049" lon="7.636269025163985"><ele>235.8</ele><time>2026-04-26T05:22:31.887Z</time></trkpt><trkpt lat="43.88671613751729" lon="7.636313552621579"><ele>237.0</ele><time>2026-04-26T05:22:32.887Z</time></trkpt><trkpt lat="43.88681590662647" lon="7.636382914775961"><ele>244.25</ele><time>2026-04-26T05:22:33.887Z</time></trkpt><trkpt lat="43.88692665844367" lon="7.636430098184629"><ele>251.5</ele><time>2026-04-26T05:22:34.887Z</time></trkpt><trkpt lat="43.88703871824139" lon="7.63647921388873"><ele>258.75</ele><time>2026-04-26T05:22:35.887Z</time></trkpt><trkpt lat="43.887153536598085" lon="7.636531555652743"><ele>266.0</ele><time>2026-04-26T05:22:36.887Z</time></trkpt><trkpt lat="43.88726784496762" lon="7.636578299644469"><ele>266.0</ele><time>2026-04-26T05:22:37.887Z</time></trkpt><trkpt lat="43.88738846355586" lon="7.6366207046424135"><ele>266.0</ele><time>2026-04-26T05:22:38.887Z</time></trkpt><trkpt lat="43.88748859664916" lon="7.636658575672393"><ele>266.0</ele><time>2026-04-26T05:22:39.887Z</time></trkpt><trkpt lat="43.88757584715508" lon="7.636737114889734"><ele>266.0</ele><time>2026-04-26T05:22:40.887Z</time></trkpt><trkpt lat="43.88767854995133" lon="7.636801770036431"><ele>266.0</ele><time>2026-04-26T05:22:41.887Z</time></trkpt><trkpt lat="43.88777093989115" lon="7.63688389572369"><ele>261.8</ele><time>2026-04-26T05:22:42.887Z</time></trkpt><trkpt lat="43.887860360547414" lon="7.636975458100729"><ele>257.6</ele><time>2026-04-26T05:22:43.887Z</time></trkpt><trkpt lat="43.887948538804714" lon="7.637063124169906"><ele>253.4</ele><time>2026-04-26T05:22:44.887Z</time></trkpt><trkpt lat="43.888035095455905" lon="7.6371481661987195"><ele>249.2</ele><time>2026-04-26T05:22:45.887Z</time></trkpt><trkpt lat="43.88812171927399" lon="7.63721746239554"><ele>245.0</ele><time>2026-04-26T05:22:46.887Z</time></trkpt><trkpt lat="43.88820871976485" lon="7.637257555849126"><ele>245.00000000000003</ele><time>2026-04-26T05:22:47.887Z</time></trkpt><trkpt lat="43.888281317898915" lon="7.63729403619268"><ele>245.0</ele><time>2026-04-26T05:22:48.887Z</time></trkpt><trkpt lat="43.88835762001465" lon="7.637305506395472"><ele>245.0</ele><time>2026-04-26T05:22:49.889Z</time></trkpt><trkpt lat="43.88842973053415" lon="7.637261911990529"><ele>245.0</ele><time>2026-04-26T05:22:50.889Z</time></trkpt><trkpt lat="43.88849986313134" lon="7.637175998836328"><ele>245.00000000000003</ele><time>2026-04-26T05:22:51.889Z</time></trkpt><trkpt lat="43.88852955999915" lon="7.637018225054119"><ele>245.0</ele><time>2026-04-26T05:22:52.889Z</time></trkpt><trkpt lat="43.888562094393805" lon="7.636857612373802"><ele>244.8</ele><time>2026-04-26T05:22:53.889Z</time></trkpt><trkpt lat="43.888592012941835" lon="7.6367301613029985"><ele>244.6</ele><time>2026-04-26T05:22:54.889Z</time></trkpt><trkpt lat="43.888624324928564" lon="7.636625602372245"><ele>244.39999999999998</ele><time>2026-04-26T05:22:55.889Z</time></trkpt><trkpt lat="43.88866503042581" lon="7.6365375056300335"><ele>244.2</ele><time>2026-04-26T05:22:56.889Z</time></trkpt><trkpt lat="43.88872616661814" lon="7.636483256431816"><ele>244.0</ele><time>2026-04-26T05:22:57.889Z</time></trkpt><trkpt lat="43.88882532740187" lon="7.636371692894909"><ele>244.0</ele><time>2026-04-26T05:22:58.889Z</time></trkpt><trkpt lat="43.88888640457993" lon="7.636246529890036"><ele>243.99999999999997</ele><time>2026-04-26T05:22:59.889Z</time></trkpt><trkpt lat="43.88892419304326" lon="7.636090415189383"><ele>243.99999999999997</ele><time>2026-04-26T05:23:00.889Z</time></trkpt><trkpt lat="43.888942368992915" lon="7.635936568822192"><ele>244.0</ele><time>2026-04-26T05:23:01.889Z</time></trkpt><trkpt lat="43.88896421923839" lon="7.63584272562586"><ele>244.0</ele><time>2026-04-26T05:23:02.889Z</time></trkpt><trkpt lat="43.88900592921667" lon="7.635744613305829"><ele>248.2</ele><time>2026-04-26T05:23:03.889Z</time></trkpt><trkpt lat="43.88907352915256" lon="7.635611773547645"><ele>252.39999999999998</ele><time>2026-04-26T05:23:04.889Z</time></trkpt><trkpt lat="43.889141703663064" lon="7.635505164302069"><ele>256.6</ele><time>2026-04-26T05:23:05.889Z</time></trkpt><trkpt lat="43.88923281118865" lon="7.635429557055178"><ele>260.8</ele><time>2026-04-26T05:23:06.889Z</time></trkpt><trkpt lat="43.88930717685074" lon="7.6353398514219535"><ele>265.0</ele><time>2026-04-26T05:23:07.889Z</time></trkpt><trkpt lat="43.889376631423204" lon="7.635256069932993"><ele>270.0</ele><time>2026-04-26T05:23:08.889Z</time></trkpt><trkpt lat="43.889385897166925" lon="7.635080651143457"><ele>275.0</ele><time>2026-04-26T05:23:09.889Z</time></trkpt><trkpt lat="43.889417029420954" lon="7.635002107662904"><ele>280.0</ele><time>2026-04-26T05:23:10.889Z</time></trkpt><trkpt lat="43.88946801770255" lon="7.63493282616381"><ele>285.0</ele><time>2026-04-26T05:23:11.889Z</time></trkpt><trkpt lat="43.889570942700615" lon="7.634866192215426"><ele>290.0</ele><time>2026-04-26T05:23:13.889Z</time></trkpt><trkpt lat="43.88965325457888" lon="7.634933642612376"><ele>290.0</ele><time>2026-04-26T05:23:14.889Z</time></trkpt><trkpt lat="43.889700284583526" lon="7.635041707729721"><ele>290.0</ele><time>2026-04-26T05:23:15.889Z</time></trkpt><trkpt lat="43.889749165391386" lon="7.635165431228207"><ele>290.0</ele><time>2026-04-26T05:23:16.889Z</time></trkpt><trkpt lat="43.88980663778998" lon="7.635284153814848"><ele>290.0</ele><time>2026-04-26T05:23:17.889Z</time></trkpt><trkpt lat="43.889823201413684" lon="7.6354205777508355"><ele>290.0</ele><time>2026-04-26T05:23:18.889Z</time></trkpt><trkpt lat="43.889841729562136" lon="7.6355582152913595"><ele>285.0</ele><time>2026-04-26T05:23:19.889Z</time></trkpt><trkpt lat="43.88986032458899" lon="7.6356979158682075"><ele>280.0</ele><time>2026-04-26T05:23:20.889Z</time></trkpt><trkpt lat="43.88989227821029" lon="7.635809909572037"><ele>275.0</ele><time>2026-04-26T05:23:21.889Z</time></trkpt><trkpt lat="43.890026661422084" lon="7.635837376022418"><ele>270.0</ele><time>2026-04-26T05:23:23.889Z</time></trkpt><trkpt lat="43.89006348483564" lon="7.635692331558903"><ele>265.0</ele><time>2026-04-26T05:23:24.889Z</time></trkpt><trkpt lat="43.8900661252764" lon="7.63556518939423"><ele>265.0</ele><time>2026-04-26T05:23:25.889Z</time></trkpt><trkpt lat="43.890034746132635" lon="7.63544978731077"><ele>265.0</ele><time>2026-04-26T05:23:26.889Z</time></trkpt><trkpt lat="43.889987215967075" lon="7.635344883348398"><ele>265.0</ele><time>2026-04-26T05:23:27.889Z</time></trkpt><trkpt lat="43.889931171570005" lon="7.635224329679209"><ele>265.0</ele><time>2026-04-26T05:23:28.889Z</time></trkpt><trkpt lat="43.889876836528046" lon="7.635085515673847"><ele>265.0</ele><time>2026-04-26T05:23:29.889Z</time></trkpt><trkpt lat="43.88983386692608" lon="7.634927524301283"><ele>270.0</ele><time>2026-04-26T05:23:30.889Z</time></trkpt><trkpt lat="43.88978454289482" lon="7.6347836459715825"><ele>275.0</ele><time>2026-04-26T05:23:31.889Z</time></trkpt><trkpt lat="43.88974929807513" lon="7.634641080220856"><ele>280.0</ele><time>2026-04-26T05:23:32.889Z</time></trkpt><trkpt lat="43.88971584878733" lon="7.634514290283718"><ele>285.0</ele><time>2026-04-26T05:23:33.889Z</time></trkpt><trkpt lat="43.88962158860467" lon="7.634447066753348"><ele>290.0</ele><time>2026-04-26T05:23:35.889Z</time></trkpt><trkpt lat="43.88954643201195" lon="7.634477097875763"><ele>290.0</ele><time>2026-04-26T05:23:36.889Z</time></trkpt><trkpt lat="43.889463763457165" lon="7.634552104689052"><ele>290.0</ele><time>2026-04-26T05:23:37.889Z</time></trkpt><trkpt lat="43.88938147860409" lon="7.634614571965643"><ele>290.0</ele><time>2026-04-26T05:23:38.889Z</time></trkpt><trkpt lat="43.88930852710495" lon="7.634668005217873"><ele>290.0</ele><time>2026-04-26T05:23:39.889Z</time></trkpt><trkpt lat="43.889245208428186" lon="7.634728457096473"><ele>290.0</ele><time>2026-04-26T05:23:40.889Z</time></trkpt><trkpt lat="43.88920198808746" lon="7.634826644156085"><ele>290.0</ele><time>2026-04-26T05:23:41.889Z</time></trkpt><trkpt lat="43.88916613425377" lon="7.634953212157207"><ele>292.8</ele><time>2026-04-26T05:23:42.889Z</time></trkpt><trkpt lat="43.88912679740848" lon="7.635070705501682"><ele>295.6</ele><time>2026-04-26T05:23:43.889Z</time></trkpt><trkpt lat="43.88906994945" lon="7.635156870167048"><ele>298.4</ele><time>2026-04-26T05:23:44.888Z</time></trkpt><trkpt lat="43.888972798336255" lon="7.635190709685"><ele>301.2</ele><time>2026-04-26T05:23:45.888Z</time></trkpt><trkpt lat="43.88891496258849" lon="7.63528262657045"><ele>304.0</ele><time>2026-04-26T05:23:46.888Z</time></trkpt><trkpt lat="43.888841360086936" lon="7.635381741397669"><ele>298.0</ele><time>2026-04-26T05:23:47.888Z</time></trkpt><trkpt lat="43.88877079464951" lon="7.635489725095409"><ele>292.0</ele><time>2026-04-26T05:23:48.888Z</time></trkpt><trkpt lat="43.88871351876985" lon="7.635615008248658"><ele>286.0</ele><time>2026-04-26T05:23:49.888Z</time></trkpt><trkpt lat="43.888670389808084" lon="7.63572415476086"><ele>280.0</ele><time>2026-04-26T05:23:50.888Z</time></trkpt><trkpt lat="43.888640895566375" lon="7.635875877683754"><ele>274.0</ele><time>2026-04-26T05:23:51.888Z</time></trkpt><trkpt lat="43.888612488208715" lon="7.63602080191383"><ele>275.4</ele><time>2026-04-26T05:23:52.888Z</time></trkpt><trkpt lat="43.8885688169514" lon="7.636154996827264"><ele>276.79999999999995</ele><time>2026-04-26T05:23:53.888Z</time></trkpt><trkpt lat="43.88849681610391" lon="7.636267095843739"><ele>278.20000000000005</ele><time>2026-04-26T05:23:54.888Z</time></trkpt><trkpt lat="43.88841039781522" lon="7.636359011543113"><ele>279.6</ele><time>2026-04-26T05:23:55.888Z</time></trkpt><trkpt lat="43.88833710759684" lon="7.636444592064538"><ele>281.0</ele><time>2026-04-26T05:23:56.888Z</time></trkpt><trkpt lat="43.88828036799221" lon="7.636528745540028"><ele>281.0</ele><time>2026-04-26T05:23:57.888Z</time></trkpt><trkpt lat="43.88822294163518" lon="7.63658108886539"><ele>281.0</ele><time>2026-04-26T05:23:58.888Z</time></trkpt><trkpt lat="43.88812365592001" lon="7.636510106305323"><ele>281.0</ele><time>2026-04-26T05:24:00.888Z</time></trkpt><trkpt lat="43.8880758678863" lon="7.636390531523978"><ele>281.0</ele><time>2026-04-26T05:24:01.888Z</time></trkpt><trkpt lat="43.88799288012284" lon="7.636305072363788"><ele>281.0</ele><time>2026-04-26T05:24:02.888Z</time></trkpt><trkpt lat="43.887892295493266" lon="7.636228339496664"><ele>287.75</ele><time>2026-04-26T05:24:03.888Z</time></trkpt><trkpt lat="43.88780651024741" lon="7.636107897157811"><ele>294.5</ele><time>2026-04-26T05:24:04.888Z</time></trkpt><trkpt lat="43.887694506054935" lon="7.636024763226275"><ele>301.25</ele><time>2026-04-26T05:24:05.888Z</time></trkpt><trkpt lat="43.88758819256479" lon="7.6359518308685255"><ele>308.0</ele><time>2026-04-26T05:24:06.888Z</time></trkpt><trkpt lat="43.88747136829395" lon="7.635885607463494"><ele>308.0</ele><time>2026-04-26T05:24:07.888Z</time></trkpt><trkpt lat="43.887367184604706" lon="7.635797546551736"><ele>308.0</ele><time>2026-04-26T05:24:08.888Z</time></trkpt><trkpt lat="43.8872568806516" lon="7.63572696372967"><ele>308.0</ele><time>2026-04-26T05:24:09.888Z</time></trkpt><trkpt lat="43.88714635765675" lon="7.635650031533556"><ele>308.0</ele><time>2026-04-26T05:24:10.888Z</time></trkpt><trkpt lat="43.88703813818866" lon="7.635548703729464"><ele>308.0</ele><time>2026-04-26T05:24:11.888Z</time></trkpt><trkpt lat="43.886918745415265" lon="7.6354787023702535"><ele>308.0</ele><time>2026-04-26T05:24:12.888Z</time></trkpt><trkpt lat="43.88682576706294" lon="7.635347870290295"><ele>308.0</ele><time>2026-04-26T05:24:13.888Z</time></trkpt><trkpt lat="43.886704573751466" lon="7.6352725169867925"><ele>308.0</ele><time>2026-04-26T05:24:14.888Z</time></trkpt><trkpt lat="43.88660798253395" lon="7.6352035951303625"><ele>309.1666666666667</ele><time>2026-04-26T05:24:15.888Z</time></trkpt><trkpt lat="43.88653300473488" lon="7.635158673810109"><ele>310.33333333333337</ele><time>2026-04-26T05:24:16.888Z</time></trkpt><trkpt lat="43.88647391987943" lon="7.635095389940254"><ele>311.5</ele><time>2026-04-26T05:24:17.888Z</time></trkpt><trkpt lat="43.88643759409213" lon="7.6350159012086065"><ele>312.6666666666667</ele><time>2026-04-26T05:24:18.888Z</time></trkpt><trkpt lat="43.886449342757764" lon="7.6349012538797805"><ele>313.8333333333333</ele><time>2026-04-26T05:24:19.888Z</time></trkpt><trkpt lat="43.88644029109253" lon="7.634775057402359"><ele>315.0</ele><time>2026-04-26T05:24:20.888Z</time></trkpt><trkpt lat="43.88639993509034" lon="7.634672522615805"><ele>315.0</ele><time>2026-04-26T05:24:21.888Z</time></trkpt><trkpt lat="43.886366475908304" lon="7.634580737944007"><ele>315.0</ele><time>2026-04-26T05:24:22.888Z</time></trkpt><trkpt lat="43.88625793823318" lon="7.634568077619592"><ele>315.0</ele><time>2026-04-26T05:24:23.888Z</time></trkpt><trkpt lat="43.88615547305645" lon="7.6345680719428675"><ele>315.0</ele><time>2026-04-26T05:24:24.888Z</time></trkpt><trkpt lat="43.88604346067821" lon="7.634558351018257"><ele>315.0</ele><time>2026-04-26T05:24:25.888Z</time></trkpt><trkpt lat="43.885915578525996" lon="7.634526701494743"><ele>319.0</ele><time>2026-04-26T05:24:26.888Z</time></trkpt><trkpt lat="43.885802382445405" lon="7.634479917499117"><ele>323.0</ele><time>2026-04-26T05:24:27.888Z</time></trkpt><trkpt lat="43.88568818902082" lon="7.634421304792552"><ele>327.0</ele><time>2026-04-26T05:24:28.888Z</time></trkpt><trkpt lat="43.8855862026615" lon="7.634348612212441"><ele>331.0</ele><time>2026-04-26T05:24:29.888Z</time></trkpt><trkpt lat="43.88552066942278" lon="7.634231335891103"><ele>331.0</ele><time>2026-04-26T05:24:30.888Z</time></trkpt><trkpt lat="43.885447795211164" lon="7.634115054154586"><ele>331.0</ele><time>2026-04-26T05:24:31.888Z</time></trkpt><trkpt lat="43.88537668753767" lon="7.634026628466244"><ele>331.0</ele><time>2026-04-26T05:24:32.888Z</time></trkpt><trkpt lat="43.88530876572617" lon="7.633975377811121"><ele>331.0</ele><time>2026-04-26T05:24:33.888Z</time></trkpt><trkpt lat="43.885213831316186" lon="7.6339855949932245"><ele>331.0</ele><time>2026-04-26T05:24:34.888Z</time></trkpt><trkpt lat="43.88511387463367" lon="7.633980946134802"><ele>327.5</ele><time>2026-04-26T05:24:35.888Z</time></trkpt><trkpt lat="43.885014864725285" lon="7.63396167081289"><ele>324.0</ele><time>2026-04-26T05:24:36.888Z</time></trkpt><trkpt lat="43.88488892576531" lon="7.633947915455733"><ele>320.5</ele><time>2026-04-26T05:24:37.888Z</time></trkpt><trkpt lat="43.88477499491839" lon="7.6338995799820015"><ele>317.0</ele><time>2026-04-26T05:24:38.888Z</time></trkpt><trkpt lat="43.88465392149119" lon="7.633888836390421"><ele>317.0</ele><time>2026-04-26T05:24:39.888Z</time></trkpt><trkpt lat="43.88453370453651" lon="7.633882269253157"><ele>317.0</ele><time>2026-04-26T05:24:40.887Z</time></trkpt><trkpt lat="43.88440688902625" lon="7.633871519333212"><ele>317.0</ele><time>2026-04-26T05:24:41.887Z</time></trkpt><trkpt lat="43.88427547305853" lon="7.633894122259214"><ele>317.0</ele><time>2026-04-26T05:24:42.887Z</time></trkpt><trkpt lat="43.88414835123478" lon="7.633909639569612"><ele>317.4</ele><time>2026-04-26T05:24:43.887Z</time></trkpt><trkpt lat="43.88402409622199" lon="7.633938341502786"><ele>317.79999999999995</ele><time>2026-04-26T05:24:44.887Z</time></trkpt><trkpt lat="43.88391857554807" lon="7.633957488610825"><ele>318.2</ele><time>2026-04-26T05:24:45.887Z</time></trkpt><trkpt lat="43.88383239528538" lon="7.633974847796545"><ele>318.59999999999997</ele><time>2026-04-26T05:24:46.887Z</time></trkpt><trkpt lat="43.88375728986753" lon="7.63398187356185"><ele>319.0</ele><time>2026-04-26T05:24:47.887Z</time></trkpt><trkpt lat="43.88368984654401" lon="7.633860119409497"><ele>319.0</ele><time>2026-04-26T05:24:49.887Z</time></trkpt><trkpt lat="43.88376697134412" lon="7.633755215309481"><ele>319.0</ele><time>2026-04-26T05:24:50.887Z</time></trkpt><trkpt lat="43.88379469517964" lon="7.633672170248711"><ele>319.0</ele><time>2026-04-26T05:24:51.887Z</time></trkpt><trkpt lat="43.88383854725677" lon="7.633571152466666"><ele>319.0</ele><time>2026-04-26T05:24:52.887Z</time></trkpt><trkpt lat="43.88388858913171" lon="7.633484237335428"><ele>319.0</ele><time>2026-04-26T05:25:02.889Z</time></trkpt><trkpt lat="43.883970025109996" lon="7.633349582048649"><ele>322.4</ele><time>2026-04-26T05:25:04.889Z</time></trkpt><trkpt lat="43.88401949856798" lon="7.633282337489534"><ele>325.79999999999995</ele><time>2026-04-26T05:25:05.889Z</time></trkpt><trkpt lat="43.884109181476916" lon="7.63311699235265"><ele>329.20000000000005</ele><time>2026-04-26T05:25:07.889Z</time></trkpt><trkpt lat="43.88414524974996" lon="7.633019805636271"><ele>332.6</ele><time>2026-04-26T05:25:08.889Z</time></trkpt><trkpt lat="43.88418427118978" lon="7.632915496391467"><ele>336.0</ele><time>2026-04-26T05:25:09.889Z</time></trkpt><trkpt lat="43.88421918572631" lon="7.632821676014655"><ele>337.5</ele><time>2026-04-26T05:25:10.889Z</time></trkpt><trkpt lat="43.88424500091104" lon="7.632726485629557"><ele>339.0</ele><time>2026-04-26T05:25:11.889Z</time></trkpt><trkpt lat="43.88425508604174" lon="7.632634391114055"><ele>340.5</ele><time>2026-04-26T05:25:12.889Z</time></trkpt><trkpt lat="43.884240992266555" lon="7.632511976661731"><ele>342.0</ele><time>2026-04-26T05:25:13.889Z</time></trkpt><trkpt lat="43.88424615491011" lon="7.632390038301386"><ele>343.5</ele><time>2026-04-26T05:25:14.889Z</time></trkpt><trkpt lat="43.884254982468256" lon="7.632273077457352"><ele>345.0</ele><time>2026-04-26T05:25:15.889Z</time></trkpt><trkpt lat="43.88424874958317" lon="7.63215900274302"><ele>345.0</ele><time>2026-04-26T05:25:16.889Z</time></trkpt><trkpt lat="43.88424560671884" lon="7.632048735582582"><ele>345.0</ele><time>2026-04-26T05:25:17.889Z</time></trkpt><trkpt lat="43.884227051972196" lon="7.631949550694069"><ele>345.0</ele><time>2026-04-26T05:25:18.889Z</time></trkpt><trkpt lat="43.884217168460104" lon="7.6318520192502"><ele>345.0</ele><time>2026-04-26T05:25:19.889Z</time></trkpt><trkpt lat="43.88422481543889" lon="7.6317540211905435"><ele>345.0</ele><time>2026-04-26T05:25:20.889Z</time></trkpt><trkpt lat="43.8842585986465" lon="7.631637421117044"><ele>345.0</ele><time>2026-04-26T05:25:21.889Z</time></trkpt><trkpt lat="43.884290874753646" lon="7.6315268430513"><ele>349.6666666666667</ele><time>2026-04-26T05:25:22.889Z</time></trkpt><trkpt lat="43.88431152931088" lon="7.631409971658628"><ele>354.3333333333333</ele><time>2026-04-26T05:25:23.889Z</time></trkpt><trkpt lat="43.88432159974966" lon="7.631291187010204"><ele>359.0</ele><time>2026-04-26T05:25:24.889Z</time></trkpt><trkpt lat="43.88431537862762" lon="7.631200909182468"><ele>363.66666666666663</ele><time>2026-04-26T05:25:25.889Z</time></trkpt><trkpt lat="43.88426679575689" lon="7.631116110483928"><ele>368.3333333333333</ele><time>2026-04-26T05:25:27.889Z</time></trkpt><trkpt lat="43.88417731280297" lon="7.631119032825615"><ele>373.0</ele><time>2026-04-26T05:25:28.889Z</time></trkpt><trkpt lat="43.88408046075289" lon="7.631110266091347"><ele>373.0</ele><time>2026-04-26T05:25:29.889Z</time></trkpt><trkpt lat="43.883996034328945" lon="7.631110587353734"><ele>373.0</ele><time>2026-04-26T05:25:30.889Z</time></trkpt><trkpt lat="43.883918029564754" lon="7.63111405900671"><ele>373.0</ele><time>2026-04-26T05:25:31.889Z</time></trkpt><trkpt lat="43.88383370927226" lon="7.631125743451667"><ele>373.0</ele><time>2026-04-26T05:25:32.889Z</time></trkpt><trkpt lat="43.88375171367454" lon="7.631151296360055"><ele>373.0</ele><time>2026-04-26T05:25:33.888Z</time></trkpt><trkpt lat="43.88366717979728" lon="7.631191333636384"><ele>373.0</ele><time>2026-04-26T05:25:34.888Z</time></trkpt><trkpt lat="43.88359079123109" lon="7.6312483846222126"><ele>369.66666666666663</ele><time>2026-04-26T05:25:35.888Z</time></trkpt><trkpt lat="43.883511845150714" lon="7.631258717871365"><ele>366.3333333333333</ele><time>2026-04-26T05:25:36.888Z</time></trkpt><trkpt lat="43.88344483672128" lon="7.6312728468533395"><ele>363.0</ele><time>2026-04-26T05:25:37.888Z</time></trkpt><trkpt lat="43.883331676422365" lon="7.631278630746159"><ele>359.6666666666667</ele><time>2026-04-26T05:25:39.888Z</time></trkpt><trkpt lat="43.88325511499305" lon="7.631279579902617"><ele>356.33333333333337</ele><time>2026-04-26T05:25:40.888Z</time></trkpt><trkpt lat="43.88316577557945" lon="7.6312784379027905"><ele>353.0</ele><time>2026-04-26T05:25:41.888Z</time></trkpt><trkpt lat="43.88307352271952" lon="7.6312736355413575"><ele>349.79999999999995</ele><time>2026-04-26T05:25:42.888Z</time></trkpt><trkpt lat="43.882979490052115" lon="7.631292164662352"><ele>346.6</ele><time>2026-04-26T05:25:43.888Z</time></trkpt><trkpt lat="43.8828895621188" lon="7.6312640606073"><ele>343.4</ele><time>2026-04-26T05:25:44.888Z</time></trkpt><trkpt lat="43.882793828572325" lon="7.63126147372238"><ele>340.20000000000005</ele><time>2026-04-26T05:25:45.888Z</time></trkpt><trkpt lat="43.88270006601699" lon="7.631252872881094"><ele>337.0</ele><time>2026-04-26T05:25:46.888Z</time></trkpt><trkpt lat="43.88260343137" lon="7.631271960036666"><ele>337.66666666666663</ele><time>2026-04-26T05:25:47.888Z</time></trkpt><trkpt lat="43.88251523365673" lon="7.631307909193612"><ele>338.3333333333333</ele><time>2026-04-26T05:25:48.888Z</time></trkpt><trkpt lat="43.882433885012574" lon="7.63133010331423"><ele>339.0</ele><time>2026-04-26T05:25:49.888Z</time></trkpt><trkpt lat="43.88235570414315" lon="7.631277940914746"><ele>339.6666666666667</ele><time>2026-04-26T05:25:50.888Z</time></trkpt><trkpt lat="43.882269201636525" lon="7.631242934230168"><ele>340.33333333333337</ele><time>2026-04-26T05:25:51.888Z</time></trkpt><trkpt lat="43.88219936907402" lon="7.631212712665094"><ele>341.0</ele><time>2026-04-26T05:25:52.888Z</time></trkpt><trkpt lat="43.882129719579396" lon="7.6311947645300275"><ele>341.0</ele><time>2026-04-26T05:25:53.888Z</time></trkpt><trkpt lat="43.882042292702174" lon="7.631179907366635"><ele>341.0</ele><time>2026-04-26T05:25:54.888Z</time></trkpt><trkpt lat="43.88193526658021" lon="7.631162984771534"><ele>341.0</ele><time>2026-04-26T05:25:55.888Z</time></trkpt><trkpt lat="43.8818408559021" lon="7.631149680706559"><ele>341.0</ele><time>2026-04-26T05:25:56.888Z</time></trkpt><trkpt lat="43.88174577617903" lon="7.631131339869219"><ele>341.0</ele><time>2026-04-26T05:25:57.888Z</time></trkpt><trkpt lat="43.88165451916834" lon="7.631154246840318"><ele>341.0</ele><time>2026-04-26T05:25:58.888Z</time></trkpt><trkpt lat="43.88157251005138" lon="7.6311645749292465"><ele>341.0</ele><time>2026-04-26T05:25:59.888Z</time></trkpt><trkpt lat="43.8814872308209" lon="7.631196855207244"><ele>341.0</ele><time>2026-04-26T05:26:00.888Z</time></trkpt><trkpt lat="43.881392158279766" lon="7.631239976002865"><ele>341.0</ele><time>2026-04-26T05:26:01.888Z</time></trkpt><trkpt lat="43.881294885196304" lon="7.631281406279193"><ele>341.0</ele><time>2026-04-26T05:26:02.888Z</time></trkpt><trkpt lat="43.88119932273192" lon="7.631326926117571"><ele>341.0</ele><time>2026-04-26T05:26:03.888Z</time></trkpt><trkpt lat="43.88110754004403" lon="7.631354704682095"><ele>341.0</ele><time>2026-04-26T05:26:04.888Z</time></trkpt><trkpt lat="43.88104853918159" lon="7.631409698111992"><ele>341.0</ele><time>2026-04-26T05:26:05.888Z</time></trkpt><trkpt lat="43.88094449052895" lon="7.63139383113414"><ele>341.0</ele><time>2026-04-26T05:26:07.888Z</time></trkpt><trkpt lat="43.880988517845154" lon="7.631259338579816"><ele>341.0</ele><time>2026-04-26T05:26:09.888Z</time></trkpt><trkpt lat="43.8810348495186" lon="7.6311867068956545"><ele>341.0</ele><time>2026-04-26T05:26:10.888Z</time></trkpt><trkpt lat="43.88107428194481" lon="7.631108337155533"><ele>347.0</ele><time>2026-04-26T05:26:11.888Z</time></trkpt><trkpt lat="43.88113152116392" lon="7.631038373845338"><ele>353.0</ele><time>2026-04-26T05:26:12.888Z</time></trkpt><trkpt lat="43.881190615952264" lon="7.630950162627506"><ele>359.0</ele><time>2026-04-26T05:26:13.888Z</time></trkpt><trkpt lat="43.881241223083094" lon="7.630858379986874"><ele>365.0</ele><time>2026-04-26T05:26:14.888Z</time></trkpt><trkpt lat="43.881286712436754" lon="7.630751083833914"><ele>371.0</ele><time>2026-04-26T05:26:15.888Z</time></trkpt><trkpt lat="43.88132074901793" lon="7.630646629093545"><ele>377.0</ele><time>2026-04-26T05:26:16.888Z</time></trkpt><trkpt lat="43.88135665031747" lon="7.630553302692009"><ele>377.0</ele><time>2026-04-26T05:26:17.888Z</time></trkpt><trkpt lat="43.88139606571944" lon="7.63046062776956"><ele>377.0</ele><time>2026-04-26T05:26:18.888Z</time></trkpt><trkpt lat="43.88142407783363" lon="7.630359439106764"><ele>377.0</ele><time>2026-04-26T05:26:19.888Z</time></trkpt><trkpt lat="43.88143667720766" lon="7.630246514542505"><ele>377.0</ele><time>2026-04-26T05:26:20.888Z</time></trkpt><trkpt lat="43.881444816865624" lon="7.630129801670637"><ele>377.0</ele><time>2026-04-26T05:26:21.888Z</time></trkpt><trkpt lat="43.88145017310996" lon="7.630016157770784"><ele>377.0</ele><time>2026-04-26T05:26:22.888Z</time></trkpt><trkpt lat="43.88143731928583" lon="7.629896985090903"><ele>379.6666666666667</ele><time>2026-04-26T05:26:23.888Z</time></trkpt><trkpt lat="43.88142399580487" lon="7.6297934921424035"><ele>382.33333333333337</ele><time>2026-04-26T05:26:24.888Z</time></trkpt><trkpt lat="43.88141091172699" lon="7.629701550508429"><ele>385.0</ele><time>2026-04-26T05:26:25.888Z</time></trkpt><trkpt lat="43.881339564509624" lon="7.629564206086681"><ele>387.6666666666667</ele><time>2026-04-26T05:26:27.888Z</time></trkpt><trkpt lat="43.881278299408336" lon="7.629486249834538"><ele>390.3333333333333</ele><time>2026-04-26T05:26:28.888Z</time></trkpt><trkpt lat="43.88120796911" lon="7.629408051888657"><ele>393.0</ele><time>2026-04-26T05:26:29.887Z</time></trkpt><trkpt lat="43.88114142931343" lon="7.629332062173341"><ele>393.8333333333333</ele><time>2026-04-26T05:26:30.887Z</time></trkpt><trkpt lat="43.881079765355516" lon="7.629259290812477"><ele>394.66666666666663</ele><time>2026-04-26T05:26:31.887Z</time></trkpt><trkpt lat="43.88103131456822" lon="7.629174363341856"><ele>395.5</ele><time>2026-04-26T05:26:32.887Z</time></trkpt><trkpt lat="43.88098428563073" lon="7.629084572673339"><ele>396.3333333333333</ele><time>2026-04-26T05:26:33.887Z</time></trkpt><trkpt lat="43.8809458481015" lon="7.628970083037147"><ele>397.16666666666663</ele><time>2026-04-26T05:26:34.887Z</time></trkpt><trkpt lat="43.88090138300715" lon="7.628844953412513"><ele>398.0</ele><time>2026-04-26T05:26:35.887Z</time></trkpt><trkpt lat="43.88084733869181" lon="7.628743931286343"><ele>395.16666666666663</ele><time>2026-04-26T05:26:36.887Z</time></trkpt><trkpt lat="43.88078211540556" lon="7.6286482203567"><ele>392.3333333333333</ele><time>2026-04-26T05:26:37.887Z</time></trkpt><trkpt lat="43.8806865289304" lon="7.628582604682212"><ele>389.5</ele><time>2026-04-26T05:26:38.887Z</time></trkpt><trkpt lat="43.88060484065323" lon="7.62854223395559"><ele>386.66666666666663</ele><time>2026-04-26T05:26:39.887Z</time></trkpt><trkpt lat="43.880553996640536" lon="7.628486127133862"><ele>383.8333333333333</ele><time>2026-04-26T05:26:40.887Z</time></trkpt><trkpt lat="43.88051438246454" lon="7.628416910741918"><ele>381.0</ele><time>2026-04-26T05:26:42.887Z</time></trkpt><trkpt lat="43.88061018620471" lon="7.628321097716966"><ele>381.0</ele><time>2026-04-26T05:26:44.887Z</time></trkpt><trkpt lat="43.88067997790516" lon="7.628303982886976"><ele>381.0</ele><time>2026-04-26T05:26:45.887Z</time></trkpt><trkpt lat="43.88076617816625" lon="7.628310543198251"><ele>381.0</ele><time>2026-04-26T05:26:46.887Z</time></trkpt><trkpt lat="43.880842189516194" lon="7.628336560327497"><ele>381.0</ele><time>2026-04-26T05:26:47.887Z</time></trkpt><trkpt lat="43.88091392052002" lon="7.628393002321208"><ele>381.0</ele><time>2026-04-26T05:26:48.887Z</time></trkpt><trkpt lat="43.880979100735864" lon="7.6284788702352895"><ele>381.0</ele><time>2026-04-26T05:26:49.887Z</time></trkpt><trkpt lat="43.881027790472515" lon="7.628585180266528"><ele>383.8333333333333</ele><time>2026-04-26T05:26:50.887Z</time></trkpt><trkpt lat="43.8810632590205" lon="7.628682059206312"><ele>386.66666666666663</ele><time>2026-04-26T05:26:51.887Z</time></trkpt><trkpt lat="43.881107888280454" lon="7.628761803087258"><ele>389.5</ele><time>2026-04-26T05:26:52.887Z</time></trkpt><trkpt lat="43.88115299738694" lon="7.6288457788970945"><ele>392.3333333333333</ele><time>2026-04-26T05:26:53.887Z</time></trkpt><trkpt lat="43.88117663529309" lon="7.6289626200638585"><ele>395.16666666666663</ele><time>2026-04-26T05:26:54.887Z</time></trkpt><trkpt lat="43.88121939567361" lon="7.629057279074485"><ele>398.0</ele><time>2026-04-26T05:26:55.887Z</time></trkpt><trkpt lat="43.881274409516045" lon="7.629145067699778"><ele>397.99999999999994</ele><time>2026-04-26T05:26:56.887Z</time></trkpt><trkpt lat="43.8813430627644" lon="7.629211334596639"><ele>398.0</ele><time>2026-04-26T05:26:57.887Z</time></trkpt><trkpt lat="43.881416137295396" lon="7.629275471980476"><ele>398.0</ele><time>2026-04-26T05:26:58.887Z</time></trkpt><trkpt lat="43.88148131076911" lon="7.629366761990584"><ele>398.0</ele><time>2026-04-26T05:26:59.887Z</time></trkpt><trkpt lat="43.88153659634181" lon="7.629464191296237"><ele>397.99999999999994</ele><time>2026-04-26T05:27:00.889Z</time></trkpt><trkpt lat="43.881584200457056" lon="7.629581207079006"><ele>398.0</ele><time>2026-04-26T05:27:01.889Z</time></trkpt><trkpt lat="43.88163095422769" lon="7.629707469488063"><ele>397.0</ele><time>2026-04-26T05:27:02.889Z</time></trkpt><trkpt lat="43.88167999296628" lon="7.6298353128944"><ele>396.0</ele><time>2026-04-26T05:27:03.889Z</time></trkpt><trkpt lat="43.88173504385504" lon="7.629949551592967"><ele>395.0</ele><time>2026-04-26T05:27:04.889Z</time></trkpt><trkpt lat="43.88178266296357" lon="7.630053487276297"><ele>394.0</ele><time>2026-04-26T05:27:05.889Z</time></trkpt><trkpt lat="43.881807269788624" lon="7.630158664013813"><ele>393.0</ele><time>2026-04-26T05:27:06.889Z</time></trkpt><trkpt lat="43.88180740610746" lon="7.630275287908411"><ele>391.3333333333333</ele><time>2026-04-26T05:27:07.889Z</time></trkpt><trkpt lat="43.88180903817117" lon="7.630367214728491"><ele>389.6666666666667</ele><time>2026-04-26T05:27:08.889Z</time></trkpt><trkpt lat="43.881891106946235" lon="7.630462222354983"><ele>388.0</ele><time>2026-04-26T05:27:10.889Z</time></trkpt><trkpt lat="43.88195382052622" lon="7.630484307976959"><ele>386.33333333333337</ele><time>2026-04-26T05:27:11.889Z</time></trkpt><trkpt lat="43.88203383678553" lon="7.630490725189224"><ele>384.6666666666667</ele><time>2026-04-26T05:27:12.89Z</time></trkpt><trkpt lat="43.88211600823703" lon="7.630466189381193"><ele>383.0</ele><time>2026-04-26T05:27:13.889Z</time></trkpt><trkpt lat="43.88219949208519" lon="7.630436044781395"><ele>383.0</ele><time>2026-04-26T05:27:14.889Z</time></trkpt><trkpt lat="43.882303824073134" lon="7.630415586199044"><ele>383.0</ele><time>2026-04-26T05:27:15.889Z</time></trkpt><trkpt lat="43.88238927398338" lon="7.630403311110688"><ele>383.0</ele><time>2026-04-26T05:27:16.889Z</time></trkpt><trkpt lat="43.882480581609215" lon="7.630366517523684"><ele>383.0</ele><time>2026-04-26T05:27:17.889Z</time></trkpt><trkpt lat="43.882581073369956" lon="7.6303349360761485"><ele>383.0</ele><time>2026-04-26T05:27:18.889Z</time></trkpt><trkpt lat="43.88268027665415" lon="7.63027079172334"><ele>389.2</ele><time>2026-04-26T05:27:19.889Z</time></trkpt><trkpt lat="43.882776405616" lon="7.630206529077663"><ele>395.4</ele><time>2026-04-26T05:27:20.889Z</time></trkpt><trkpt lat="43.882867920330405" lon="7.630143263153855"><ele>401.59999999999997</ele><time>2026-04-26T05:27:21.889Z</time></trkpt><trkpt lat="43.882962223258765" lon="7.630082011616747"><ele>407.79999999999995</ele><time>2026-04-26T05:27:22.889Z</time></trkpt><trkpt lat="43.8830575645191" lon="7.630040042209994"><ele>414.0</ele><time>2026-04-26T05:27:23.889Z</time></trkpt><trkpt lat="43.88316304436129" lon="7.630017967964759"><ele>414.0</ele><time>2026-04-26T05:27:24.889Z</time></trkpt><trkpt lat="43.883273544800645" lon="7.630004207391282"><ele>414.0</ele><time>2026-04-26T05:27:25.889Z</time></trkpt><trkpt lat="43.8833735251845" lon="7.629987778211029"><ele>414.0</ele><time>2026-04-26T05:27:26.889Z</time></trkpt><trkpt lat="43.883475446188264" lon="7.629972026167994"><ele>414.0</ele><time>2026-04-26T05:27:27.889Z</time></trkpt><trkpt lat="43.88358080885506" lon="7.629948397045322"><ele>414.0</ele><time>2026-04-26T05:27:28.889Z</time></trkpt><trkpt lat="43.88369215078692" lon="7.629918781306572"><ele>412.79999999999995</ele><time>2026-04-26T05:27:29.889Z</time></trkpt><trkpt lat="43.88380189895796" lon="7.629866592719278"><ele>411.59999999999997</ele><time>2026-04-26T05:27:30.889Z</time></trkpt><trkpt lat="43.88390985572854" lon="7.629817672404519"><ele>410.4</ele><time>2026-04-26T05:27:31.889Z</time></trkpt><trkpt lat="43.884016747422194" lon="7.629762221366676"><ele>409.2</ele><time>2026-04-26T05:27:32.889Z</time></trkpt><trkpt lat="43.88411150623799" lon="7.629728644323313"><ele>408.0</ele><time>2026-04-26T05:27:33.889Z</time></trkpt><trkpt lat="43.884207865482274" lon="7.629732169768108"><ele>409.59999999999997</ele><time>2026-04-26T05:27:34.889Z</time></trkpt><trkpt lat="43.88430818669498" lon="7.629757577537285"><ele>411.2</ele><time>2026-04-26T05:27:35.889Z</time></trkpt><trkpt lat="43.88440374278636" lon="7.629781532451538"><ele>412.8</ele><time>2026-04-26T05:27:36.889Z</time></trkpt><trkpt lat="43.88450697950853" lon="7.629805354973276"><ele>414.4</ele><time>2026-04-26T05:27:37.889Z</time></trkpt><trkpt lat="43.884616151032766" lon="7.6298313659367745"><ele>416.0</ele><time>2026-04-26T05:27:38.889Z</time></trkpt><trkpt lat="43.884726834255595" lon="7.629837332040573"><ele>416.0</ele><time>2026-04-26T05:27:39.889Z</time></trkpt><trkpt lat="43.88483018487815" lon="7.6298205245847415"><ele>416.0</ele><time>2026-04-26T05:27:40.889Z</time></trkpt><trkpt lat="43.884917743945536" lon="7.629797616433857"><ele>416.0</ele><time>2026-04-26T05:27:41.889Z</time></trkpt><trkpt lat="43.88500275891715" lon="7.62980503307368"><ele>416.0</ele><time>2026-04-26T05:27:42.889Z</time></trkpt><trkpt lat="43.885084687490135" lon="7.629870121782782"><ele>416.0</ele><time>2026-04-26T05:27:43.889Z</time></trkpt><trkpt lat="43.8851875325294" lon="7.62989353347649"><ele>423.0</ele><time>2026-04-26T05:27:44.889Z</time></trkpt><trkpt lat="43.88528776413353" lon="7.629888592640959"><ele>430.0</ele><time>2026-04-26T05:27:45.889Z</time></trkpt><trkpt lat="43.88537046200286" lon="7.629922628258669"><ele>437.0</ele><time>2026-04-26T05:27:46.889Z</time></trkpt><trkpt lat="43.88546048990172" lon="7.629967716148551"><ele>444.0</ele><time>2026-04-26T05:27:47.889Z</time></trkpt><trkpt lat="43.8855540007847" lon="7.63006364428807"><ele>451.0</ele><time>2026-04-26T05:27:48.889Z</time></trkpt><trkpt lat="43.88570810068265" lon="7.630193438962693"><ele>451.00000000000006</ele><time>2026-04-26T05:27:50.889Z</time></trkpt><trkpt lat="43.88575112179879" lon="7.630276939401805"><ele>451.0</ele><time>2026-04-26T05:27:51.889Z</time></trkpt><trkpt lat="43.88577020389863" lon="7.630378675916498"><ele>451.0</ele><time>2026-04-26T05:27:52.889Z</time></trkpt><trkpt lat="43.88577517960535" lon="7.630500085160744"><ele>451.0</ele><time>2026-04-26T05:27:53.889Z</time></trkpt><trkpt lat="43.8857626610672" lon="7.63060867074036"><ele>451.00000000000006</ele><time>2026-04-26T05:27:54.889Z</time></trkpt><trkpt lat="43.885751489164356" lon="7.630730804444795"><ele>451.0</ele><time>2026-04-26T05:27:55.889Z</time></trkpt><trkpt lat="43.885742882274556" lon="7.630848945253981"><ele>449.50000000000006</ele><time>2026-04-26T05:27:56.889Z</time></trkpt><trkpt lat="43.885743321805734" lon="7.630963855388886"><ele>448.0</ele><time>2026-04-26T05:27:57.889Z</time></trkpt><trkpt lat="43.885738398320306" lon="7.631080590610144"><ele>446.5</ele><time>2026-04-26T05:27:58.889Z</time></trkpt><trkpt lat="43.88571154969351" lon="7.6311992460345195"><ele>445.0</ele><time>2026-04-26T05:27:59.889Z</time></trkpt><trkpt lat="43.88567329659764" lon="7.631320594278499"><ele>443.50000000000006</ele><time>2026-04-26T05:28:00.889Z</time></trkpt><trkpt lat="43.88564061305547" lon="7.6314305055337535"><ele>442.0</ele><time>2026-04-26T05:28:01.889Z</time></trkpt><trkpt lat="43.88563387492813" lon="7.631605360570689"><ele>440.83333333333337</ele><time>2026-04-26T05:28:03.888Z</time></trkpt><trkpt lat="43.885675664174286" lon="7.63167145803508"><ele>439.6666666666667</ele><time>2026-04-26T05:28:04.888Z</time></trkpt><trkpt lat="43.88578086340546" lon="7.63158805154402"><ele>438.5</ele><time>2026-04-26T05:28:06.888Z</time></trkpt><trkpt lat="43.885765349402334" lon="7.631482804227591"><ele>437.33333333333337</ele><time>2026-04-26T05:28:07.888Z</time></trkpt><trkpt lat="43.88575699056147" lon="7.6313937590972865"><ele>436.1666666666667</ele><time>2026-04-26T05:28:08.888Z</time></trkpt><trkpt lat="43.88576200400238" lon="7.631284685149355"><ele>435.0</ele><time>2026-04-26T05:28:09.888Z</time></trkpt><trkpt lat="43.885860749921775" lon="7.631216130884183"><ele>436.4</ele><time>2026-04-26T05:28:10.888Z</time></trkpt><trkpt lat="43.88591040433865" lon="7.6310954193172105"><ele>437.8</ele><time>2026-04-26T05:28:11.888Z</time></trkpt><trkpt lat="43.88591261209076" lon="7.630935300561042"><ele>439.20000000000005</ele><time>2026-04-26T05:28:12.888Z</time></trkpt><trkpt lat="43.88596536052632" lon="7.630841022575287"><ele>440.6</ele><time>2026-04-26T05:28:13.888Z</time></trkpt><trkpt lat="43.88601615922874" lon="7.630739459084977"><ele>442.0</ele><time>2026-04-26T05:28:14.888Z</time></trkpt><trkpt lat="43.88605942122135" lon="7.630646354504547"><ele>449.6666666666667</ele><time>2026-04-26T05:28:15.888Z</time></trkpt><trkpt lat="43.886097151145165" lon="7.6305560907703"><ele>457.33333333333337</ele><time>2026-04-26T05:28:16.888Z</time></trkpt><trkpt lat="43.88611677033835" lon="7.6304582332774675"><ele>465.0</ele><time>2026-04-26T05:28:17.888Z</time></trkpt><trkpt lat="43.88610900322645" lon="7.630336971267274"><ele>472.66666666666663</ele><time>2026-04-26T05:28:18.888Z</time></trkpt><trkpt lat="43.886092357868826" lon="7.630199521187228"><ele>480.3333333333333</ele><time>2026-04-26T05:28:19.888Z</time></trkpt><trkpt lat="43.88607220338287" lon="7.630072610654686"><ele>488.0</ele><time>2026-04-26T05:28:20.888Z</time></trkpt><trkpt lat="43.88604834454776" lon="7.629950966502451"><ele>489.4</ele><time>2026-04-26T05:28:21.888Z</time></trkpt><trkpt lat="43.88600744979316" lon="7.629842263676069"><ele>490.79999999999995</ele><time>2026-04-26T05:28:22.888Z</time></trkpt><trkpt lat="43.885951388515416" lon="7.629735255828596"><ele>492.2</ele><time>2026-04-26T05:28:23.888Z</time></trkpt><trkpt lat="43.885889671949066" lon="7.62963841408239"><ele>493.6</ele><time>2026-04-26T05:28:24.888Z</time></trkpt><trkpt lat="43.88582771118588" lon="7.629562722190089"><ele>495.0</ele><time>2026-04-26T05:28:25.888Z</time></trkpt><trkpt lat="43.88571444967778" lon="7.629516795865479"><ele>487.4</ele><time>2026-04-26T05:28:26.888Z</time></trkpt><trkpt lat="43.88562577056782" lon="7.629450046283339"><ele>479.8</ele><time>2026-04-26T05:28:27.888Z</time></trkpt><trkpt lat="43.885542632967805" lon="7.629394069928579"><ele>472.20000000000005</ele><time>2026-04-26T05:28:28.888Z</time></trkpt><trkpt lat="43.885440586751024" lon="7.629355135425192"><ele>464.6</ele><time>2026-04-26T05:28:29.888Z</time></trkpt><trkpt lat="43.88534238765967" lon="7.629330608769489"><ele>457.0</ele><time>2026-04-26T05:28:30.888Z</time></trkpt><trkpt lat="43.88524332031833" lon="7.629292486979577"><ele>457.00000000000006</ele><time>2026-04-26T05:28:31.888Z</time></trkpt><trkpt lat="43.88516418327103" lon="7.629252235024793"><ele>457.0</ele><time>2026-04-26T05:28:32.888Z</time></trkpt><trkpt lat="43.885118883523766" lon="7.629148412672305"><ele>457.0</ele><time>2026-04-26T05:28:34.888Z</time></trkpt><trkpt lat="43.885175488172756" lon="7.629103330119707"><ele>457.0</ele><time>2026-04-26T05:28:36.888Z</time></trkpt><trkpt lat="43.88526014012795" lon="7.629127042650951"><ele>457.00000000000006</ele><time>2026-04-26T05:28:37.888Z</time></trkpt><trkpt lat="43.88534909799191" lon="7.629153834040684"><ele>457.0</ele><time>2026-04-26T05:28:38.888Z</time></trkpt><trkpt lat="43.88544024626188" lon="7.62916587821555"><ele>457.0</ele><time>2026-04-26T05:28:39.888Z</time></trkpt><trkpt lat="43.88554245631019" lon="7.629163313049152"><ele>457.00000000000006</ele><time>2026-04-26T05:28:40.888Z</time></trkpt><trkpt lat="43.88564613457817" lon="7.62913103613986"><ele>457.00000000000006</ele><time>2026-04-26T05:28:41.888Z</time></trkpt><trkpt lat="43.88575437104653" lon="7.6290764572054295"><ele>457.0</ele><time>2026-04-26T05:28:42.888Z</time></trkpt><trkpt lat="43.88587226009341" lon="7.6290214522453255"><ele>457.0</ele><time>2026-04-26T05:28:43.888Z</time></trkpt><trkpt lat="43.88597874780707" lon="7.628959130853901"><ele>464.8</ele><time>2026-04-26T05:28:44.888Z</time></trkpt><trkpt lat="43.88606776694078" lon="7.628879002225929"><ele>472.6</ele><time>2026-04-26T05:28:45.888Z</time></trkpt><trkpt lat="43.88615009230694" lon="7.628807107413502"><ele>480.40000000000003</ele><time>2026-04-26T05:28:46.888Z</time></trkpt><trkpt lat="43.88623662088829" lon="7.628740472804966"><ele>488.20000000000005</ele><time>2026-04-26T05:28:47.888Z</time></trkpt><trkpt lat="43.88633670338847" lon="7.628681526660585"><ele>496.0</ele><time>2026-04-26T05:28:48.888Z</time></trkpt><trkpt lat="43.8864359381118" lon="7.628666414861859"><ele>491.8</ele><time>2026-04-26T05:28:49.888Z</time></trkpt><trkpt lat="43.88653527185866" lon="7.6286259026316126"><ele>487.6</ele><time>2026-04-26T05:28:50.888Z</time></trkpt><trkpt lat="43.88663575624865" lon="7.628595487667061"><ele>483.4</ele><time>2026-04-26T05:28:51.888Z</time></trkpt><trkpt lat="43.886728964514724" lon="7.628564040881627"><ele>479.2</ele><time>2026-04-26T05:28:52.888Z</time></trkpt><trkpt lat="43.886808903534806" lon="7.6285110677141175"><ele>475.0</ele><time>2026-04-26T05:28:53.888Z</time></trkpt><trkpt lat="43.88687857412354" lon="7.628446137256872"><ele>484.4</ele><time>2026-04-26T05:28:54.888Z</time></trkpt><trkpt lat="43.88693260356801" lon="7.62835592746056"><ele>493.8</ele><time>2026-04-26T05:28:55.888Z</time></trkpt><trkpt lat="43.886985735722405" lon="7.62824919830393"><ele>503.20000000000005</ele><time>2026-04-26T05:28:56.888Z</time></trkpt><trkpt lat="43.88702773609433" lon="7.628130102469158"><ele>512.6</ele><time>2026-04-26T05:28:57.888Z</time></trkpt><trkpt lat="43.88707515977482" lon="7.628005997497251"><ele>522.0</ele><time>2026-04-26T05:28:58.887Z</time></trkpt><trkpt lat="43.88714700185633" lon="7.6279065549272955"><ele>519.2</ele><time>2026-04-26T05:28:59.887Z</time></trkpt><trkpt lat="43.88719856345364" lon="7.6277758742804895"><ele>516.4000000000001</ele><time>2026-04-26T05:29:00.887Z</time></trkpt><trkpt lat="43.88724642533532" lon="7.627651786167698"><ele>513.5999999999999</ele><time>2026-04-26T05:29:01.887Z</time></trkpt><trkpt lat="43.887276781431765" lon="7.627532368987044"><ele>510.79999999999995</ele><time>2026-04-26T05:29:02.887Z</time></trkpt><trkpt lat="43.88728243657973" lon="7.627401481748441"><ele>508.0</ele><time>2026-04-26T05:29:03.887Z</time></trkpt><trkpt lat="43.88727773694572" lon="7.62726847883107"><ele>508.00000000000006</ele><time>2026-04-26T05:29:04.887Z</time></trkpt><trkpt lat="43.88726957833334" lon="7.627148906400434"><ele>508.0</ele><time>2026-04-26T05:29:05.887Z</time></trkpt><trkpt lat="43.88729194897336" lon="7.627034903658533"><ele>508.0</ele><time>2026-04-26T05:29:06.889Z</time></trkpt><trkpt lat="43.88734157558566" lon="7.62694984729418"><ele>508.0</ele><time>2026-04-26T05:29:07.889Z</time></trkpt><trkpt lat="43.88738826441988" lon="7.626874410472534"><ele>508.00000000000006</ele><time>2026-04-26T05:29:08.889Z</time></trkpt><trkpt lat="43.88746062208067" lon="7.626812953972862"><ele>508.0</ele><time>2026-04-26T05:29:09.889Z</time></trkpt><trkpt lat="43.88749885668296" lon="7.626712518657559"><ele>507.25</ele><time>2026-04-26T05:29:10.89Z</time></trkpt><trkpt lat="43.88755012550854" lon="7.626551419668786"><ele>506.5</ele><time>2026-04-26T05:29:12.89Z</time></trkpt><trkpt lat="43.887494250486554" lon="7.626443173340787"><ele>505.75</ele><time>2026-04-26T05:29:13.889Z</time></trkpt><trkpt lat="43.88738581238792" lon="7.626360307467449"><ele>505.0</ele><time>2026-04-26T05:29:14.889Z</time></trkpt><trkpt lat="43.887268507958325" lon="7.626350807243931"><ele>505.0</ele><time>2026-04-26T05:29:15.89Z</time></trkpt><trkpt lat="43.88716987447644" lon="7.626332680763958"><ele>505.0</ele><time>2026-04-26T05:29:16.889Z</time></trkpt><trkpt lat="43.88707024060069" lon="7.6263324674332384"><ele>505.0</ele><time>2026-04-26T05:29:17.889Z</time></trkpt><trkpt lat="43.886970803206935" lon="7.626294914226815"><ele>505.0</ele><time>2026-04-26T05:29:18.889Z</time></trkpt><trkpt lat="43.886875672994066" lon="7.626288415197278"><ele>505.0</ele><time>2026-04-26T05:29:19.889Z</time></trkpt><trkpt lat="43.886793542294306" lon="7.6262811594743045"><ele>501.6666666666667</ele><time>2026-04-26T05:29:20.889Z</time></trkpt><trkpt lat="43.886714442487715" lon="7.62630153732416"><ele>498.33333333333337</ele><time>2026-04-26T05:29:21.889Z</time></trkpt><trkpt lat="43.88664303451813" lon="7.626354679005031"><ele>495.0</ele><time>2026-04-26T05:29:22.889Z</time></trkpt><trkpt lat="43.8865738834925" lon="7.626406073333131"><ele>491.66666666666663</ele><time>2026-04-26T05:29:23.889Z</time></trkpt><trkpt lat="43.886518741633914" lon="7.626491085116881"><ele>488.3333333333333</ele><time>2026-04-26T05:29:24.889Z</time></trkpt><trkpt lat="43.886436544656064" lon="7.626556910366981"><ele>485.0</ele><time>2026-04-26T05:29:25.889Z</time></trkpt><trkpt lat="43.88638222767912" lon="7.626641353708883"><ele>484.99999999999994</ele><time>2026-04-26T05:29:26.889Z</time></trkpt><trkpt lat="43.88630589993117" lon="7.6266701201508855"><ele>485.0</ele><time>2026-04-26T05:29:27.889Z</time></trkpt><trkpt lat="43.886226906167536" lon="7.626663843131434"><ele>485.0</ele><time>2026-04-26T05:29:28.889Z</time></trkpt><trkpt lat="43.88614402671577" lon="7.626663280522438"><ele>485.0</ele><time>2026-04-26T05:29:29.889Z</time></trkpt><trkpt lat="43.88605819867555" lon="7.626598227046894"><ele>484.99999999999994</ele><time>2026-04-26T05:29:30.889Z</time></trkpt><trkpt lat="43.88598195940593" lon="7.626526446777839"><ele>485.0</ele><time>2026-04-26T05:29:31.889Z</time></trkpt><trkpt lat="43.88594492249052" lon="7.626439543853205"><ele>485.0</ele><time>2026-04-26T05:29:32.889Z</time></trkpt><trkpt lat="43.8859368839269" lon="7.626329756133456"><ele>485.0</ele><time>2026-04-26T05:29:33.889Z</time></trkpt><trkpt lat="43.885937457626895" lon="7.626204781707353"><ele>485.0</ele><time>2026-04-26T05:29:34.889Z</time></trkpt><trkpt lat="43.88593656545066" lon="7.626064910644412"><ele>485.0</ele><time>2026-04-26T05:29:35.889Z</time></trkpt><trkpt lat="43.88593099487474" lon="7.625932682660479"><ele>485.0</ele><time>2026-04-26T05:29:36.889Z</time></trkpt><trkpt lat="43.88591525919537" lon="7.625807407940316"><ele>487.99999999999994</ele><time>2026-04-26T05:29:37.889Z</time></trkpt><trkpt lat="43.88588286760317" lon="7.625728310077734"><ele>491.0</ele><time>2026-04-26T05:29:38.889Z</time></trkpt><trkpt lat="43.885841105123504" lon="7.625655316991584"><ele>494.0</ele><time>2026-04-26T05:29:39.889Z</time></trkpt><trkpt lat="43.88577082044284" lon="7.625589471281984"><ele>497.0</ele><time>2026-04-26T05:29:40.889Z</time></trkpt><trkpt lat="43.88568270611081" lon="7.625525423870764"><ele>499.99999999999994</ele><time>2026-04-26T05:29:41.889Z</time></trkpt><trkpt lat="43.88557694006818" lon="7.625459983031132"><ele>503.0</ele><time>2026-04-26T05:29:42.889Z</time></trkpt><trkpt lat="43.88547395444625" lon="7.625406824165017"><ele>503.0</ele><time>2026-04-26T05:29:43.889Z</time></trkpt><trkpt lat="43.88535887718686" lon="7.625367195940694"><ele>502.99999999999994</ele><time>2026-04-26T05:29:44.889Z</time></trkpt><trkpt lat="43.88524218813968" lon="7.625330001494804"><ele>502.99999999999994</ele><time>2026-04-26T05:29:45.889Z</time></trkpt><trkpt lat="43.88513921574638" lon="7.6252902003651055"><ele>503.0</ele><time>2026-04-26T05:29:46.889Z</time></trkpt><trkpt lat="43.88505016408175" lon="7.625264488403616"><ele>503.0</ele><time>2026-04-26T05:29:47.889Z</time></trkpt><trkpt lat="43.88498325007058" lon="7.625245850597091"><ele>503.2</ele><time>2026-04-26T05:29:48.889Z</time></trkpt><trkpt lat="43.8849066669601" lon="7.625130446949917"><ele>503.4</ele><time>2026-04-26T05:29:50.889Z</time></trkpt><trkpt lat="43.88491605854264" lon="7.625034377541517"><ele>503.59999999999997</ele><time>2026-04-26T05:29:51.889Z</time></trkpt><trkpt lat="43.885013746338664" lon="7.624949413513528"><ele>503.79999999999995</ele><time>2026-04-26T05:29:52.889Z</time></trkpt><trkpt lat="43.88503924623038" lon="7.624819904829181"><ele>504.0</ele><time>2026-04-26T05:29:53.889Z</time></trkpt><trkpt lat="43.88508060304836" lon="7.6246845673321175"><ele>509.4</ele><time>2026-04-26T05:29:54.889Z</time></trkpt><trkpt lat="43.88513142040756" lon="7.624573915308425"><ele>514.8</ele><time>2026-04-26T05:29:55.889Z</time></trkpt><trkpt lat="43.88521094515705" lon="7.624482866146009"><ele>520.2</ele><time>2026-04-26T05:29:56.889Z</time></trkpt><trkpt lat="43.88528150095948" lon="7.624353081183082"><ele>525.6</ele><time>2026-04-26T05:29:57.889Z</time></trkpt><trkpt lat="43.8853288758669" lon="7.624250454224028"><ele>531.0</ele><time>2026-04-26T05:29:58.889Z</time></trkpt><trkpt lat="43.885380126500934" lon="7.624126178664943"><ele>534.0</ele><time>2026-04-26T05:29:59.889Z</time></trkpt><trkpt lat="43.88542225885103" lon="7.6240000134228545"><ele>537.0</ele><time>2026-04-26T05:30:00.889Z</time></trkpt><trkpt lat="43.88545326357971" lon="7.623879833072713"><ele>540.0</ele><time>2026-04-26T05:30:01.889Z</time></trkpt><trkpt lat="43.88547540700952" lon="7.6237683960623235"><ele>543.0</ele><time>2026-04-26T05:30:02.889Z</time></trkpt><trkpt lat="43.88548848995258" lon="7.623673695875595"><ele>546.0</ele><time>2026-04-26T05:30:03.889Z</time></trkpt><trkpt lat="43.88547483802578" lon="7.623574922072554"><ele>549.0</ele><time>2026-04-26T05:30:04.889Z</time></trkpt><trkpt lat="43.885372168110905" lon="7.623403938898363"><ele>553.0</ele><time>2026-04-26T05:30:06.889Z</time></trkpt><trkpt lat="43.88530774584314" lon="7.6233234550549165"><ele>557.0</ele><time>2026-04-26T05:30:07.889Z</time></trkpt><trkpt lat="43.885235241250925" lon="7.623251066021256"><ele>561.0</ele><time>2026-04-26T05:30:08.889Z</time></trkpt><trkpt lat="43.8851519271742" lon="7.623189937597727"><ele>565.0</ele><time>2026-04-26T05:30:09.888Z</time></trkpt><trkpt lat="43.88508184418151" lon="7.62308492702241"><ele>569.0</ele><time>2026-04-26T05:30:10.888Z</time></trkpt><trkpt lat="43.88501443529197" lon="7.623013070450586"><ele>569.0</ele><time>2026-04-26T05:30:11.888Z</time></trkpt><trkpt lat="43.884959965704695" lon="7.622956272042709"><ele>569.0</ele><time>2026-04-26T05:30:12.888Z</time></trkpt><trkpt lat="43.88488931625949" lon="7.622843096912237"><ele>569.0</ele><time>2026-04-26T05:30:14.888Z</time></trkpt><trkpt lat="43.884957752748306" lon="7.622758605926861"><ele>569.0</ele><time>2026-04-26T05:30:17.888Z</time></trkpt><trkpt lat="43.885042646319484" lon="7.622944276970006"><ele>569.0</ele><time>2026-04-26T05:30:19.888Z</time></trkpt><trkpt lat="43.88511357324064" lon="7.623005444857349"><ele>569.0</ele><time>2026-04-26T05:30:20.888Z</time></trkpt><trkpt lat="43.885177513887726" lon="7.623087550643345"><ele>569.0</ele><time>2026-04-26T05:30:21.888Z</time></trkpt><trkpt lat="43.8852237389001" lon="7.623182754574783"><ele>569.0</ele><time>2026-04-26T05:30:22.888Z</time></trkpt><trkpt lat="43.88530045146386" lon="7.62326529553781"><ele>569.0</ele><time>2026-04-26T05:30:23.888Z</time></trkpt><trkpt lat="43.88540308321104" lon="7.623341231875502"><ele>569.0</ele><time>2026-04-26T05:30:24.888Z</time></trkpt><trkpt lat="43.88548524616916" lon="7.623420321627681"><ele>569.0</ele><time>2026-04-26T05:30:25.888Z</time></trkpt><trkpt lat="43.88555788787761" lon="7.623502780792117"><ele>569.0</ele><time>2026-04-26T05:30:26.888Z</time></trkpt><trkpt lat="43.885606177664485" lon="7.623591299602714"><ele>569.0</ele><time>2026-04-26T05:30:27.888Z</time></trkpt><trkpt lat="43.88562635757648" lon="7.623691828191999"><ele>569.0</ele><time>2026-04-26T05:30:28.888Z</time></trkpt><trkpt lat="43.88558571852" lon="7.623876840789238"><ele>569.0</ele><time>2026-04-26T05:30:30.888Z</time></trkpt><trkpt lat="43.885558771125176" lon="7.623990886002508"><ele>565.0</ele><time>2026-04-26T05:30:31.888Z</time></trkpt><trkpt lat="43.885555648053014" lon="7.624127022703308"><ele>561.0</ele><time>2026-04-26T05:30:32.888Z</time></trkpt><trkpt lat="43.88552725638486" lon="7.6242355501448"><ele>557.0</ele><time>2026-04-26T05:30:33.888Z</time></trkpt><trkpt lat="43.885654764792704" lon="7.624400612749142"><ele>553.0</ele><time>2026-04-26T05:30:35.888Z</time></trkpt><trkpt lat="43.88572109101365" lon="7.624465579243103"><ele>549.0</ele><time>2026-04-26T05:30:36.888Z</time></trkpt><trkpt lat="43.88581266871103" lon="7.624533244327582"><ele>549.0</ele><time>2026-04-26T05:30:37.888Z</time></trkpt><trkpt lat="43.88590671230868" lon="7.624609509132883"><ele>549.0</ele><time>2026-04-26T05:30:38.888Z</time></trkpt><trkpt lat="43.88600527891748" lon="7.624685730225607"><ele>549.0</ele><time>2026-04-26T05:30:39.888Z</time></trkpt><trkpt lat="43.88611296508226" lon="7.624768400942919"><ele>549.0</ele><time>2026-04-26T05:30:40.888Z</time></trkpt><trkpt lat="43.886221044544854" lon="7.624847508265937"><ele>549.0</ele><time>2026-04-26T05:30:41.888Z</time></trkpt><trkpt lat="43.88632828446621" lon="7.624929570299044"><ele>549.0</ele><time>2026-04-26T05:30:42.888Z</time></trkpt><trkpt lat="43.88642408738279" lon="7.625017356310945"><ele>549.0</ele><time>2026-04-26T05:30:43.888Z</time></trkpt><trkpt lat="43.88651328520325" lon="7.625098718866009"><ele>549.0</ele><time>2026-04-26T05:30:44.888Z</time></trkpt><trkpt lat="43.88660633441714" lon="7.625191215544969"><ele>549.0</ele><time>2026-04-26T05:30:45.888Z</time></trkpt><trkpt lat="43.88669086793533" lon="7.625278946560077"><ele>549.0</ele><time>2026-04-26T05:30:46.888Z</time></trkpt><trkpt lat="43.886777185316504" lon="7.625369376982231"><ele>549.0</ele><time>2026-04-26T05:30:47.888Z</time></trkpt><trkpt lat="43.88685407025305" lon="7.625453577554838"><ele>549.0</ele><time>2026-04-26T05:30:48.888Z</time></trkpt><trkpt lat="43.88691248759961" lon="7.625516504543322"><ele>549.0</ele><time>2026-04-26T05:30:49.888Z</time></trkpt><trkpt lat="43.88700772502095" lon="7.625520961962228"><ele>545.2</ele><time>2026-04-26T05:30:51.888Z</time></trkpt><trkpt lat="43.88714160205518" lon="7.625479932017007"><ele>541.4</ele><time>2026-04-26T05:30:53.888Z</time></trkpt><trkpt lat="43.88723119155573" lon="7.625469121751143"><ele>537.6</ele><time>2026-04-26T05:30:54.888Z</time></trkpt><trkpt lat="43.88731499365586" lon="7.6254515331511605"><ele>533.8</ele><time>2026-04-26T05:30:55.888Z</time></trkpt><trkpt lat="43.88739142871328" lon="7.625441312394008"><ele>530.0</ele><time>2026-04-26T05:30:56.888Z</time></trkpt><trkpt lat="43.88745598989819" lon="7.625430174854897"><ele>530.0</ele><time>2026-04-26T05:30:57.888Z</time></trkpt><trkpt lat="43.88753514321268" lon="7.62541990784967"><ele>530.0</ele><time>2026-04-26T05:30:58.888Z</time></trkpt><trkpt lat="43.887608219593766" lon="7.625413799371854"><ele>530.0</ele><time>2026-04-26T05:30:59.888Z</time></trkpt><trkpt lat="43.88767852363864" lon="7.6254102054450215"><ele>530.0</ele><time>2026-04-26T05:31:00.888Z</time></trkpt><trkpt lat="43.88774719286677" lon="7.625407750310207"><ele>530.0</ele><time>2026-04-26T05:31:01.888Z</time></trkpt><trkpt lat="43.887829850335585" lon="7.625405580274274"><ele>530.0</ele><time>2026-04-26T05:31:02.888Z</time></trkpt><trkpt lat="43.887918142304954" lon="7.625390144111917"><ele>532.8333333333333</ele><time>2026-04-26T05:31:03.888Z</time></trkpt><trkpt lat="43.88799617988015" lon="7.625375178762441"><ele>535.6666666666666</ele><time>2026-04-26T05:31:04.888Z</time></trkpt><trkpt lat="43.88808924705707" lon="7.6253684535674005"><ele>538.5</ele><time>2026-04-26T05:31:05.887Z</time></trkpt><trkpt lat="43.88817784660472" lon="7.6253797560241665"><ele>541.3333333333334</ele><time>2026-04-26T05:31:06.887Z</time></trkpt><trkpt lat="43.8882698741522" lon="7.625394204897031"><ele>544.1666666666667</ele><time>2026-04-26T05:31:07.887Z</time></trkpt><trkpt lat="43.88833974182409" lon="7.625414572241987"><ele>547.0</ele><time>2026-04-26T05:31:08.887Z</time></trkpt><trkpt lat="43.88842093942478" lon="7.625427131114723"><ele>553.0</ele><time>2026-04-26T05:31:09.887Z</time></trkpt><trkpt lat="43.888492143058144" lon="7.625437119918071"><ele>559.0</ele><time>2026-04-26T05:31:10.887Z</time></trkpt><trkpt lat="43.88856749263537" lon="7.6254588395312854"><ele>565.0</ele><time>2026-04-26T05:31:11.887Z</time></trkpt><trkpt lat="43.88863613521056" lon="7.625458718122139"><ele>571.0</ele><time>2026-04-26T05:31:12.889Z</time></trkpt><trkpt lat="43.88870156274639" lon="7.625449465212212"><ele>577.0</ele><time>2026-04-26T05:31:13.889Z</time></trkpt><trkpt lat="43.88881003850442" lon="7.625393745798256"><ele>583.0</ele><time>2026-04-26T05:31:15.889Z</time></trkpt><trkpt lat="43.888902371817764" lon="7.625416104044407"><ele>583.0</ele><time>2026-04-26T05:31:18.889Z</time></trkpt><trkpt lat="43.88895070460095" lon="7.625528131203193"><ele>583.0</ele><time>2026-04-26T05:31:20.889Z</time></trkpt><trkpt lat="43.88896236730096" lon="7.625695166102472"><ele>583.0</ele><time>2026-04-26T05:31:22.889Z</time></trkpt><trkpt lat="43.888976718935766" lon="7.625797801545235"><ele>583.0</ele><time>2026-04-26T05:31:23.889Z</time></trkpt><trkpt lat="43.888969734759506" lon="7.625912346978965"><ele>583.0</ele><time>2026-04-26T05:31:24.89Z</time></trkpt><trkpt lat="43.88896079486801" lon="7.626039731318195"><ele>582.8</ele><time>2026-04-26T05:31:25.89Z</time></trkpt><trkpt lat="43.88895045126964" lon="7.626160661125945"><ele>582.5999999999999</ele><time>2026-04-26T05:31:26.89Z</time></trkpt><trkpt lat="43.888947219307894" lon="7.626280356030975"><ele>582.4000000000001</ele><time>2026-04-26T05:31:27.89Z</time></trkpt><trkpt lat="43.88894407268313" lon="7.626393627367393"><ele>582.2</ele><time>2026-04-26T05:31:28.89Z</time></trkpt><trkpt lat="43.888915306921376" lon="7.626524410685688"><ele>582.0</ele><time>2026-04-26T05:31:29.89Z</time></trkpt><trkpt lat="43.88886372575674" lon="7.626638168166143"><ele>582.0</ele><time>2026-04-26T05:31:30.89Z</time></trkpt><trkpt lat="43.8888072937563" lon="7.626749659047076"><ele>582.0</ele><time>2026-04-26T05:31:31.89Z</time></trkpt><trkpt lat="43.888748466171414" lon="7.626863294963747"><ele>582.0</ele><time>2026-04-26T05:31:32.89Z</time></trkpt><trkpt lat="43.88869483742259" lon="7.626955141679778"><ele>582.0</ele><time>2026-04-26T05:31:33.889Z</time></trkpt><trkpt lat="43.88863618082508" lon="7.6270517159216356"><ele>582.0</ele><time>2026-04-26T05:31:34.889Z</time></trkpt><trkpt lat="43.888591162837635" lon="7.627121643589461"><ele>582.0</ele><time>2026-04-26T05:31:35.889Z</time></trkpt><trkpt lat="43.88852877686316" lon="7.627179467970483"><ele>582.0</ele><time>2026-04-26T05:31:37.889Z</time></trkpt><trkpt lat="43.88859573853886" lon="7.627129790951248"><ele>582.0</ele><time>2026-04-26T05:31:44.889Z</time></trkpt><trkpt lat="43.88866946610976" lon="7.626965027651252"><ele>582.0</ele><time>2026-04-26T05:31:46.889Z</time></trkpt><trkpt lat="43.888718837126405" lon="7.626887016376665"><ele>582.0</ele><time>2026-04-26T05:31:47.889Z</time></trkpt><trkpt lat="43.88876801388332" lon="7.626803008219709"><ele>582.0</ele><time>2026-04-26T05:31:48.889Z</time></trkpt><trkpt lat="43.888804532109205" lon="7.626710705005207"><ele>582.0</ele><time>2026-04-26T05:31:49.889Z</time></trkpt><trkpt lat="43.888847419205526" lon="7.626619641859315"><ele>582.0</ele><time>2026-04-26T05:31:50.889Z</time></trkpt><trkpt lat="43.888900823628546" lon="7.626520798875942"><ele>582.0</ele><time>2026-04-26T05:31:51.889Z</time></trkpt><trkpt lat="43.888966624715614" lon="7.626423560158579"><ele>582.0</ele><time>2026-04-26T05:31:52.889Z</time></trkpt><trkpt lat="43.888988947672345" lon="7.626300551251941"><ele>582.0</ele><time>2026-04-26T05:31:53.889Z</time></trkpt><trkpt lat="43.88899223049577" lon="7.626169344767703"><ele>582.0</ele><time>2026-04-26T05:31:54.889Z</time></trkpt><trkpt lat="43.888987906267914" lon="7.62603918960654"><ele>582.2</ele><time>2026-04-26T05:31:55.889Z</time></trkpt><trkpt lat="43.889006310275455" lon="7.625917461751611"><ele>582.4000000000001</ele><time>2026-04-26T05:31:56.889Z</time></trkpt><trkpt lat="43.88901599791898" lon="7.625774669545594"><ele>582.5999999999999</ele><time>2026-04-26T05:31:57.889Z</time></trkpt><trkpt lat="43.88901231498279" lon="7.6256298321692375"><ele>582.8</ele><time>2026-04-26T05:31:58.889Z</time></trkpt><trkpt lat="43.88899619023594" lon="7.625509547822535"><ele>583.0</ele><time>2026-04-26T05:31:59.889Z</time></trkpt><trkpt lat="43.888958392758774" lon="7.625423537682147"><ele>583.0</ele><time>2026-04-26T05:32:00.889Z</time></trkpt><trkpt lat="43.88887572366031" lon="7.625300507277563"><ele>583.0</ele><time>2026-04-26T05:32:02.889Z</time></trkpt><trkpt lat="43.88879094232733" lon="7.6253586811018"><ele>583.0</ele><time>2026-04-26T05:32:03.889Z</time></trkpt><trkpt lat="43.88871497098754" lon="7.625402510102444"><ele>583.0</ele><time>2026-04-26T05:32:04.889Z</time></trkpt><trkpt lat="43.888623311618616" lon="7.625426382043439"><ele>583.0</ele><time>2026-04-26T05:32:05.889Z</time></trkpt><trkpt lat="43.888536816083985" lon="7.625423146952016"><ele>583.0</ele><time>2026-04-26T05:32:06.888Z</time></trkpt><trkpt lat="43.88843665995874" lon="7.625405188461665"><ele>583.0</ele><time>2026-04-26T05:32:07.887Z</time></trkpt><trkpt lat="43.88834048021259" lon="7.62538057410604"><ele>583.0</ele><time>2026-04-26T05:32:08.886Z</time></trkpt><trkpt lat="43.88823069163603" lon="7.625357864320344"><ele>583.0</ele><time>2026-04-26T05:32:09.885Z</time></trkpt><trkpt lat="43.888131797793704" lon="7.625350206484007"><ele>583.0</ele><time>2026-04-26T05:32:10.884Z</time></trkpt><trkpt lat="43.88804824832921" lon="7.6253150971933525"><ele>575.8</ele><time>2026-04-26T05:32:11.883Z</time></trkpt><trkpt lat="43.887952829495234" lon="7.625329473978131"><ele>568.5999999999999</ele><time>2026-04-26T05:32:12.882Z</time></trkpt><trkpt lat="43.887873129001804" lon="7.625340256256274"><ele>561.4000000000001</ele><time>2026-04-26T05:32:13.882Z</time></trkpt><trkpt lat="43.8877673093908" lon="7.62536549806117"><ele>554.2</ele><time>2026-04-26T05:32:14.881Z</time></trkpt><trkpt lat="43.887667055048084" lon="7.625361820740435"><ele>547.0</ele><time>2026-04-26T05:32:15.88Z</time></trkpt><trkpt lat="43.88757242640634" lon="7.625356402329894"><ele>543.6</ele><time>2026-04-26T05:32:16.88Z</time></trkpt><trkpt lat="43.887466645884224" lon="7.625361075950194"><ele>540.2</ele><time>2026-04-26T05:32:17.879Z</time></trkpt><trkpt lat="43.88736136319777" lon="7.625380956720163"><ele>536.8</ele><time>2026-04-26T05:32:18.878Z</time></trkpt><trkpt lat="43.88725808615741" lon="7.6254145502159165"><ele>533.4</ele><time>2026-04-26T05:32:19.878Z</time></trkpt><trkpt lat="43.887162797356545" lon="7.625408054216493"><ele>530.0</ele><time>2026-04-26T05:32:20.877Z</time></trkpt><trkpt lat="43.88707209070754" lon="7.625414758122652"><ele>530.0</ele><time>2026-04-26T05:32:21.877Z</time></trkpt><trkpt lat="43.8869851302536" lon="7.62543221403161"><ele>530.0</ele><time>2026-04-26T05:32:22.877Z</time></trkpt><trkpt lat="43.88692089795251" lon="7.625444600678327"><ele>530.0</ele><time>2026-04-26T05:32:23.876Z</time></trkpt><trkpt lat="43.886830763162905" lon="7.6253963209827145"><ele>530.0</ele><time>2026-04-26T05:32:25.875Z</time></trkpt><trkpt lat="43.88677126574482" lon="7.6253249452897665"><ele>530.0</ele><time>2026-04-26T05:32:26.875Z</time></trkpt><trkpt lat="43.886703207296684" lon="7.625234609235971"><ele>530.0</ele><time>2026-04-26T05:32:27.875Z</time></trkpt><trkpt lat="43.886637570016916" lon="7.62515576092306"><ele>533.8</ele><time>2026-04-26T05:32:28.874Z</time></trkpt><trkpt lat="43.886566495601414" lon="7.625085248490167"><ele>537.6</ele><time>2026-04-26T05:32:29.874Z</time></trkpt><trkpt lat="43.88648172396678" lon="7.6250029939310595"><ele>541.4</ele><time>2026-04-26T05:32:30.874Z</time></trkpt><trkpt lat="43.88640085558396" lon="7.624930391129664"><ele>545.2</ele><time>2026-04-26T05:32:31.874Z</time></trkpt><trkpt lat="43.88631638772261" lon="7.624850120810446"><ele>549.0</ele><time>2026-04-26T05:32:32.873Z</time></trkpt><trkpt lat="43.88623235376108" lon="7.624782755047808"><ele>549.0</ele><time>2026-04-26T05:32:33.873Z</time></trkpt><trkpt lat="43.886138190257554" lon="7.624704037719868"><ele>549.0</ele><time>2026-04-26T05:32:34.873Z</time></trkpt><trkpt lat="43.886045307389494" lon="7.624651003787573"><ele>549.0</ele><time>2026-04-26T05:32:35.873Z</time></trkpt><trkpt lat="43.88596181397676" lon="7.624588759945196"><ele>549.0</ele><time>2026-04-26T05:32:36.872Z</time></trkpt><trkpt lat="43.885880130032" lon="7.624517641388891"><ele>549.0</ele><time>2026-04-26T05:32:37.872Z</time></trkpt><trkpt lat="43.88580556855683" lon="7.62444327968269"><ele>549.0</ele><time>2026-04-26T05:32:38.872Z</time></trkpt><trkpt lat="43.88572178564537" lon="7.6243732519799945"><ele>549.0</ele><time>2026-04-26T05:32:39.872Z</time></trkpt><trkpt lat="43.88566585801451" lon="7.62430044224854"><ele>549.0</ele><time>2026-04-26T05:32:40.872Z</time></trkpt><trkpt lat="43.88561711069604" lon="7.624235102269249"><ele>549.0</ele><time>2026-04-26T05:32:41.872Z</time></trkpt><trkpt lat="43.88560132247076" lon="7.62409225582092"><ele>549.0</ele><time>2026-04-26T05:32:43.871Z</time></trkpt><trkpt lat="43.885599459994424" lon="7.6239066028841345"><ele>549.0</ele><time>2026-04-26T05:32:45.871Z</time></trkpt><trkpt lat="43.88564297950163" lon="7.623813434529306"><ele>549.0</ele><time>2026-04-26T05:32:46.871Z</time></trkpt><trkpt lat="43.88565608627214" lon="7.6236995426121785"><ele>549.0</ele><time>2026-04-26T05:32:47.871Z</time></trkpt><trkpt lat="43.885657478237675" lon="7.623591409312423"><ele>549.0</ele><time>2026-04-26T05:32:48.871Z</time></trkpt><trkpt lat="43.885614484858536" lon="7.623487067769465"><ele>549.0</ele><time>2026-04-26T05:32:49.871Z</time></trkpt><trkpt lat="43.885540331901396" lon="7.623430817019066"><ele>549.0</ele><time>2026-04-26T05:32:50.871Z</time></trkpt><trkpt lat="43.88547046369206" lon="7.62335312987308"><ele>553.0</ele><time>2026-04-26T05:32:51.871Z</time></trkpt><trkpt lat="43.885412226843805" lon="7.62325790492606"><ele>557.0</ele><time>2026-04-26T05:32:52.871Z</time></trkpt><trkpt lat="43.88533051058037" lon="7.62318575773152"><ele>561.0</ele><time>2026-04-26T05:32:53.87Z</time></trkpt><trkpt lat="43.88524547834115" lon="7.623117871235219"><ele>565.0</ele><time>2026-04-26T05:32:54.87Z</time></trkpt><trkpt lat="43.88516332361376" lon="7.62305687390682"><ele>569.0</ele><time>2026-04-26T05:32:55.87Z</time></trkpt><trkpt lat="43.8851156092419" lon="7.622970304119285"><ele>561.6666666666666</ele><time>2026-04-26T05:32:56.87Z</time></trkpt><trkpt lat="43.885062513895825" lon="7.622907179029437"><ele>554.3333333333333</ele><time>2026-04-26T05:32:57.87Z</time></trkpt><trkpt lat="43.88499959388765" lon="7.622835312720292"><ele>547.0</ele><time>2026-04-26T05:32:58.87Z</time></trkpt><trkpt lat="43.884927429522406" lon="7.622771661720352"><ele>539.6666666666666</ele><time>2026-04-26T05:33:00.87Z</time></trkpt><trkpt lat="43.88483589336457" lon="7.622781938883281"><ele>532.3333333333334</ele><time>2026-04-26T05:33:02.87Z</time></trkpt><trkpt lat="43.884851273480564" lon="7.622933726522899"><ele>525.0</ele><time>2026-04-26T05:33:03.87Z</time></trkpt><trkpt lat="43.88488491930848" lon="7.623013486461547"><ele>524.2</ele><time>2026-04-26T05:33:04.87Z</time></trkpt><trkpt lat="43.8850096065129" lon="7.623047737261983"><ele>523.4</ele><time>2026-04-26T05:33:05.87Z</time></trkpt><trkpt lat="43.88507177253863" lon="7.623116051649862"><ele>522.6</ele><time>2026-04-26T05:33:06.87Z</time></trkpt><trkpt lat="43.88513264860103" lon="7.623194566513669"><ele>521.8</ele><time>2026-04-26T05:33:07.87Z</time></trkpt><trkpt lat="43.88520118115733" lon="7.623255523059383"><ele>521.0</ele><time>2026-04-26T05:33:08.87Z</time></trkpt><trkpt lat="43.88527115416016" lon="7.62334624759277"><ele>525.6666666666666</ele><time>2026-04-26T05:33:09.87Z</time></trkpt><trkpt lat="43.8853509369959" lon="7.623407588283731"><ele>530.3333333333333</ele><time>2026-04-26T05:33:10.87Z</time></trkpt><trkpt lat="43.88538653655367" lon="7.62349304774989"><ele>535.0</ele><time>2026-04-26T05:33:11.869Z</time></trkpt><trkpt lat="43.88542737179556" lon="7.623570874252962"><ele>539.6666666666666</ele><time>2026-04-26T05:33:12.869Z</time></trkpt><trkpt lat="43.88546166068918" lon="7.623733461259447"><ele>544.3333333333334</ele><time>2026-04-26T05:33:14.869Z</time></trkpt><trkpt lat="43.88543855150609" lon="7.623838463279653"><ele>549.0</ele><time>2026-04-26T05:33:15.869Z</time></trkpt><trkpt lat="43.885403293601414" lon="7.623926912008757"><ele>549.0</ele><time>2026-04-26T05:33:16.869Z</time></trkpt><trkpt lat="43.88537040615833" lon="7.624018313561904"><ele>549.0</ele><time>2026-04-26T05:33:17.869Z</time></trkpt><trkpt lat="43.88533814207757" lon="7.624128019541072"><ele>549.0</ele><time>2026-04-26T05:33:18.872Z</time></trkpt><trkpt lat="43.885303570617545" lon="7.624224777623094"><ele>549.0</ele><time>2026-04-26T05:33:19.872Z</time></trkpt><trkpt lat="43.88526314344085" lon="7.62431035999807"><ele>549.0</ele><time>2026-04-26T05:33:20.872Z</time></trkpt><trkpt lat="43.885208255297265" lon="7.624409430216503"><ele>549.0</ele><time>2026-04-26T05:33:21.872Z</time></trkpt><trkpt lat="43.88514916841555" lon="7.624500124172448"><ele>541.5</ele><time>2026-04-26T05:33:22.871Z</time></trkpt><trkpt lat="43.885093223700245" lon="7.624583650060094"><ele>534.0</ele><time>2026-04-26T05:33:23.871Z</time></trkpt><trkpt lat="43.88503912388055" lon="7.62467308305071"><ele>526.5</ele><time>2026-04-26T05:33:24.871Z</time></trkpt><trkpt lat="43.885017385845046" lon="7.624786938824895"><ele>519.0</ele><time>2026-04-26T05:33:25.871Z</time></trkpt><trkpt lat="43.88498629489394" lon="7.624904775767435"><ele>511.5</ele><time>2026-04-26T05:33:26.871Z</time></trkpt><trkpt lat="43.88493866664998" lon="7.625005781382661"><ele>504.0</ele><time>2026-04-26T05:33:27.871Z</time></trkpt><trkpt lat="43.88490775132254" lon="7.625106837034752"><ele>504.0</ele><time>2026-04-26T05:33:28.871Z</time></trkpt><trkpt lat="43.88490486047886" lon="7.625271790615886"><ele>504.0</ele><time>2026-04-26T05:33:30.871Z</time></trkpt><trkpt lat="43.88499768274664" lon="7.625338564202764"><ele>504.0</ele><time>2026-04-26T05:33:31.871Z</time></trkpt><trkpt lat="43.88508984743921" lon="7.6253295362449"><ele>504.0</ele><time>2026-04-26T05:33:32.871Z</time></trkpt><trkpt lat="43.88517547511971" lon="7.625345414493177"><ele>504.0</ele><time>2026-04-26T05:33:33.871Z</time></trkpt><trkpt lat="43.88524920749284" lon="7.625368162226855"><ele>503.79999999999995</ele><time>2026-04-26T05:33:34.871Z</time></trkpt><trkpt lat="43.88532811891923" lon="7.62541087571841"><ele>503.59999999999997</ele><time>2026-04-26T05:33:35.871Z</time></trkpt><trkpt lat="43.88542659586581" lon="7.625445578398277"><ele>503.4</ele><time>2026-04-26T05:33:36.871Z</time></trkpt><trkpt lat="43.88552495414576" lon="7.62548481512649"><ele>503.2</ele><time>2026-04-26T05:33:37.871Z</time></trkpt><trkpt lat="43.88561185717181" lon="7.625525720292024"><ele>503.0</ele><time>2026-04-26T05:33:38.871Z</time></trkpt><trkpt lat="43.885698889441514" lon="7.625578326522229"><ele>502.99999999999994</ele><time>2026-04-26T05:33:39.871Z</time></trkpt><trkpt lat="43.88577906553051" lon="7.625655522299439"><ele>503.0</ele><time>2026-04-26T05:33:40.871Z</time></trkpt><trkpt lat="43.885843474398804" lon="7.625735281576709"><ele>503.0</ele><time>2026-04-26T05:33:41.871Z</time></trkpt><trkpt lat="43.8858851470953" lon="7.625819752241144"><ele>503.0</ele><time>2026-04-26T05:33:42.871Z</time></trkpt><trkpt lat="43.885904051902216" lon="7.625920805433022"><ele>502.99999999999994</ele><time>2026-04-26T05:33:43.871Z</time></trkpt><trkpt lat="43.88590553771309" lon="7.6260512622971"><ele>503.0</ele><time>2026-04-26T05:33:44.871Z</time></trkpt><trkpt lat="43.88591465574423" lon="7.626186868804697"><ele>499.99999999999994</ele><time>2026-04-26T05:33:45.871Z</time></trkpt><trkpt lat="43.88592228005735" lon="7.6263089244706865"><ele>497.0</ele><time>2026-04-26T05:33:46.871Z</time></trkpt><trkpt lat="43.88592779245488" lon="7.626417963492317"><ele>494.0</ele><time>2026-04-26T05:33:47.871Z</time></trkpt><trkpt lat="43.88594435339881" lon="7.626505662518994"><ele>491.0</ele><time>2026-04-26T05:33:48.871Z</time></trkpt><trkpt lat="43.885992393119935" lon="7.6265792367486025"><ele>487.99999999999994</ele><time>2026-04-26T05:33:49.871Z</time></trkpt><trkpt lat="43.88606229621126" lon="7.6266342864518935"><ele>485.0</ele><time>2026-04-26T05:33:50.871Z</time></trkpt><trkpt lat="43.886146593718486" lon="7.626670969631927"><ele>485.00000000000006</ele><time>2026-04-26T05:33:51.871Z</time></trkpt><trkpt lat="43.886227532684366" lon="7.626695181464226"><ele>485.0</ele><time>2026-04-26T05:33:52.871Z</time></trkpt><trkpt lat="43.88629615630275" lon="7.626699062673021"><ele>485.00000000000006</ele><time>2026-04-26T05:33:53.871Z</time></trkpt><trkpt lat="43.886359610153136" lon="7.62667143356905"><ele>485.00000000000006</ele><time>2026-04-26T05:33:54.871Z</time></trkpt><trkpt lat="43.88642268279822" lon="7.6266353820510515"><ele>485.0</ele><time>2026-04-26T05:33:55.871Z</time></trkpt><trkpt lat="43.8864829959231" lon="7.626562590331017"><ele>485.00000000000006</ele><time>2026-04-26T05:33:56.871Z</time></trkpt><trkpt lat="43.88654773217681" lon="7.626491222993662"><ele>485.00000000000006</ele><time>2026-04-26T05:33:57.871Z</time></trkpt><trkpt lat="43.88662183567873" lon="7.626415415972748"><ele>485.0</ele><time>2026-04-26T05:33:58.871Z</time></trkpt><trkpt lat="43.88668723049487" lon="7.626345164502574"><ele>485.0</ele><time>2026-04-26T05:33:59.871Z</time></trkpt><trkpt lat="43.886769509192895" lon="7.6263264069003425"><ele>485.0</ele><time>2026-04-26T05:34:00.871Z</time></trkpt><trkpt lat="43.88687387471306" lon="7.626344790300721"><ele>485.0</ele><time>2026-04-26T05:34:01.871Z</time></trkpt><trkpt lat="43.88697771674975" lon="7.626361704539788"><ele>485.0</ele><time>2026-04-26T05:34:02.871Z</time></trkpt><trkpt lat="43.88708205787857" lon="7.626381371551148"><ele>489.0</ele><time>2026-04-26T05:34:03.87Z</time></trkpt><trkpt lat="43.88718939232647" lon="7.626402748829867"><ele>493.0</ele><time>2026-04-26T05:34:04.87Z</time></trkpt><trkpt lat="43.88728413016486" lon="7.626416547571236"><ele>497.0</ele><time>2026-04-26T05:34:05.87Z</time></trkpt><trkpt lat="43.887376051904" lon="7.626443811885985"><ele>501.0</ele><time>2026-04-26T05:34:06.87Z</time></trkpt><trkpt lat="43.8874581360754" lon="7.626473949260666"><ele>505.0</ele><time>2026-04-26T05:34:07.87Z</time></trkpt><trkpt lat="43.88752433060834" lon="7.626539047467664"><ele>505.00000000000006</ele><time>2026-04-26T05:34:08.87Z</time></trkpt><trkpt lat="43.88754614921759" lon="7.6266298916042565"><ele>505.0</ele><time>2026-04-26T05:34:09.87Z</time></trkpt><trkpt lat="43.88751131189775" lon="7.626727833523317"><ele>505.0</ele><time>2026-04-26T05:34:10.87Z</time></trkpt><trkpt lat="43.887432514954064" lon="7.626795739391511"><ele>505.0</ele><time>2026-04-26T05:34:11.87Z</time></trkpt><trkpt lat="43.88736898035958" lon="7.6268728934873975"><ele>505.00000000000006</ele><time>2026-04-26T05:34:12.87Z</time></trkpt><trkpt lat="43.8873118970719" lon="7.6269860605692825"><ele>505.0</ele><time>2026-04-26T05:34:13.87Z</time></trkpt><trkpt lat="43.88725971433282" lon="7.627078196755174"><ele>505.50000000000006</ele><time>2026-04-26T05:34:14.87Z</time></trkpt><trkpt lat="43.887232110146876" lon="7.627164799310724"><ele>506.0</ele><time>2026-04-26T05:34:15.87Z</time></trkpt><trkpt lat="43.887228101540586" lon="7.627282342162604"><ele>506.5</ele><time>2026-04-26T05:34:16.87Z</time></trkpt><trkpt lat="43.88724314905434" lon="7.627407439855393"><ele>507.0</ele><time>2026-04-26T05:34:17.87Z</time></trkpt><trkpt lat="43.8872252027039" lon="7.627528380269058"><ele>507.50000000000006</ele><time>2026-04-26T05:34:18.87Z</time></trkpt><trkpt lat="43.88721259526082" lon="7.627663828521549"><ele>508.0</ele><time>2026-04-26T05:34:19.87Z</time></trkpt><trkpt lat="43.88717398233304" lon="7.627789296334397"><ele>510.79999999999995</ele><time>2026-04-26T05:34:20.87Z</time></trkpt><trkpt lat="43.88711628556224" lon="7.627901783650262"><ele>513.5999999999999</ele><time>2026-04-26T05:34:21.87Z</time></trkpt><trkpt lat="43.8870557094481" lon="7.628002516972071"><ele>516.4000000000001</ele><time>2026-04-26T05:34:22.87Z</time></trkpt><trkpt lat="43.887012795687525" lon="7.628100665047081"><ele>519.2</ele><time>2026-04-26T05:34:23.87Z</time></trkpt><trkpt lat="43.886959415065036" lon="7.628207506278731"><ele>522.0</ele><time>2026-04-26T05:34:24.87Z</time></trkpt><trkpt lat="43.886926082158546" lon="7.628317089584463"><ele>522.0</ele><time>2026-04-26T05:34:25.87Z</time></trkpt><trkpt lat="43.88688922157657" lon="7.628401200725319"><ele>522.0</ele><time>2026-04-26T05:34:26.87Z</time></trkpt><trkpt lat="43.88683061504071" lon="7.628472249713693"><ele>522.0</ele><time>2026-04-26T05:34:27.87Z</time></trkpt><trkpt lat="43.886746619244654" lon="7.628494646134006"><ele>522.0</ele><time>2026-04-26T05:34:28.87Z</time></trkpt><trkpt lat="43.886655523047764" lon="7.62853287842709"><ele>522.0</ele><time>2026-04-26T05:34:29.87Z</time></trkpt><trkpt lat="43.88656433622427" lon="7.628570637182899"><ele>522.0</ele><time>2026-04-26T05:34:30.87Z</time></trkpt><trkpt lat="43.88646842099685" lon="7.628611202463364"><ele>516.8000000000001</ele><time>2026-04-26T05:34:31.87Z</time></trkpt><trkpt lat="43.88637329207763" lon="7.628655905834785"><ele>511.6</ele><time>2026-04-26T05:34:32.87Z</time></trkpt><trkpt lat="43.8862785540221" lon="7.628685088128886"><ele>506.40000000000003</ele><time>2026-04-26T05:34:33.87Z</time></trkpt><trkpt lat="43.8862065001486" lon="7.628719827392872"><ele>501.20000000000005</ele><time>2026-04-26T05:34:34.87Z</time></trkpt><trkpt lat="43.886120228620484" lon="7.628766843719355"><ele>496.0</ele><time>2026-04-26T05:34:35.87Z</time></trkpt><trkpt lat="43.886031926846236" lon="7.628840778740008"><ele>496.00000000000006</ele><time>2026-04-26T05:34:36.87Z</time></trkpt><trkpt lat="43.88594344524348" lon="7.62891565447567"><ele>496.0</ele><time>2026-04-26T05:34:37.87Z</time></trkpt><trkpt lat="43.88586359119645" lon="7.628983139805197"><ele>496.0</ele><time>2026-04-26T05:34:38.87Z</time></trkpt><trkpt lat="43.885779941987686" lon="7.629028944453494"><ele>496.0</ele><time>2026-04-26T05:34:39.87Z</time></trkpt><trkpt lat="43.885700384873985" lon="7.629057489120056"><ele>496.00000000000006</ele><time>2026-04-26T05:34:40.87Z</time></trkpt><trkpt lat="43.88563067179007" lon="7.62908312237193"><ele>496.0</ele><time>2026-04-26T05:34:41.87Z</time></trkpt><trkpt lat="43.88556181081165" lon="7.629116140510463"><ele>488.20000000000005</ele><time>2026-04-26T05:34:42.87Z</time></trkpt><trkpt lat="43.88546116746418" lon="7.629137844790476"><ele>480.40000000000003</ele><time>2026-04-26T05:34:44.87Z</time></trkpt><trkpt lat="43.88535593625816" lon="7.629102168012767"><ele>472.6</ele><time>2026-04-26T05:34:46.87Z</time></trkpt><trkpt lat="43.88524906172327" lon="7.629086515032399"><ele>464.8</ele><time>2026-04-26T05:34:48.87Z</time></trkpt><trkpt lat="43.88516956690807" lon="7.62908851731575"><ele>457.0</ele><time>2026-04-26T05:34:50.869Z</time></trkpt><trkpt lat="43.88510058958724" lon="7.629105092409293"><ele>457.0</ele><time>2026-04-26T05:34:59.869Z</time></trkpt><trkpt lat="43.88516629308721" lon="7.629083913854666"><ele>457.0</ele><time>2026-04-26T05:35:11.869Z</time></trkpt><trkpt lat="43.8852597113787" lon="7.629074636329715"><ele>457.0</ele><time>2026-04-26T05:35:13.869Z</time></trkpt><trkpt lat="43.885285899900914" lon="7.629356661033732"><ele>457.0</ele><time>2026-04-26T05:35:14.869Z</time></trkpt><trkpt lat="43.885347026700884" lon="7.629379065767519"><ele>457.0</ele><time>2026-04-26T05:35:19.869Z</time></trkpt></trkseg><trkseg><trkpt lat="43.885281077089886" lon="7.624353969282541"><ele>549.0</ele><time>2026-04-26T05:43:34.867Z</time></trkpt><trkpt lat="43.88530389511198" lon="7.624266525975468"><ele>549.0</ele><time>2026-04-26T05:43:42.866Z</time></trkpt><trkpt lat="43.885369555182606" lon="7.624152493695783"><ele>549.0</ele><time>2026-04-26T05:43:44.866Z</time></trkpt><trkpt lat="43.8853998735792" lon="7.6240709626334"><ele>549.0</ele><time>2026-04-26T05:43:45.869Z</time></trkpt><trkpt lat="43.88542683768111" lon="7.62398506698234"><ele>549.0</ele><time>2026-04-26T05:43:46.869Z</time></trkpt><trkpt lat="43.88545032261693" lon="7.6238920701922375"><ele>549.0</ele><time>2026-04-26T05:43:47.869Z</time></trkpt><trkpt lat="43.88545514368627" lon="7.623794287896317"><ele>549.0</ele><time>2026-04-26T05:43:48.87Z</time></trkpt><trkpt lat="43.885485237183524" lon="7.623711911582401"><ele>552.3333333333334</ele><time>2026-04-26T05:43:49.869Z</time></trkpt><trkpt lat="43.88547784351082" lon="7.623600389588504"><ele>555.6666666666666</ele><time>2026-04-26T05:43:50.869Z</time></trkpt><trkpt lat="43.88543719251107" lon="7.623502033156094"><ele>559.0</ele><time>2026-04-26T05:43:51.869Z</time></trkpt><trkpt lat="43.88537529667222" lon="7.623408601763538"><ele>562.3333333333333</ele><time>2026-04-26T05:43:52.869Z</time></trkpt><trkpt lat="43.88530932422462" lon="7.623325360487498"><ele>565.6666666666666</ele><time>2026-04-26T05:43:53.869Z</time></trkpt><trkpt lat="43.88523833171951" lon="7.62325429176826"><ele>569.0</ele><time>2026-04-26T05:43:54.869Z</time></trkpt><trkpt lat="43.88515435169742" lon="7.623192559060093"><ele>560.2</ele><time>2026-04-26T05:43:55.869Z</time></trkpt><trkpt lat="43.88506562700203" lon="7.62309920516013"><ele>551.4</ele><time>2026-04-26T05:43:56.869Z</time></trkpt><trkpt lat="43.884994560463596" lon="7.622998569854722"><ele>542.6</ele><time>2026-04-26T05:43:57.869Z</time></trkpt><trkpt lat="43.88493666920391" lon="7.62294324764637"><ele>533.8</ele><time>2026-04-26T05:43:58.869Z</time></trkpt><trkpt lat="43.88486570312809" lon="7.622830662480797"><ele>525.0</ele><time>2026-04-26T05:44:00.869Z</time></trkpt><trkpt lat="43.88496487258534" lon="7.6227997976898125"><ele>524.3333333333334</ele><time>2026-04-26T05:44:03.869Z</time></trkpt><trkpt lat="43.885020249178915" lon="7.622899750908266"><ele>523.6666666666666</ele><time>2026-04-26T05:44:05.869Z</time></trkpt><trkpt lat="43.88507362211036" lon="7.623018998877711"><ele>523.0</ele><time>2026-04-26T05:44:07.868Z</time></trkpt><trkpt lat="43.88515363955374" lon="7.623121032039661"><ele>522.3333333333333</ele><time>2026-04-26T05:44:09.868Z</time></trkpt><trkpt lat="43.88521672837501" lon="7.623175144500931"><ele>521.6666666666666</ele><time>2026-04-26T05:44:10.868Z</time></trkpt><trkpt lat="43.885281599097105" lon="7.623225328157316"><ele>521.0</ele><time>2026-04-26T05:44:11.868Z</time></trkpt><trkpt lat="43.885372572854685" lon="7.623306149570095"><ele>526.6</ele><time>2026-04-26T05:44:12.868Z</time></trkpt><trkpt lat="43.88546166465337" lon="7.623383624379706"><ele>532.2</ele><time>2026-04-26T05:44:13.868Z</time></trkpt><trkpt lat="43.88553873529162" lon="7.623469210997023"><ele>537.8</ele><time>2026-04-26T05:44:14.868Z</time></trkpt><trkpt lat="43.88560236770968" lon="7.623549421370173"><ele>543.4</ele><time>2026-04-26T05:44:15.868Z</time></trkpt><trkpt lat="43.88562632384767" lon="7.623657028206952"><ele>549.0</ele><time>2026-04-26T05:44:16.868Z</time></trkpt><trkpt lat="43.88562517130035" lon="7.623779735804022"><ele>549.0</ele><time>2026-04-26T05:44:17.868Z</time></trkpt><trkpt lat="43.8856034502061" lon="7.623912216808594"><ele>549.0</ele><time>2026-04-26T05:44:18.868Z</time></trkpt><trkpt lat="43.88558098248949" lon="7.6240263766745775"><ele>549.0</ele><time>2026-04-26T05:44:19.868Z</time></trkpt><trkpt lat="43.88557774883235" lon="7.62412051526831"><ele>549.0</ele><time>2026-04-26T05:44:20.868Z</time></trkpt><trkpt lat="43.885628975639094" lon="7.62427651209918"><ele>549.0</ele><time>2026-04-26T05:44:22.868Z</time></trkpt><trkpt lat="43.885681566211275" lon="7.62435042326466"><ele>549.0</ele><time>2026-04-26T05:44:23.868Z</time></trkpt><trkpt lat="43.88574733285645" lon="7.624430259429324"><ele>549.0</ele><time>2026-04-26T05:44:24.868Z</time></trkpt><trkpt lat="43.885816609108446" lon="7.624495461493203"><ele>549.0</ele><time>2026-04-26T05:44:25.868Z</time></trkpt><trkpt lat="43.885905939410534" lon="7.624607380174541"><ele>549.0</ele><time>2026-04-26T05:44:26.868Z</time></trkpt><trkpt lat="43.886014116448635" lon="7.62469610441874"><ele>549.0</ele><time>2026-04-26T05:44:27.868Z</time></trkpt><trkpt lat="43.886131788751335" lon="7.624790806080897"><ele>549.0</ele><time>2026-04-26T05:44:28.868Z</time></trkpt><trkpt lat="43.88625263142286" lon="7.624883101163505"><ele>549.0</ele><time>2026-04-26T05:44:29.868Z</time></trkpt><trkpt lat="43.886372128614006" lon="7.624987994485343"><ele>549.0</ele><time>2026-04-26T05:44:30.868Z</time></trkpt><trkpt lat="43.886483907354354" lon="7.625093517500564"><ele>549.0</ele><time>2026-04-26T05:44:31.868Z</time></trkpt><trkpt lat="43.886595159748936" lon="7.625202679536244"><ele>549.0</ele><time>2026-04-26T05:44:32.868Z</time></trkpt><trkpt lat="43.88669254128975" lon="7.625301946669211"><ele>549.0</ele><time>2026-04-26T05:44:33.868Z</time></trkpt><trkpt lat="43.88677855911663" lon="7.625389225853918"><ele>549.0</ele><time>2026-04-26T05:44:34.868Z</time></trkpt><trkpt lat="43.88685087527297" lon="7.625477942244731"><ele>549.0</ele><time>2026-04-26T05:44:35.868Z</time></trkpt><trkpt lat="43.88694446297588" lon="7.625514344602953"><ele>549.0</ele><time>2026-04-26T05:44:37.868Z</time></trkpt><trkpt lat="43.88706126412099" lon="7.625465807626086"><ele>548.6</ele><time>2026-04-26T05:44:39.868Z</time></trkpt><trkpt lat="43.88714929538041" lon="7.625458395652941"><ele>548.2</ele><time>2026-04-26T05:44:40.868Z</time></trkpt><trkpt lat="43.88725128131435" lon="7.625446621968245"><ele>547.8000000000001</ele><time>2026-04-26T05:44:41.868Z</time></trkpt><trkpt lat="43.88736981003087" lon="7.625424553186202"><ele>547.4</ele><time>2026-04-26T05:44:42.868Z</time></trkpt><trkpt lat="43.88748958896156" lon="7.625409983110021"><ele>547.0</ele><time>2026-04-26T05:44:43.868Z</time></trkpt><trkpt lat="43.88761701659926" lon="7.625410940805809"><ele>547.0</ele><time>2026-04-26T05:44:44.868Z</time></trkpt><trkpt lat="43.887727827664996" lon="7.625411272951599"><ele>547.0</ele><time>2026-04-26T05:44:45.868Z</time></trkpt><trkpt lat="43.88784896533643" lon="7.625399453940904"><ele>547.0</ele><time>2026-04-26T05:44:46.868Z</time></trkpt><trkpt lat="43.887961881909234" lon="7.625383403751512"><ele>547.0</ele><time>2026-04-26T05:44:47.868Z</time></trkpt><trkpt lat="43.888073034190995" lon="7.625371954603652"><ele>547.0</ele><time>2026-04-26T05:44:48.868Z</time></trkpt><trkpt lat="43.888179682827726" lon="7.625369223033211"><ele>547.0</ele><time>2026-04-26T05:44:49.868Z</time></trkpt><trkpt lat="43.88828979595941" lon="7.625391229381041"><ele>547.0</ele><time>2026-04-26T05:44:50.868Z</time></trkpt><trkpt lat="43.888407348266455" lon="7.625419262854769"><ele>547.0</ele><time>2026-04-26T05:44:51.868Z</time></trkpt><trkpt lat="43.888516613690086" lon="7.625436716944985"><ele>547.0</ele><time>2026-04-26T05:44:52.867Z</time></trkpt><trkpt lat="43.88860922502099" lon="7.625448617397377"><ele>552.1428571428571</ele><time>2026-04-26T05:44:53.867Z</time></trkpt><trkpt lat="43.8886764550634" lon="7.6254575193030485"><ele>557.2857142857142</ele><time>2026-04-26T05:44:54.867Z</time></trkpt><trkpt lat="43.88875328256351" lon="7.625411719985106"><ele>562.4285714285714</ele><time>2026-04-26T05:44:55.867Z</time></trkpt><trkpt lat="43.888820140127535" lon="7.625377846261273"><ele>567.5714285714286</ele><time>2026-04-26T05:44:56.867Z</time></trkpt><trkpt lat="43.88888881033407" lon="7.6253765854714946"><ele>572.7142857142858</ele><time>2026-04-26T05:44:57.867Z</time></trkpt><trkpt lat="43.88893872247041" lon="7.625452814676901"><ele>577.8571428571429</ele><time>2026-04-26T05:44:58.867Z</time></trkpt><trkpt lat="43.88896992181332" lon="7.625547795809866"><ele>583.0</ele><time>2026-04-26T05:44:59.867Z</time></trkpt><trkpt lat="43.888971720986724" lon="7.62567558494597"><ele>583.0</ele><time>2026-04-26T05:45:00.867Z</time></trkpt><trkpt lat="43.888972517497784" lon="7.625813998416974"><ele>583.0</ele><time>2026-04-26T05:45:01.867Z</time></trkpt><trkpt lat="43.88896471087498" lon="7.625949692644905"><ele>583.0</ele><time>2026-04-26T05:45:02.867Z</time></trkpt><trkpt lat="43.888958868774175" lon="7.626106006208962"><ele>583.0</ele><time>2026-04-26T05:45:03.867Z</time></trkpt><trkpt lat="43.888942731937156" lon="7.626255712494219"><ele>583.0</ele><time>2026-04-26T05:45:04.867Z</time></trkpt><trkpt lat="43.88893928202926" lon="7.626385379372228"><ele>582.75</ele><time>2026-04-26T05:45:05.867Z</time></trkpt><trkpt lat="43.8889120749959" lon="7.62651701538779"><ele>582.5</ele><time>2026-04-26T05:45:06.867Z</time></trkpt><trkpt lat="43.888861271475" lon="7.62665690540212"><ele>582.25</ele><time>2026-04-26T05:45:07.867Z</time></trkpt><trkpt lat="43.88878622635775" lon="7.626792636866535"><ele>582.0</ele><time>2026-04-26T05:45:08.867Z</time></trkpt><trkpt lat="43.88871452450445" lon="7.62692840375662"><ele>581.6</ele><time>2026-04-26T05:45:09.867Z</time></trkpt><trkpt lat="43.8886422708821" lon="7.627058044461203"><ele>581.2</ele><time>2026-04-26T05:45:10.867Z</time></trkpt><trkpt lat="43.88855752285461" lon="7.6271683998156234"><ele>580.8</ele><time>2026-04-26T05:45:11.867Z</time></trkpt><trkpt lat="43.88847911875156" lon="7.627260184384951"><ele>580.4</ele><time>2026-04-26T05:45:12.867Z</time></trkpt><trkpt lat="43.888445366549746" lon="7.627390484252656"><ele>580.0</ele><time>2026-04-26T05:45:13.867Z</time></trkpt><trkpt lat="43.88837686965244" lon="7.627531907393385"><ele>575.4</ele><time>2026-04-26T05:45:15.867Z</time></trkpt><trkpt lat="43.88837702721269" lon="7.6276379031393144"><ele>570.8</ele><time>2026-04-26T05:45:16.867Z</time></trkpt><trkpt lat="43.88839087252007" lon="7.627753178583112"><ele>566.2</ele><time>2026-04-26T05:45:17.867Z</time></trkpt><trkpt lat="43.88839846702228" lon="7.627891824765814"><ele>561.6</ele><time>2026-04-26T05:45:18.867Z</time></trkpt><trkpt lat="43.88839104846903" lon="7.628033731479544"><ele>557.0</ele><time>2026-04-26T05:45:19.867Z</time></trkpt><trkpt lat="43.88836929928372" lon="7.628167581118647"><ele>557.0</ele><time>2026-04-26T05:45:20.867Z</time></trkpt><trkpt lat="43.888314535731844" lon="7.628274772389554"><ele>557.0</ele><time>2026-04-26T05:45:21.867Z</time></trkpt><trkpt lat="43.88824452625897" lon="7.628348730875509"><ele>557.0</ele><time>2026-04-26T05:45:22.867Z</time></trkpt><trkpt lat="43.888180329291586" lon="7.628440593695702"><ele>557.0</ele><time>2026-04-26T05:45:23.867Z</time></trkpt><trkpt lat="43.88811997683271" lon="7.62853583799588"><ele>557.0</ele><time>2026-04-26T05:45:24.867Z</time></trkpt><trkpt lat="43.888068818561884" lon="7.628601312155938"><ele>557.0</ele><time>2026-04-26T05:45:25.867Z</time></trkpt><trkpt lat="43.88803777678095" lon="7.6286979604881555"><ele>556.6666666666666</ele><time>2026-04-26T05:45:26.867Z</time></trkpt><trkpt lat="43.888022998558164" lon="7.628820561109212"><ele>556.3333333333333</ele><time>2026-04-26T05:45:27.867Z</time></trkpt><trkpt lat="43.88809258638202" lon="7.628942780637213"><ele>556.0</ele><time>2026-04-26T05:45:29.867Z</time></trkpt><trkpt lat="43.88815515756491" lon="7.6289613191878445"><ele>555.6666666666666</ele><time>2026-04-26T05:45:30.867Z</time></trkpt><trkpt lat="43.88823327430848" lon="7.628973019277077"><ele>555.3333333333334</ele><time>2026-04-26T05:45:31.867Z</time></trkpt><trkpt lat="43.888298702190724" lon="7.628890486378728"><ele>555.0</ele><time>2026-04-26T05:45:32.867Z</time></trkpt><trkpt lat="43.88837340237716" lon="7.628806574897039"><ele>556.2</ele><time>2026-04-26T05:45:33.867Z</time></trkpt><trkpt lat="43.88844532381934" lon="7.628715834832237"><ele>557.4</ele><time>2026-04-26T05:45:34.867Z</time></trkpt><trkpt lat="43.88852231159871" lon="7.628633220977762"><ele>558.6</ele><time>2026-04-26T05:45:35.867Z</time></trkpt><trkpt lat="43.888581735715526" lon="7.62853478764666"><ele>559.8</ele><time>2026-04-26T05:45:36.867Z</time></trkpt><trkpt lat="43.8886205030526" lon="7.628414657486541"><ele>561.0</ele><time>2026-04-26T05:45:37.867Z</time></trkpt><trkpt lat="43.88863905622761" lon="7.628286215481861"><ele>561.0</ele><time>2026-04-26T05:45:38.866Z</time></trkpt><trkpt lat="43.88866296677473" lon="7.628167842622768"><ele>561.0</ele><time>2026-04-26T05:45:39.866Z</time></trkpt><trkpt lat="43.888709820527986" lon="7.628076277625601"><ele>561.0</ele><time>2026-04-26T05:45:40.866Z</time></trkpt><trkpt lat="43.888805201002235" lon="7.627928591409857"><ele>561.0</ele><time>2026-04-26T05:45:42.866Z</time></trkpt><trkpt lat="43.8888720984735" lon="7.627843603481088"><ele>561.0</ele><time>2026-04-26T05:45:43.866Z</time></trkpt><trkpt lat="43.88894334923024" lon="7.627778475863928"><ele>564.0</ele><time>2026-04-26T05:45:44.866Z</time></trkpt><trkpt lat="43.889025638831036" lon="7.627743523569688"><ele>567.0</ele><time>2026-04-26T05:45:45.866Z</time></trkpt><trkpt lat="43.889109662187906" lon="7.627711914335842"><ele>570.0</ele><time>2026-04-26T05:45:46.866Z</time></trkpt><trkpt lat="43.889190188971114" lon="7.6276725994216115"><ele>573.0</ele><time>2026-04-26T05:45:47.866Z</time></trkpt><trkpt lat="43.889274667539404" lon="7.627722416860688"><ele>576.0</ele><time>2026-04-26T05:45:48.866Z</time></trkpt><trkpt lat="43.8893660664227" lon="7.627737289546983"><ele>579.0</ele><time>2026-04-26T05:45:49.866Z</time></trkpt><trkpt lat="43.88946138579273" lon="7.627758839676589"><ele>579.0</ele><time>2026-04-26T05:45:50.866Z</time></trkpt><trkpt lat="43.8895601826767" lon="7.627759142058388"><ele>579.0</ele><time>2026-04-26T05:45:51.869Z</time></trkpt><trkpt lat="43.889631649580295" lon="7.627760529938256"><ele>579.0</ele><time>2026-04-26T05:45:52.869Z</time></trkpt><trkpt lat="43.88939760385109" lon="7.627527973366732"><ele>579.0</ele><time>2026-04-26T05:46:09.868Z</time></trkpt><trkpt lat="43.8893527226052" lon="7.627458621937709"><ele>579.0</ele><time>2026-04-26T05:46:10.868Z</time></trkpt><trkpt lat="43.88924890784321" lon="7.62738608981943"><ele>579.0</ele><time>2026-04-26T05:46:12.868Z</time></trkpt><trkpt lat="43.889187505332345" lon="7.627363794400657"><ele>579.0</ele><time>2026-04-26T05:46:13.868Z</time></trkpt><trkpt lat="43.88909764529573" lon="7.627331129731076"><ele>579.0</ele><time>2026-04-26T05:46:15.868Z</time></trkpt><trkpt lat="43.889052258857745" lon="7.627249383960095"><ele>579.0</ele><time>2026-04-26T05:46:19.868Z</time></trkpt><trkpt lat="43.88916265396997" lon="7.627109620704834"><ele>579.6</ele><time>2026-04-26T05:46:21.868Z</time></trkpt><trkpt lat="43.88923129545105" lon="7.626958648701198"><ele>580.2</ele><time>2026-04-26T05:46:23.868Z</time></trkpt><trkpt lat="43.88926358473377" lon="7.626862634829565"><ele>580.8000000000001</ele><time>2026-04-26T05:46:24.868Z</time></trkpt><trkpt lat="43.88931229587162" lon="7.6267820264946815"><ele>581.4</ele><time>2026-04-26T05:46:25.868Z</time></trkpt><trkpt lat="43.88935254751362" lon="7.626707375785307"><ele>582.0</ele><time>2026-04-26T05:46:26.868Z</time></trkpt><trkpt lat="43.889412206076415" lon="7.626569209817308"><ele>585.8333333333334</ele><time>2026-04-26T05:46:28.868Z</time></trkpt><trkpt lat="43.88945573577351" lon="7.626439864364674"><ele>589.6666666666666</ele><time>2026-04-26T05:46:30.868Z</time></trkpt><trkpt lat="43.889461833655545" lon="7.626351962591089"><ele>593.5</ele><time>2026-04-26T05:46:31.868Z</time></trkpt><trkpt lat="43.889463190456055" lon="7.626264320231164"><ele>597.3333333333333</ele><time>2026-04-26T05:46:32.868Z</time></trkpt><trkpt lat="43.88947198195945" lon="7.626101623189784"><ele>601.1666666666666</ele><time>2026-04-26T05:46:34.868Z</time></trkpt><trkpt lat="43.889474291604635" lon="7.626006246349254"><ele>605.0</ele><time>2026-04-26T05:46:35.868Z</time></trkpt><trkpt lat="43.88951405044434" lon="7.625842549362049"><ele>606.8333333333333</ele><time>2026-04-26T05:46:37.868Z</time></trkpt><trkpt lat="43.889541908222164" lon="7.625755219057223"><ele>608.6666666666666</ele><time>2026-04-26T05:46:38.868Z</time></trkpt><trkpt lat="43.88956287946934" lon="7.625662870127403"><ele>610.5</ele><time>2026-04-26T05:46:39.868Z</time></trkpt><trkpt lat="43.88960079519501" lon="7.625575046787225"><ele>612.3333333333334</ele><time>2026-04-26T05:46:40.868Z</time></trkpt><trkpt lat="43.889607023760554" lon="7.625475610614313"><ele>614.1666666666667</ele><time>2026-04-26T05:46:41.868Z</time></trkpt><trkpt lat="43.88960679070414" lon="7.625287353913977"><ele>616.0</ele><time>2026-04-26T05:46:43.868Z</time></trkpt><trkpt lat="43.88960138236519" lon="7.625179897378153"><ele>620.2</ele><time>2026-04-26T05:46:44.868Z</time></trkpt><trkpt lat="43.8895932186415" lon="7.625084350732334"><ele>624.4000000000001</ele><time>2026-04-26T05:46:45.868Z</time></trkpt><trkpt lat="43.88958261178466" lon="7.624990128774273"><ele>628.6</ele><time>2026-04-26T05:46:46.868Z</time></trkpt><trkpt lat="43.88957045209857" lon="7.624894709735146"><ele>632.8000000000001</ele><time>2026-04-26T05:46:47.868Z</time></trkpt><trkpt lat="43.88951988183004" lon="7.62476863173902"><ele>637.0</ele><time>2026-04-26T05:46:49.868Z</time></trkpt><trkpt lat="43.88939458763984" lon="7.624680569034474"><ele>637.0</ele><time>2026-04-26T05:46:51.868Z</time></trkpt><trkpt lat="43.889327139699645" lon="7.624635999285694"><ele>637.0</ele><time>2026-04-26T05:46:52.868Z</time></trkpt><trkpt lat="43.88925307507604" lon="7.624592749733217"><ele>637.0</ele><time>2026-04-26T05:46:53.868Z</time></trkpt><trkpt lat="43.889164154752415" lon="7.62454273938784"><ele>637.0</ele><time>2026-04-26T05:46:55.867Z</time></trkpt><trkpt lat="43.8891822304363" lon="7.624642014062694"><ele>637.0</ele><time>2026-04-26T05:47:06.867Z</time></trkpt><trkpt lat="43.88932356703844" lon="7.624697311290567"><ele>637.0</ele><time>2026-04-26T05:47:08.867Z</time></trkpt><trkpt lat="43.8894040988121" lon="7.624657059917709"><ele>637.0</ele><time>2026-04-26T05:47:09.867Z</time></trkpt><trkpt lat="43.8894698436575" lon="7.624704040431137"><ele>637.0</ele><time>2026-04-26T05:47:10.867Z</time></trkpt><trkpt lat="43.889519564505434" lon="7.624763152943117"><ele>637.0</ele><time>2026-04-26T05:47:11.867Z</time></trkpt><trkpt lat="43.88959710485947" lon="7.624859005187838"><ele>637.0</ele><time>2026-04-26T05:47:13.867Z</time></trkpt><trkpt lat="43.889543363574845" lon="7.625084826486667"><ele>637.0</ele><time>2026-04-26T05:47:15.867Z</time></trkpt><trkpt lat="43.88955676655117" lon="7.6252130417612465"><ele>637.0</ele><time>2026-04-26T05:47:17.867Z</time></trkpt><trkpt lat="43.889563087786215" lon="7.6253032563743"><ele>637.0</ele><time>2026-04-26T05:47:18.867Z</time></trkpt><trkpt lat="43.88957856895777" lon="7.6254719802552335"><ele>637.0</ele><time>2026-04-26T05:47:20.867Z</time></trkpt><trkpt lat="43.88957502049529" lon="7.6256452803206844"><ele>637.0</ele><time>2026-04-26T05:47:22.867Z</time></trkpt><trkpt lat="43.88953240920366" lon="7.625802923173926"><ele>631.75</ele><time>2026-04-26T05:47:24.867Z</time></trkpt><trkpt lat="43.889490260478496" lon="7.625955239382373"><ele>626.5</ele><time>2026-04-26T05:47:26.867Z</time></trkpt><trkpt lat="43.88946480444408" lon="7.626121917711273"><ele>621.25</ele><time>2026-04-26T05:47:28.867Z</time></trkpt><trkpt lat="43.889466775820416" lon="7.626293348157018"><ele>616.0</ele><time>2026-04-26T05:47:30.867Z</time></trkpt><trkpt lat="43.889453653028994" lon="7.626438911430322"><ele>613.8</ele><time>2026-04-26T05:47:32.867Z</time></trkpt><trkpt lat="43.889412332682475" lon="7.626563785964244"><ele>611.6</ele><time>2026-04-26T05:47:34.867Z</time></trkpt><trkpt lat="43.88936515157767" lon="7.626652481885215"><ele>609.4</ele><time>2026-04-26T05:47:36.867Z</time></trkpt><trkpt lat="43.88930543046876" lon="7.626776146672018"><ele>607.2</ele><time>2026-04-26T05:47:38.867Z</time></trkpt><trkpt lat="43.88924497917428" lon="7.6268992673234255"><ele>605.0</ele><time>2026-04-26T05:47:40.866Z</time></trkpt><trkpt lat="43.88919874804635" lon="7.626970738412474"><ele>600.8333333333333</ele><time>2026-04-26T05:47:41.866Z</time></trkpt><trkpt lat="43.88914222979215" lon="7.627107961806632"><ele>596.6666666666666</ele><time>2026-04-26T05:47:43.866Z</time></trkpt><trkpt lat="43.8890794439566" lon="7.627204787946056"><ele>592.5</ele><time>2026-04-26T05:47:45.866Z</time></trkpt><trkpt lat="43.889053164652836" lon="7.627295910699505"><ele>588.3333333333334</ele><time>2026-04-26T05:47:47.866Z</time></trkpt><trkpt lat="43.88909641802377" lon="7.6273741931428605"><ele>584.1666666666667</ele><time>2026-04-26T05:47:49.866Z</time></trkpt><trkpt lat="43.8891754399708" lon="7.62741123774259"><ele>580.0</ele><time>2026-04-26T05:47:52.866Z</time></trkpt><trkpt lat="43.88924331564922" lon="7.627445851495718"><ele>579.8333333333334</ele><time>2026-04-26T05:47:54.866Z</time></trkpt><trkpt lat="43.88931408160857" lon="7.627454709792026"><ele>579.6666666666667</ele><time>2026-04-26T05:47:55.866Z</time></trkpt><trkpt lat="43.88939681471275" lon="7.627522467290081"><ele>579.5</ele><time>2026-04-26T05:47:57.868Z</time></trkpt><trkpt lat="43.88947226664069" lon="7.627576527427492"><ele>579.3333333333334</ele><time>2026-04-26T05:47:59.869Z</time></trkpt><trkpt lat="43.889542944402415" lon="7.627621796419473"><ele>579.1666666666666</ele><time>2026-04-26T05:48:01.869Z</time></trkpt><trkpt lat="43.8896085832542" lon="7.6276411947528135"><ele>579.0</ele><time>2026-04-26T05:48:03.868Z</time></trkpt><trkpt lat="43.88966017890362" lon="7.627693120666079"><ele>579.0</ele><time>2026-04-26T05:48:05.868Z</time></trkpt><trkpt lat="43.88970760695904" lon="7.627770569938829"><ele>579.0</ele><time>2026-04-26T05:48:07.869Z</time></trkpt><trkpt lat="43.88976868762279" lon="7.62779267391845"><ele>579.0</ele><time>2026-04-26T05:48:08.869Z</time></trkpt><trkpt lat="43.8898736267383" lon="7.627719483791355"><ele>579.0</ele><time>2026-04-26T05:48:10.868Z</time></trkpt><trkpt lat="43.88990188089273" lon="7.6276205885556125"><ele>579.0</ele><time>2026-04-26T05:48:11.868Z</time></trkpt><trkpt lat="43.889929875842746" lon="7.627539499864205"><ele>579.0</ele><time>2026-04-26T05:48:12.868Z</time></trkpt><trkpt lat="43.889950829583796" lon="7.627440772826187"><ele>579.0</ele><time>2026-04-26T05:48:13.868Z</time></trkpt><trkpt lat="43.88998466604818" lon="7.627335430134017"><ele>579.0</ele><time>2026-04-26T05:48:15.868Z</time></trkpt><trkpt lat="43.890075139450474" lon="7.627275740926649"><ele>579.0</ele><time>2026-04-26T05:48:17.868Z</time></trkpt><trkpt lat="43.89012373134649" lon="7.6272089524938"><ele>579.0</ele><time>2026-04-26T05:48:18.868Z</time></trkpt><trkpt lat="43.89018212704195" lon="7.627102684807369"><ele>579.0</ele><time>2026-04-26T05:48:20.868Z</time></trkpt><trkpt lat="43.89018556519125" lon="7.626985164910643"><ele>579.0</ele><time>2026-04-26T05:48:22.868Z</time></trkpt><trkpt lat="43.89019973053969" lon="7.6268568509170915"><ele>578.1666666666666</ele><time>2026-04-26T05:48:24.868Z</time></trkpt><trkpt lat="43.89024549442395" lon="7.626713695298929"><ele>577.3333333333334</ele><time>2026-04-26T05:48:26.868Z</time></trkpt><trkpt lat="43.89027903653098" lon="7.626627638322633"><ele>576.5</ele><time>2026-04-26T05:48:27.868Z</time></trkpt><trkpt lat="43.890321972481516" lon="7.626532335979541"><ele>575.6666666666667</ele><time>2026-04-26T05:48:28.868Z</time></trkpt><trkpt lat="43.89035608539312" lon="7.626439910024748"><ele>574.8333333333334</ele><time>2026-04-26T05:48:29.868Z</time></trkpt><trkpt lat="43.89041791367846" lon="7.626397798792422"><ele>574.0</ele><time>2026-04-26T05:48:30.868Z</time></trkpt><trkpt lat="43.89050491231299" lon="7.626366853633421"><ele>574.0</ele><time>2026-04-26T05:48:31.868Z</time></trkpt><trkpt lat="43.8905911606624" lon="7.626330693955711"><ele>574.0</ele><time>2026-04-26T05:48:32.868Z</time></trkpt><trkpt lat="43.89065918698564" lon="7.626271433663022"><ele>574.0</ele><time>2026-04-26T05:48:33.868Z</time></trkpt><trkpt lat="43.89072517383965" lon="7.6261763404127825"><ele>574.0</ele><time>2026-04-26T05:48:34.868Z</time></trkpt><trkpt lat="43.89079063774692" lon="7.626075392928659"><ele>574.0</ele><time>2026-04-26T05:48:35.868Z</time></trkpt><trkpt lat="43.89085814480265" lon="7.6259816379894705"><ele>578.2</ele><time>2026-04-26T05:48:36.868Z</time></trkpt><trkpt lat="43.89091663676442" lon="7.6258802839257545"><ele>582.4</ele><time>2026-04-26T05:48:37.868Z</time></trkpt><trkpt lat="43.89096638421027" lon="7.625761550491859"><ele>586.6</ele><time>2026-04-26T05:48:38.868Z</time></trkpt><trkpt lat="43.89099300693789" lon="7.625629505577263"><ele>590.8</ele><time>2026-04-26T05:48:39.868Z</time></trkpt><trkpt lat="43.89103265507228" lon="7.62548844457568"><ele>595.0</ele><time>2026-04-26T05:48:40.868Z</time></trkpt><trkpt lat="43.89107337684849" lon="7.625359580909586"><ele>595.0</ele><time>2026-04-26T05:48:41.868Z</time></trkpt><trkpt lat="43.89111010356138" lon="7.625281284165542"><ele>595.0</ele><time>2026-04-26T05:48:42.867Z</time></trkpt><trkpt lat="43.891170011855216" lon="7.6252433448825405"><ele>595.0</ele><time>2026-04-26T05:48:43.867Z</time></trkpt><trkpt lat="43.89124557345749" lon="7.625246086592483"><ele>595.0</ele><time>2026-04-26T05:48:44.867Z</time></trkpt><trkpt lat="43.89131975274194" lon="7.625264941157091"><ele>595.0</ele><time>2026-04-26T05:48:45.867Z</time></trkpt><trkpt lat="43.891398698983345" lon="7.625301115151337"><ele>595.0</ele><time>2026-04-26T05:48:46.867Z</time></trkpt><trkpt lat="43.89147951202951" lon="7.625335335835225"><ele>595.0</ele><time>2026-04-26T05:48:47.867Z</time></trkpt><trkpt lat="43.89154770754989" lon="7.625358340820498"><ele>595.0</ele><time>2026-04-26T05:48:48.867Z</time></trkpt><trkpt lat="43.89161263286957" lon="7.625375425727917"><ele>595.0</ele><time>2026-04-26T05:48:50.867Z</time></trkpt><trkpt lat="43.89168266461898" lon="7.625415559836872"><ele>595.0</ele><time>2026-04-26T05:49:00.867Z</time></trkpt><trkpt lat="43.89174557297221" lon="7.625449834568104"><ele>595.0</ele><time>2026-04-26T05:49:01.867Z</time></trkpt><trkpt lat="43.89182256467869" lon="7.625485942520083"><ele>595.0</ele><time>2026-04-26T05:49:02.867Z</time></trkpt><trkpt lat="43.891888096196524" lon="7.625528629568578"><ele>595.0</ele><time>2026-04-26T05:49:03.867Z</time></trkpt><trkpt lat="43.89196173558134" lon="7.625568398006491"><ele>597.5</ele><time>2026-04-26T05:49:04.867Z</time></trkpt><trkpt lat="43.89203004409464" lon="7.625610217228263"><ele>600.0</ele><time>2026-04-26T05:49:05.867Z</time></trkpt><trkpt lat="43.892101940264425" lon="7.625651848048683"><ele>602.5</ele><time>2026-04-26T05:49:06.867Z</time></trkpt><trkpt lat="43.89218754038654" lon="7.625705538601724"><ele>605.0</ele><time>2026-04-26T05:49:07.867Z</time></trkpt><trkpt lat="43.89226844712994" lon="7.625759830467958"><ele>607.5</ele><time>2026-04-26T05:49:08.867Z</time></trkpt><trkpt lat="43.892344855677415" lon="7.625808135223656"><ele>610.0</ele><time>2026-04-26T05:49:09.867Z</time></trkpt><trkpt lat="43.892419654259285" lon="7.625852879635306"><ele>610.0</ele><time>2026-04-26T05:49:10.867Z</time></trkpt><trkpt lat="43.892519574986856" lon="7.625896151835318"><ele>610.0</ele><time>2026-04-26T05:49:12.867Z</time></trkpt><trkpt lat="43.892628931348355" lon="7.625874109861376"><ele>610.0</ele><time>2026-04-26T05:49:14.867Z</time></trkpt><trkpt lat="43.89271204193692" lon="7.62586267878582"><ele>610.0</ele><time>2026-04-26T05:49:15.867Z</time></trkpt><trkpt lat="43.892797600307766" lon="7.6258478826102145"><ele>610.0</ele><time>2026-04-26T05:49:16.867Z</time></trkpt><trkpt lat="43.892891808360176" lon="7.625829786645697"><ele>613.5</ele><time>2026-04-26T05:49:17.867Z</time></trkpt><trkpt lat="43.89296551742408" lon="7.625809753672778"><ele>617.0</ele><time>2026-04-26T05:49:18.867Z</time></trkpt><trkpt lat="43.893038011560265" lon="7.625772919124112"><ele>620.5</ele><time>2026-04-26T05:49:19.867Z</time></trkpt><trkpt lat="43.89314133384399" lon="7.625737532962034"><ele>624.0</ele><time>2026-04-26T05:49:21.867Z</time></trkpt><trkpt lat="43.89321500005246" lon="7.625841745645265"><ele>627.5</ele><time>2026-04-26T05:49:23.867Z</time></trkpt><trkpt lat="43.89324659188236" lon="7.625918994143016"><ele>631.0</ele><time>2026-04-26T05:49:24.867Z</time></trkpt><trkpt lat="43.89328085111489" lon="7.6260037887861785"><ele>631.0</ele><time>2026-04-26T05:49:25.867Z</time></trkpt><trkpt lat="43.89332441887248" lon="7.626099543457541"><ele>631.0</ele><time>2026-04-26T05:49:26.867Z</time></trkpt><trkpt lat="43.8933501033302" lon="7.6261892813440095"><ele>631.0</ele><time>2026-04-26T05:49:27.867Z</time></trkpt><trkpt lat="43.89338535188721" lon="7.6262925025498705"><ele>631.0</ele><time>2026-04-26T05:49:28.866Z</time></trkpt><trkpt lat="43.89341280788274" lon="7.626386753509473"><ele>631.0</ele><time>2026-04-26T05:49:29.866Z</time></trkpt><trkpt lat="43.89344035503037" lon="7.626476072725192"><ele>631.0</ele><time>2026-04-26T05:49:30.866Z</time></trkpt><trkpt lat="43.893504336322025" lon="7.626610235672271"><ele>629.8333333333334</ele><time>2026-04-26T05:49:32.866Z</time></trkpt><trkpt lat="43.89358002526036" lon="7.626672811028984"><ele>628.6666666666667</ele><time>2026-04-26T05:49:33.866Z</time></trkpt><trkpt lat="43.89367352797153" lon="7.626702804877148"><ele>627.5</ele><time>2026-04-26T05:49:34.866Z</time></trkpt><trkpt lat="43.89374662424666" lon="7.626735451955255"><ele>626.3333333333334</ele><time>2026-04-26T05:49:35.866Z</time></trkpt><trkpt lat="43.8938044834285" lon="7.6267969709512"><ele>625.1666666666666</ele><time>2026-04-26T05:49:36.866Z</time></trkpt><trkpt lat="43.89381957699178" lon="7.626905734891782"><ele>624.0</ele><time>2026-04-26T05:49:37.866Z</time></trkpt><trkpt lat="43.893870813336115" lon="7.626986956810862"><ele>624.0</ele><time>2026-04-26T05:49:38.866Z</time></trkpt><trkpt lat="43.893921619323365" lon="7.627085041325842"><ele>624.0</ele><time>2026-04-26T05:49:39.866Z</time></trkpt><trkpt lat="43.89397974030143" lon="7.6271689274198575"><ele>624.0</ele><time>2026-04-26T05:49:40.866Z</time></trkpt><trkpt lat="43.89406032024717" lon="7.627251700574356"><ele>624.0</ele><time>2026-04-26T05:49:41.866Z</time></trkpt><trkpt lat="43.894139240164534" lon="7.62732797643506"><ele>624.0</ele><time>2026-04-26T05:49:42.866Z</time></trkpt><trkpt lat="43.894216180976535" lon="7.627406739073743"><ele>626.8333333333334</ele><time>2026-04-26T05:49:43.866Z</time></trkpt><trkpt lat="43.894289039038746" lon="7.627470364619033"><ele>629.6666666666666</ele><time>2026-04-26T05:49:44.866Z</time></trkpt><trkpt lat="43.89437360008386" lon="7.627528380311019"><ele>632.5</ele><time>2026-04-26T05:49:45.866Z</time></trkpt><trkpt lat="43.89445670807684" lon="7.627565087524398"><ele>635.3333333333333</ele><time>2026-04-26T05:49:46.866Z</time></trkpt><trkpt lat="43.8945301087108" lon="7.6276163990932675"><ele>638.1666666666666</ele><time>2026-04-26T05:49:47.866Z</time></trkpt><trkpt lat="43.89458707141083" lon="7.627715941864711"><ele>641.0</ele><time>2026-04-26T05:49:48.866Z</time></trkpt><trkpt lat="43.89465307857308" lon="7.627810060006984"><ele>637.8</ele><time>2026-04-26T05:49:49.866Z</time></trkpt><trkpt lat="43.89471806981158" lon="7.627901902172458"><ele>634.5999999999999</ele><time>2026-04-26T05:49:50.866Z</time></trkpt><trkpt lat="43.894781316670695" lon="7.627993122823619"><ele>631.4</ele><time>2026-04-26T05:49:51.866Z</time></trkpt><trkpt lat="43.89484467983225" lon="7.628088862262378"><ele>628.2</ele><time>2026-04-26T05:49:52.866Z</time></trkpt><trkpt lat="43.894901710446504" lon="7.628188837325675"><ele>625.0</ele><time>2026-04-26T05:49:53.866Z</time></trkpt><trkpt lat="43.89496978858763" lon="7.628283682682652"><ele>625.0</ele><time>2026-04-26T05:49:54.866Z</time></trkpt><trkpt lat="43.89503926006343" lon="7.628379164899437"><ele>625.0</ele><time>2026-04-26T05:49:55.866Z</time></trkpt><trkpt lat="43.89510229461377" lon="7.628460107909118"><ele>625.0</ele><time>2026-04-26T05:49:56.866Z</time></trkpt><trkpt lat="43.895166620327856" lon="7.6285431421753"><ele>625.0</ele><time>2026-04-26T05:49:57.866Z</time></trkpt><trkpt lat="43.895224271995815" lon="7.628616741247397"><ele>625.0</ele><time>2026-04-26T05:49:58.866Z</time></trkpt><trkpt lat="43.89527722605943" lon="7.628685577019447"><ele>625.0</ele><time>2026-04-26T05:49:59.866Z</time></trkpt><trkpt lat="43.89532770795546" lon="7.628746149088937"><ele>624.6666666666667</ele><time>2026-04-26T05:50:00.866Z</time></trkpt><trkpt lat="43.89538780829297" lon="7.628787356241046"><ele>624.3333333333334</ele><time>2026-04-26T05:50:01.866Z</time></trkpt><trkpt lat="43.895521387670044" lon="7.628804671143146"><ele>624.0</ele><time>2026-04-26T05:50:03.868Z</time></trkpt><trkpt lat="43.89560305763302" lon="7.628796709975677"><ele>623.6666666666666</ele><time>2026-04-26T05:50:04.868Z</time></trkpt><trkpt lat="43.89567674838947" lon="7.628777356263474"><ele>623.3333333333333</ele><time>2026-04-26T05:50:05.868Z</time></trkpt><trkpt lat="43.89575278350745" lon="7.62874365618839"><ele>623.0</ele><time>2026-04-26T05:50:06.868Z</time></trkpt><trkpt lat="43.89584129258655" lon="7.628704770903982"><ele>622.5</ele><time>2026-04-26T05:50:07.869Z</time></trkpt><trkpt lat="43.89592788337605" lon="7.628676109499039"><ele>622.0</ele><time>2026-04-26T05:50:08.869Z</time></trkpt><trkpt lat="43.896026994624464" lon="7.62864457465163"><ele>621.5</ele><time>2026-04-26T05:50:10.868Z</time></trkpt><trkpt lat="43.89610110974131" lon="7.628643009061028"><ele>621.0</ele><time>2026-04-26T05:50:32.867Z</time></trkpt><trkpt lat="43.896200189891395" lon="7.628674590678205"><ele>620.5</ele><time>2026-04-26T05:50:34.867Z</time></trkpt><trkpt lat="43.896259163219966" lon="7.628710282452553"><ele>620.0</ele><time>2026-04-26T05:50:35.867Z</time></trkpt><trkpt lat="43.8963300924872" lon="7.628744549953501"><ele>620.0</ele><time>2026-04-26T05:50:36.867Z</time></trkpt><trkpt lat="43.896399971140085" lon="7.628767429637694"><ele>620.0</ele><time>2026-04-26T05:50:37.867Z</time></trkpt><trkpt lat="43.896463947848616" lon="7.628778688625414"><ele>620.0</ele><time>2026-04-26T05:50:38.867Z</time></trkpt><trkpt lat="43.89657015988177" lon="7.628756966975518"><ele>620.0</ele><time>2026-04-26T05:50:40.867Z</time></trkpt><trkpt lat="43.89668655540169" lon="7.6286853282173075"><ele>620.0</ele><time>2026-04-26T05:50:42.867Z</time></trkpt><trkpt lat="43.896744367623185" lon="7.628632414571369"><ele>620.0</ele><time>2026-04-26T05:50:43.867Z</time></trkpt><trkpt lat="43.896807620394846" lon="7.628602128224283"><ele>622.8333333333333</ele><time>2026-04-26T05:50:44.867Z</time></trkpt><trkpt lat="43.89686766370656" lon="7.628557863541476"><ele>625.6666666666666</ele><time>2026-04-26T05:50:45.867Z</time></trkpt><trkpt lat="43.89694309730319" lon="7.628488729724395"><ele>628.5</ele><time>2026-04-26T05:50:46.867Z</time></trkpt><trkpt lat="43.897004262279026" lon="7.628435372105338"><ele>631.3333333333334</ele><time>2026-04-26T05:50:47.867Z</time></trkpt><trkpt lat="43.89707106015819" lon="7.628384915128906"><ele>634.1666666666667</ele><time>2026-04-26T05:50:48.867Z</time></trkpt><trkpt lat="43.89714638603954" lon="7.628335570287545"><ele>637.0</ele><time>2026-04-26T05:50:49.867Z</time></trkpt><trkpt lat="43.89721218231176" lon="7.628329292653658"><ele>637.0</ele><time>2026-04-26T05:50:50.867Z</time></trkpt><trkpt lat="43.897273943785116" lon="7.628312246807841"><ele>637.0</ele><time>2026-04-26T05:50:51.867Z</time></trkpt><trkpt lat="43.89730457609562" lon="7.62822071922256"><ele>637.0</ele><time>2026-04-26T05:50:53.867Z</time></trkpt><trkpt lat="43.897236609694055" lon="7.628121852063023"><ele>637.0</ele><time>2026-04-26T05:50:55.867Z</time></trkpt><trkpt lat="43.89711228936569" lon="7.628157337153933"><ele>637.0</ele><time>2026-04-26T05:50:57.867Z</time></trkpt><trkpt lat="43.89702420978808" lon="7.628178793746687"><ele>637.0</ele><time>2026-04-26T05:50:58.867Z</time></trkpt><trkpt lat="43.89695016244797" lon="7.628202191448661"><ele>637.0</ele><time>2026-04-26T05:50:59.867Z</time></trkpt><trkpt lat="43.89688628833417" lon="7.628191687020744"><ele>637.0</ele><time>2026-04-26T05:51:00.867Z</time></trkpt><trkpt lat="43.89678175287917" lon="7.628209285366928"><ele>637.0</ele><time>2026-04-26T05:51:02.867Z</time></trkpt><trkpt lat="43.89670750070404" lon="7.628140100749987"><ele>637.0</ele><time>2026-04-26T05:51:04.867Z</time></trkpt><trkpt lat="43.8966508556567" lon="7.628015704535782"><ele>637.0</ele><time>2026-04-26T05:51:06.867Z</time></trkpt><trkpt lat="43.89660024478452" lon="7.627936399364033"><ele>638.0</ele><time>2026-04-26T05:51:07.867Z</time></trkpt><trkpt lat="43.896532132511695" lon="7.627883341587398"><ele>639.0</ele><time>2026-04-26T05:51:08.867Z</time></trkpt><trkpt lat="43.89646057728836" lon="7.627800488807887"><ele>640.0</ele><time>2026-04-26T05:51:10.866Z</time></trkpt><trkpt lat="43.89649017593112" lon="7.627697370278909"><ele>641.0</ele><time>2026-04-26T05:51:12.866Z</time></trkpt><trkpt lat="43.89661344455522" lon="7.627656980668764"><ele>642.0</ele><time>2026-04-26T05:51:14.866Z</time></trkpt><trkpt lat="43.8966770023818" lon="7.627665239113543"><ele>643.0</ele><time>2026-04-26T05:51:15.866Z</time></trkpt><trkpt lat="43.89674704303094" lon="7.627615411184444"><ele>646.5999999999999</ele><time>2026-04-26T05:51:17.866Z</time></trkpt><trkpt lat="43.89671213500494" lon="7.627522165855231"><ele>650.1999999999999</ele><time>2026-04-26T05:51:32.866Z</time></trkpt><trkpt lat="43.89661518300293" lon="7.627376243257973"><ele>653.8</ele><time>2026-04-26T05:51:34.866Z</time></trkpt><trkpt lat="43.89651218968478" lon="7.627294313656108"><ele>657.4</ele><time>2026-04-26T05:51:36.866Z</time></trkpt><trkpt lat="43.89641482069428" lon="7.6272798774550745"><ele>661.0</ele><time>2026-04-26T05:51:38.866Z</time></trkpt><trkpt lat="43.896291753865476" lon="7.627279860741646"><ele>661.0</ele><time>2026-04-26T05:51:40.866Z</time></trkpt><trkpt lat="43.89622389914395" lon="7.627288598678438"><ele>661.0</ele><time>2026-04-26T05:51:41.866Z</time></trkpt><trkpt lat="43.8961563431688" lon="7.627278591029711"><ele>661.0</ele><time>2026-04-26T05:51:42.866Z</time></trkpt><trkpt lat="43.89608013904402" lon="7.627244871013071"><ele>661.0</ele><time>2026-04-26T05:51:43.866Z</time></trkpt><trkpt lat="43.895997242307146" lon="7.627201420172118"><ele>661.0</ele><time>2026-04-26T05:51:44.866Z</time></trkpt><trkpt lat="43.89592355809003" lon="7.6271619482877036"><ele>661.0</ele><time>2026-04-26T05:51:45.866Z</time></trkpt><trkpt lat="43.89581875535208" lon="7.6271002125906575"><ele>661.0</ele><time>2026-04-26T05:51:47.866Z</time></trkpt><trkpt lat="43.895809747113425" lon="7.626976587674935"><ele>661.0</ele><time>2026-04-26T05:51:49.866Z</time></trkpt><trkpt lat="43.89592242343558" lon="7.62694476220722"><ele>661.0</ele><time>2026-04-26T05:51:51.866Z</time></trkpt><trkpt lat="43.896042307956634" lon="7.627006657462356"><ele>661.0</ele><time>2026-04-26T05:51:53.866Z</time></trkpt><trkpt lat="43.89615165734289" lon="7.627009085311247"><ele>661.0</ele><time>2026-04-26T05:51:55.866Z</time></trkpt><trkpt lat="43.89623959324601" lon="7.626930707652767"><ele>664.5999999999999</ele><time>2026-04-26T05:51:57.865Z</time></trkpt><trkpt lat="43.896319906906825" lon="7.626811097841391"><ele>668.2</ele><time>2026-04-26T05:51:59.865Z</time></trkpt><trkpt lat="43.89641021654614" lon="7.6266883396582195"><ele>671.8</ele><time>2026-04-26T05:52:01.865Z</time></trkpt><trkpt lat="43.896515887644625" lon="7.626677375612652"><ele>675.4000000000001</ele><time>2026-04-26T05:52:03.865Z</time></trkpt><trkpt lat="43.8965896133172" lon="7.626741353308841"><ele>679.0</ele><time>2026-04-26T05:52:05.865Z</time></trkpt><trkpt lat="43.896656097561134" lon="7.62672926540985"><ele>679.0</ele><time>2026-04-26T05:52:06.865Z</time></trkpt><trkpt lat="43.89671899466028" lon="7.626716570772127"><ele>679.0</ele><time>2026-04-26T05:52:07.865Z</time></trkpt><trkpt lat="43.89679246845955" lon="7.626712598703137"><ele>679.0</ele><time>2026-04-26T05:52:08.865Z</time></trkpt><trkpt lat="43.8968771026857" lon="7.626712268411608"><ele>679.0</ele><time>2026-04-26T05:52:10.867Z</time></trkpt><trkpt lat="43.89686526346986" lon="7.626581628656452"><ele>679.0</ele><time>2026-04-26T05:52:13.868Z</time></trkpt><trkpt lat="43.89678319402394" lon="7.626518406968366"><ele>679.0</ele><time>2026-04-26T05:52:15.868Z</time></trkpt><trkpt lat="43.89669431101596" lon="7.626454071420559"><ele>679.0</ele><time>2026-04-26T05:52:17.868Z</time></trkpt><trkpt lat="43.89663256401748" lon="7.626307417668013"><ele>679.0</ele><time>2026-04-26T05:52:19.868Z</time></trkpt><trkpt lat="43.8965272004436" lon="7.626230373879788"><ele>679.0</ele><time>2026-04-26T05:52:21.868Z</time></trkpt><trkpt lat="43.896477250915865" lon="7.626172107373963"><ele>679.0</ele><time>2026-04-26T05:52:22.868Z</time></trkpt><trkpt lat="43.896425281779074" lon="7.62612211484529"><ele>679.0</ele><time>2026-04-26T05:52:23.868Z</time></trkpt><trkpt lat="43.896332743556236" lon="7.626034378951865"><ele>681.6666666666667</ele><time>2026-04-26T05:52:25.868Z</time></trkpt><trkpt lat="43.896225312225425" lon="7.625958684667043"><ele>684.3333333333334</ele><time>2026-04-26T05:52:27.867Z</time></trkpt><trkpt lat="43.896157918947935" lon="7.625926628738446"><ele>687.0</ele><time>2026-04-26T05:52:28.867Z</time></trkpt><trkpt lat="43.89608638347674" lon="7.6259058095522265"><ele>689.6666666666666</ele><time>2026-04-26T05:52:29.867Z</time></trkpt><trkpt lat="43.89598481466773" lon="7.625896500059853"><ele>692.3333333333333</ele><time>2026-04-26T05:52:31.867Z</time></trkpt><trkpt lat="43.89595160092207" lon="7.625817472600922"><ele>695.0</ele><time>2026-04-26T05:52:34.867Z</time></trkpt><trkpt lat="43.89604207217108" lon="7.625788191812467"><ele>695.0</ele><time>2026-04-26T05:52:59.867Z</time></trkpt><trkpt lat="43.896136406370054" lon="7.625831770955839"><ele>695.0</ele><time>2026-04-26T05:53:01.867Z</time></trkpt><trkpt lat="43.8962846856415" lon="7.625841253513111"><ele>695.0</ele><time>2026-04-26T05:53:03.867Z</time></trkpt><trkpt lat="43.896393032094586" lon="7.6258546530524285"><ele>695.0</ele><time>2026-04-26T05:53:04.867Z</time></trkpt><trkpt lat="43.89649862081914" lon="7.625863802618038"><ele>695.0</ele><time>2026-04-26T05:53:05.867Z</time></trkpt><trkpt lat="43.89658872364987" lon="7.625877787805668"><ele>695.0</ele><time>2026-04-26T05:53:06.867Z</time></trkpt><trkpt lat="43.89666142041469" lon="7.625908861459225"><ele>695.0</ele><time>2026-04-26T05:53:07.867Z</time></trkpt><trkpt lat="43.89672491563033" lon="7.6259619792540905"><ele>695.0</ele><time>2026-04-26T05:53:08.867Z</time></trkpt><trkpt lat="43.896808705971765" lon="7.6260299419136155"><ele>695.0</ele><time>2026-04-26T05:53:09.867Z</time></trkpt><trkpt lat="43.89687748380779" lon="7.626102096167743"><ele>695.0</ele><time>2026-04-26T05:53:10.867Z</time></trkpt><trkpt lat="43.896944061628076" lon="7.626159492741978"><ele>691.0</ele><time>2026-04-26T05:53:11.867Z</time></trkpt><trkpt lat="43.89701758093333" lon="7.626195798199835"><ele>687.0</ele><time>2026-04-26T05:53:12.867Z</time></trkpt><trkpt lat="43.89710803843309" lon="7.626209134314525"><ele>683.0</ele><time>2026-04-26T05:53:13.867Z</time></trkpt><trkpt lat="43.897210947432654" lon="7.626203360765402"><ele>679.0</ele><time>2026-04-26T05:53:14.866Z</time></trkpt><trkpt lat="43.89731000510559" lon="7.626184646446439"><ele>675.0</ele><time>2026-04-26T05:53:15.866Z</time></trkpt><trkpt lat="43.89740029884385" lon="7.6261709445131425"><ele>675.0</ele><time>2026-04-26T05:53:16.866Z</time></trkpt><trkpt lat="43.8974812088746" lon="7.6261614183992465"><ele>675.0</ele><time>2026-04-26T05:53:17.866Z</time></trkpt><trkpt lat="43.89755772898622" lon="7.626155889198045"><ele>675.0</ele><time>2026-04-26T05:53:18.866Z</time></trkpt><trkpt lat="43.897649227920745" lon="7.626146789625327"><ele>675.0</ele><time>2026-04-26T05:53:19.866Z</time></trkpt><trkpt lat="43.89773798116473" lon="7.626129063399323"><ele>675.0</ele><time>2026-04-26T05:53:20.866Z</time></trkpt><trkpt lat="43.89783286394045" lon="7.62608158099371"><ele>675.0</ele><time>2026-04-26T05:53:21.866Z</time></trkpt><trkpt lat="43.897936157632905" lon="7.626036392253524"><ele>677.6666666666666</ele><time>2026-04-26T05:53:23.866Z</time></trkpt><trkpt lat="43.898041121227266" lon="7.626101943956051"><ele>680.3333333333334</ele><time>2026-04-26T05:53:25.866Z</time></trkpt><trkpt lat="43.89812728988957" lon="7.626113328827019"><ele>683.0</ele><time>2026-04-26T05:53:26.866Z</time></trkpt><trkpt lat="43.8982067737351" lon="7.6261129236018315"><ele>685.6666666666667</ele><time>2026-04-26T05:53:27.866Z</time></trkpt><trkpt lat="43.89827834917378" lon="7.62607113730344"><ele>688.3333333333334</ele><time>2026-04-26T05:53:28.866Z</time></trkpt><trkpt lat="43.89834226281407" lon="7.626041819055918"><ele>691.0</ele><time>2026-04-26T05:53:29.866Z</time></trkpt><trkpt lat="43.89841682691088" lon="7.625997234190352"><ele>689.8333333333334</ele><time>2026-04-26T05:53:30.866Z</time></trkpt><trkpt lat="43.89848347395838" lon="7.625985499523087"><ele>688.6666666666667</ele><time>2026-04-26T05:53:31.866Z</time></trkpt><trkpt lat="43.89854149681836" lon="7.626045925747199"><ele>687.5</ele><time>2026-04-26T05:53:32.866Z</time></trkpt><trkpt lat="43.89859139482974" lon="7.626128357642619"><ele>686.3333333333334</ele><time>2026-04-26T05:53:33.866Z</time></trkpt><trkpt lat="43.89863650354009" lon="7.626219877515727"><ele>685.1666666666666</ele><time>2026-04-26T05:53:34.866Z</time></trkpt><trkpt lat="43.89873679245028" lon="7.626326048030011"><ele>684.0</ele><time>2026-04-26T05:53:36.866Z</time></trkpt><trkpt lat="43.89881070748046" lon="7.626335711017129"><ele>684.0</ele><time>2026-04-26T05:53:37.866Z</time></trkpt><trkpt lat="43.89891995520694" lon="7.626354870725645"><ele>684.0</ele><time>2026-04-26T05:53:38.866Z</time></trkpt><trkpt lat="43.89901167151992" lon="7.6264035785967454"><ele>684.0</ele><time>2026-04-26T05:53:39.866Z</time></trkpt><trkpt lat="43.899097359249794" lon="7.626430688133527"><ele>684.0</ele><time>2026-04-26T05:53:40.866Z</time></trkpt><trkpt lat="43.899165004898535" lon="7.626448083474373"><ele>684.0</ele><time>2026-04-26T05:53:41.866Z</time></trkpt><trkpt lat="43.8992395149024" lon="7.626424311306743"><ele>684.0</ele><time>2026-04-26T05:53:42.866Z</time></trkpt><trkpt lat="43.89931756353005" lon="7.626370325648256"><ele>681.0</ele><time>2026-04-26T05:53:43.866Z</time></trkpt><trkpt lat="43.89939704624295" lon="7.626333421301574"><ele>678.0</ele><time>2026-04-26T05:53:44.866Z</time></trkpt><trkpt lat="43.899493986922366" lon="7.626286003734841"><ele>675.0</ele><time>2026-04-26T05:53:45.866Z</time></trkpt><trkpt lat="43.899587223580795" lon="7.626290635873692"><ele>672.0</ele><time>2026-04-26T05:53:46.866Z</time></trkpt><trkpt lat="43.89967200648771" lon="7.626332015836522"><ele>669.0</ele><time>2026-04-26T05:53:47.866Z</time></trkpt><trkpt lat="43.8997520145057" lon="7.626373892964604"><ele>669.0</ele><time>2026-04-26T05:53:48.866Z</time></trkpt><trkpt lat="43.89986680886686" lon="7.6263681573970015"><ele>669.0</ele><time>2026-04-26T05:53:50.866Z</time></trkpt><trkpt lat="43.899932928127065" lon="7.626320486648115"><ele>669.0</ele><time>2026-04-26T05:53:51.866Z</time></trkpt><trkpt lat="43.9000013087835" lon="7.626245370302833"><ele>669.0</ele><time>2026-04-26T05:53:52.866Z</time></trkpt><trkpt lat="43.900073072557916" lon="7.626155717283832"><ele>669.0</ele><time>2026-04-26T05:53:53.866Z</time></trkpt><trkpt lat="43.90014155166277" lon="7.626068578251994"><ele>666.8333333333334</ele><time>2026-04-26T05:53:54.866Z</time></trkpt><trkpt lat="43.900171234575524" lon="7.6259809745199005"><ele>664.6666666666666</ele><time>2026-04-26T05:53:55.866Z</time></trkpt><trkpt lat="43.900188007319436" lon="7.6258939055917"><ele>662.5</ele><time>2026-04-26T05:53:56.866Z</time></trkpt><trkpt lat="43.900188712116766" lon="7.625785169387235"><ele>660.3333333333333</ele><time>2026-04-26T05:53:57.866Z</time></trkpt><trkpt lat="43.90019032191435" lon="7.625665828238679"><ele>658.1666666666666</ele><time>2026-04-26T05:53:58.866Z</time></trkpt><trkpt lat="43.90022398767247" lon="7.6255741598304105"><ele>656.0</ele><time>2026-04-26T05:53:59.866Z</time></trkpt><trkpt lat="43.900287905333315" lon="7.625495299049395"><ele>656.0</ele><time>2026-04-26T05:54:00.865Z</time></trkpt><trkpt lat="43.90035309198123" lon="7.625437938964127"><ele>656.0</ele><time>2026-04-26T05:54:01.865Z</time></trkpt><trkpt lat="43.90044397244819" lon="7.62537414987074"><ele>656.0</ele><time>2026-04-26T05:54:02.865Z</time></trkpt><trkpt lat="43.90050731762974" lon="7.625322374079844"><ele>656.0</ele><time>2026-04-26T05:54:03.865Z</time></trkpt><trkpt lat="43.90058245106662" lon="7.625237786891169"><ele>656.0</ele><time>2026-04-26T05:54:04.865Z</time></trkpt><trkpt lat="43.90064825613078" lon="7.6251395975886815"><ele>656.0</ele><time>2026-04-26T05:54:05.865Z</time></trkpt><trkpt lat="43.900719725695694" lon="7.625049247513015"><ele>654.5999999999999</ele><time>2026-04-26T05:54:06.865Z</time></trkpt><trkpt lat="43.9008050669795" lon="7.624972252439377"><ele>653.2</ele><time>2026-04-26T05:54:07.865Z</time></trkpt><trkpt lat="43.90088631523635" lon="7.624926577048237"><ele>651.8</ele><time>2026-04-26T05:54:08.867Z</time></trkpt><trkpt lat="43.90096833433058" lon="7.624868323117166"><ele>650.4000000000001</ele><time>2026-04-26T05:54:09.869Z</time></trkpt><trkpt lat="43.90103693792486" lon="7.624793947023684"><ele>649.0</ele><time>2026-04-26T05:54:10.871Z</time></trkpt><trkpt lat="43.901091030923475" lon="7.62470618464825"><ele>649.0</ele><time>2026-04-26T05:54:11.873Z</time></trkpt><trkpt lat="43.901123123577975" lon="7.624614616545091"><ele>649.0</ele><time>2026-04-26T05:54:12.875Z</time></trkpt><trkpt lat="43.90118893475497" lon="7.624529057006506"><ele>649.0</ele><time>2026-04-26T05:54:15.882Z</time></trkpt><trkpt lat="43.90126963588265" lon="7.624388514298051"><ele>649.0</ele><time>2026-04-26T05:54:17.884Z</time></trkpt><trkpt lat="43.90131500425448" lon="7.624300385493217"><ele>649.0</ele><time>2026-04-26T05:54:18.885Z</time></trkpt><trkpt lat="43.90136229192088" lon="7.624204649243272"><ele>655.4000000000001</ele><time>2026-04-26T05:54:19.887Z</time></trkpt><trkpt lat="43.901422734352614" lon="7.624101988525896"><ele>661.8</ele><time>2026-04-26T05:54:20.888Z</time></trkpt><trkpt lat="43.901475733242094" lon="7.624012385508747"><ele>668.2</ele><time>2026-04-26T05:54:21.888Z</time></trkpt><trkpt lat="43.90152401322122" lon="7.623917291060323"><ele>674.5999999999999</ele><time>2026-04-26T05:54:22.889Z</time></trkpt><trkpt lat="43.90156305576879" lon="7.623805682702743"><ele>681.0</ele><time>2026-04-26T05:54:23.89Z</time></trkpt><trkpt lat="43.901612385861334" lon="7.623681398462049"><ele>681.4</ele><time>2026-04-26T05:54:24.891Z</time></trkpt><trkpt lat="43.901688521158135" lon="7.62357450910071"><ele>681.8</ele><time>2026-04-26T05:54:25.892Z</time></trkpt><trkpt lat="43.90174459493808" lon="7.623467898169277"><ele>682.1999999999999</ele><time>2026-04-26T05:54:26.892Z</time></trkpt><trkpt lat="43.9018194840231" lon="7.62336138188092"><ele>682.5999999999999</ele><time>2026-04-26T05:54:27.893Z</time></trkpt><trkpt lat="43.90188955161979" lon="7.623271923683442"><ele>683.0</ele><time>2026-04-26T05:54:28.893Z</time></trkpt><trkpt lat="43.90196378690578" lon="7.623182409741973"><ele>683.0</ele><time>2026-04-26T05:54:29.894Z</time></trkpt><trkpt lat="43.90204002891928" lon="7.623079141694192"><ele>683.0</ele><time>2026-04-26T05:54:30.894Z</time></trkpt><trkpt lat="43.902108218010554" lon="7.622982646054282"><ele>683.0</ele><time>2026-04-26T05:54:31.895Z</time></trkpt><trkpt lat="43.90216776114634" lon="7.622876170049688"><ele>683.0</ele><time>2026-04-26T05:54:32.895Z</time></trkpt><trkpt lat="43.90224438206182" lon="7.622780632543222"><ele>683.0</ele><time>2026-04-26T05:54:33.895Z</time></trkpt><trkpt lat="43.9023182303432" lon="7.6226871395071845"><ele>685.4</ele><time>2026-04-26T05:54:34.896Z</time></trkpt><trkpt lat="43.902400201152275" lon="7.622596363004049"><ele>687.8</ele><time>2026-04-26T05:54:35.896Z</time></trkpt><trkpt lat="43.90249495949613" lon="7.622514881975624"><ele>690.2</ele><time>2026-04-26T05:54:36.897Z</time></trkpt><trkpt lat="43.90259071283855" lon="7.622453996424381"><ele>692.6</ele><time>2026-04-26T05:54:37.897Z</time></trkpt><trkpt lat="43.90268275762446" lon="7.622353585531039"><ele>695.0</ele><time>2026-04-26T05:54:38.897Z</time></trkpt><trkpt lat="43.902791219140724" lon="7.622287381015409"><ele>695.0</ele><time>2026-04-26T05:54:39.897Z</time></trkpt><trkpt lat="43.90288044704348" lon="7.62221578234405"><ele>695.0</ele><time>2026-04-26T05:54:40.898Z</time></trkpt><trkpt lat="43.90294959655431" lon="7.622146726888205"><ele>695.0</ele><time>2026-04-26T05:54:41.898Z</time></trkpt><trkpt lat="43.90300665680372" lon="7.622041837182564"><ele>695.0</ele><time>2026-04-26T05:54:42.898Z</time></trkpt><trkpt lat="43.90308298149702" lon="7.6219562191338035"><ele>695.0</ele><time>2026-04-26T05:54:43.898Z</time></trkpt><trkpt lat="43.903140849446224" lon="7.621846517906452"><ele>699.4</ele><time>2026-04-26T05:54:44.899Z</time></trkpt><trkpt lat="43.90320266895153" lon="7.621734431106684"><ele>703.8</ele><time>2026-04-26T05:54:45.899Z</time></trkpt><trkpt lat="43.90324762841847" lon="7.62166256430053"><ele>708.2</ele><time>2026-04-26T05:54:46.899Z</time></trkpt><trkpt lat="43.90329745766497" lon="7.621565627966952"><ele>712.6</ele><time>2026-04-26T05:54:47.899Z</time></trkpt><trkpt lat="43.90343484862293" lon="7.621507176192791"><ele>717.0</ele><time>2026-04-26T05:54:49.899Z</time></trkpt><trkpt lat="43.903534486195404" lon="7.621461391231018"><ele>717.8</ele><time>2026-04-26T05:54:50.9Z</time></trkpt><trkpt lat="43.903648627690046" lon="7.621437784749856"><ele>718.6</ele><time>2026-04-26T05:54:51.9Z</time></trkpt><trkpt lat="43.90374634348853" lon="7.621442187616317"><ele>719.4</ele><time>2026-04-26T05:54:52.9Z</time></trkpt><trkpt lat="43.90384787402451" lon="7.621416160467125"><ele>720.1999999999999</ele><time>2026-04-26T05:54:53.9Z</time></trkpt><trkpt lat="43.90392827435869" lon="7.621383926109695"><ele>721.0</ele><time>2026-04-26T05:54:54.9Z</time></trkpt><trkpt lat="43.9040088241008" lon="7.621339244381259"><ele>721.0</ele><time>2026-04-26T05:54:55.9Z</time></trkpt><trkpt lat="43.90408836315995" lon="7.621268845402951"><ele>721.0</ele><time>2026-04-26T05:54:56.9Z</time></trkpt><trkpt lat="43.904177588459476" lon="7.621232855096439"><ele>721.0</ele><time>2026-04-26T05:54:57.9Z</time></trkpt><trkpt lat="43.904270224334624" lon="7.621205191675523"><ele>721.0</ele><time>2026-04-26T05:54:58.9Z</time></trkpt><trkpt lat="43.90435410127197" lon="7.621188460959805"><ele>721.0</ele><time>2026-04-26T05:54:59.9Z</time></trkpt><trkpt lat="43.90444702127607" lon="7.62119917034623"><ele>721.0</ele><time>2026-04-26T05:55:00.9Z</time></trkpt><trkpt lat="43.90452859462994" lon="7.621195268071051"><ele>721.0</ele><time>2026-04-26T05:55:01.901Z</time></trkpt><trkpt lat="43.904598777191296" lon="7.621207242223111"><ele>721.0</ele><time>2026-04-26T05:55:02.901Z</time></trkpt><trkpt lat="43.90467444629717" lon="7.62120790287355"><ele>721.0</ele><time>2026-04-26T05:55:03.901Z</time></trkpt><trkpt lat="43.904744256507314" lon="7.621228849160789"><ele>721.0</ele><time>2026-04-26T05:55:04.901Z</time></trkpt><trkpt lat="43.90488224743175" lon="7.621250786867014"><ele>721.0</ele><time>2026-04-26T05:55:06.901Z</time></trkpt><trkpt lat="43.90499223482533" lon="7.621300228973983"><ele>721.0</ele><time>2026-04-26T05:55:07.901Z</time></trkpt><trkpt lat="43.905095673789575" lon="7.621357400131788"><ele>721.0</ele><time>2026-04-26T05:55:08.901Z</time></trkpt><trkpt lat="43.90518640088595" lon="7.621413137202295"><ele>721.0</ele><time>2026-04-26T05:55:09.901Z</time></trkpt><trkpt lat="43.90526888044369" lon="7.621464776954599"><ele>721.0</ele><time>2026-04-26T05:55:10.901Z</time></trkpt><trkpt lat="43.90533985712707" lon="7.621507417814211"><ele>721.0</ele><time>2026-04-26T05:55:11.901Z</time></trkpt><trkpt lat="43.90541110926642" lon="7.621572067863859"><ele>721.0</ele><time>2026-04-26T05:55:12.901Z</time></trkpt><trkpt lat="43.90550035535837" lon="7.6216107299872755"><ele>721.0</ele><time>2026-04-26T05:55:13.901Z</time></trkpt><trkpt lat="43.905576272253896" lon="7.621664899982117"><ele>721.0</ele><time>2026-04-26T05:55:14.901Z</time></trkpt><trkpt lat="43.90565489723345" lon="7.621699394610707"><ele>721.0</ele><time>2026-04-26T05:55:15.901Z</time></trkpt><trkpt lat="43.905728510613415" lon="7.621749684752378"><ele>721.0</ele><time>2026-04-26T05:55:16.901Z</time></trkpt><trkpt lat="43.90580497527774" lon="7.621781635757182"><ele>721.0</ele><time>2026-04-26T05:55:17.901Z</time></trkpt><trkpt lat="43.90588049014186" lon="7.621827910011751"><ele>722.4</ele><time>2026-04-26T05:55:18.901Z</time></trkpt><trkpt lat="43.9059724302563" lon="7.621865679749217"><ele>723.8</ele><time>2026-04-26T05:55:19.901Z</time></trkpt><trkpt lat="43.90606730407146" lon="7.621866188987722"><ele>725.1999999999999</ele><time>2026-04-26T05:55:20.901Z</time></trkpt><trkpt lat="43.90617407756142" lon="7.621857292221137"><ele>726.5999999999999</ele><time>2026-04-26T05:55:21.901Z</time></trkpt><trkpt lat="43.906281717907966" lon="7.6218527667651275"><ele>728.0</ele><time>2026-04-26T05:55:22.901Z</time></trkpt><trkpt lat="43.9063693920179" lon="7.621856066098525"><ele>728.0</ele><time>2026-04-26T05:55:23.901Z</time></trkpt><trkpt lat="43.9064591802155" lon="7.621863088094148"><ele>728.0</ele><time>2026-04-26T05:55:24.901Z</time></trkpt><trkpt lat="43.9065262044427" lon="7.6218844625589535"><ele>728.0</ele><time>2026-04-26T05:55:25.901Z</time></trkpt><trkpt lat="43.906576648795095" lon="7.621939769802963"><ele>728.0</ele><time>2026-04-26T05:55:26.901Z</time></trkpt><trkpt lat="43.90663645064382" lon="7.62199314087014"><ele>728.0</ele><time>2026-04-26T05:55:27.901Z</time></trkpt><trkpt lat="43.906675766553995" lon="7.622063201468878"><ele>728.0</ele><time>2026-04-26T05:55:28.901Z</time></trkpt><trkpt lat="43.906719796636835" lon="7.622152806744697"><ele>728.0</ele><time>2026-04-26T05:55:29.901Z</time></trkpt><trkpt lat="43.90677105937335" lon="7.622220869242297"><ele>722.4</ele><time>2026-04-26T05:55:30.901Z</time></trkpt><trkpt lat="43.90685806958075" lon="7.622241576048564"><ele>716.8</ele><time>2026-04-26T05:55:31.901Z</time></trkpt><trkpt lat="43.906948819473264" lon="7.62226405231293"><ele>711.2</ele><time>2026-04-26T05:55:32.901Z</time></trkpt><trkpt lat="43.90704484183335" lon="7.6223037033593695"><ele>705.6</ele><time>2026-04-26T05:55:33.901Z</time></trkpt><trkpt lat="43.90712105149693" lon="7.6223464400026275"><ele>700.0</ele><time>2026-04-26T05:55:34.901Z</time></trkpt><trkpt lat="43.9072083755983" lon="7.622368588732355"><ele>700.0</ele><time>2026-04-26T05:55:35.901Z</time></trkpt><trkpt lat="43.90735227615725" lon="7.622322518212229"><ele>700.0</ele><time>2026-04-26T05:55:37.901Z</time></trkpt><trkpt lat="43.90742133314291" lon="7.622227740768392"><ele>700.0</ele><time>2026-04-26T05:55:38.901Z</time></trkpt><trkpt lat="43.90748799044893" lon="7.62212789744518"><ele>700.0</ele><time>2026-04-26T05:55:39.901Z</time></trkpt><trkpt lat="43.90754908206364" lon="7.621997014629356"><ele>699.25</ele><time>2026-04-26T05:55:40.901Z</time></trkpt><trkpt lat="43.90763138065102" lon="7.621886487311876"><ele>698.5</ele><time>2026-04-26T05:55:41.901Z</time></trkpt><trkpt lat="43.90771072025008" lon="7.621764527864382"><ele>697.75</ele><time>2026-04-26T05:55:42.901Z</time></trkpt><trkpt lat="43.90778283572878" lon="7.621639324294325"><ele>697.0</ele><time>2026-04-26T05:55:43.901Z</time></trkpt><trkpt lat="43.90786750325906" lon="7.6215175603575025"><ele>697.0</ele><time>2026-04-26T05:55:44.901Z</time></trkpt><trkpt lat="43.9079316657707" lon="7.621386763763153"><ele>697.0</ele><time>2026-04-26T05:55:45.901Z</time></trkpt><trkpt lat="43.908005029731704" lon="7.621245655810313"><ele>697.0</ele><time>2026-04-26T05:55:46.901Z</time></trkpt><trkpt lat="43.90807356045822" lon="7.621113342648807"><ele>697.0</ele><time>2026-04-26T05:55:47.901Z</time></trkpt><trkpt lat="43.90815409848721" lon="7.620996878783755"><ele>701.0</ele><time>2026-04-26T05:55:48.901Z</time></trkpt><trkpt lat="43.90820734914979" lon="7.620893597417477"><ele>705.0</ele><time>2026-04-26T05:55:49.901Z</time></trkpt><trkpt lat="43.90827561654693" lon="7.620843906184128"><ele>709.0</ele><time>2026-04-26T05:55:50.901Z</time></trkpt><trkpt lat="43.90833333772982" lon="7.6208080515298295"><ele>713.0</ele><time>2026-04-26T05:55:51.901Z</time></trkpt><trkpt lat="43.90841529445479" lon="7.620772609033124"><ele>717.0</ele><time>2026-04-26T05:55:52.901Z</time></trkpt><trkpt lat="43.908508733336525" lon="7.620802023955327"><ele>721.0</ele><time>2026-04-26T05:55:53.901Z</time></trkpt><trkpt lat="43.90861607115239" lon="7.6208146514325374"><ele>721.0</ele><time>2026-04-26T05:55:54.901Z</time></trkpt><trkpt lat="43.9087097667257" lon="7.620825975897002"><ele>721.0</ele><time>2026-04-26T05:55:55.901Z</time></trkpt><trkpt lat="43.908818079682234" lon="7.620839387972983"><ele>721.0</ele><time>2026-04-26T05:55:56.901Z</time></trkpt><trkpt lat="43.90893769435259" lon="7.620851276951104"><ele>721.0</ele><time>2026-04-26T05:55:57.901Z</time></trkpt><trkpt lat="43.90903701581587" lon="7.620880209589772"><ele>721.0</ele><time>2026-04-26T05:55:58.901Z</time></trkpt><trkpt lat="43.90911959947242" lon="7.620893319868723"><ele>721.0</ele><time>2026-04-26T05:55:59.901Z</time></trkpt><trkpt lat="43.90920372205116" lon="7.620898968037025"><ele>721.0</ele><time>2026-04-26T05:56:00.901Z</time></trkpt><trkpt lat="43.909273331279216" lon="7.620892332355686"><ele>721.0</ele><time>2026-04-26T05:56:01.901Z</time></trkpt><trkpt lat="43.909344513841845" lon="7.620871344254096"><ele>721.0</ele><time>2026-04-26T05:56:02.901Z</time></trkpt><trkpt lat="43.90940315930534" lon="7.620816996909858"><ele>721.0</ele><time>2026-04-26T05:56:03.901Z</time></trkpt><trkpt lat="43.90949106838265" lon="7.620743273995558"><ele>721.0</ele><time>2026-04-26T05:56:04.901Z</time></trkpt><trkpt lat="43.909552820794495" lon="7.6206885245416975"><ele>722.1999999999999</ele><time>2026-04-26T05:56:05.901Z</time></trkpt><trkpt lat="43.909623116427994" lon="7.620614848644222"><ele>723.4</ele><time>2026-04-26T05:56:06.901Z</time></trkpt><trkpt lat="43.909717095745556" lon="7.620528592254126"><ele>724.6</ele><time>2026-04-26T05:56:07.901Z</time></trkpt><trkpt lat="43.90978397994392" lon="7.620430430797936"><ele>725.8</ele><time>2026-04-26T05:56:08.901Z</time></trkpt><trkpt lat="43.90986936898133" lon="7.6203411574580775"><ele>727.0</ele><time>2026-04-26T05:56:09.901Z</time></trkpt><trkpt lat="43.90992210432328" lon="7.620218401636193"><ele>727.0</ele><time>2026-04-26T05:56:10.901Z</time></trkpt><trkpt lat="43.910001929206054" lon="7.620124325694487"><ele>727.0</ele><time>2026-04-26T05:56:11.901Z</time></trkpt><trkpt lat="43.91009033797004" lon="7.620049613782701"><ele>727.0</ele><time>2026-04-26T05:56:12.901Z</time></trkpt><trkpt lat="43.910180280821656" lon="7.619955418169832"><ele>727.0</ele><time>2026-04-26T05:56:13.901Z</time></trkpt><trkpt lat="43.91026330991272" lon="7.619876433723353"><ele>727.0</ele><time>2026-04-26T05:56:14.901Z</time></trkpt><trkpt lat="43.910335124661565" lon="7.619804458572872"><ele>726.2</ele><time>2026-04-26T05:56:15.901Z</time></trkpt><trkpt lat="43.91041143394262" lon="7.619735527432523"><ele>725.4000000000001</ele><time>2026-04-26T05:56:16.901Z</time></trkpt><trkpt lat="43.91048528743387" lon="7.619655693018448"><ele>724.5999999999999</ele><time>2026-04-26T05:56:17.901Z</time></trkpt><trkpt lat="43.91055202424415" lon="7.619549730217978"><ele>723.8</ele><time>2026-04-26T05:56:18.901Z</time></trkpt><trkpt lat="43.91060682035923" lon="7.6194454527481135"><ele>723.0</ele><time>2026-04-26T05:56:19.9Z</time></trkpt><trkpt lat="43.91066849338218" lon="7.619340327703967"><ele>723.0</ele><time>2026-04-26T05:56:20.9Z</time></trkpt><trkpt lat="43.91073239505809" lon="7.619252585186309"><ele>723.0</ele><time>2026-04-26T05:56:21.903Z</time></trkpt><trkpt lat="43.91080815444252" lon="7.619206760676866"><ele>723.0</ele><time>2026-04-26T05:56:22.903Z</time></trkpt><trkpt lat="43.91087730685619" lon="7.619214187313719"><ele>723.0</ele><time>2026-04-26T05:56:25.902Z</time></trkpt><trkpt lat="43.91098340586855" lon="7.6192209996345355"><ele>723.0</ele><time>2026-04-26T05:56:37.903Z</time></trkpt><trkpt lat="43.91104632751555" lon="7.619188545921231"><ele>723.0</ele><time>2026-04-26T05:56:38.903Z</time></trkpt><trkpt lat="43.91114206999245" lon="7.619249165307188"><ele>723.0</ele><time>2026-04-26T05:56:39.903Z</time></trkpt><trkpt lat="43.911226553571574" lon="7.6192641331305895"><ele>723.0</ele><time>2026-04-26T05:56:40.903Z</time></trkpt><trkpt lat="43.91130174013096" lon="7.619289297330459"><ele>723.0</ele><time>2026-04-26T05:56:41.903Z</time></trkpt><trkpt lat="43.911391973469065" lon="7.619308314676323"><ele>723.0</ele><time>2026-04-26T05:56:42.903Z</time></trkpt><trkpt lat="43.91150275078845" lon="7.619326673419121"><ele>723.0</ele><time>2026-04-26T05:56:43.903Z</time></trkpt><trkpt lat="43.91161053497638" lon="7.6193567499838215"><ele>723.0</ele><time>2026-04-26T05:56:44.903Z</time></trkpt><trkpt lat="43.911699009367084" lon="7.619390906422291"><ele>723.0</ele><time>2026-04-26T05:56:45.903Z</time></trkpt><trkpt lat="43.9117782603291" lon="7.619409851491382"><ele>723.0</ele><time>2026-04-26T05:56:46.903Z</time></trkpt><trkpt lat="43.911864942815996" lon="7.619434457160125"><ele>723.0</ele><time>2026-04-26T05:56:47.903Z</time></trkpt><trkpt lat="43.91195196775313" lon="7.619470942501027"><ele>723.0</ele><time>2026-04-26T05:56:48.903Z</time></trkpt><trkpt lat="43.912036323827074" lon="7.61950447857"><ele>723.0</ele><time>2026-04-26T05:56:49.903Z</time></trkpt><trkpt lat="43.91213527434044" lon="7.61952030524154"><ele>722.8333333333334</ele><time>2026-04-26T05:56:50.903Z</time></trkpt><trkpt lat="43.91222349571205" lon="7.619557283976053"><ele>722.6666666666666</ele><time>2026-04-26T05:56:51.903Z</time></trkpt><trkpt lat="43.91228668559633" lon="7.619543218619021"><ele>722.5</ele><time>2026-04-26T05:56:52.903Z</time></trkpt><trkpt lat="43.912377826566384" lon="7.6194838953130555"><ele>722.3333333333333</ele><time>2026-04-26T05:56:54.903Z</time></trkpt><trkpt lat="43.91243517199902" lon="7.619396530488561"><ele>722.1666666666666</ele><time>2026-04-26T05:56:55.903Z</time></trkpt><trkpt lat="43.91247963075391" lon="7.619323323665888"><ele>722.0</ele><time>2026-04-26T05:56:56.903Z</time></trkpt><trkpt lat="43.9125371536491" lon="7.619221338052016"><ele>715.0</ele><time>2026-04-26T05:56:57.903Z</time></trkpt><trkpt lat="43.91259851687493" lon="7.619130379512171"><ele>708.0</ele><time>2026-04-26T05:56:58.903Z</time></trkpt><trkpt lat="43.91265333944888" lon="7.619027653418757"><ele>701.0</ele><time>2026-04-26T05:56:59.903Z</time></trkpt><trkpt lat="43.91271076948798" lon="7.618936011720777"><ele>694.0</ele><time>2026-04-26T05:57:00.903Z</time></trkpt><trkpt lat="43.91277420667131" lon="7.618831482552484"><ele>687.0</ele><time>2026-04-26T05:57:01.903Z</time></trkpt><trkpt lat="43.912829662981856" lon="7.618740925581529"><ele>691.3333333333334</ele><time>2026-04-26T05:57:02.903Z</time></trkpt><trkpt lat="43.91290068583654" lon="7.618634701194338"><ele>695.6666666666666</ele><time>2026-04-26T05:57:03.903Z</time></trkpt><trkpt lat="43.91296649110647" lon="7.618546777952592"><ele>700.0</ele><time>2026-04-26T05:57:04.903Z</time></trkpt><trkpt lat="43.913024210798746" lon="7.618453640331045"><ele>704.3333333333333</ele><time>2026-04-26T05:57:05.902Z</time></trkpt><trkpt lat="43.91307920236143" lon="7.618368159829994"><ele>708.6666666666666</ele><time>2026-04-26T05:57:06.902Z</time></trkpt><trkpt lat="43.91313153355993" lon="7.618302865082649"><ele>713.0</ele><time>2026-04-26T05:57:07.902Z</time></trkpt><trkpt lat="43.91319574290292" lon="7.618246538103085"><ele>713.0</ele><time>2026-04-26T05:57:08.902Z</time></trkpt><trkpt lat="43.91326250317771" lon="7.6181890278992075"><ele>713.0</ele><time>2026-04-26T05:57:09.902Z</time></trkpt><trkpt lat="43.91335310504946" lon="7.618151043016432"><ele>713.0</ele><time>2026-04-26T05:57:10.902Z</time></trkpt><trkpt lat="43.913432412809264" lon="7.618074743485833"><ele>713.0</ele><time>2026-04-26T05:57:11.902Z</time></trkpt><trkpt lat="43.913492873226076" lon="7.6180126232960745"><ele>713.0</ele><time>2026-04-26T05:57:12.902Z</time></trkpt><trkpt lat="43.91356761669852" lon="7.617971047228224"><ele>713.0</ele><time>2026-04-26T05:57:13.902Z</time></trkpt><trkpt lat="43.91362661662782" lon="7.617935439632359"><ele>711.0</ele><time>2026-04-26T05:57:14.902Z</time></trkpt><trkpt lat="43.913729410506335" lon="7.617856781200964"><ele>709.0</ele><time>2026-04-26T05:57:16.902Z</time></trkpt><trkpt lat="43.9138023171741" lon="7.617838476669523"><ele>707.0</ele><time>2026-04-26T05:57:17.902Z</time></trkpt><trkpt lat="43.91387404080565" lon="7.617828246927183"><ele>705.0</ele><time>2026-04-26T05:57:18.902Z</time></trkpt><trkpt lat="43.91395809498418" lon="7.6178361106165795"><ele>703.0</ele><time>2026-04-26T05:57:19.902Z</time></trkpt><trkpt lat="43.91404928491392" lon="7.617839676367403"><ele>701.0</ele><time>2026-04-26T05:57:20.902Z</time></trkpt><trkpt lat="43.91412586237889" lon="7.617841844417979"><ele>701.0</ele><time>2026-04-26T05:57:21.902Z</time></trkpt><trkpt lat="43.91418995551519" lon="7.617840925052457"><ele>701.0</ele><time>2026-04-26T05:57:22.902Z</time></trkpt><trkpt lat="43.914339098910894" lon="7.617805542748014"><ele>701.0</ele><time>2026-04-26T05:57:24.902Z</time></trkpt><trkpt lat="43.91442492187093" lon="7.617764865072391"><ele>701.0</ele><time>2026-04-26T05:57:25.902Z</time></trkpt><trkpt lat="43.91449854764618" lon="7.617747268673518"><ele>701.0</ele><time>2026-04-26T05:57:26.902Z</time></trkpt><trkpt lat="43.91456405496305" lon="7.61774451516355"><ele>701.0</ele><time>2026-04-26T05:57:27.902Z</time></trkpt><trkpt lat="43.91464567580857" lon="7.617749087805875"><ele>701.4</ele><time>2026-04-26T05:57:28.902Z</time></trkpt><trkpt lat="43.91471319290507" lon="7.617761654915428"><ele>701.8</ele><time>2026-04-26T05:57:29.902Z</time></trkpt><trkpt lat="43.91482062478159" lon="7.617796410882732"><ele>702.1999999999999</ele><time>2026-04-26T05:57:31.902Z</time></trkpt><trkpt lat="43.91491579635459" lon="7.6178257333244614"><ele>702.5999999999999</ele><time>2026-04-26T05:57:33.902Z</time></trkpt><trkpt lat="43.91500743633465" lon="7.617791255393453"><ele>703.0</ele><time>2026-04-26T05:57:35.902Z</time></trkpt><trkpt lat="43.915068007910335" lon="7.617714768036339"><ele>707.8333333333334</ele><time>2026-04-26T05:57:37.902Z</time></trkpt><trkpt lat="43.915113593936745" lon="7.617649333867024"><ele>712.6666666666667</ele><time>2026-04-26T05:57:38.902Z</time></trkpt><trkpt lat="43.91514488649239" lon="7.617550859228324"><ele>717.5</ele><time>2026-04-26T05:57:39.902Z</time></trkpt><trkpt lat="43.91519118074432" lon="7.617450022209202"><ele>722.3333333333334</ele><time>2026-04-26T05:57:40.902Z</time></trkpt><trkpt lat="43.91523672978364" lon="7.617375802566672"><ele>727.1666666666666</ele><time>2026-04-26T05:57:41.902Z</time></trkpt><trkpt lat="43.915258623578936" lon="7.61726851897202"><ele>732.0</ele><time>2026-04-26T05:57:43.902Z</time></trkpt><trkpt lat="43.91532104605381" lon="7.617192133422083"><ele>732.0</ele><time>2026-04-26T05:57:45.902Z</time></trkpt><trkpt lat="43.91540290136738" lon="7.6171640555032845"><ele>732.0</ele><time>2026-04-26T05:57:46.902Z</time></trkpt><trkpt lat="43.91547140298592" lon="7.617201043228334"><ele>732.0</ele><time>2026-04-26T05:57:47.902Z</time></trkpt><trkpt lat="43.91545281786153" lon="7.6173232481730695"><ele>732.0</ele><time>2026-04-26T05:57:48.902Z</time></trkpt><trkpt lat="43.91545403755902" lon="7.61743235615935"><ele>732.0</ele><time>2026-04-26T05:57:50.902Z</time></trkpt><trkpt lat="43.91542284542391" lon="7.617652503902684"><ele>732.0</ele><time>2026-04-26T05:57:52.902Z</time></trkpt><trkpt lat="43.9154190620558" lon="7.617786979983"><ele>732.0</ele><time>2026-04-26T05:57:53.902Z</time></trkpt><trkpt lat="43.91542283203111" lon="7.617905801766784"><ele>732.0</ele><time>2026-04-26T05:57:54.902Z</time></trkpt><trkpt lat="43.915435012021476" lon="7.618021649269318"><ele>732.0</ele><time>2026-04-26T05:57:55.902Z</time></trkpt><trkpt lat="43.915410676244" lon="7.618199880791002"><ele>732.0</ele><time>2026-04-26T05:57:57.902Z</time></trkpt><trkpt lat="43.91540390285745" lon="7.6183014558353515"><ele>731.0</ele><time>2026-04-26T05:57:58.902Z</time></trkpt><trkpt lat="43.91540407633904" lon="7.618417684218289"><ele>730.0</ele><time>2026-04-26T05:57:59.902Z</time></trkpt><trkpt lat="43.91539871923236" lon="7.618526786378741"><ele>729.0</ele><time>2026-04-26T05:58:00.902Z</time></trkpt><trkpt lat="43.91537734550558" lon="7.618668529579415"><ele>728.0</ele><time>2026-04-26T05:58:01.902Z</time></trkpt><trkpt lat="43.91536642713469" lon="7.6187872381195385"><ele>727.0</ele><time>2026-04-26T05:58:02.902Z</time></trkpt><trkpt lat="43.91534512905904" lon="7.618943862613055"><ele>726.8333333333334</ele><time>2026-04-26T05:58:03.902Z</time></trkpt><trkpt lat="43.91529647234668" lon="7.619078055087429"><ele>726.6666666666667</ele><time>2026-04-26T05:58:04.902Z</time></trkpt><trkpt lat="43.91527976986003" lon="7.619205666091307"><ele>726.5</ele><time>2026-04-26T05:58:05.902Z</time></trkpt><trkpt lat="43.915257914587635" lon="7.619307279991536"><ele>726.3333333333334</ele><time>2026-04-26T05:58:06.902Z</time></trkpt><trkpt lat="43.915231613850324" lon="7.619387135803807"><ele>726.1666666666666</ele><time>2026-04-26T05:58:13.902Z</time></trkpt><trkpt lat="43.91524065698505" lon="7.619496779470175"><ele>726.0</ele><time>2026-04-26T05:58:16.901Z</time></trkpt><trkpt lat="43.91521485518798" lon="7.619590849530209"><ele>725.4</ele><time>2026-04-26T05:58:18.901Z</time></trkpt><trkpt lat="43.91526191600154" lon="7.619736760858731"><ele>724.8</ele><time>2026-04-26T05:58:20.901Z</time></trkpt><trkpt lat="43.915249098733995" lon="7.619824604688434"><ele>724.1999999999999</ele><time>2026-04-26T05:58:21.901Z</time></trkpt><trkpt lat="43.91522949182576" lon="7.619917920719368"><ele>723.5999999999999</ele><time>2026-04-26T05:58:22.901Z</time></trkpt><trkpt lat="43.9152252205076" lon="7.620029670602314"><ele>723.0</ele><time>2026-04-26T05:58:23.901Z</time></trkpt><trkpt lat="43.915221424300405" lon="7.62019859664216"><ele>723.0000000000001</ele><time>2026-04-26T05:58:25.901Z</time></trkpt><trkpt lat="43.915251623052974" lon="7.620296155251996"><ele>723.0</ele><time>2026-04-26T05:58:26.901Z</time></trkpt><trkpt lat="43.91528242994248" lon="7.620380533444175"><ele>723.0</ele><time>2026-04-26T05:58:27.903Z</time></trkpt><trkpt lat="43.915317541792085" lon="7.620469606159182"><ele>723.0</ele><time>2026-04-26T05:58:28.903Z</time></trkpt><trkpt lat="43.91530149808946" lon="7.6205823718626515"><ele>723.0</ele><time>2026-04-26T05:58:29.903Z</time></trkpt><trkpt lat="43.91532477337439" lon="7.62067981020927"><ele>723.0000000000001</ele><time>2026-04-26T05:58:30.903Z</time></trkpt><trkpt lat="43.9153577849382" lon="7.6207622955134005"><ele>723.0</ele><time>2026-04-26T05:58:31.903Z</time></trkpt><trkpt lat="43.91537660371461" lon="7.620849370600975"><ele>723.5</ele><time>2026-04-26T05:58:32.903Z</time></trkpt><trkpt lat="43.915410020954845" lon="7.620984999457426"><ele>724.0</ele><time>2026-04-26T05:58:34.903Z</time></trkpt><trkpt lat="43.915376426619545" lon="7.620906320210682"><ele>724.5</ele><time>2026-04-26T05:58:50.903Z</time></trkpt><trkpt lat="43.915352820675565" lon="7.620821848620716"><ele>725.0</ele><time>2026-04-26T05:58:51.903Z</time></trkpt><trkpt lat="43.915315833859914" lon="7.620639421264914"><ele>725.5</ele><time>2026-04-26T05:58:53.903Z</time></trkpt><trkpt lat="43.915305766958184" lon="7.620533049135835"><ele>726.0</ele><time>2026-04-26T05:58:54.903Z</time></trkpt><trkpt lat="43.915251007049626" lon="7.620387266138297"><ele>725.4</ele><time>2026-04-26T05:58:56.903Z</time></trkpt><trkpt lat="43.91522937993108" lon="7.620289004483306"><ele>724.8</ele><time>2026-04-26T05:58:57.903Z</time></trkpt><trkpt lat="43.91523517719095" lon="7.62013355578375"><ele>724.1999999999999</ele><time>2026-04-26T05:58:59.903Z</time></trkpt><trkpt lat="43.91525099993827" lon="7.619989705442128"><ele>723.5999999999999</ele><time>2026-04-26T05:59:01.903Z</time></trkpt><trkpt lat="43.91527998498691" lon="7.619874464021447"><ele>723.0</ele><time>2026-04-26T05:59:02.903Z</time></trkpt><trkpt lat="43.91530683680001" lon="7.619726285347939"><ele>723.0</ele><time>2026-04-26T05:59:04.903Z</time></trkpt><trkpt lat="43.91530907506446" lon="7.619638950552418"><ele>723.0</ele><time>2026-04-26T05:59:06.903Z</time></trkpt><trkpt lat="43.915224193103825" lon="7.619628243481626"><ele>723.0</ele><time>2026-04-26T05:59:09.903Z</time></trkpt><trkpt lat="43.91519659518916" lon="7.619756634999274"><ele>723.0</ele><time>2026-04-26T05:59:11.903Z</time></trkpt><trkpt lat="43.91518334179481" lon="7.619859984716825"><ele>723.0</ele><time>2026-04-26T05:59:12.903Z</time></trkpt><trkpt lat="43.91514716018597" lon="7.6199781912962425"><ele>723.0</ele><time>2026-04-26T05:59:14.903Z</time></trkpt><trkpt lat="43.91510807428168" lon="7.620047393496019"><ele>717.75</ele><time>2026-04-26T05:59:15.903Z</time></trkpt><trkpt lat="43.91505360880161" lon="7.620224459875553"><ele>712.5</ele><time>2026-04-26T05:59:17.903Z</time></trkpt><trkpt lat="43.915024890100575" lon="7.6203723496086475"><ele>707.25</ele><time>2026-04-26T05:59:18.903Z</time></trkpt><trkpt lat="43.91501348746859" lon="7.62052707792999"><ele>702.0</ele><time>2026-04-26T05:59:19.903Z</time></trkpt><trkpt lat="43.914971888014094" lon="7.620674346861071"><ele>702.0</ele><time>2026-04-26T05:59:20.903Z</time></trkpt><trkpt lat="43.91495106756373" lon="7.6208867221227035"><ele>702.0</ele><time>2026-04-26T05:59:22.903Z</time></trkpt><trkpt lat="43.914917030585435" lon="7.620981364045394"><ele>702.0</ele><time>2026-04-26T05:59:23.903Z</time></trkpt><trkpt lat="43.91491398492677" lon="7.621072051980396"><ele>702.0</ele><time>2026-04-26T05:59:24.903Z</time></trkpt><trkpt lat="43.914879681540945" lon="7.621150460342763"><ele>702.0</ele><time>2026-04-26T05:59:25.903Z</time></trkpt><trkpt lat="43.91488998783362" lon="7.621253359777594"><ele>702.0</ele><time>2026-04-26T05:59:26.903Z</time></trkpt><trkpt lat="43.914898238864495" lon="7.621356348890873"><ele>701.1666666666666</ele><time>2026-04-26T05:59:27.903Z</time></trkpt><trkpt lat="43.91496813456802" lon="7.621430470780007"><ele>700.3333333333334</ele><time>2026-04-26T05:59:28.903Z</time></trkpt><trkpt lat="43.91502931827354" lon="7.6215006954012745"><ele>699.5</ele><time>2026-04-26T05:59:29.903Z</time></trkpt><trkpt lat="43.91509629434126" lon="7.621592565661011"><ele>698.6666666666667</ele><time>2026-04-26T05:59:30.903Z</time></trkpt><trkpt lat="43.91517270014146" lon="7.621694081702259"><ele>697.8333333333334</ele><time>2026-04-26T05:59:31.903Z</time></trkpt><trkpt lat="43.915231025233" lon="7.621766437510895"><ele>697.0</ele><time>2026-04-26T05:59:32.903Z</time></trkpt><trkpt lat="43.91528101053053" lon="7.621835611761495"><ele>699.5714285714286</ele><time>2026-04-26T05:59:33.903Z</time></trkpt><trkpt lat="43.915327098063415" lon="7.621914796083948"><ele>702.1428571428571</ele><time>2026-04-26T05:59:34.903Z</time></trkpt><trkpt lat="43.91535255052716" lon="7.622009678869108"><ele>704.7142857142858</ele><time>2026-04-26T05:59:35.903Z</time></trkpt><trkpt lat="43.91536615309897" lon="7.6221067087816445"><ele>707.2857142857142</ele><time>2026-04-26T05:59:36.903Z</time></trkpt><trkpt lat="43.91537382728627" lon="7.622218466596485"><ele>709.8571428571428</ele><time>2026-04-26T05:59:37.903Z</time></trkpt><trkpt lat="43.91537912327262" lon="7.622307244847224"><ele>712.4285714285714</ele><time>2026-04-26T05:59:38.903Z</time></trkpt><trkpt lat="43.91538741554197" lon="7.622398361698018"><ele>715.0</ele><time>2026-04-26T05:59:40.903Z</time></trkpt><trkpt lat="43.915386350194524" lon="7.622535010314281"><ele>715.0</ele><time>2026-04-26T06:01:01.904Z</time></trkpt><trkpt lat="43.91537523449854" lon="7.622366554719073"><ele>715.0</ele><time>2026-04-26T06:01:19.904Z</time></trkpt><trkpt lat="43.91537465468095" lon="7.622255362796353"><ele>715.0</ele><time>2026-04-26T06:01:20.904Z</time></trkpt><trkpt lat="43.915376820946236" lon="7.622147637160224"><ele>715.0</ele><time>2026-04-26T06:01:21.904Z</time></trkpt><trkpt lat="43.91537607083692" lon="7.622048654786134"><ele>715.0</ele><time>2026-04-26T06:01:22.904Z</time></trkpt><trkpt lat="43.91536039756247" lon="7.621963100616472"><ele>715.0</ele><time>2026-04-26T06:01:23.904Z</time></trkpt><trkpt lat="43.915331683591155" lon="7.621871405385008"><ele>716.5</ele><time>2026-04-26T06:01:24.904Z</time></trkpt><trkpt lat="43.91527802392191" lon="7.62179537596548"><ele>718.0</ele><time>2026-04-26T06:01:25.904Z</time></trkpt><trkpt lat="43.91522428935371" lon="7.621726701420561"><ele>719.5</ele><time>2026-04-26T06:01:26.904Z</time></trkpt><trkpt lat="43.915172947052135" lon="7.6216361560950014"><ele>721.0</ele><time>2026-04-26T06:01:27.904Z</time></trkpt><trkpt lat="43.91511755008099" lon="7.621563970357102"><ele>722.5</ele><time>2026-04-26T06:01:28.904Z</time></trkpt><trkpt lat="43.91502919029625" lon="7.621454061493689"><ele>724.0</ele><time>2026-04-26T06:01:30.904Z</time></trkpt><trkpt lat="43.914976918658205" lon="7.621392806783486"><ele>719.6</ele><time>2026-04-26T06:01:31.904Z</time></trkpt><trkpt lat="43.91492038418405" lon="7.621340961189627"><ele>715.2</ele><time>2026-04-26T06:01:32.903Z</time></trkpt><trkpt lat="43.914910699328786" lon="7.621172930141844"><ele>710.8000000000001</ele><time>2026-04-26T06:01:34.903Z</time></trkpt><trkpt lat="43.91494209919188" lon="7.621043925844516"><ele>706.4000000000001</ele><time>2026-04-26T06:01:36.903Z</time></trkpt><trkpt lat="43.91496451929608" lon="7.620871644258777"><ele>702.0</ele><time>2026-04-26T06:01:38.903Z</time></trkpt><trkpt lat="43.91498774808639" lon="7.6207614412718865"><ele>702.0</ele><time>2026-04-26T06:01:39.903Z</time></trkpt><trkpt lat="43.91500668046218" lon="7.620614742439681"><ele>702.0</ele><time>2026-04-26T06:01:40.903Z</time></trkpt><trkpt lat="43.91503417769042" lon="7.6204786453173625"><ele>702.0</ele><time>2026-04-26T06:01:41.903Z</time></trkpt><trkpt lat="43.91504857929928" lon="7.620340915083564"><ele>702.0</ele><time>2026-04-26T06:01:42.903Z</time></trkpt><trkpt lat="43.91509087108567" lon="7.620212758080066"><ele>702.0</ele><time>2026-04-26T06:01:43.903Z</time></trkpt><trkpt lat="43.91511395901143" lon="7.620118761582559"><ele>705.5</ele><time>2026-04-26T06:01:44.903Z</time></trkpt><trkpt lat="43.91514758644286" lon="7.6200211243150635"><ele>709.0</ele><time>2026-04-26T06:01:45.903Z</time></trkpt><trkpt lat="43.91517282497927" lon="7.619939659971686"><ele>712.5</ele><time>2026-04-26T06:01:46.903Z</time></trkpt><trkpt lat="43.91520134859909" lon="7.619831301292575"><ele>716.0</ele><time>2026-04-26T06:01:47.903Z</time></trkpt><trkpt lat="43.91524240775831" lon="7.61967326663919"><ele>719.5</ele><time>2026-04-26T06:01:49.903Z</time></trkpt><trkpt lat="43.91527228027798" lon="7.619542273499433"><ele>723.0</ele><time>2026-04-26T06:01:51.903Z</time></trkpt><trkpt lat="43.91528152407918" lon="7.619440855358504"><ele>723.0</ele><time>2026-04-26T06:02:08.903Z</time></trkpt><trkpt lat="43.91527564195578" lon="7.619549493719313"><ele>723.0</ele><time>2026-04-26T06:03:19.904Z</time></trkpt><trkpt lat="43.9152570908749" lon="7.6196358948167235"><ele>723.0</ele><time>2026-04-26T06:03:27.903Z</time></trkpt><trkpt lat="43.91528011811836" lon="7.619541506914866"><ele>723.0</ele><time>2026-04-26T06:04:42.902Z</time></trkpt><trkpt lat="43.915279978783865" lon="7.61944810844569"><ele>723.0</ele><time>2026-04-26T06:05:02.905Z</time></trkpt><trkpt lat="43.91525616039923" lon="7.6195593426697465"><ele>723.0</ele><time>2026-04-26T06:05:21.905Z</time></trkpt><trkpt lat="43.91530530838513" lon="7.619678905256439"><ele>723.0</ele><time>2026-04-26T06:05:22.905Z</time></trkpt><trkpt lat="43.915293932744525" lon="7.61978850001153"><ele>723.0</ele><time>2026-04-26T06:05:23.905Z</time></trkpt><trkpt lat="43.91528023549417" lon="7.619877068149137"><ele>723.0</ele><time>2026-04-26T06:05:24.905Z</time></trkpt><trkpt lat="43.91526638213589" lon="7.61996251758214"><ele>723.0</ele><time>2026-04-26T06:05:25.905Z</time></trkpt><trkpt lat="43.91524446884502" lon="7.620081624483071"><ele>723.0</ele><time>2026-04-26T06:05:27.905Z</time></trkpt><trkpt lat="43.915231154325674" lon="7.6201958691565626"><ele>723.0</ele><time>2026-04-26T06:05:29.905Z</time></trkpt><trkpt lat="43.915225386571414" lon="7.620353621106581"><ele>723.5999999999999</ele><time>2026-04-26T06:05:31.905Z</time></trkpt><trkpt lat="43.915262179780335" lon="7.620438311635576"><ele>724.1999999999999</ele><time>2026-04-26T06:05:33.905Z</time></trkpt><trkpt lat="43.91530725502782" lon="7.620600669584052"><ele>724.8</ele><time>2026-04-26T06:05:35.905Z</time></trkpt><trkpt lat="43.915326997310814" lon="7.620689857181984"><ele>725.4</ele><time>2026-04-26T06:05:36.905Z</time></trkpt><trkpt lat="43.91535780563833" lon="7.620829035103634"><ele>726.0</ele><time>2026-04-26T06:05:38.905Z</time></trkpt><trkpt lat="43.915383691136036" lon="7.620945976085897"><ele>726.0</ele><time>2026-04-26T06:05:40.905Z</time></trkpt><trkpt lat="43.915428379924954" lon="7.621074509873348"><ele>726.0</ele><time>2026-04-26T06:05:43.905Z</time></trkpt><trkpt lat="43.915463379358776" lon="7.621179072796626"><ele>726.0</ele><time>2026-04-26T06:05:45.905Z</time></trkpt><trkpt lat="43.9154901224639" lon="7.621258969441235"><ele>726.0</ele><time>2026-04-26T06:05:46.905Z</time></trkpt><trkpt lat="43.915543630762315" lon="7.621418828697252"><ele>726.0</ele><time>2026-04-26T06:05:48.905Z</time></trkpt><trkpt lat="43.91523628038157" lon="7.621696803615609"><ele>725.5999999999999</ele><time>2026-04-26T06:05:49.905Z</time></trkpt><trkpt lat="43.91529452306421" lon="7.621814785040115"><ele>725.2</ele><time>2026-04-26T06:05:51.905Z</time></trkpt><trkpt lat="43.91535010325592" lon="7.621986041945686"><ele>724.8</ele><time>2026-04-26T06:05:53.905Z</time></trkpt><trkpt lat="43.91534468442359" lon="7.622103499197032"><ele>724.4000000000001</ele><time>2026-04-26T06:05:55.905Z</time></trkpt><trkpt lat="43.9153549479144" lon="7.622199617920642"><ele>724.0</ele><time>2026-04-26T06:05:58.905Z</time></trkpt><trkpt lat="43.91537566922673" lon="7.622320956652695"><ele>723.1666666666667</ele><time>2026-04-26T06:06:24.904Z</time></trkpt><trkpt lat="43.915384897410995" lon="7.622486794497791"><ele>722.3333333333334</ele><time>2026-04-26T06:06:26.904Z</time></trkpt><trkpt lat="43.91538860225023" lon="7.622587507840595"><ele>721.5</ele><time>2026-04-26T06:06:27.904Z</time></trkpt><trkpt lat="43.915386279118394" lon="7.622695531268804"><ele>720.6666666666666</ele><time>2026-04-26T06:06:28.904Z</time></trkpt><trkpt lat="43.915392372087986" lon="7.622817957620524"><ele>719.8333333333333</ele><time>2026-04-26T06:06:29.904Z</time></trkpt><trkpt lat="43.9153892775048" lon="7.622930187400489"><ele>719.0</ele><time>2026-04-26T06:06:30.904Z</time></trkpt><trkpt lat="43.915384860736594" lon="7.623028313426848"><ele>719.0</ele><time>2026-04-26T06:06:31.904Z</time></trkpt><trkpt lat="43.9153571632426" lon="7.623196806670621"><ele>719.0</ele><time>2026-04-26T06:06:33.904Z</time></trkpt><trkpt lat="43.915323198038124" lon="7.6232753425252975"><ele>719.0</ele><time>2026-04-26T06:06:34.904Z</time></trkpt><trkpt lat="43.91528323421448" lon="7.623350315872645"><ele>719.0</ele><time>2026-04-26T06:06:35.904Z</time></trkpt><trkpt lat="43.91523145940709" lon="7.6234224098248395"><ele>719.0</ele><time>2026-04-26T06:06:36.904Z</time></trkpt><trkpt lat="43.91518231354063" lon="7.623499668727183"><ele>719.0</ele><time>2026-04-26T06:06:37.904Z</time></trkpt><trkpt lat="43.91512086985142" lon="7.623577221281752"><ele>714.0</ele><time>2026-04-26T06:06:38.904Z</time></trkpt><trkpt lat="43.9150612966457" lon="7.623632524475971"><ele>709.0</ele><time>2026-04-26T06:06:39.904Z</time></trkpt><trkpt lat="43.91501758135487" lon="7.623714886428667"><ele>704.0</ele><time>2026-04-26T06:06:40.904Z</time></trkpt><trkpt lat="43.91498906367364" lon="7.623827532876469"><ele>699.0</ele><time>2026-04-26T06:06:41.904Z</time></trkpt><trkpt lat="43.91495749624535" lon="7.623957612924363"><ele>694.0</ele><time>2026-04-26T06:06:42.904Z</time></trkpt><trkpt lat="43.91494047046848" lon="7.62408582772005"><ele>689.0</ele><time>2026-04-26T06:06:43.904Z</time></trkpt><trkpt lat="43.9149198074701" lon="7.6241807025525725"><ele>689.0</ele><time>2026-04-26T06:06:44.904Z</time></trkpt><trkpt lat="43.91489604154137" lon="7.624313835403267"><ele>689.0</ele><time>2026-04-26T06:06:46.904Z</time></trkpt><trkpt lat="43.91489032182417" lon="7.624456318149869"><ele>689.0</ele><time>2026-04-26T06:06:48.904Z</time></trkpt><trkpt lat="43.91490051207717" lon="7.62455233887594"><ele>689.0</ele><time>2026-04-26T06:06:49.904Z</time></trkpt><trkpt lat="43.91491734138843" lon="7.624707767018536"><ele>689.0</ele><time>2026-04-26T06:06:51.906Z</time></trkpt><trkpt lat="43.914954210680634" lon="7.624811450495406"><ele>688.0</ele><time>2026-04-26T06:06:52.906Z</time></trkpt><trkpt lat="43.915006000153866" lon="7.62492105069858"><ele>687.0</ele><time>2026-04-26T06:06:53.906Z</time></trkpt><trkpt lat="43.915052287648415" lon="7.6250101313035525"><ele>686.0</ele><time>2026-04-26T06:06:54.906Z</time></trkpt><trkpt lat="43.91509168461456" lon="7.625085951138212"><ele>685.0</ele><time>2026-04-26T06:06:55.906Z</time></trkpt><trkpt lat="43.91512902384298" lon="7.625160974097802"><ele>684.0</ele><time>2026-04-26T06:06:56.906Z</time></trkpt><trkpt lat="43.91516585889808" lon="7.625236666715035"><ele>683.0</ele><time>2026-04-26T06:06:57.906Z</time></trkpt><trkpt lat="43.915245272739845" lon="7.625366895965897"><ele>685.8333333333333</ele><time>2026-04-26T06:06:59.906Z</time></trkpt><trkpt lat="43.91527916803969" lon="7.625454172465224"><ele>688.6666666666666</ele><time>2026-04-26T06:07:01.906Z</time></trkpt><trkpt lat="43.91532151667918" lon="7.625538200781052"><ele>691.5</ele><time>2026-04-26T06:07:38.905Z</time></trkpt><trkpt lat="43.91536931559885" lon="7.625676453515825"><ele>694.3333333333334</ele><time>2026-04-26T06:07:40.905Z</time></trkpt><trkpt lat="43.9153960073927" lon="7.625767031715206"><ele>697.1666666666667</ele><time>2026-04-26T06:07:41.905Z</time></trkpt><trkpt lat="43.91540925966436" lon="7.625872115966482"><ele>700.0</ele><time>2026-04-26T06:07:42.905Z</time></trkpt><trkpt lat="43.91543985433358" lon="7.625988465790588"><ele>700.0</ele><time>2026-04-26T06:07:43.905Z</time></trkpt><trkpt lat="43.915467956429325" lon="7.626111226792545"><ele>700.0</ele><time>2026-04-26T06:07:44.905Z</time></trkpt><trkpt lat="43.915499446607384" lon="7.626253850983863"><ele>700.0</ele><time>2026-04-26T06:07:45.905Z</time></trkpt><trkpt lat="43.915540044239556" lon="7.626404153917875"><ele>700.0</ele><time>2026-04-26T06:07:46.905Z</time></trkpt><trkpt lat="43.915582100118804" lon="7.626565484376928"><ele>700.0</ele><time>2026-04-26T06:07:47.905Z</time></trkpt><trkpt lat="43.915627043054435" lon="7.62674076581308"><ele>697.25</ele><time>2026-04-26T06:07:48.905Z</time></trkpt><trkpt lat="43.915668807138196" lon="7.626915114022313"><ele>694.5</ele><time>2026-04-26T06:07:49.905Z</time></trkpt><trkpt lat="43.91570250211969" lon="7.627106413024706"><ele>691.75</ele><time>2026-04-26T06:07:50.905Z</time></trkpt><trkpt lat="43.91575024566794" lon="7.627326680119188"><ele>689.0</ele><time>2026-04-26T06:07:51.905Z</time></trkpt><trkpt lat="43.91576843966399" lon="7.627419988367067"><ele>689.1666666666666</ele><time>2026-04-26T06:07:53.905Z</time></trkpt><trkpt lat="43.915804522209385" lon="7.6275370460174425"><ele>689.3333333333333</ele><time>2026-04-26T06:07:54.905Z</time></trkpt><trkpt lat="43.91580224218962" lon="7.627658346444005"><ele>689.5</ele><time>2026-04-26T06:07:55.905Z</time></trkpt><trkpt lat="43.91580404455801" lon="7.627751129274688"><ele>689.6666666666666</ele><time>2026-04-26T06:07:56.905Z</time></trkpt><trkpt lat="43.91579043163921" lon="7.627837507415085"><ele>689.8333333333334</ele><time>2026-04-26T06:07:57.905Z</time></trkpt><trkpt lat="43.915718594782746" lon="7.627977314486451"><ele>690.0</ele><time>2026-04-26T06:07:59.905Z</time></trkpt><trkpt lat="43.91566789669394" lon="7.628071507895036"><ele>690.0</ele><time>2026-04-26T06:08:00.905Z</time></trkpt><trkpt lat="43.91557920061331" lon="7.628245444934764"><ele>690.0</ele><time>2026-04-26T06:08:02.905Z</time></trkpt><trkpt lat="43.91553929546821" lon="7.628361409075617"><ele>690.0</ele><time>2026-04-26T06:08:03.905Z</time></trkpt><trkpt lat="43.915510720783246" lon="7.628489695636201"><ele>690.0</ele><time>2026-04-26T06:08:04.905Z</time></trkpt><trkpt lat="43.91548344001549" lon="7.628616448051673"><ele>690.0</ele><time>2026-04-26T06:08:05.905Z</time></trkpt><trkpt lat="43.91545305878411" lon="7.6287352936462725"><ele>693.2</ele><time>2026-04-26T06:08:06.905Z</time></trkpt><trkpt lat="43.91541906990867" lon="7.628853254095732"><ele>696.4</ele><time>2026-04-26T06:08:07.905Z</time></trkpt><trkpt lat="43.91537683364887" lon="7.628963479010889"><ele>699.5999999999999</ele><time>2026-04-26T06:08:08.905Z</time></trkpt><trkpt lat="43.91533431680633" lon="7.629041616705263"><ele>702.8</ele><time>2026-04-26T06:08:09.905Z</time></trkpt><trkpt lat="43.915232417532415" lon="7.629152781442946"><ele>706.0</ele><time>2026-04-26T06:08:11.905Z</time></trkpt><trkpt lat="43.915158731981684" lon="7.629204056564407"><ele>706.0</ele><time>2026-04-26T06:08:12.905Z</time></trkpt><trkpt lat="43.91508167711192" lon="7.629210583573315"><ele>706.0</ele><time>2026-04-26T06:08:13.905Z</time></trkpt><trkpt lat="43.915015180395756" lon="7.629245407675241"><ele>706.0</ele><time>2026-04-26T06:08:14.905Z</time></trkpt><trkpt lat="43.91495862662483" lon="7.629310342387831"><ele>706.0</ele><time>2026-04-26T06:08:15.905Z</time></trkpt><trkpt lat="43.91491547654298" lon="7.629442119755813"><ele>706.0</ele><time>2026-04-26T06:08:16.905Z</time></trkpt><trkpt lat="43.91491916710225" lon="7.629614146427794"><ele>699.4</ele><time>2026-04-26T06:08:17.905Z</time></trkpt><trkpt lat="43.91494823526073" lon="7.629745391114934"><ele>692.8</ele><time>2026-04-26T06:08:18.905Z</time></trkpt><trkpt lat="43.9149851778516" lon="7.629863731389979"><ele>686.1999999999999</ele><time>2026-04-26T06:08:19.905Z</time></trkpt><trkpt lat="43.91501190386131" lon="7.629964353359982"><ele>679.5999999999999</ele><time>2026-04-26T06:08:20.905Z</time></trkpt><trkpt lat="43.91502467516814" lon="7.630083575766718"><ele>673.0</ele><time>2026-04-26T06:08:21.905Z</time></trkpt><trkpt lat="43.91502588174778" lon="7.630214609308691"><ele>673.2</ele><time>2026-04-26T06:08:22.905Z</time></trkpt><trkpt lat="43.91504488161104" lon="7.63035284035052"><ele>673.4</ele><time>2026-04-26T06:08:23.905Z</time></trkpt><trkpt lat="43.91507478957031" lon="7.630472035303189"><ele>673.6</ele><time>2026-04-26T06:08:24.905Z</time></trkpt><trkpt lat="43.9151020181811" lon="7.630591825182797"><ele>673.8000000000001</ele><time>2026-04-26T06:08:25.905Z</time></trkpt><trkpt lat="43.91512822965572" lon="7.6307071403931435"><ele>674.0</ele><time>2026-04-26T06:08:26.905Z</time></trkpt><trkpt lat="43.915149796769605" lon="7.630834024431749"><ele>676.3333333333333</ele><time>2026-04-26T06:08:27.905Z</time></trkpt><trkpt lat="43.9151748712294" lon="7.6309647245615215"><ele>678.6666666666666</ele><time>2026-04-26T06:08:28.905Z</time></trkpt><trkpt lat="43.91518293299309" lon="7.631059578838193"><ele>681.0</ele><time>2026-04-26T06:08:29.905Z</time></trkpt><trkpt lat="43.91514741441125" lon="7.631205450748825"><ele>683.3333333333334</ele><time>2026-04-26T06:08:31.904Z</time></trkpt><trkpt lat="43.91509387709383" lon="7.631263955260725"><ele>685.6666666666667</ele><time>2026-04-26T06:08:32.904Z</time></trkpt><trkpt lat="43.91501065878872" lon="7.631300907639322"><ele>688.0</ele><time>2026-04-26T06:08:33.904Z</time></trkpt><trkpt lat="43.91493683823234" lon="7.631341581605241"><ele>688.0</ele><time>2026-04-26T06:08:34.904Z</time></trkpt><trkpt lat="43.91485142109934" lon="7.631383074721659"><ele>688.0</ele><time>2026-04-26T06:08:35.904Z</time></trkpt><trkpt lat="43.91479580501142" lon="7.631437785866147"><ele>688.0</ele><time>2026-04-26T06:08:36.904Z</time></trkpt><trkpt lat="43.91473618532825" lon="7.631601167207704"><ele>688.0</ele><time>2026-04-26T06:08:38.904Z</time></trkpt><trkpt lat="43.91471801839549" lon="7.6317172268208315"><ele>688.0</ele><time>2026-04-26T06:08:39.904Z</time></trkpt><trkpt lat="43.91470020774123" lon="7.63183167399385"><ele>688.0</ele><time>2026-04-26T06:08:40.904Z</time></trkpt><trkpt lat="43.9146811256769" lon="7.631950056451691"><ele>688.0</ele><time>2026-04-26T06:08:41.904Z</time></trkpt><trkpt lat="43.91466169108171" lon="7.632057409518177"><ele>688.0</ele><time>2026-04-26T06:08:42.904Z</time></trkpt><trkpt lat="43.9146280473071" lon="7.632173926795343"><ele>688.0</ele><time>2026-04-26T06:08:43.904Z</time></trkpt><trkpt lat="43.91458758129322" lon="7.632292032563088"><ele>688.0</ele><time>2026-04-26T06:08:44.904Z</time></trkpt><trkpt lat="43.91454441075577" lon="7.632401970237567"><ele>688.0</ele><time>2026-04-26T06:08:45.904Z</time></trkpt><trkpt lat="43.91449306264101" lon="7.632496022310553"><ele>688.2</ele><time>2026-04-26T06:08:46.904Z</time></trkpt><trkpt lat="43.914422571297365" lon="7.632597023412913"><ele>688.4</ele><time>2026-04-26T06:08:47.904Z</time></trkpt><trkpt lat="43.91435105767762" lon="7.632674140139928"><ele>688.6</ele><time>2026-04-26T06:08:48.904Z</time></trkpt><trkpt lat="43.91426929879917" lon="7.6327627283563935"><ele>688.8000000000001</ele><time>2026-04-26T06:08:49.904Z</time></trkpt><trkpt lat="43.914168406418" lon="7.632828344920872"><ele>689.0</ele><time>2026-04-26T06:08:50.904Z</time></trkpt><trkpt lat="43.91407529048489" lon="7.632887903480023"><ele>689.0</ele><time>2026-04-26T06:08:51.904Z</time></trkpt><trkpt lat="43.913970622824294" lon="7.632940271019602"><ele>689.0</ele><time>2026-04-26T06:08:52.904Z</time></trkpt><trkpt lat="43.913868040018066" lon="7.633012722933997"><ele>689.0</ele><time>2026-04-26T06:08:53.904Z</time></trkpt><trkpt lat="43.91378106502662" lon="7.633075687000462"><ele>689.0</ele><time>2026-04-26T06:08:54.904Z</time></trkpt><trkpt lat="43.91370151993435" lon="7.633130132904674"><ele>689.0</ele><time>2026-04-26T06:08:55.904Z</time></trkpt><trkpt lat="43.91363429619012" lon="7.63314615003931"><ele>689.0</ele><time>2026-04-26T06:08:56.906Z</time></trkpt><trkpt lat="43.91357175381241" lon="7.633234666509216"><ele>689.0</ele><time>2026-04-26T06:08:58.906Z</time></trkpt><trkpt lat="43.91354559593734" lon="7.633316593099704"><ele>689.0</ele><time>2026-04-26T06:08:59.906Z</time></trkpt><trkpt lat="43.91350449285182" lon="7.633415600470525"><ele>689.0</ele><time>2026-04-26T06:09:00.906Z</time></trkpt><trkpt lat="43.913520822792144" lon="7.6335109929621705"><ele>689.0</ele><time>2026-04-26T06:09:01.906Z</time></trkpt><trkpt lat="43.91349624520731" lon="7.633606350826544"><ele>689.0</ele><time>2026-04-26T06:09:02.907Z</time></trkpt><trkpt lat="43.91347346526778" lon="7.633695993053444"><ele>689.0</ele><time>2026-04-26T06:09:03.906Z</time></trkpt><trkpt lat="43.913431496793656" lon="7.633858896881742"><ele>687.4000000000001</ele><time>2026-04-26T06:09:05.907Z</time></trkpt><trkpt lat="43.91343014011014" lon="7.63406393267026"><ele>685.8</ele><time>2026-04-26T06:09:07.907Z</time></trkpt><trkpt lat="43.91348600355889" lon="7.634145408019673"><ele>684.2</ele><time>2026-04-26T06:09:08.907Z</time></trkpt><trkpt lat="43.91355565618356" lon="7.634201182944299"><ele>682.5999999999999</ele><time>2026-04-26T06:09:09.906Z</time></trkpt><trkpt lat="43.913642157779336" lon="7.634212902385902"><ele>681.0</ele><time>2026-04-26T06:09:10.906Z</time></trkpt><trkpt lat="43.91372952225123" lon="7.6341996577194715"><ele>681.0</ele><time>2026-04-26T06:09:11.906Z</time></trkpt><trkpt lat="43.91381381401815" lon="7.634188683501029"><ele>681.0</ele><time>2026-04-26T06:09:12.906Z</time></trkpt><trkpt lat="43.91389258903625" lon="7.6341777774354656"><ele>681.0</ele><time>2026-04-26T06:09:13.906Z</time></trkpt><trkpt lat="43.913965174303414" lon="7.634145594211851"><ele>681.0</ele><time>2026-04-26T06:09:14.906Z</time></trkpt><trkpt lat="43.914031853830615" lon="7.6341604222352775"><ele>681.0</ele><time>2026-04-26T06:09:15.906Z</time></trkpt><trkpt lat="43.914137891071825" lon="7.634142181809942"><ele>681.0</ele><time>2026-04-26T06:09:17.906Z</time></trkpt><trkpt lat="43.91425599464334" lon="7.634136199500854"><ele>681.0</ele><time>2026-04-26T06:09:19.906Z</time></trkpt><trkpt lat="43.91435411396932" lon="7.634148711484187"><ele>681.0</ele><time>2026-04-26T06:09:21.906Z</time></trkpt><trkpt lat="43.914436380903695" lon="7.63417243337931"><ele>681.0</ele><time>2026-04-26T06:09:23.906Z</time></trkpt><trkpt lat="43.91451625660381" lon="7.6341803502245815"><ele>681.0</ele><time>2026-04-26T06:09:25.906Z</time></trkpt><trkpt lat="43.914579351403525" lon="7.634191163095489"><ele>681.0</ele><time>2026-04-26T06:09:27.906Z</time></trkpt><trkpt lat="43.91466058331472" lon="7.634192121122765"><ele>681.0</ele><time>2026-04-26T06:09:30.906Z</time></trkpt><trkpt lat="43.91473729598632" lon="7.63418176288842"><ele>681.0</ele><time>2026-04-26T06:09:39.906Z</time></trkpt><trkpt lat="43.91482923918276" lon="7.634202916255464"><ele>681.0</ele><time>2026-04-26T06:09:41.906Z</time></trkpt><trkpt lat="43.91494766303326" lon="7.6342060224321555"><ele>681.0</ele><time>2026-04-26T06:09:43.906Z</time></trkpt><trkpt lat="43.91503090335579" lon="7.634227580998458"><ele>681.0</ele><time>2026-04-26T06:09:44.906Z</time></trkpt><trkpt lat="43.91509452254359" lon="7.634253644424398"><ele>681.0</ele><time>2026-04-26T06:09:45.905Z</time></trkpt><trkpt lat="43.91515877110386" lon="7.634318045084799"><ele>681.0</ele><time>2026-04-26T06:09:46.905Z</time></trkpt><trkpt lat="43.915210121637976" lon="7.634390216348689"><ele>683.1666666666666</ele><time>2026-04-26T06:09:47.905Z</time></trkpt><trkpt lat="43.91526199710889" lon="7.634444968720777"><ele>685.3333333333334</ele><time>2026-04-26T06:09:48.905Z</time></trkpt><trkpt lat="43.91531687672599" lon="7.634516403896703"><ele>687.5</ele><time>2026-04-26T06:09:49.905Z</time></trkpt><trkpt lat="43.915366644504516" lon="7.6345804287881585"><ele>689.6666666666667</ele><time>2026-04-26T06:09:50.905Z</time></trkpt><trkpt lat="43.91543285888212" lon="7.634646984041676"><ele>691.8333333333334</ele><time>2026-04-26T06:09:51.905Z</time></trkpt><trkpt lat="43.91549610898106" lon="7.634742483130195"><ele>694.0</ele><time>2026-04-26T06:09:52.905Z</time></trkpt><trkpt lat="43.91555892790875" lon="7.634836413108882"><ele>688.3333333333334</ele><time>2026-04-26T06:09:53.905Z</time></trkpt><trkpt lat="43.915624446703205" lon="7.634926093884849"><ele>682.6666666666667</ele><time>2026-04-26T06:09:54.905Z</time></trkpt><trkpt lat="43.915693160648246" lon="7.635002021692587"><ele>677.0</ele><time>2026-04-26T06:09:55.905Z</time></trkpt><trkpt lat="43.91576378433023" lon="7.635057257037016"><ele>671.3333333333334</ele><time>2026-04-26T06:09:56.905Z</time></trkpt><trkpt lat="43.915832070805344" lon="7.635122504560069"><ele>665.6666666666666</ele><time>2026-04-26T06:09:57.905Z</time></trkpt><trkpt lat="43.91590014886021" lon="7.635195329613372"><ele>660.0</ele><time>2026-04-26T06:09:58.905Z</time></trkpt><trkpt lat="43.91596217337001" lon="7.635274659590952"><ele>660.0</ele><time>2026-04-26T06:09:59.905Z</time></trkpt><trkpt lat="43.91602268651764" lon="7.635329617935496"><ele>660.0</ele><time>2026-04-26T06:10:00.905Z</time></trkpt><trkpt lat="43.91610038223044" lon="7.635378735842529"><ele>660.0</ele><time>2026-04-26T06:10:01.905Z</time></trkpt><trkpt lat="43.916170910600954" lon="7.635370609708976"><ele>660.0</ele><time>2026-04-26T06:10:02.906Z</time></trkpt><trkpt lat="43.916231311189144" lon="7.635311958812563"><ele>660.0</ele><time>2026-04-26T06:10:03.906Z</time></trkpt><trkpt lat="43.91630855989705" lon="7.6352588746536885"><ele>660.0</ele><time>2026-04-26T06:10:04.907Z</time></trkpt><trkpt lat="43.9163964629591" lon="7.635193955316111"><ele>660.0</ele><time>2026-04-26T06:10:05.907Z</time></trkpt><trkpt lat="43.916477557189545" lon="7.63512583551844"><ele>660.0</ele><time>2026-04-26T06:10:06.907Z</time></trkpt><trkpt lat="43.916560779043316" lon="7.635061821420107"><ele>660.0</ele><time>2026-04-26T06:10:07.908Z</time></trkpt><trkpt lat="43.916634038073404" lon="7.635003517134013"><ele>660.0</ele><time>2026-04-26T06:10:08.908Z</time></trkpt><trkpt lat="43.916704793664096" lon="7.634964378069675"><ele>660.0</ele><time>2026-04-26T06:10:09.908Z</time></trkpt><trkpt lat="43.916768879124824" lon="7.634942956211159"><ele>660.0</ele><time>2026-04-26T06:10:10.908Z</time></trkpt><trkpt lat="43.916893389225635" lon="7.634946001462715"><ele>662.6666666666666</ele><time>2026-04-26T06:10:12.909Z</time></trkpt><trkpt lat="43.91696926384538" lon="7.634987489276659"><ele>665.3333333333334</ele><time>2026-04-26T06:10:13.909Z</time></trkpt><trkpt lat="43.91703760952713" lon="7.63506151719863"><ele>668.0</ele><time>2026-04-26T06:10:14.909Z</time></trkpt><trkpt lat="43.91710631311186" lon="7.635116668404631"><ele>670.6666666666667</ele><time>2026-04-26T06:10:15.909Z</time></trkpt><trkpt lat="43.91717549334105" lon="7.635197643413865"><ele>673.3333333333334</ele><time>2026-04-26T06:10:16.91Z</time></trkpt><trkpt lat="43.917247424570455" lon="7.635311505337389"><ele>676.0</ele><time>2026-04-26T06:10:17.91Z</time></trkpt><trkpt lat="43.91730484196755" lon="7.635421561158749"><ele>673.0</ele><time>2026-04-26T06:10:18.91Z</time></trkpt><trkpt lat="43.91735721286056" lon="7.635523078922835"><ele>670.0</ele><time>2026-04-26T06:10:19.91Z</time></trkpt><trkpt lat="43.917412695949785" lon="7.6356266864410784"><ele>667.0</ele><time>2026-04-26T06:10:20.91Z</time></trkpt><trkpt lat="43.917461351196756" lon="7.635710793365721"><ele>664.0</ele><time>2026-04-26T06:10:21.91Z</time></trkpt><trkpt lat="43.91751629116549" lon="7.635800665812708"><ele>661.0</ele><time>2026-04-26T06:10:22.91Z</time></trkpt><trkpt lat="43.91757253161563" lon="7.6358704486662985"><ele>658.0</ele><time>2026-04-26T06:10:23.911Z</time></trkpt><trkpt lat="43.91763557294294" lon="7.635952921056457"><ele>658.0</ele><time>2026-04-26T06:10:24.911Z</time></trkpt><trkpt lat="43.917732153592155" lon="7.63600100665028"><ele>658.0</ele><time>2026-04-26T06:10:25.911Z</time></trkpt><trkpt lat="43.91782382990096" lon="7.636054199012505"><ele>658.0</ele><time>2026-04-26T06:10:26.911Z</time></trkpt><trkpt lat="43.91791005489815" lon="7.636109460994912"><ele>658.0</ele><time>2026-04-26T06:10:27.911Z</time></trkpt><trkpt lat="43.917984858454716" lon="7.636175175809589"><ele>658.0</ele><time>2026-04-26T06:10:28.911Z</time></trkpt><trkpt lat="43.91802565052458" lon="7.636259385047044"><ele>651.0</ele><time>2026-04-26T06:10:29.911Z</time></trkpt><trkpt lat="43.9180927517242" lon="7.63633204484865"><ele>644.0</ele><time>2026-04-26T06:10:30.911Z</time></trkpt><trkpt lat="43.918143567820934" lon="7.6364119441713685"><ele>637.0</ele><time>2026-04-26T06:10:31.911Z</time></trkpt><trkpt lat="43.9182122015974" lon="7.636510803953747"><ele>630.0</ele><time>2026-04-26T06:10:32.911Z</time></trkpt><trkpt lat="43.918291404670526" lon="7.636596283690682"><ele>623.0</ele><time>2026-04-26T06:10:33.911Z</time></trkpt><trkpt lat="43.91836769905539" lon="7.636675897518889"><ele>620.8</ele><time>2026-04-26T06:10:34.911Z</time></trkpt><trkpt lat="43.918434406934416" lon="7.636754630088769"><ele>618.5999999999999</ele><time>2026-04-26T06:10:35.911Z</time></trkpt><trkpt lat="43.91850489162892" lon="7.636842316080253"><ele>616.4000000000001</ele><time>2026-04-26T06:10:36.911Z</time></trkpt><trkpt lat="43.91857558815151" lon="7.636910724789061"><ele>614.2</ele><time>2026-04-26T06:10:37.911Z</time></trkpt><trkpt lat="43.91863974555915" lon="7.636995787548584"><ele>612.0</ele><time>2026-04-26T06:10:38.911Z</time></trkpt><trkpt lat="43.918722086322404" lon="7.63705888325425"><ele>609.0</ele><time>2026-04-26T06:10:39.911Z</time></trkpt><trkpt lat="43.91879265608992" lon="7.637150823737307"><ele>606.0</ele><time>2026-04-26T06:10:40.912Z</time></trkpt><trkpt lat="43.91887169069184" lon="7.6372014943434126"><ele>603.0</ele><time>2026-04-26T06:10:41.912Z</time></trkpt><trkpt lat="43.91894135282503" lon="7.637219012469533"><ele>600.0</ele><time>2026-04-26T06:10:42.912Z</time></trkpt><trkpt lat="43.91900489683829" lon="7.637220580211569"><ele>597.0</ele><time>2026-04-26T06:10:43.912Z</time></trkpt><trkpt lat="43.91912807878796" lon="7.637176951789245"><ele>594.0</ele><time>2026-04-26T06:10:45.912Z</time></trkpt><trkpt lat="43.91924215086593" lon="7.637074432489335"><ele>585.6</ele><time>2026-04-26T06:10:47.912Z</time></trkpt><trkpt lat="43.919283513459696" lon="7.636968862861883"><ele>577.2</ele><time>2026-04-26T06:10:48.912Z</time></trkpt><trkpt lat="43.919310355994824" lon="7.636836767227792"><ele>568.8000000000001</ele><time>2026-04-26T06:10:49.912Z</time></trkpt><trkpt lat="43.91933700763773" lon="7.63670264919429"><ele>560.4</ele><time>2026-04-26T06:10:50.912Z</time></trkpt><trkpt lat="43.919365290556506" lon="7.636561306427657"><ele>552.0</ele><time>2026-04-26T06:10:51.912Z</time></trkpt><trkpt lat="43.91939316334932" lon="7.636430911679969"><ele>552.0</ele><time>2026-04-26T06:10:52.912Z</time></trkpt><trkpt lat="43.91941952700791" lon="7.636290659450529"><ele>552.0</ele><time>2026-04-26T06:10:53.912Z</time></trkpt><trkpt lat="43.91943062126184" lon="7.636158073702929"><ele>552.0</ele><time>2026-04-26T06:10:54.912Z</time></trkpt><trkpt lat="43.91942172761118" lon="7.636012352235084"><ele>552.0</ele><time>2026-04-26T06:10:55.912Z</time></trkpt><trkpt lat="43.91940673471212" lon="7.635874798458049"><ele>552.0</ele><time>2026-04-26T06:10:56.912Z</time></trkpt><trkpt lat="43.9193892186648" lon="7.635736174450004"><ele>554.6666666666666</ele><time>2026-04-26T06:10:57.912Z</time></trkpt><trkpt lat="43.91937473133188" lon="7.635619013842226"><ele>557.3333333333334</ele><time>2026-04-26T06:10:58.912Z</time></trkpt><trkpt lat="43.91936832039361" lon="7.635516929075166"><ele>560.0</ele><time>2026-04-26T06:10:59.912Z</time></trkpt><trkpt lat="43.91937382229254" lon="7.635399735287495"><ele>562.6666666666667</ele><time>2026-04-26T06:11:00.912Z</time></trkpt><trkpt lat="43.91938016359135" lon="7.635273565400813"><ele>565.3333333333334</ele><time>2026-04-26T06:11:01.912Z</time></trkpt><trkpt lat="43.91938463027644" lon="7.635156029787943"><ele>568.0</ele><time>2026-04-26T06:11:02.914Z</time></trkpt><trkpt lat="43.919388131238684" lon="7.635055105652462"><ele>572.1666666666667</ele><time>2026-04-26T06:11:03.913Z</time></trkpt><trkpt lat="43.91939229030654" lon="7.634959991700745"><ele>576.3333333333334</ele><time>2026-04-26T06:11:04.913Z</time></trkpt><trkpt lat="43.919399215377915" lon="7.634814942165149"><ele>580.5</ele><time>2026-04-26T06:11:06.915Z</time></trkpt><trkpt lat="43.91950916327658" lon="7.634751765580171"><ele>584.6666666666666</ele><time>2026-04-26T06:11:08.914Z</time></trkpt><trkpt lat="43.919575052947785" lon="7.634786389070557"><ele>588.8333333333333</ele><time>2026-04-26T06:11:09.914Z</time></trkpt><trkpt lat="43.91964784863603" lon="7.634812298137845"><ele>593.0</ele><time>2026-04-26T06:11:10.914Z</time></trkpt><trkpt lat="43.91974150310567" lon="7.634841707638248"><ele>593.0</ele><time>2026-04-26T06:11:11.914Z</time></trkpt><trkpt lat="43.919820005196314" lon="7.634871742340114"><ele>593.0</ele><time>2026-04-26T06:11:12.914Z</time></trkpt><trkpt lat="43.91991252031991" lon="7.634937899388325"><ele>593.0</ele><time>2026-04-26T06:11:13.914Z</time></trkpt><trkpt lat="43.9200106547336" lon="7.63495186174869"><ele>593.0</ele><time>2026-04-26T06:11:14.914Z</time></trkpt><trkpt lat="43.92009807763788" lon="7.634987880386613"><ele>593.0</ele><time>2026-04-26T06:11:15.914Z</time></trkpt><trkpt lat="43.920193835590545" lon="7.635033639217284"><ele>590.8333333333333</ele><time>2026-04-26T06:11:16.914Z</time></trkpt><trkpt lat="43.92029107526624" lon="7.635051430636169"><ele>588.6666666666666</ele><time>2026-04-26T06:11:17.914Z</time></trkpt><trkpt lat="43.92038643822386" lon="7.6350639141097645"><ele>586.5</ele><time>2026-04-26T06:11:18.914Z</time></trkpt><trkpt lat="43.92047216221528" lon="7.635089165437889"><ele>584.3333333333334</ele><time>2026-04-26T06:11:19.914Z</time></trkpt><trkpt lat="43.92054588603819" lon="7.6350931164134215"><ele>582.1666666666667</ele><time>2026-04-26T06:11:20.914Z</time></trkpt><trkpt lat="43.920622743374956" lon="7.635073817868393"><ele>580.0</ele><time>2026-04-26T06:11:21.914Z</time></trkpt><trkpt lat="43.92075521636289" lon="7.634984267652812"><ele>580.0</ele><time>2026-04-26T06:11:23.914Z</time></trkpt><trkpt lat="43.920847815002205" lon="7.6349297812603085"><ele>580.0</ele><time>2026-04-26T06:11:24.914Z</time></trkpt><trkpt lat="43.920939540846135" lon="7.63487181305948"><ele>580.0</ele><time>2026-04-26T06:11:25.914Z</time></trkpt><trkpt lat="43.92103838137138" lon="7.634806827018022"><ele>580.0</ele><time>2026-04-26T06:11:26.914Z</time></trkpt><trkpt lat="43.92112998347929" lon="7.63476189458557"><ele>580.0</ele><time>2026-04-26T06:11:27.914Z</time></trkpt><trkpt lat="43.9212244008973" lon="7.6346908370792255"><ele>581.6</ele><time>2026-04-26T06:11:28.914Z</time></trkpt><trkpt lat="43.92131156077582" lon="7.634623932209415"><ele>583.2</ele><time>2026-04-26T06:11:29.914Z</time></trkpt><trkpt lat="43.92141047392682" lon="7.6345711813482655"><ele>584.8</ele><time>2026-04-26T06:11:30.914Z</time></trkpt><trkpt lat="43.921511134509494" lon="7.634542986401973"><ele>586.4</ele><time>2026-04-26T06:11:31.914Z</time></trkpt><trkpt lat="43.921620138794005" lon="7.634489322296407"><ele>588.0</ele><time>2026-04-26T06:11:32.914Z</time></trkpt><trkpt lat="43.92172478713103" lon="7.634454536355184"><ele>581.8</ele><time>2026-04-26T06:11:33.914Z</time></trkpt><trkpt lat="43.92183139614411" lon="7.6344514479559775"><ele>575.5999999999999</ele><time>2026-04-26T06:11:34.914Z</time></trkpt><trkpt lat="43.92192430222505" lon="7.634463815094288"><ele>569.4000000000001</ele><time>2026-04-26T06:11:35.914Z</time></trkpt><trkpt lat="43.922005021112746" lon="7.634478726792884"><ele>563.2</ele><time>2026-04-26T06:11:36.914Z</time></trkpt><trkpt lat="43.92211046201481" lon="7.634474468530593"><ele>557.0</ele><time>2026-04-26T06:11:38.914Z</time></trkpt><trkpt lat="43.922191805436874" lon="7.634382563007273"><ele>557.0</ele><time>2026-04-26T06:11:40.914Z</time></trkpt><trkpt lat="43.92218237642908" lon="7.6342453281548535"><ele>557.0</ele><time>2026-04-26T06:11:41.914Z</time></trkpt><trkpt lat="43.92212343817815" lon="7.6341207959343125"><ele>557.0</ele><time>2026-04-26T06:11:42.914Z</time></trkpt><trkpt lat="43.92209504156533" lon="7.634035490166835"><ele>557.0</ele><time>2026-04-26T06:11:43.914Z</time></trkpt><trkpt lat="43.92207563557638" lon="7.633922841295028"><ele>557.0</ele><time>2026-04-26T06:11:44.914Z</time></trkpt><trkpt lat="43.92209052958808" lon="7.633826800084036"><ele>557.0</ele><time>2026-04-26T06:11:45.914Z</time></trkpt><trkpt lat="43.92209137545147" lon="7.633713327540933"><ele>559.4</ele><time>2026-04-26T06:11:46.914Z</time></trkpt><trkpt lat="43.922094691122176" lon="7.633602720430695"><ele>561.8000000000001</ele><time>2026-04-26T06:11:47.914Z</time></trkpt><trkpt lat="43.92210005160471" lon="7.633479827922165"><ele>564.2</ele><time>2026-04-26T06:11:48.914Z</time></trkpt><trkpt lat="43.922111097559124" lon="7.633372150409253"><ele>566.6</ele><time>2026-04-26T06:11:49.914Z</time></trkpt><trkpt lat="43.92216646671708" lon="7.63324597491173"><ele>569.0</ele><time>2026-04-26T06:11:51.914Z</time></trkpt><trkpt lat="43.922250053311494" lon="7.6331511423743645"><ele>569.0</ele><time>2026-04-26T06:11:53.913Z</time></trkpt><trkpt lat="43.92234099921528" lon="7.633071361262077"><ele>569.0</ele><time>2026-04-26T06:11:54.913Z</time></trkpt><trkpt lat="43.922435232936216" lon="7.633033339559643"><ele>569.0</ele><time>2026-04-26T06:11:55.913Z</time></trkpt><trkpt lat="43.922513796918686" lon="7.633008880143169"><ele>569.0</ele><time>2026-04-26T06:11:56.913Z</time></trkpt><trkpt lat="43.92263722653857" lon="7.632967377008057"><ele>569.0</ele><time>2026-04-26T06:11:58.913Z</time></trkpt><trkpt lat="43.92268151254886" lon="7.632900528492586"><ele>567.0</ele><time>2026-04-26T06:11:59.913Z</time></trkpt><trkpt lat="43.92274653662381" lon="7.632797119838334"><ele>565.0</ele><time>2026-04-26T06:12:00.913Z</time></trkpt><trkpt lat="43.922784205821365" lon="7.632717446128893"><ele>563.0</ele><time>2026-04-26T06:12:01.913Z</time></trkpt><trkpt lat="43.92281660409571" lon="7.632620076953012"><ele>561.0</ele><time>2026-04-26T06:12:02.913Z</time></trkpt><trkpt lat="43.92286214728922" lon="7.632448097453104"><ele>559.0</ele><time>2026-04-26T06:12:04.913Z</time></trkpt><trkpt lat="43.92290108885467" lon="7.632359712829964"><ele>559.0</ele><time>2026-04-26T06:12:05.913Z</time></trkpt><trkpt lat="43.92294138329412" lon="7.632257651681722"><ele>559.0</ele><time>2026-04-26T06:12:06.913Z</time></trkpt><trkpt lat="43.92300253351263" lon="7.632159512376756"><ele>559.0</ele><time>2026-04-26T06:12:07.913Z</time></trkpt><trkpt lat="43.92307742216218" lon="7.632077846518298"><ele>559.0</ele><time>2026-04-26T06:12:08.913Z</time></trkpt><trkpt lat="43.92314110821029" lon="7.631993551581042"><ele>559.0</ele><time>2026-04-26T06:12:09.913Z</time></trkpt><trkpt lat="43.923191628389255" lon="7.6319339585840895"><ele>559.0</ele><time>2026-04-26T06:12:10.913Z</time></trkpt><trkpt lat="43.92329556629498" lon="7.631751278389711"><ele>561.4</ele><time>2026-04-26T06:12:12.913Z</time></trkpt><trkpt lat="43.923347835354704" lon="7.631637179018162"><ele>563.8</ele><time>2026-04-26T06:12:13.913Z</time></trkpt><trkpt lat="43.92339576875654" lon="7.6315197543795925"><ele>566.2</ele><time>2026-04-26T06:12:14.913Z</time></trkpt><trkpt lat="43.92343711835489" lon="7.6313995710112605"><ele>568.6</ele><time>2026-04-26T06:12:15.913Z</time></trkpt><trkpt lat="43.92349090995656" lon="7.631276054932176"><ele>571.0</ele><time>2026-04-26T06:12:16.913Z</time></trkpt><trkpt lat="43.92352635373005" lon="7.631169564317111"><ele>567.2</ele><time>2026-04-26T06:12:17.913Z</time></trkpt><trkpt lat="43.92355140640372" lon="7.631086227116124"><ele>563.4000000000001</ele><time>2026-04-26T06:12:18.913Z</time></trkpt><trkpt lat="43.92357383037214" lon="7.630980732032013"><ele>559.6</ele><time>2026-04-26T06:12:19.913Z</time></trkpt><trkpt lat="43.9236202195653" lon="7.630791176097537"><ele>555.8000000000001</ele><time>2026-04-26T06:12:21.913Z</time></trkpt><trkpt lat="43.92370406841674" lon="7.6307678680029465"><ele>552.0</ele><time>2026-04-26T06:12:22.913Z</time></trkpt><trkpt lat="43.92381128009113" lon="7.6307894887511525"><ele>552.0</ele><time>2026-04-26T06:12:25.913Z</time></trkpt><trkpt lat="43.92388801207522" lon="7.630703175227413"><ele>552.0</ele><time>2026-04-26T06:12:27.913Z</time></trkpt><trkpt lat="43.923950431045974" lon="7.630659013714476"><ele>552.0</ele><time>2026-04-26T06:12:28.913Z</time></trkpt><trkpt lat="43.924014464098086" lon="7.630521362416429"><ele>552.0</ele><time>2026-04-26T06:12:29.913Z</time></trkpt><trkpt lat="43.924004376772636" lon="7.6303541149557335"><ele>552.0</ele><time>2026-04-26T06:12:30.913Z</time></trkpt><trkpt lat="43.92395969431374" lon="7.630175824746453"><ele>554.2</ele><time>2026-04-26T06:12:31.913Z</time></trkpt><trkpt lat="43.92392343980588" lon="7.630024814774643"><ele>556.4000000000001</ele><time>2026-04-26T06:12:32.913Z</time></trkpt><trkpt lat="43.92389023578853" lon="7.629888540860509"><ele>558.5999999999999</ele><time>2026-04-26T06:12:33.913Z</time></trkpt><trkpt lat="43.923846551433314" lon="7.62976592351222"><ele>560.8</ele><time>2026-04-26T06:12:34.913Z</time></trkpt><trkpt lat="43.9237995412547" lon="7.629653592539836"><ele>563.0</ele><time>2026-04-26T06:12:35.913Z</time></trkpt><trkpt lat="43.92375510652886" lon="7.629551422631912"><ele>567.1999999999999</ele><time>2026-04-26T06:12:37.913Z</time></trkpt><trkpt lat="43.92379492357514" lon="7.62940129167128"><ele>571.4</ele><time>2026-04-26T06:12:39.913Z</time></trkpt><trkpt lat="43.923882326421584" lon="7.629339969598624"><ele>575.5999999999999</ele><time>2026-04-26T06:12:40.913Z</time></trkpt><trkpt lat="43.92397862338636" lon="7.629304219504014"><ele>579.8</ele><time>2026-04-26T06:12:41.913Z</time></trkpt><trkpt lat="43.92407475300937" lon="7.629219031274745"><ele>584.0</ele><time>2026-04-26T06:12:42.913Z</time></trkpt><trkpt lat="43.92417136632218" lon="7.629121844227833"><ele>579.4</ele><time>2026-04-26T06:12:43.913Z</time></trkpt><trkpt lat="43.92428370682561" lon="7.629034424829806"><ele>574.8</ele><time>2026-04-26T06:12:44.913Z</time></trkpt><trkpt lat="43.92436875376745" lon="7.628953413807869"><ele>570.2</ele><time>2026-04-26T06:12:45.913Z</time></trkpt><trkpt lat="43.9244270973749" lon="7.628883608311952"><ele>565.6</ele><time>2026-04-26T06:12:46.913Z</time></trkpt><trkpt lat="43.924495303730694" lon="7.62885704133162"><ele>561.0</ele><time>2026-04-26T06:12:47.913Z</time></trkpt><trkpt lat="43.92454404439255" lon="7.62877636160829"><ele>567.0</ele><time>2026-04-26T06:12:48.913Z</time></trkpt><trkpt lat="43.9245670621866" lon="7.628571394299486"><ele>573.0</ele><time>2026-04-26T06:12:49.913Z</time></trkpt><trkpt lat="43.92456801518604" lon="7.628408872936581"><ele>579.0</ele><time>2026-04-26T06:12:50.913Z</time></trkpt><trkpt lat="43.92456903572599" lon="7.628234833774506"><ele>585.0</ele><time>2026-04-26T06:12:51.913Z</time></trkpt><trkpt lat="43.92455792400321" lon="7.628083774319335"><ele>585.0</ele><time>2026-04-26T06:12:52.913Z</time></trkpt><trkpt lat="43.92456541821019" lon="7.627946059326358"><ele>585.0</ele><time>2026-04-26T06:12:53.913Z</time></trkpt><trkpt lat="43.92459242430349" lon="7.6278383166943975"><ele>585.0</ele><time>2026-04-26T06:12:54.913Z</time></trkpt><trkpt lat="43.92464049813779" lon="7.627728351701668"><ele>585.0</ele><time>2026-04-26T06:12:55.913Z</time></trkpt><trkpt lat="43.92474362279987" lon="7.627637808636744"><ele>585.0</ele><time>2026-04-26T06:12:57.913Z</time></trkpt><trkpt lat="43.92480143378306" lon="7.627675632636428"><ele>589.4</ele><time>2026-04-26T06:12:58.913Z</time></trkpt><trkpt lat="43.92488489689387" lon="7.627661974693225"><ele>593.8</ele><time>2026-04-26T06:12:59.913Z</time></trkpt><trkpt lat="43.92495818796227" lon="7.62760903957255"><ele>598.2</ele><time>2026-04-26T06:13:00.913Z</time></trkpt><trkpt lat="43.92503196667031" lon="7.627529740549307"><ele>602.6</ele><time>2026-04-26T06:13:01.913Z</time></trkpt><trkpt lat="43.92509701245608" lon="7.627407263150035"><ele>607.0</ele><time>2026-04-26T06:13:02.913Z</time></trkpt><trkpt lat="43.925147808496455" lon="7.627286953306272"><ele>607.0</ele><time>2026-04-26T06:13:03.913Z</time></trkpt><trkpt lat="43.925224369752726" lon="7.627158198335103"><ele>607.0</ele><time>2026-04-26T06:13:04.913Z</time></trkpt><trkpt lat="43.925277517634704" lon="7.627040192574033"><ele>607.0</ele><time>2026-04-26T06:13:05.913Z</time></trkpt><trkpt lat="43.92532873507655" lon="7.626934330644467"><ele>607.0</ele><time>2026-04-26T06:13:06.913Z</time></trkpt><trkpt lat="43.92537917883415" lon="7.626862861348734"><ele>607.0</ele><time>2026-04-26T06:13:07.913Z</time></trkpt><trkpt lat="43.925453861755486" lon="7.6268532196330785"><ele>607.0</ele><time>2026-04-26T06:13:08.915Z</time></trkpt><trkpt lat="43.925531779896474" lon="7.626894377832756"><ele>607.0</ele><time>2026-04-26T06:13:09.915Z</time></trkpt><trkpt lat="43.9255897955164" lon="7.626945594070032"><ele>607.0</ele><time>2026-04-26T06:13:10.915Z</time></trkpt><trkpt lat="43.92566226747322" lon="7.626986582371056"><ele>607.0</ele><time>2026-04-26T06:13:11.915Z</time></trkpt><trkpt lat="43.92579015704019" lon="7.627055138820901"><ele>607.0</ele><time>2026-04-26T06:13:13.915Z</time></trkpt><trkpt lat="43.925863829846186" lon="7.627073733834253"><ele>607.0</ele><time>2026-04-26T06:13:14.915Z</time></trkpt><trkpt lat="43.92599484162048" lon="7.627030600676138"><ele>604.0</ele><time>2026-04-26T06:13:15.915Z</time></trkpt><trkpt lat="43.92609771170601" lon="7.626924952824492"><ele>601.0</ele><time>2026-04-26T06:13:16.915Z</time></trkpt><trkpt lat="43.92614980839783" lon="7.626846705830655"><ele>598.0</ele><time>2026-04-26T06:13:17.915Z</time></trkpt><trkpt lat="43.926192889616345" lon="7.62674235197672"><ele>595.0</ele><time>2026-04-26T06:13:18.915Z</time></trkpt><trkpt lat="43.92619134845532" lon="7.626559440691019"><ele>592.0</ele><time>2026-04-26T06:13:19.915Z</time></trkpt><trkpt lat="43.92615858743848" lon="7.626415132388892"><ele>592.0</ele><time>2026-04-26T06:13:20.915Z</time></trkpt><trkpt lat="43.9260889441332" lon="7.626286963071968"><ele>592.0</ele><time>2026-04-26T06:13:21.915Z</time></trkpt><trkpt lat="43.926045862968806" lon="7.626180177580201"><ele>592.0</ele><time>2026-04-26T06:13:22.915Z</time></trkpt><trkpt lat="43.926007439923055" lon="7.626071462639125"><ele>592.0</ele><time>2026-04-26T06:13:23.915Z</time></trkpt><trkpt lat="43.92598065051954" lon="7.625962771378928"><ele>592.0</ele><time>2026-04-26T06:13:24.915Z</time></trkpt><trkpt lat="43.925974297637765" lon="7.6258258613671694"><ele>594.0</ele><time>2026-04-26T06:13:25.915Z</time></trkpt><trkpt lat="43.9259836716316" lon="7.6256985008939155"><ele>596.0</ele><time>2026-04-26T06:13:26.915Z</time></trkpt><trkpt lat="43.92599900458936" lon="7.625542008800179"><ele>598.0</ele><time>2026-04-26T06:13:27.915Z</time></trkpt><trkpt lat="43.926034642852926" lon="7.6253811802331875"><ele>600.0</ele><time>2026-04-26T06:13:28.915Z</time></trkpt><trkpt lat="43.92607970493248" lon="7.625201881867495"><ele>603.8</ele><time>2026-04-26T06:13:29.915Z</time></trkpt><trkpt lat="43.926116056328375" lon="7.6250385209427405"><ele>607.6</ele><time>2026-04-26T06:13:30.915Z</time></trkpt><trkpt lat="43.92613257858273" lon="7.6249054506453415"><ele>611.4</ele><time>2026-04-26T06:13:31.915Z</time></trkpt><trkpt lat="43.926178962185126" lon="7.624800955312284"><ele>615.2</ele><time>2026-04-26T06:13:32.915Z</time></trkpt><trkpt lat="43.92619970877294" lon="7.62469426293618"><ele>619.0</ele><time>2026-04-26T06:13:33.915Z</time></trkpt><trkpt lat="43.92627482416759" lon="7.6246868323798145"><ele>619.0</ele><time>2026-04-26T06:13:34.915Z</time></trkpt><trkpt lat="43.926340567855526" lon="7.624663996406533"><ele>619.0</ele><time>2026-04-26T06:13:35.915Z</time></trkpt><trkpt lat="43.92643264334065" lon="7.624668057988064"><ele>619.0</ele><time>2026-04-26T06:13:36.915Z</time></trkpt><trkpt lat="43.92656026854194" lon="7.6246538380520175"><ele>619.0</ele><time>2026-04-26T06:13:37.915Z</time></trkpt><trkpt lat="43.92669329338352" lon="7.624652255082428"><ele>619.0</ele><time>2026-04-26T06:13:38.915Z</time></trkpt><trkpt lat="43.9268204401617" lon="7.624654966914734"><ele>618.4</ele><time>2026-04-26T06:13:39.915Z</time></trkpt><trkpt lat="43.92693925076919" lon="7.6246684525117"><ele>617.8</ele><time>2026-04-26T06:13:40.915Z</time></trkpt><trkpt lat="43.92703884250429" lon="7.624666756801303"><ele>617.2</ele><time>2026-04-26T06:13:41.915Z</time></trkpt><trkpt lat="43.92713396452074" lon="7.624653532543117"><ele>616.6</ele><time>2026-04-26T06:13:42.915Z</time></trkpt><trkpt lat="43.92721906536765" lon="7.624623627092956"><ele>616.0</ele><time>2026-04-26T06:13:43.915Z</time></trkpt><trkpt lat="43.92732553551673" lon="7.624547828185803"><ele>615.2</ele><time>2026-04-26T06:13:44.915Z</time></trkpt><trkpt lat="43.927431508508235" lon="7.62446438995176"><ele>614.4000000000001</ele><time>2026-04-26T06:13:45.915Z</time></trkpt><trkpt lat="43.927519155083296" lon="7.624385746059567"><ele>613.6</ele><time>2026-04-26T06:13:46.915Z</time></trkpt><trkpt lat="43.92761104688992" lon="7.624335100630509"><ele>612.8000000000001</ele><time>2026-04-26T06:13:47.915Z</time></trkpt><trkpt lat="43.927699002925515" lon="7.624274003703785"><ele>612.0</ele><time>2026-04-26T06:13:48.915Z</time></trkpt><trkpt lat="43.9277721558465" lon="7.6241988401856196"><ele>612.0</ele><time>2026-04-26T06:13:49.915Z</time></trkpt><trkpt lat="43.92782966160778" lon="7.624082615522605"><ele>612.0</ele><time>2026-04-26T06:13:50.915Z</time></trkpt><trkpt lat="43.92790422349668" lon="7.623944640011921"><ele>612.0</ele><time>2026-04-26T06:13:52.915Z</time></trkpt><trkpt lat="43.92798041389042" lon="7.623869308154901"><ele>612.0</ele><time>2026-04-26T06:13:53.915Z</time></trkpt><trkpt lat="43.927945700171485" lon="7.6236751179966635"><ele>612.0</ele><time>2026-04-26T06:13:54.915Z</time></trkpt><trkpt lat="43.927815087786136" lon="7.623671334370368"><ele>612.0</ele><time>2026-04-26T06:13:55.915Z</time></trkpt><trkpt lat="43.9277756992724" lon="7.623828618920431"><ele>612.0</ele><time>2026-04-26T06:13:56.915Z</time></trkpt><trkpt lat="43.92769958006664" lon="7.623916958387073"><ele>612.0</ele><time>2026-04-26T06:13:57.915Z</time></trkpt><trkpt lat="43.927655754042625" lon="7.623981220188613"><ele>612.0</ele><time>2026-04-26T06:13:58.915Z</time></trkpt><trkpt lat="43.92756866458843" lon="7.62407293643949"><ele>619.75</ele><time>2026-04-26T06:13:59.915Z</time></trkpt><trkpt lat="43.92747454521895" lon="7.624097815655491"><ele>627.5</ele><time>2026-04-26T06:14:00.915Z</time></trkpt><trkpt lat="43.92734413144408" lon="7.624103766296043"><ele>635.25</ele><time>2026-04-26T06:14:01.915Z</time></trkpt><trkpt lat="43.927243703940405" lon="7.624089042655506"><ele>643.0</ele><time>2026-04-26T06:14:02.915Z</time></trkpt><trkpt lat="43.92711734912498" lon="7.62407647551157"><ele>643.0</ele><time>2026-04-26T06:14:03.915Z</time></trkpt><trkpt lat="43.92699397300457" lon="7.624009635215004"><ele>643.0</ele><time>2026-04-26T06:14:04.915Z</time></trkpt><trkpt lat="43.9268692803568" lon="7.623938380776904"><ele>643.0</ele><time>2026-04-26T06:14:05.915Z</time></trkpt><trkpt lat="43.92673909933937" lon="7.62386064646876"><ele>643.0</ele><time>2026-04-26T06:14:06.915Z</time></trkpt><trkpt lat="43.92662487467864" lon="7.623763487036594"><ele>643.5999999999999</ele><time>2026-04-26T06:14:07.915Z</time></trkpt><trkpt lat="43.92650403256122" lon="7.623712274959966"><ele>644.1999999999999</ele><time>2026-04-26T06:14:08.915Z</time></trkpt><trkpt lat="43.926408500018844" lon="7.623631976466003"><ele>644.8</ele><time>2026-04-26T06:14:09.915Z</time></trkpt><trkpt lat="43.92632114584339" lon="7.62359474834186"><ele>645.4</ele><time>2026-04-26T06:14:10.915Z</time></trkpt><trkpt lat="43.92620222211233" lon="7.623605897254683"><ele>646.0</ele><time>2026-04-26T06:14:12.915Z</time></trkpt><trkpt lat="43.92612170391136" lon="7.623678809533331"><ele>646.0</ele><time>2026-04-26T06:14:13.915Z</time></trkpt><trkpt lat="43.9260289715248" lon="7.623789152519519"><ele>646.0</ele><time>2026-04-26T06:14:14.915Z</time></trkpt><trkpt lat="43.92594111203937" lon="7.623908516236552"><ele>646.0</ele><time>2026-04-26T06:14:15.915Z</time></trkpt><trkpt lat="43.92584802457678" lon="7.624045682582673"><ele>646.0</ele><time>2026-04-26T06:14:16.915Z</time></trkpt><trkpt lat="43.92575322426126" lon="7.624181293237065"><ele>645.5</ele><time>2026-04-26T06:14:17.915Z</time></trkpt><trkpt lat="43.925652793059406" lon="7.624325246377678"><ele>645.0</ele><time>2026-04-26T06:14:18.915Z</time></trkpt><trkpt lat="43.925551935673546" lon="7.624473940027997"><ele>644.5</ele><time>2026-04-26T06:14:19.915Z</time></trkpt><trkpt lat="43.92546679433463" lon="7.6246409770205466"><ele>644.0</ele><time>2026-04-26T06:14:20.915Z</time></trkpt><trkpt lat="43.92538775684237" lon="7.624751853108086"><ele>644.0</ele><time>2026-04-26T06:14:21.915Z</time></trkpt><trkpt lat="43.925326180348186" lon="7.624891154491388"><ele>644.0</ele><time>2026-04-26T06:14:22.915Z</time></trkpt><trkpt lat="43.925259111278" lon="7.624976918780027"><ele>644.0</ele><time>2026-04-26T06:14:23.915Z</time></trkpt><trkpt lat="43.925231667392204" lon="7.625062433631784"><ele>644.0</ele><time>2026-04-26T06:14:24.915Z</time></trkpt><trkpt lat="43.925106012422994" lon="7.62505148661343"><ele>644.0</ele><time>2026-04-26T06:14:26.915Z</time></trkpt><trkpt lat="43.92501417537683" lon="7.625083406630443"><ele>647.0</ele><time>2026-04-26T06:14:27.915Z</time></trkpt><trkpt lat="43.924933492512295" lon="7.62507709722666"><ele>650.0</ele><time>2026-04-26T06:14:28.915Z</time></trkpt><trkpt lat="43.92487206498215" lon="7.625147392554704"><ele>653.0</ele><time>2026-04-26T06:14:29.915Z</time></trkpt><trkpt lat="43.92481068954161" lon="7.625195815944464"><ele>656.0</ele><time>2026-04-26T06:14:30.915Z</time></trkpt><trkpt lat="43.92472574239177" lon="7.625297588463389"><ele>659.0</ele><time>2026-04-26T06:14:31.915Z</time></trkpt><trkpt lat="43.92463564436545" lon="7.625384458218641"><ele>659.0</ele><time>2026-04-26T06:14:32.915Z</time></trkpt><trkpt lat="43.924523657018696" lon="7.625443148188719"><ele>659.0</ele><time>2026-04-26T06:14:33.915Z</time></trkpt><trkpt lat="43.92442946932142" lon="7.625511685793919"><ele>659.0</ele><time>2026-04-26T06:14:34.915Z</time></trkpt><trkpt lat="43.92432027953907" lon="7.625570421903893"><ele>659.0</ele><time>2026-04-26T06:14:35.915Z</time></trkpt><trkpt lat="43.92419993209076" lon="7.625601489119133"><ele>662.6</ele><time>2026-04-26T06:14:36.915Z</time></trkpt><trkpt lat="43.92408978821698" lon="7.625611176615179"><ele>666.2</ele><time>2026-04-26T06:14:37.915Z</time></trkpt><trkpt lat="43.92398829299194" lon="7.6256154613517"><ele>669.8000000000001</ele><time>2026-04-26T06:14:38.915Z</time></trkpt><trkpt lat="43.92390243871599" lon="7.625615040201198"><ele>673.4000000000001</ele><time>2026-04-26T06:14:39.914Z</time></trkpt><trkpt lat="43.923845832776145" lon="7.625562258200773"><ele>677.0</ele><time>2026-04-26T06:14:40.914Z</time></trkpt><trkpt lat="43.92389988409228" lon="7.625433394011522"><ele>677.0</ele><time>2026-04-26T06:14:42.914Z</time></trkpt><trkpt lat="43.92395805028986" lon="7.625476178363264"><ele>677.0</ele><time>2026-04-26T06:14:43.914Z</time></trkpt><trkpt lat="43.92402632547739" lon="7.6254785483410386"><ele>677.0</ele><time>2026-04-26T06:14:44.914Z</time></trkpt><trkpt lat="43.92413464294064" lon="7.625470074038284"><ele>677.0</ele><time>2026-04-26T06:14:45.914Z</time></trkpt><trkpt lat="43.92422310015129" lon="7.625473920811644"><ele>677.0</ele><time>2026-04-26T06:14:46.914Z</time></trkpt><trkpt lat="43.9243179132687" lon="7.625438007839259"><ele>677.0</ele><time>2026-04-26T06:14:47.914Z</time></trkpt><trkpt lat="43.9243975027866" lon="7.625344923561467"><ele>678.5</ele><time>2026-04-26T06:14:48.914Z</time></trkpt><trkpt lat="43.92446551050751" lon="7.625255831646243"><ele>680.0</ele><time>2026-04-26T06:14:49.914Z</time></trkpt><trkpt lat="43.924514534587765" lon="7.625191100806363"><ele>681.5</ele><time>2026-04-26T06:14:50.914Z</time></trkpt><trkpt lat="43.92454553802642" lon="7.625113866922684"><ele>683.0</ele><time>2026-04-26T06:14:51.914Z</time></trkpt><trkpt lat="43.92452652336655" lon="7.625006882609022"><ele>684.5</ele><time>2026-04-26T06:14:52.914Z</time></trkpt><trkpt lat="43.924503686914235" lon="7.624880470765962"><ele>686.0</ele><time>2026-04-26T06:14:53.914Z</time></trkpt><trkpt lat="43.92448352230413" lon="7.6247519426206996"><ele>686.0</ele><time>2026-04-26T06:14:54.914Z</time></trkpt><trkpt lat="43.92451021947115" lon="7.624633342807622"><ele>686.0</ele><time>2026-04-26T06:14:55.914Z</time></trkpt><trkpt lat="43.92459177289417" lon="7.624531151220349"><ele>686.0</ele><time>2026-04-26T06:14:57.914Z</time></trkpt><trkpt lat="43.92467823521612" lon="7.624615977446337"><ele>686.0</ele><time>2026-04-26T06:14:59.914Z</time></trkpt><trkpt lat="43.92476604509577" lon="7.624665354361568"><ele>686.0</ele><time>2026-04-26T06:15:00.914Z</time></trkpt><trkpt lat="43.92484292528621" lon="7.624685440221406"><ele>686.0</ele><time>2026-04-26T06:15:01.914Z</time></trkpt><trkpt lat="43.92491610457259" lon="7.624555305161118"><ele>686.0</ele><time>2026-04-26T06:15:02.914Z</time></trkpt><trkpt lat="43.924995708385744" lon="7.624528660057929"><ele>686.0</ele><time>2026-04-26T06:15:03.914Z</time></trkpt><trkpt lat="43.9250455961761" lon="7.624398227570258"><ele>686.0</ele><time>2026-04-26T06:15:04.914Z</time></trkpt><trkpt lat="43.92510440602347" lon="7.624272879131871"><ele>686.0</ele><time>2026-04-26T06:15:05.914Z</time></trkpt><trkpt lat="43.925153686844375" lon="7.6241203474764045"><ele>687.5999999999999</ele><time>2026-04-26T06:15:06.914Z</time></trkpt><trkpt lat="43.92518357073042" lon="7.623972690434287"><ele>689.2</ele><time>2026-04-26T06:15:07.914Z</time></trkpt><trkpt lat="43.92519564730359" lon="7.623793574451986"><ele>690.8</ele><time>2026-04-26T06:15:08.914Z</time></trkpt><trkpt lat="43.925212786895344" lon="7.6236284547742645"><ele>692.4000000000001</ele><time>2026-04-26T06:15:09.914Z</time></trkpt><trkpt lat="43.9252362219818" lon="7.623513308055868"><ele>694.0</ele><time>2026-04-26T06:15:10.914Z</time></trkpt><trkpt lat="43.925280336555794" lon="7.6233751034389154"><ele>694.0</ele><time>2026-04-26T06:15:11.914Z</time></trkpt><trkpt lat="43.925319626148436" lon="7.623300341303898"><ele>694.0</ele><time>2026-04-26T06:15:12.914Z</time></trkpt><trkpt lat="43.92538335261486" lon="7.623146176787738"><ele>694.0</ele><time>2026-04-26T06:15:14.916Z</time></trkpt><trkpt lat="43.92542727673717" lon="7.623014868287229"><ele>694.0</ele><time>2026-04-26T06:15:15.916Z</time></trkpt><trkpt lat="43.925451586569324" lon="7.6228759387379075"><ele>694.0</ele><time>2026-04-26T06:15:16.916Z</time></trkpt><trkpt lat="43.92546180401223" lon="7.622707247192586"><ele>698.75</ele><time>2026-04-26T06:15:17.916Z</time></trkpt><trkpt lat="43.925459415497386" lon="7.622524133315747"><ele>703.5</ele><time>2026-04-26T06:15:18.916Z</time></trkpt><trkpt lat="43.92543477962184" lon="7.622322145650943"><ele>708.25</ele><time>2026-04-26T06:15:19.916Z</time></trkpt><trkpt lat="43.9254396317065" lon="7.622117964908092"><ele>713.0</ele><time>2026-04-26T06:15:20.916Z</time></trkpt><trkpt lat="43.92543401514664" lon="7.621940024097281"><ele>716.8333333333333</ele><time>2026-04-26T06:15:21.916Z</time></trkpt><trkpt lat="43.925439856458745" lon="7.6218063588582226"><ele>720.6666666666666</ele><time>2026-04-26T06:15:22.916Z</time></trkpt><trkpt lat="43.925456814376176" lon="7.621682136615078"><ele>724.5</ele><time>2026-04-26T06:15:23.916Z</time></trkpt><trkpt lat="43.925488668931706" lon="7.621589103127788"><ele>728.3333333333334</ele><time>2026-04-26T06:15:24.915Z</time></trkpt><trkpt lat="43.92556275250152" lon="7.621527295509394"><ele>732.1666666666667</ele><time>2026-04-26T06:15:25.915Z</time></trkpt><trkpt lat="43.92563424152864" lon="7.6215155065965545"><ele>736.0</ele><time>2026-04-26T06:15:26.916Z</time></trkpt><trkpt lat="43.92574123913777" lon="7.6215948395978526"><ele>736.0</ele><time>2026-04-26T06:15:27.915Z</time></trkpt><trkpt lat="43.92582334801234" lon="7.621646329468682"><ele>736.0</ele><time>2026-04-26T06:15:28.915Z</time></trkpt><trkpt lat="43.925884246974626" lon="7.621673127746881"><ele>736.0</ele><time>2026-04-26T06:15:29.915Z</time></trkpt><trkpt lat="43.92599285095966" lon="7.62164034590662"><ele>736.0</ele><time>2026-04-26T06:15:31.915Z</time></trkpt><trkpt lat="43.92607688529788" lon="7.621580568673715"><ele>736.0</ele><time>2026-04-26T06:15:32.915Z</time></trkpt><trkpt lat="43.926187732144996" lon="7.621492016802111"><ele>737.75</ele><time>2026-04-26T06:15:33.915Z</time></trkpt><trkpt lat="43.92628620582266" lon="7.621354196016714"><ele>739.5</ele><time>2026-04-26T06:15:34.915Z</time></trkpt><trkpt lat="43.92639583632769" lon="7.621234845382323"><ele>741.25</ele><time>2026-04-26T06:15:35.915Z</time></trkpt><trkpt lat="43.92650713747893" lon="7.6211051828836585"><ele>743.0</ele><time>2026-04-26T06:15:36.915Z</time></trkpt><trkpt lat="43.92661672839629" lon="7.620977346592663"><ele>743.0</ele><time>2026-04-26T06:15:37.915Z</time></trkpt><trkpt lat="43.92672194355372" lon="7.620874635523077"><ele>743.0</ele><time>2026-04-26T06:15:38.915Z</time></trkpt><trkpt lat="43.92681102734383" lon="7.620804260127897"><ele>743.0</ele><time>2026-04-26T06:15:39.915Z</time></trkpt><trkpt lat="43.92689362753926" lon="7.620752110411349"><ele>743.0</ele><time>2026-04-26T06:15:40.915Z</time></trkpt><trkpt lat="43.926979426637345" lon="7.620687876874933"><ele>743.0</ele><time>2026-04-26T06:15:41.915Z</time></trkpt><trkpt lat="43.92705292796673" lon="7.620633584474213"><ele>738.25</ele><time>2026-04-26T06:15:42.915Z</time></trkpt><trkpt lat="43.927116764744085" lon="7.620586430926189"><ele>733.5</ele><time>2026-04-26T06:15:43.915Z</time></trkpt><trkpt lat="43.92714595128746" lon="7.620411242532267"><ele>728.75</ele><time>2026-04-26T06:15:45.915Z</time></trkpt><trkpt lat="43.926968923061" lon="7.620402185133604"><ele>724.0</ele><time>2026-04-26T06:15:46.915Z</time></trkpt><trkpt lat="43.926876877853886" lon="7.620425295020551"><ele>724.0</ele><time>2026-04-26T06:15:47.915Z</time></trkpt><trkpt lat="43.9267639054638" lon="7.620468163307697"><ele>724.0</ele><time>2026-04-26T06:15:48.915Z</time></trkpt><trkpt lat="43.92667021760642" lon="7.620506384245665"><ele>724.0</ele><time>2026-04-26T06:15:49.915Z</time></trkpt><trkpt lat="43.92654623559362" lon="7.6205507378056305"><ele>724.0</ele><time>2026-04-26T06:15:50.915Z</time></trkpt><trkpt lat="43.926451819109104" lon="7.620575881429466"><ele>724.0</ele><time>2026-04-26T06:15:51.915Z</time></trkpt><trkpt lat="43.92631756489699" lon="7.620578998753403"><ele>728.75</ele><time>2026-04-26T06:15:52.915Z</time></trkpt><trkpt lat="43.92616278235397" lon="7.62057086667075"><ele>733.5</ele><time>2026-04-26T06:15:53.915Z</time></trkpt><trkpt lat="43.926035665212844" lon="7.620570866674349"><ele>738.25</ele><time>2026-04-26T06:15:54.915Z</time></trkpt><trkpt lat="43.92591182793812" lon="7.620569895161834"><ele>743.0</ele><time>2026-04-26T06:15:55.915Z</time></trkpt><trkpt lat="43.92581158806153" lon="7.620567736491062"><ele>745.1666666666666</ele><time>2026-04-26T06:15:56.915Z</time></trkpt><trkpt lat="43.92571817759058" lon="7.620564954347337"><ele>747.3333333333333</ele><time>2026-04-26T06:15:57.915Z</time></trkpt><trkpt lat="43.92563634956141" lon="7.6205625171777935"><ele>749.5</ele><time>2026-04-26T06:15:58.915Z</time></trkpt><trkpt lat="43.92555761156546" lon="7.620562592941246"><ele>751.6666666666666</ele><time>2026-04-26T06:15:59.915Z</time></trkpt><trkpt lat="43.92547199378389" lon="7.62056645109842"><ele>753.8333333333334</ele><time>2026-04-26T06:16:00.915Z</time></trkpt><trkpt lat="43.925398502327596" lon="7.620575607390284"><ele>756.0</ele><time>2026-04-26T06:16:01.915Z</time></trkpt><trkpt lat="43.925300845113256" lon="7.6205953070149794"><ele>756.0</ele><time>2026-04-26T06:16:02.915Z</time></trkpt><trkpt lat="43.92517784970505" lon="7.620655854334343"><ele>756.0</ele><time>2026-04-26T06:16:03.915Z</time></trkpt><trkpt lat="43.925098895225965" lon="7.620728993147584"><ele>756.0</ele><time>2026-04-26T06:16:04.915Z</time></trkpt><trkpt lat="43.925049613203015" lon="7.620819959387629"><ele>756.0</ele><time>2026-04-26T06:16:05.915Z</time></trkpt><trkpt lat="43.92504307154596" lon="7.621010131350114"><ele>756.0</ele><time>2026-04-26T06:16:06.915Z</time></trkpt><trkpt lat="43.92507330084461" lon="7.62114866860325"><ele>758.5</ele><time>2026-04-26T06:16:07.915Z</time></trkpt><trkpt lat="43.92509854005682" lon="7.621318333074448"><ele>761.0</ele><time>2026-04-26T06:16:09.915Z</time></trkpt><trkpt lat="43.925042977593826" lon="7.621467287171751"><ele>763.5</ele><time>2026-04-26T06:16:11.915Z</time></trkpt><trkpt lat="43.92498899759671" lon="7.621576878046518"><ele>766.0</ele><time>2026-04-26T06:16:12.915Z</time></trkpt><trkpt lat="43.92490847350065" lon="7.621707181261491"><ele>766.0</ele><time>2026-04-26T06:16:13.915Z</time></trkpt><trkpt lat="43.9248383275377" lon="7.621798451186612"><ele>766.0</ele><time>2026-04-26T06:16:14.915Z</time></trkpt><trkpt lat="43.9247657652658" lon="7.6218769148588414"><ele>766.0</ele><time>2026-04-26T06:16:15.915Z</time></trkpt><trkpt lat="43.924687938651175" lon="7.621965472136625"><ele>766.0</ele><time>2026-04-26T06:16:16.915Z</time></trkpt><trkpt lat="43.9245928329919" lon="7.621981810728259"><ele>766.0</ele><time>2026-04-26T06:16:17.915Z</time></trkpt><trkpt lat="43.924518062592874" lon="7.6219698253774"><ele>766.0</ele><time>2026-04-26T06:16:18.915Z</time></trkpt><trkpt lat="43.92439667957225" lon="7.621977809056376"><ele>766.0</ele><time>2026-04-26T06:16:19.915Z</time></trkpt><trkpt lat="43.92428740867451" lon="7.621894192639591"><ele>766.0</ele><time>2026-04-26T06:16:20.915Z</time></trkpt><trkpt lat="43.924201466899554" lon="7.621807503388481"><ele>766.0</ele><time>2026-04-26T06:16:21.915Z</time></trkpt><trkpt lat="43.92413500452771" lon="7.621714104227385"><ele>766.0</ele><time>2026-04-26T06:16:22.915Z</time></trkpt><trkpt lat="43.92405791932515" lon="7.621638208723078"><ele>766.3333333333334</ele><time>2026-04-26T06:16:24.915Z</time></trkpt><trkpt lat="43.92389199482585" lon="7.621624625800682"><ele>766.6666666666666</ele><time>2026-04-26T06:16:26.915Z</time></trkpt><trkpt lat="43.92373301946563" lon="7.621810767036661"><ele>767.0</ele><time>2026-04-26T06:16:27.915Z</time></trkpt><trkpt lat="43.92365562657938" lon="7.6219979619339195"><ele>767.0</ele><time>2026-04-26T06:16:28.915Z</time></trkpt><trkpt lat="43.92359212947894" lon="7.622153316742395"><ele>767.0</ele><time>2026-04-26T06:16:29.915Z</time></trkpt><trkpt lat="43.92351943358145" lon="7.622300219912726"><ele>767.0</ele><time>2026-04-26T06:16:30.915Z</time></trkpt><trkpt lat="43.92346185616645" lon="7.622471507745907"><ele>767.0</ele><time>2026-04-26T06:16:31.915Z</time></trkpt><trkpt lat="43.923392530783644" lon="7.622647301273481"><ele>768.25</ele><time>2026-04-26T06:16:32.915Z</time></trkpt><trkpt lat="43.92330199168625" lon="7.622806854844693"><ele>769.5</ele><time>2026-04-26T06:16:33.915Z</time></trkpt><trkpt lat="43.92323275066195" lon="7.6229666500174575"><ele>770.75</ele><time>2026-04-26T06:16:34.914Z</time></trkpt><trkpt lat="43.92315775823793" lon="7.623099422948995"><ele>772.0</ele><time>2026-04-26T06:16:35.914Z</time></trkpt><trkpt lat="43.92308353448932" lon="7.62320545543367"><ele>771.9999999999999</ele><time>2026-04-26T06:16:36.914Z</time></trkpt><trkpt lat="43.92303758065148" lon="7.623286264182003"><ele>772.0</ele><time>2026-04-26T06:16:37.914Z</time></trkpt><trkpt lat="43.9229694576137" lon="7.623367617510476"><ele>772.0</ele><time>2026-04-26T06:16:39.914Z</time></trkpt><trkpt lat="43.922853672222715" lon="7.623321682873686"><ele>772.0</ele><time>2026-04-26T06:16:41.914Z</time></trkpt><trkpt lat="43.922885842675484" lon="7.623207675977371"><ele>771.9999999999999</ele><time>2026-04-26T06:16:42.914Z</time></trkpt><trkpt lat="43.9229471402891" lon="7.623144085295149"><ele>772.0</ele><time>2026-04-26T06:16:43.914Z</time></trkpt><trkpt lat="43.92301957619962" lon="7.623095398697047"><ele>772.0</ele><time>2026-04-26T06:16:44.914Z</time></trkpt><trkpt lat="43.92307760608374" lon="7.623033613094191"><ele>772.0</ele><time>2026-04-26T06:16:45.914Z</time></trkpt><trkpt lat="43.92312998959533" lon="7.622972196989983"><ele>772.0</ele><time>2026-04-26T06:16:46.914Z</time></trkpt><trkpt lat="43.92317423325364" lon="7.622888331323267"><ele>772.0</ele><time>2026-04-26T06:16:47.914Z</time></trkpt><trkpt lat="43.923212700790025" lon="7.622735716199491"><ele>772.0</ele><time>2026-04-26T06:16:48.914Z</time></trkpt><trkpt lat="43.92326634536699" lon="7.6225483238217295"><ele>774.75</ele><time>2026-04-26T06:16:49.914Z</time></trkpt><trkpt lat="43.92332418318369" lon="7.622377017711157"><ele>777.5</ele><time>2026-04-26T06:16:50.914Z</time></trkpt><trkpt lat="43.92336454622641" lon="7.622205427770658"><ele>780.25</ele><time>2026-04-26T06:16:51.914Z</time></trkpt><trkpt lat="43.92338988529964" lon="7.622037553565006"><ele>783.0</ele><time>2026-04-26T06:16:52.914Z</time></trkpt><trkpt lat="43.923430844232946" lon="7.621875230225361"><ele>783.0</ele><time>2026-04-26T06:16:53.914Z</time></trkpt><trkpt lat="43.92349017688221" lon="7.6217137422908685"><ele>783.0</ele><time>2026-04-26T06:16:54.914Z</time></trkpt><trkpt lat="43.92351785305604" lon="7.621545986318844"><ele>783.0</ele><time>2026-04-26T06:16:55.914Z</time></trkpt><trkpt lat="43.923541959969505" lon="7.621408986254864"><ele>783.0</ele><time>2026-04-26T06:16:56.914Z</time></trkpt><trkpt lat="43.92356776564436" lon="7.621272516731149"><ele>783.0</ele><time>2026-04-26T06:16:57.914Z</time></trkpt><trkpt lat="43.923611763367816" lon="7.621162287009048"><ele>783.0</ele><time>2026-04-26T06:16:58.914Z</time></trkpt><trkpt lat="43.923650017108784" lon="7.621050216065863"><ele>783.0</ele><time>2026-04-26T06:16:59.914Z</time></trkpt><trkpt lat="43.92369375556906" lon="7.620941319698823"><ele>783.0</ele><time>2026-04-26T06:17:00.914Z</time></trkpt><trkpt lat="43.923724416019795" lon="7.620840132141273"><ele>783.0</ele><time>2026-04-26T06:17:01.914Z</time></trkpt><trkpt lat="43.92379903951215" lon="7.620748347348578"><ele>783.0</ele><time>2026-04-26T06:17:02.914Z</time></trkpt><trkpt lat="43.923889346299816" lon="7.620659225051618"><ele>787.75</ele><time>2026-04-26T06:17:03.914Z</time></trkpt><trkpt lat="43.92398024515691" lon="7.620570868961956"><ele>792.5</ele><time>2026-04-26T06:17:04.914Z</time></trkpt><trkpt lat="43.92407420124084" lon="7.620502228051817"><ele>797.25</ele><time>2026-04-26T06:17:05.914Z</time></trkpt><trkpt lat="43.92416101582974" lon="7.620397595746105"><ele>802.0</ele><time>2026-04-26T06:17:06.914Z</time></trkpt><trkpt lat="43.92422343840668" lon="7.620236741060465"><ele>801.9999999999999</ele><time>2026-04-26T06:17:07.914Z</time></trkpt><trkpt lat="43.924174290836724" lon="7.620324059427927"><ele>802.0</ele><time>2026-04-26T06:17:08.914Z</time></trkpt><trkpt lat="43.92421090857988" lon="7.6201906076371815"><ele>802.0</ele><time>2026-04-26T06:17:09.914Z</time></trkpt><trkpt lat="43.924225415700526" lon="7.620060611479945"><ele>802.0</ele><time>2026-04-26T06:17:10.914Z</time></trkpt><trkpt lat="43.92423357607775" lon="7.619972535555448"><ele>801.9999999999999</ele><time>2026-04-26T06:17:11.914Z</time></trkpt><trkpt lat="43.92428068694728" lon="7.619842693467806"><ele>802.0</ele><time>2026-04-26T06:17:13.914Z</time></trkpt><trkpt lat="43.92435037808607" lon="7.619807999559964"><ele>801.8333333333333</ele><time>2026-04-26T06:17:14.914Z</time></trkpt><trkpt lat="43.92444337320536" lon="7.619824796191"><ele>801.6666666666666</ele><time>2026-04-26T06:17:15.914Z</time></trkpt><trkpt lat="43.92453174171953" lon="7.619881728036106"><ele>801.5</ele><time>2026-04-26T06:17:16.914Z</time></trkpt><trkpt lat="43.92459306077448" lon="7.61992187853504"><ele>801.3333333333333</ele><time>2026-04-26T06:17:17.914Z</time></trkpt><trkpt lat="43.9246637161503" lon="7.619943763730359"><ele>801.1666666666666</ele><time>2026-04-26T06:17:18.914Z</time></trkpt><trkpt lat="43.92474327754018" lon="7.61994535586934"><ele>801.0</ele><time>2026-04-26T06:17:19.914Z</time></trkpt><trkpt lat="43.924848957224505" lon="7.619923133855548"><ele>801.0</ele><time>2026-04-26T06:17:20.917Z</time></trkpt><trkpt lat="43.924935825647815" lon="7.6198326471644835"><ele>801.0</ele><time>2026-04-26T06:17:21.917Z</time></trkpt><trkpt lat="43.92497355455117" lon="7.61975847620643"><ele>801.0</ele><time>2026-04-26T06:17:22.916Z</time></trkpt><trkpt lat="43.92503858037044" lon="7.619657564376366"><ele>801.0</ele><time>2026-04-26T06:17:23.917Z</time></trkpt><trkpt lat="43.925101043052486" lon="7.619521512287323"><ele>801.0</ele><time>2026-04-26T06:17:24.916Z</time></trkpt><trkpt lat="43.92513838586826" lon="7.61937166405748"><ele>803.1999999999999</ele><time>2026-04-26T06:17:25.916Z</time></trkpt><trkpt lat="43.92518008077568" lon="7.619256927327893"><ele>805.4</ele><time>2026-04-26T06:17:26.917Z</time></trkpt><trkpt lat="43.92522266248022" lon="7.619175789471017"><ele>807.6</ele><time>2026-04-26T06:17:27.916Z</time></trkpt><trkpt lat="43.92531984856928" lon="7.619195895135517"><ele>809.8</ele><time>2026-04-26T06:17:28.916Z</time></trkpt><trkpt lat="43.92542694707072" lon="7.619194309807778"><ele>812.0</ele><time>2026-04-26T06:17:29.916Z</time></trkpt><trkpt lat="43.92553572696387" lon="7.619218295825665"><ele>812.0000000000001</ele><time>2026-04-26T06:17:30.916Z</time></trkpt><trkpt lat="43.9256486135216" lon="7.619251209248411"><ele>812.0</ele><time>2026-04-26T06:17:31.916Z</time></trkpt><trkpt lat="43.925732265173096" lon="7.619269437803947"><ele>812.0</ele><time>2026-04-26T06:17:32.917Z</time></trkpt><trkpt lat="43.925796840596476" lon="7.619270214965329"><ele>812.0</ele><time>2026-04-26T06:17:33.916Z</time></trkpt><trkpt lat="43.92587496053755" lon="7.619271264456923"><ele>812.0000000000001</ele><time>2026-04-26T06:17:34.916Z</time></trkpt><trkpt lat="43.92594597475233" lon="7.6192030047543495"><ele>812.0</ele><time>2026-04-26T06:17:35.916Z</time></trkpt><trkpt lat="43.92602120688589" lon="7.61914955956973"><ele>808.75</ele><time>2026-04-26T06:17:36.916Z</time></trkpt><trkpt lat="43.92610288082038" lon="7.619054496373297"><ele>805.5</ele><time>2026-04-26T06:17:37.916Z</time></trkpt><trkpt lat="43.92620505257107" lon="7.618900181402524"><ele>802.25</ele><time>2026-04-26T06:17:38.916Z</time></trkpt><trkpt lat="43.92627337552751" lon="7.618772308657325"><ele>799.0</ele><time>2026-04-26T06:17:39.916Z</time></trkpt><trkpt lat="43.92634619847158" lon="7.618661625912155"><ele>803.8000000000001</ele><time>2026-04-26T06:17:40.916Z</time></trkpt><trkpt lat="43.92641587715304" lon="7.61857285209363"><ele>808.6</ele><time>2026-04-26T06:17:41.916Z</time></trkpt><trkpt lat="43.92650257196141" lon="7.618503797421467"><ele>813.4</ele><time>2026-04-26T06:17:42.916Z</time></trkpt><trkpt lat="43.92660953107209" lon="7.618458858190394"><ele>818.2</ele><time>2026-04-26T06:17:43.916Z</time></trkpt><trkpt lat="43.92670053949874" lon="7.618421395375926"><ele>823.0</ele><time>2026-04-26T06:17:44.916Z</time></trkpt><trkpt lat="43.926771783365126" lon="7.618357310459505"><ele>823.0</ele><time>2026-04-26T06:17:45.916Z</time></trkpt><trkpt lat="43.926865392904006" lon="7.618312655344861"><ele>823.0</ele><time>2026-04-26T06:17:46.916Z</time></trkpt><trkpt lat="43.92695609356844" lon="7.61821269212933"><ele>823.0</ele><time>2026-04-26T06:17:47.916Z</time></trkpt><trkpt lat="43.92705873002784" lon="7.618160754690841"><ele>823.0</ele><time>2026-04-26T06:17:48.916Z</time></trkpt><trkpt lat="43.92717148932174" lon="7.618142824186459"><ele>823.0</ele><time>2026-04-26T06:17:49.916Z</time></trkpt><trkpt lat="43.92731512657807" lon="7.618104284486914"><ele>823.0</ele><time>2026-04-26T06:17:50.916Z</time></trkpt><trkpt lat="43.927483867471466" lon="7.618077252620223"><ele>823.0</ele><time>2026-04-26T06:17:51.916Z</time></trkpt><trkpt lat="43.92762805092532" lon="7.61803551989205"><ele>823.0</ele><time>2026-04-26T06:17:52.916Z</time></trkpt><trkpt lat="43.92777407579961" lon="7.618019417075616"><ele>824.8</ele><time>2026-04-26T06:17:53.916Z</time></trkpt><trkpt lat="43.92790347756297" lon="7.618023053797897"><ele>826.5999999999999</ele><time>2026-04-26T06:17:54.916Z</time></trkpt><trkpt lat="43.928006659269656" lon="7.617981907234944"><ele>828.4000000000001</ele><time>2026-04-26T06:17:55.916Z</time></trkpt><trkpt lat="43.92811087709803" lon="7.617990778041389"><ele>830.2</ele><time>2026-04-26T06:17:56.916Z</time></trkpt><trkpt lat="43.92819453382614" lon="7.618030541483382"><ele>832.0</ele><time>2026-04-26T06:17:57.916Z</time></trkpt><trkpt lat="43.92826490603023" lon="7.6180650188768215"><ele>830.3333333333333</ele><time>2026-04-26T06:17:58.916Z</time></trkpt><trkpt lat="43.92841179615452" lon="7.6181096319443435"><ele>828.6666666666667</ele><time>2026-04-26T06:18:00.915Z</time></trkpt><trkpt lat="43.928531168841424" lon="7.617972548452852"><ele>827.0</ele><time>2026-04-26T06:18:01.915Z</time></trkpt><trkpt lat="43.92846075881085" lon="7.617732667575965"><ele>834.8</ele><time>2026-04-26T06:18:02.915Z</time></trkpt><trkpt lat="43.928312031384216" lon="7.61773126776897"><ele>842.6</ele><time>2026-04-26T06:18:03.915Z</time></trkpt><trkpt lat="43.92824025002349" lon="7.617715591603716"><ele>850.3999999999999</ele><time>2026-04-26T06:18:04.915Z</time></trkpt><trkpt lat="43.928145867705744" lon="7.6177023157674935"><ele>858.1999999999999</ele><time>2026-04-26T06:18:05.915Z</time></trkpt><trkpt lat="43.92802438682349" lon="7.617693939237027"><ele>866.0</ele><time>2026-04-26T06:18:06.915Z</time></trkpt><trkpt lat="43.92790498742505" lon="7.617668229126363"><ele>866.0</ele><time>2026-04-26T06:18:07.915Z</time></trkpt><trkpt lat="43.92779925215592" lon="7.617635553168523"><ele>865.9999999999999</ele><time>2026-04-26T06:18:08.915Z</time></trkpt><trkpt lat="43.92769287161605" lon="7.617581305089423"><ele>865.9999999999999</ele><time>2026-04-26T06:18:09.915Z</time></trkpt><trkpt lat="43.92759360134912" lon="7.617518428381828"><ele>866.0</ele><time>2026-04-26T06:18:10.915Z</time></trkpt><trkpt lat="43.927514226668016" lon="7.617467592524389"><ele>866.0</ele><time>2026-04-26T06:18:11.915Z</time></trkpt><trkpt lat="43.92742402424921" lon="7.617401324751488"><ele>864.8</ele><time>2026-04-26T06:18:12.915Z</time></trkpt><trkpt lat="43.92731857409197" lon="7.6173487055259095"><ele>863.5999999999999</ele><time>2026-04-26T06:18:13.915Z</time></trkpt><trkpt lat="43.927241068126506" lon="7.6172682241668666"><ele>862.4</ele><time>2026-04-26T06:18:14.915Z</time></trkpt><trkpt lat="43.92716244488023" lon="7.617221059620301"><ele>861.2</ele><time>2026-04-26T06:18:15.915Z</time></trkpt><trkpt lat="43.92702583362049" lon="7.617243898732815"><ele>860.0</ele><time>2026-04-26T06:18:17.915Z</time></trkpt><trkpt lat="43.926939679722" lon="7.617270086353356"><ele>860.0</ele><time>2026-04-26T06:18:18.915Z</time></trkpt><trkpt lat="43.92684801021572" lon="7.61733158132634"><ele>860.0</ele><time>2026-04-26T06:18:19.915Z</time></trkpt><trkpt lat="43.92675802248382" lon="7.617392437143839"><ele>860.0</ele><time>2026-04-26T06:18:20.915Z</time></trkpt><trkpt lat="43.92665378146183" lon="7.617441989357068"><ele>860.0</ele><time>2026-04-26T06:18:21.915Z</time></trkpt><trkpt lat="43.926551204924905" lon="7.61748154717233"><ele>860.0</ele><time>2026-04-26T06:18:22.915Z</time></trkpt><trkpt lat="43.92643771311752" lon="7.6174961553545435"><ele>860.75</ele><time>2026-04-26T06:18:23.915Z</time></trkpt><trkpt lat="43.92632277933587" lon="7.6175099042069645"><ele>861.5</ele><time>2026-04-26T06:18:24.915Z</time></trkpt><trkpt lat="43.92621657114132" lon="7.61750405063253"><ele>862.25</ele><time>2026-04-26T06:18:25.915Z</time></trkpt><trkpt lat="43.92609053708877" lon="7.61751929873774"><ele>863.0</ele><time>2026-04-26T06:18:26.915Z</time></trkpt><trkpt lat="43.92596072973889" lon="7.617545374145466"><ele>864.4</ele><time>2026-04-26T06:18:27.915Z</time></trkpt><trkpt lat="43.92583201292821" lon="7.617569747911944"><ele>865.8</ele><time>2026-04-26T06:18:28.915Z</time></trkpt><trkpt lat="43.92570453568583" lon="7.617577198401339"><ele>867.2</ele><time>2026-04-26T06:18:29.915Z</time></trkpt><trkpt lat="43.92561149145583" lon="7.617585628264942"><ele>868.6</ele><time>2026-04-26T06:18:30.915Z</time></trkpt><trkpt lat="43.925533728427666" lon="7.617574112308173"><ele>870.0</ele><time>2026-04-26T06:18:31.915Z</time></trkpt><trkpt lat="43.925450535539575" lon="7.617535632188181"><ele>870.0</ele><time>2026-04-26T06:18:32.915Z</time></trkpt><trkpt lat="43.925364832219024" lon="7.617454821545851"><ele>870.0</ele><time>2026-04-26T06:18:33.915Z</time></trkpt><trkpt lat="43.92531016011323" lon="7.617380707611606"><ele>870.0</ele><time>2026-04-26T06:18:34.915Z</time></trkpt><trkpt lat="43.925265518839545" lon="7.617317540456828"><ele>870.0</ele><time>2026-04-26T06:18:35.915Z</time></trkpt><trkpt lat="43.92514701575213" lon="7.617280276888058"><ele>870.0</ele><time>2026-04-26T06:18:37.915Z</time></trkpt><trkpt lat="43.92505766766657" lon="7.617331675476844"><ele>872.5</ele><time>2026-04-26T06:18:38.915Z</time></trkpt><trkpt lat="43.92497817985924" lon="7.617459966110121"><ele>875.0</ele><time>2026-04-26T06:18:39.915Z</time></trkpt><trkpt lat="43.924923046842366" lon="7.617583501216758"><ele>877.5</ele><time>2026-04-26T06:18:40.915Z</time></trkpt><trkpt lat="43.924850391675186" lon="7.617753594695892"><ele>880.0</ele><time>2026-04-26T06:18:41.915Z</time></trkpt><trkpt lat="43.924792702976426" lon="7.617891818429463"><ele>875.8333333333333</ele><time>2026-04-26T06:18:42.915Z</time></trkpt><trkpt lat="43.924748047755955" lon="7.6179895612522825"><ele>871.6666666666666</ele><time>2026-04-26T06:18:43.915Z</time></trkpt><trkpt lat="43.92470613845576" lon="7.618058439306534"><ele>867.5</ele><time>2026-04-26T06:18:44.915Z</time></trkpt><trkpt lat="43.924660127083875" lon="7.61812453735104"><ele>863.3333333333333</ele><time>2026-04-26T06:18:45.915Z</time></trkpt><trkpt lat="43.924595506237594" lon="7.618182066294195"><ele>859.1666666666666</ele><time>2026-04-26T06:18:46.915Z</time></trkpt><trkpt lat="43.92450539533262" lon="7.618200799243214"><ele>855.0</ele><time>2026-04-26T06:18:47.915Z</time></trkpt><trkpt lat="43.924408032739585" lon="7.618146334089631"><ele>855.0</ele><time>2026-04-26T06:18:48.915Z</time></trkpt><trkpt lat="43.92429249503698" lon="7.618102792705303"><ele>855.0</ele><time>2026-04-26T06:18:49.915Z</time></trkpt><trkpt lat="43.92420334753214" lon="7.618043791375342"><ele>855.0</ele><time>2026-04-26T06:18:50.915Z</time></trkpt><trkpt lat="43.92412569149937" lon="7.6179870158147045"><ele>855.0</ele><time>2026-04-26T06:18:51.915Z</time></trkpt><trkpt lat="43.92407033704733" lon="7.617930861035435"><ele>855.0</ele><time>2026-04-26T06:18:52.915Z</time></trkpt><trkpt lat="43.92400695231319" lon="7.617811489321501"><ele>855.0</ele><time>2026-04-26T06:18:54.915Z</time></trkpt><trkpt lat="43.92409616769645" lon="7.617742321174357"><ele>855.0</ele><time>2026-04-26T06:18:55.915Z</time></trkpt><trkpt lat="43.9241781893629" lon="7.617848767507177"><ele>855.0</ele><time>2026-04-26T06:18:56.915Z</time></trkpt><trkpt lat="43.92423408171217" lon="7.617898063166899"><ele>855.0</ele><time>2026-04-26T06:18:57.915Z</time></trkpt><trkpt lat="43.92432152589773" lon="7.617934939952724"><ele>855.0</ele><time>2026-04-26T06:18:58.915Z</time></trkpt><trkpt lat="43.924400750117364" lon="7.6179795534559025"><ele>855.0</ele><time>2026-04-26T06:18:59.915Z</time></trkpt><trkpt lat="43.92446519088238" lon="7.618022205373096"><ele>855.0</ele><time>2026-04-26T06:19:00.915Z</time></trkpt><trkpt lat="43.924538559868644" lon="7.618032684507925"><ele>855.0</ele><time>2026-04-26T06:19:01.915Z</time></trkpt><trkpt lat="43.924605743693384" lon="7.617982406397118"><ele>855.0</ele><time>2026-04-26T06:19:02.915Z</time></trkpt><trkpt lat="43.92464665741597" lon="7.61789704525222"><ele>855.0</ele><time>2026-04-26T06:19:03.915Z</time></trkpt><trkpt lat="43.92469624378643" lon="7.6177939228241485"><ele>855.0</ele><time>2026-04-26T06:19:04.915Z</time></trkpt><trkpt lat="43.92473055566752" lon="7.617675415591121"><ele>859.1666666666666</ele><time>2026-04-26T06:19:05.915Z</time></trkpt><trkpt lat="43.92476501930148" lon="7.617569746514987"><ele>863.3333333333333</ele><time>2026-04-26T06:19:06.915Z</time></trkpt><trkpt lat="43.92478327374432" lon="7.617460889666794"><ele>867.5</ele><time>2026-04-26T06:19:07.915Z</time></trkpt><trkpt lat="43.92484449244048" lon="7.617356687797891"><ele>871.6666666666666</ele><time>2026-04-26T06:19:08.915Z</time></trkpt><trkpt lat="43.92487405249354" lon="7.617270713349778"><ele>875.8333333333333</ele><time>2026-04-26T06:19:09.915Z</time></trkpt><trkpt lat="43.924912660910955" lon="7.617180328899659"><ele>880.0</ele><time>2026-04-26T06:19:10.915Z</time></trkpt><trkpt lat="43.92499005054191" lon="7.617008176931771"><ele>885.25</ele><time>2026-04-26T06:19:12.915Z</time></trkpt><trkpt lat="43.925057172085374" lon="7.616933034366444"><ele>890.5</ele><time>2026-04-26T06:19:13.915Z</time></trkpt><trkpt lat="43.9251508442178" lon="7.616807019370112"><ele>895.75</ele><time>2026-04-26T06:19:15.915Z</time></trkpt><trkpt lat="43.9252702838006" lon="7.616791812449135"><ele>901.0</ele><time>2026-04-26T06:19:16.915Z</time></trkpt><trkpt lat="43.92538714956498" lon="7.6168764943300085"><ele>900.9999999999999</ele><time>2026-04-26T06:19:17.915Z</time></trkpt><trkpt lat="43.92546140285967" lon="7.616931767181863"><ele>901.0</ele><time>2026-04-26T06:19:18.915Z</time></trkpt><trkpt lat="43.92554244248706" lon="7.616972026942824"><ele>901.0</ele><time>2026-04-26T06:19:19.914Z</time></trkpt><trkpt lat="43.925623396301134" lon="7.617005776589931"><ele>901.0</ele><time>2026-04-26T06:19:20.914Z</time></trkpt><trkpt lat="43.92570996764066" lon="7.617017167476708"><ele>900.9999999999999</ele><time>2026-04-26T06:19:21.914Z</time></trkpt><trkpt lat="43.92579696404886" lon="7.61699716836658"><ele>901.0</ele><time>2026-04-26T06:19:22.914Z</time></trkpt><trkpt lat="43.92589233541318" lon="7.61696296141922"><ele>899.0</ele><time>2026-04-26T06:19:23.914Z</time></trkpt><trkpt lat="43.92600240356249" lon="7.616878599851895"><ele>897.0</ele><time>2026-04-26T06:19:24.914Z</time></trkpt><trkpt lat="43.9261150525606" lon="7.61682555980533"><ele>895.0</ele><time>2026-04-26T06:19:25.917Z</time></trkpt><trkpt lat="43.92624146143162" lon="7.616778408927838"><ele>893.0</ele><time>2026-04-26T06:19:26.917Z</time></trkpt><trkpt lat="43.92632900496154" lon="7.6167154422391175"><ele>893.0</ele><time>2026-04-26T06:19:27.917Z</time></trkpt><trkpt lat="43.926417015997906" lon="7.616687043191514"><ele>893.0</ele><time>2026-04-26T06:19:28.916Z</time></trkpt><trkpt lat="43.926495508698515" lon="7.61660013828853"><ele>893.0</ele><time>2026-04-26T06:19:29.917Z</time></trkpt><trkpt lat="43.92657735570475" lon="7.6165518105048164"><ele>893.0</ele><time>2026-04-26T06:19:30.917Z</time></trkpt><trkpt lat="43.92666108808402" lon="7.61646838127865"><ele>893.0</ele><time>2026-04-26T06:19:31.917Z</time></trkpt><trkpt lat="43.92674372948027" lon="7.616367579978128"><ele>892.5000000000001</ele><time>2026-04-26T06:19:32.917Z</time></trkpt><trkpt lat="43.926804785073564" lon="7.616284059694538"><ele>892.0</ele><time>2026-04-26T06:19:33.917Z</time></trkpt><trkpt lat="43.92685959549523" lon="7.616192241197872"><ele>891.5</ele><time>2026-04-26T06:19:34.917Z</time></trkpt><trkpt lat="43.926916280113" lon="7.616088851306556"><ele>891.0</ele><time>2026-04-26T06:19:35.916Z</time></trkpt><trkpt lat="43.92695649711022" lon="7.615990181510456"><ele>890.5000000000001</ele><time>2026-04-26T06:19:36.916Z</time></trkpt><trkpt lat="43.92704370978786" lon="7.6159398852886495"><ele>890.0</ele><time>2026-04-26T06:19:37.917Z</time></trkpt><trkpt lat="43.92710077076603" lon="7.615870601381391"><ele>895.4</ele><time>2026-04-26T06:19:38.917Z</time></trkpt><trkpt lat="43.92718818040707" lon="7.615817339131788"><ele>900.8</ele><time>2026-04-26T06:19:39.917Z</time></trkpt><trkpt lat="43.92730029361008" lon="7.61578566157329"><ele>906.2</ele><time>2026-04-26T06:19:40.917Z</time></trkpt><trkpt lat="43.9274063534751" lon="7.615771783509075"><ele>911.6</ele><time>2026-04-26T06:19:41.917Z</time></trkpt><trkpt lat="43.92752860643243" lon="7.615758634750808"><ele>917.0</ele><time>2026-04-26T06:19:42.917Z</time></trkpt><trkpt lat="43.927626087349466" lon="7.615749741457722"><ele>918.4000000000001</ele><time>2026-04-26T06:19:43.917Z</time></trkpt><trkpt lat="43.92774321768736" lon="7.615746531355904"><ele>919.8000000000001</ele><time>2026-04-26T06:19:44.917Z</time></trkpt><trkpt lat="43.92785598024439" lon="7.6157640700690035"><ele>921.2</ele><time>2026-04-26T06:19:45.917Z</time></trkpt><trkpt lat="43.92795993446141" lon="7.615796142468613"><ele>922.6</ele><time>2026-04-26T06:19:46.917Z</time></trkpt><trkpt lat="43.92805391388843" lon="7.615822998301465"><ele>924.0</ele><time>2026-04-26T06:19:47.917Z</time></trkpt><trkpt lat="43.928160206065535" lon="7.615841471760306"><ele>924.0</ele><time>2026-04-26T06:19:48.917Z</time></trkpt><trkpt lat="43.92825631536663" lon="7.615854324633231"><ele>924.0000000000001</ele><time>2026-04-26T06:19:49.917Z</time></trkpt><trkpt lat="43.928329108329834" lon="7.615859350501222"><ele>924.0000000000001</ele><time>2026-04-26T06:19:50.917Z</time></trkpt><trkpt lat="43.928459369726085" lon="7.615815870546791"><ele>924.0</ele><time>2026-04-26T06:19:52.917Z</time></trkpt><trkpt lat="43.928579040445236" lon="7.615738619733647"><ele>924.0</ele><time>2026-04-26T06:19:54.917Z</time></trkpt><trkpt lat="43.92866130275996" lon="7.615653818424559"><ele>925.0</ele><time>2026-04-26T06:19:55.917Z</time></trkpt><trkpt lat="43.92873453551422" lon="7.615538735756614"><ele>926.0000000000001</ele><time>2026-04-26T06:19:56.917Z</time></trkpt><trkpt lat="43.928798298757364" lon="7.615401955904981"><ele>927.0000000000001</ele><time>2026-04-26T06:19:57.917Z</time></trkpt><trkpt lat="43.92885498457715" lon="7.615242669536645"><ele>928.0</ele><time>2026-04-26T06:19:58.917Z</time></trkpt><trkpt lat="43.92888764831316" lon="7.615122531505847"><ele>929.0</ele><time>2026-04-26T06:19:59.917Z</time></trkpt><trkpt lat="43.92891565936842" lon="7.6149963501193945"><ele>929.0</ele><time>2026-04-26T06:20:00.917Z</time></trkpt><trkpt lat="43.92894079114933" lon="7.614856533353641"><ele>929.0000000000001</ele><time>2026-04-26T06:20:01.917Z</time></trkpt><trkpt lat="43.928959681215375" lon="7.61465727217034"><ele>929.0000000000001</ele><time>2026-04-26T06:20:02.917Z</time></trkpt><trkpt lat="43.92897384513426" lon="7.614503950273098"><ele>929.0</ele><time>2026-04-26T06:20:03.917Z</time></trkpt><trkpt lat="43.9289889530228" lon="7.614386214966795"><ele>929.0</ele><time>2026-04-26T06:20:04.917Z</time></trkpt><trkpt lat="43.92900767872632" lon="7.614285671226667"><ele>932.4000000000001</ele><time>2026-04-26T06:20:05.917Z</time></trkpt><trkpt lat="43.929031792741064" lon="7.614123846444838"><ele>935.8000000000001</ele><time>2026-04-26T06:20:07.917Z</time></trkpt><trkpt lat="43.929106228405466" lon="7.614039736653861"><ele>939.1999999999999</ele><time>2026-04-26T06:20:08.917Z</time></trkpt><trkpt lat="43.92920721290075" lon="7.613991620808204"><ele>942.5999999999999</ele><time>2026-04-26T06:20:09.917Z</time></trkpt><trkpt lat="43.92929804096786" lon="7.613967972730699"><ele>946.0</ele><time>2026-04-26T06:20:10.917Z</time></trkpt><trkpt lat="43.9294277288334" lon="7.613868606208628"><ele>944.25</ele><time>2026-04-26T06:20:12.917Z</time></trkpt><trkpt lat="43.929516100244335" lon="7.613763523311349"><ele>942.5</ele><time>2026-04-26T06:20:13.917Z</time></trkpt><trkpt lat="43.929573171785755" lon="7.613625562318422"><ele>940.75</ele><time>2026-04-26T06:20:14.917Z</time></trkpt><trkpt lat="43.929608456882555" lon="7.613427658220418"><ele>939.0</ele><time>2026-04-26T06:20:15.917Z</time></trkpt><trkpt lat="43.9296032153338" lon="7.613276963923289"><ele>939.0</ele><time>2026-04-26T06:20:16.917Z</time></trkpt><trkpt lat="43.929596096795905" lon="7.613148158655121"><ele>939.0</ele><time>2026-04-26T06:20:17.917Z</time></trkpt><trkpt lat="43.92959364756321" lon="7.613051660147391"><ele>939.0</ele><time>2026-04-26T06:20:18.917Z</time></trkpt><trkpt lat="43.929599441298315" lon="7.612941481724994"><ele>939.0</ele><time>2026-04-26T06:20:20.917Z</time></trkpt><trkpt lat="43.929709981523686" lon="7.61283802185246"><ele>939.0</ele><time>2026-04-26T06:20:22.917Z</time></trkpt><trkpt lat="43.92977739722777" lon="7.612800821205056"><ele>939.0</ele><time>2026-04-26T06:20:23.917Z</time></trkpt><trkpt lat="43.92985398707084" lon="7.612745238441208"><ele>939.1666666666666</ele><time>2026-04-26T06:20:24.917Z</time></trkpt><trkpt lat="43.929936452431186" lon="7.612656751490494"><ele>939.3333333333333</ele><time>2026-04-26T06:20:25.917Z</time></trkpt><trkpt lat="43.92997718266784" lon="7.6125616407049455"><ele>939.5</ele><time>2026-04-26T06:20:26.917Z</time></trkpt><trkpt lat="43.93003432088732" lon="7.612491284702267"><ele>939.6666666666666</ele><time>2026-04-26T06:20:27.917Z</time></trkpt><trkpt lat="43.93008259564275" lon="7.612396284320487"><ele>939.8333333333333</ele><time>2026-04-26T06:20:28.917Z</time></trkpt><trkpt lat="43.93012816518247" lon="7.612294081598813"><ele>940.0</ele><time>2026-04-26T06:20:29.917Z</time></trkpt><trkpt lat="43.930181401289545" lon="7.612142442453705"><ele>940.0</ele><time>2026-04-26T06:20:30.917Z</time></trkpt><trkpt lat="43.93021084717995" lon="7.612010303440238"><ele>940.0</ele><time>2026-04-26T06:20:31.917Z</time></trkpt><trkpt lat="43.93023752693075" lon="7.611879843143106"><ele>940.0</ele><time>2026-04-26T06:20:32.916Z</time></trkpt><trkpt lat="43.93028810739877" lon="7.611748545460207"><ele>940.0</ele><time>2026-04-26T06:20:33.916Z</time></trkpt><trkpt lat="43.93034234515827" lon="7.611637736005083"><ele>940.0</ele><time>2026-04-26T06:20:34.916Z</time></trkpt><trkpt lat="43.930415894836415" lon="7.611590002948423"><ele>946.75</ele><time>2026-04-26T06:20:35.916Z</time></trkpt><trkpt lat="43.93050942036276" lon="7.61154312364462"><ele>953.5</ele><time>2026-04-26T06:20:36.916Z</time></trkpt><trkpt lat="43.93062480558811" lon="7.611520670652352"><ele>960.25</ele><time>2026-04-26T06:20:37.916Z</time></trkpt><trkpt lat="43.930752592072416" lon="7.61153983481879"><ele>967.0</ele><time>2026-04-26T06:20:38.916Z</time></trkpt><trkpt lat="43.930883932446115" lon="7.611579484717176"><ele>968.0</ele><time>2026-04-26T06:20:39.916Z</time></trkpt><trkpt lat="43.93097941707945" lon="7.611628979541494"><ele>969.0</ele><time>2026-04-26T06:20:40.916Z</time></trkpt><trkpt lat="43.93108642677544" lon="7.611691878148694"><ele>970.0</ele><time>2026-04-26T06:20:41.916Z</time></trkpt><trkpt lat="43.93116668477227" lon="7.611754951125893"><ele>971.0</ele><time>2026-04-26T06:20:42.916Z</time></trkpt><trkpt lat="43.93124859751168" lon="7.611820642477278"><ele>972.0</ele><time>2026-04-26T06:20:43.916Z</time></trkpt><trkpt lat="43.931323698347754" lon="7.611855980264342"><ele>972.0</ele><time>2026-04-26T06:20:44.916Z</time></trkpt><trkpt lat="43.93141103550278" lon="7.6119171938371455"><ele>972.0</ele><time>2026-04-26T06:20:46.916Z</time></trkpt><trkpt lat="43.93155545229045" lon="7.611780762614579"><ele>972.0</ele><time>2026-04-26T06:20:48.916Z</time></trkpt><trkpt lat="43.93144749850741" lon="7.611530855209463"><ele>972.0</ele><time>2026-04-26T06:20:49.916Z</time></trkpt><trkpt lat="43.931287190455976" lon="7.611574284492463"><ele>972.0</ele><time>2026-04-26T06:20:50.916Z</time></trkpt><trkpt lat="43.93120428746209" lon="7.611542931753403"><ele>972.0</ele><time>2026-04-26T06:20:51.916Z</time></trkpt><trkpt lat="43.93111653903508" lon="7.611500407010976"><ele>972.0</ele><time>2026-04-26T06:20:52.916Z</time></trkpt><trkpt lat="43.931019814846444" lon="7.611447340809599"><ele>972.0</ele><time>2026-04-26T06:20:53.916Z</time></trkpt><trkpt lat="43.93092505224446" lon="7.611390727238992"><ele>971.0</ele><time>2026-04-26T06:20:54.916Z</time></trkpt><trkpt lat="43.93080980254229" lon="7.611307227658402"><ele>970.0</ele><time>2026-04-26T06:20:55.916Z</time></trkpt><trkpt lat="43.93070911158198" lon="7.6112598723081115"><ele>969.0</ele><time>2026-04-26T06:20:56.916Z</time></trkpt><trkpt lat="43.93060511170247" lon="7.611251029685819"><ele>968.0</ele><time>2026-04-26T06:20:57.916Z</time></trkpt><trkpt lat="43.93052142383743" lon="7.611249064713334"><ele>967.0</ele><time>2026-04-26T06:20:58.916Z</time></trkpt><trkpt lat="43.93041226513417" lon="7.611275629284909"><ele>967.0</ele><time>2026-04-26T06:20:59.916Z</time></trkpt><trkpt lat="43.930321556405524" lon="7.6113255722840245"><ele>967.0</ele><time>2026-04-26T06:21:00.916Z</time></trkpt><trkpt lat="43.930231971586515" lon="7.611398550559041"><ele>967.0</ele><time>2026-04-26T06:21:01.916Z</time></trkpt><trkpt lat="43.930138683986165" lon="7.611486381590946"><ele>967.0</ele><time>2026-04-26T06:21:02.916Z</time></trkpt><trkpt lat="43.93004885037037" lon="7.611597778474226"><ele>967.0</ele><time>2026-04-26T06:21:03.916Z</time></trkpt><trkpt lat="43.92995510652796" lon="7.611684696970047"><ele>966.4999999999999</ele><time>2026-04-26T06:21:04.916Z</time></trkpt><trkpt lat="43.92987883942646" lon="7.611778081646092"><ele>966.0</ele><time>2026-04-26T06:21:05.916Z</time></trkpt><trkpt lat="43.929816328544604" lon="7.611836423037629"><ele>965.5</ele><time>2026-04-26T06:21:06.916Z</time></trkpt><trkpt lat="43.92976531526332" lon="7.611892828752408"><ele>965.0</ele><time>2026-04-26T06:21:07.916Z</time></trkpt><trkpt lat="43.929710191499105" lon="7.611951531714611"><ele>964.4999999999999</ele><time>2026-04-26T06:21:08.916Z</time></trkpt><trkpt lat="43.929630842879305" lon="7.612033530002696"><ele>964.0</ele><time>2026-04-26T06:21:09.916Z</time></trkpt><trkpt lat="43.929537123997875" lon="7.612128382871735"><ele>963.9999999999999</ele><time>2026-04-26T06:21:10.916Z</time></trkpt><trkpt lat="43.92945619251063" lon="7.61220726101949"><ele>964.0</ele><time>2026-04-26T06:21:11.916Z</time></trkpt><trkpt lat="43.929401296176074" lon="7.612257221868835"><ele>964.0</ele><time>2026-04-26T06:21:12.916Z</time></trkpt><trkpt lat="43.92933231034606" lon="7.612328881326859"><ele>964.0</ele><time>2026-04-26T06:21:13.916Z</time></trkpt><trkpt lat="43.9292484356598" lon="7.612376576036718"><ele>963.9999999999999</ele><time>2026-04-26T06:21:14.916Z</time></trkpt><trkpt lat="43.929178731240846" lon="7.612431451877271"><ele>964.0</ele><time>2026-04-26T06:21:15.916Z</time></trkpt><trkpt lat="43.92914417017673" lon="7.6125109042183965"><ele>967.4000000000001</ele><time>2026-04-26T06:21:16.916Z</time></trkpt><trkpt lat="43.92905507601791" lon="7.612593339403509"><ele>970.8000000000001</ele><time>2026-04-26T06:21:17.916Z</time></trkpt><trkpt lat="43.928938105623885" lon="7.612668891339341"><ele>974.1999999999999</ele><time>2026-04-26T06:21:18.916Z</time></trkpt><trkpt lat="43.92883689337157" lon="7.612723707177957"><ele>977.5999999999999</ele><time>2026-04-26T06:21:19.916Z</time></trkpt><trkpt lat="43.92875166948466" lon="7.612743095483703"><ele>981.0</ele><time>2026-04-26T06:21:20.916Z</time></trkpt><trkpt lat="43.92866852272255" lon="7.612757833118132"><ele>981.4</ele><time>2026-04-26T06:21:21.916Z</time></trkpt><trkpt lat="43.92858058114828" lon="7.612823507734278"><ele>981.8</ele><time>2026-04-26T06:21:22.916Z</time></trkpt><trkpt lat="43.9285127885424" lon="7.612897001928107"><ele>982.1999999999999</ele><time>2026-04-26T06:21:23.916Z</time></trkpt><trkpt lat="43.928435188503464" lon="7.612987085208153"><ele>982.5999999999999</ele><time>2026-04-26T06:21:24.916Z</time></trkpt><trkpt lat="43.92836603108306" lon="7.613062943965767"><ele>983.0</ele><time>2026-04-26T06:21:25.916Z</time></trkpt><trkpt lat="43.92823635725269" lon="7.613135261918002"><ele>983.0000000000001</ele><time>2026-04-26T06:21:27.916Z</time></trkpt><trkpt lat="43.928230864810615" lon="7.61300156944503"><ele>983.0</ele><time>2026-04-26T06:21:28.916Z</time></trkpt><trkpt lat="43.92829227108957" lon="7.612956633230168"><ele>983.0</ele><time>2026-04-26T06:21:29.916Z</time></trkpt><trkpt lat="43.92833787791222" lon="7.612890194101795"><ele>983.0</ele><time>2026-04-26T06:21:30.916Z</time></trkpt><trkpt lat="43.928413394649034" lon="7.61279391128506"><ele>983.0000000000001</ele><time>2026-04-26T06:21:31.917Z</time></trkpt><trkpt lat="43.928475356105395" lon="7.612723630846824"><ele>983.0</ele><time>2026-04-26T06:21:32.918Z</time></trkpt><trkpt lat="43.92855123811536" lon="7.612639199284274"><ele>982.6666666666667</ele><time>2026-04-26T06:21:33.918Z</time></trkpt><trkpt lat="43.928639124774406" lon="7.612547192236938"><ele>982.3333333333334</ele><time>2026-04-26T06:21:34.918Z</time></trkpt><trkpt lat="43.928707553680994" lon="7.6124778924346925"><ele>982.0</ele><time>2026-04-26T06:21:35.917Z</time></trkpt><trkpt lat="43.928771282005286" lon="7.612404608270958"><ele>981.6666666666667</ele><time>2026-04-26T06:21:36.917Z</time></trkpt><trkpt lat="43.92882548340954" lon="7.612339317947667"><ele>981.3333333333334</ele><time>2026-04-26T06:21:37.918Z</time></trkpt><trkpt lat="43.92887909932511" lon="7.612237226039853"><ele>981.0</ele><time>2026-04-26T06:21:38.917Z</time></trkpt><trkpt lat="43.92891520158152" lon="7.612130282976215"><ele>981.0</ele><time>2026-04-26T06:21:39.917Z</time></trkpt><trkpt lat="43.92895080157533" lon="7.611997711479653"><ele>980.9999999999999</ele><time>2026-04-26T06:21:40.917Z</time></trkpt><trkpt lat="43.92898591336525" lon="7.6118612514190644"><ele>980.9999999999999</ele><time>2026-04-26T06:21:41.917Z</time></trkpt><trkpt lat="43.929025524574826" lon="7.611715527810539"><ele>981.0</ele><time>2026-04-26T06:21:42.917Z</time></trkpt><trkpt lat="43.929056191328065" lon="7.611604083420572"><ele>981.0</ele><time>2026-04-26T06:21:43.917Z</time></trkpt><trkpt lat="43.92909225477561" lon="7.611525644013877"><ele>982.0</ele><time>2026-04-26T06:21:44.917Z</time></trkpt><trkpt lat="43.92912508409274" lon="7.611382095827266"><ele>983.0</ele><time>2026-04-26T06:21:47.917Z</time></trkpt><trkpt lat="43.92926090962545" lon="7.611256341705805"><ele>984.0</ele><time>2026-04-26T06:21:48.917Z</time></trkpt><trkpt lat="43.929354351379075" lon="7.611176180062832"><ele>985.0</ele><time>2026-04-26T06:21:49.917Z</time></trkpt><trkpt lat="43.92944265408753" lon="7.611105444128267"><ele>989.6</ele><time>2026-04-26T06:21:50.917Z</time></trkpt><trkpt lat="43.92952436714958" lon="7.611039987058953"><ele>994.2</ele><time>2026-04-26T06:21:51.917Z</time></trkpt><trkpt lat="43.92959919963579" lon="7.610976807649184"><ele>998.8</ele><time>2026-04-26T06:21:52.917Z</time></trkpt><trkpt lat="43.929684287850556" lon="7.610900058032383"><ele>1003.4</ele><time>2026-04-26T06:21:53.917Z</time></trkpt><trkpt lat="43.92978097416995" lon="7.610821186060747"><ele>1008.0</ele><time>2026-04-26T06:21:54.917Z</time></trkpt><trkpt lat="43.929885066297345" lon="7.610768596361779"><ele>1008.0</ele><time>2026-04-26T06:21:55.917Z</time></trkpt><trkpt lat="43.92999147511861" lon="7.610681563324395"><ele>1008.0</ele><time>2026-04-26T06:21:56.917Z</time></trkpt><trkpt lat="43.93008587963564" lon="7.610613141376953"><ele>1008.0</ele><time>2026-04-26T06:21:57.917Z</time></trkpt><trkpt lat="43.93015444783377" lon="7.61058145022144"><ele>1008.0</ele><time>2026-04-26T06:21:58.917Z</time></trkpt><trkpt lat="43.93021912147946" lon="7.610555200773086"><ele>1008.0</ele><time>2026-04-26T06:21:59.917Z</time></trkpt><trkpt lat="43.93028809853851" lon="7.610531914678225"><ele>1008.0</ele><time>2026-04-26T06:22:00.917Z</time></trkpt><trkpt lat="43.930413491016274" lon="7.610523107078333"><ele>1009.25</ele><time>2026-04-26T06:22:01.917Z</time></trkpt><trkpt lat="43.93055469143623" lon="7.61055675278819"><ele>1010.5</ele><time>2026-04-26T06:22:02.917Z</time></trkpt><trkpt lat="43.930682626079154" lon="7.610579610830118"><ele>1011.75</ele><time>2026-04-26T06:22:03.917Z</time></trkpt><trkpt lat="43.93080757837558" lon="7.6105737646752525"><ele>1013.0</ele><time>2026-04-26T06:22:04.917Z</time></trkpt><trkpt lat="43.93092153763277" lon="7.6105718188194444"><ele>1013.0</ele><time>2026-04-26T06:22:05.917Z</time></trkpt><trkpt lat="43.931029660487425" lon="7.610539359759317"><ele>1013.0</ele><time>2026-04-26T06:22:06.917Z</time></trkpt><trkpt lat="43.93113127362506" lon="7.610546131976982"><ele>1013.0</ele><time>2026-04-26T06:22:07.917Z</time></trkpt><trkpt lat="43.93124441188342" lon="7.610525814921003"><ele>1013.0</ele><time>2026-04-26T06:22:08.917Z</time></trkpt><trkpt lat="43.931367833590635" lon="7.610499070612139"><ele>1013.0</ele><time>2026-04-26T06:22:09.917Z</time></trkpt><trkpt lat="43.93149061592067" lon="7.610469615038593"><ele>1013.0</ele><time>2026-04-26T06:22:10.917Z</time></trkpt><trkpt lat="43.931604004269076" lon="7.610441455539465"><ele>1013.0</ele><time>2026-04-26T06:22:11.917Z</time></trkpt><trkpt lat="43.931717200504394" lon="7.6104002356925395"><ele>1013.0</ele><time>2026-04-26T06:22:12.917Z</time></trkpt><trkpt lat="43.93180008662339" lon="7.610358768156812"><ele>1013.0</ele><time>2026-04-26T06:22:13.917Z</time></trkpt><trkpt lat="43.931877718215645" lon="7.6103055712897305"><ele>1014.2</ele><time>2026-04-26T06:22:14.917Z</time></trkpt><trkpt lat="43.931973862628155" lon="7.610303556570987"><ele>1015.4</ele><time>2026-04-26T06:22:15.917Z</time></trkpt><trkpt lat="43.93207074170466" lon="7.610306303767527"><ele>1016.6000000000001</ele><time>2026-04-26T06:22:16.917Z</time></trkpt><trkpt lat="43.932160492280246" lon="7.610381024611232"><ele>1017.8000000000001</ele><time>2026-04-26T06:22:17.917Z</time></trkpt><trkpt lat="43.93223251689679" lon="7.610468613020771"><ele>1019.0</ele><time>2026-04-26T06:22:18.917Z</time></trkpt><trkpt lat="43.9323443879138" lon="7.610521020206781"><ele>1019.0</ele><time>2026-04-26T06:22:19.917Z</time></trkpt><trkpt lat="43.932463630972336" lon="7.610532039458412"><ele>1019.0</ele><time>2026-04-26T06:22:20.917Z</time></trkpt><trkpt lat="43.9325734011971" lon="7.610499821445871"><ele>1019.0</ele><time>2026-04-26T06:22:21.917Z</time></trkpt><trkpt lat="43.932687732972944" lon="7.610490354792988"><ele>1019.0</ele><time>2026-04-26T06:22:22.917Z</time></trkpt><trkpt lat="43.932796964237596" lon="7.6104778517385405"><ele>1020.8000000000001</ele><time>2026-04-26T06:22:23.917Z</time></trkpt><trkpt lat="43.93290475928295" lon="7.610454796608939"><ele>1022.6000000000001</ele><time>2026-04-26T06:22:24.917Z</time></trkpt><trkpt lat="43.93299570813417" lon="7.610429764805345"><ele>1024.4</ele><time>2026-04-26T06:22:25.917Z</time></trkpt><trkpt lat="43.9330821713505" lon="7.61040596762892"><ele>1026.2</ele><time>2026-04-26T06:22:26.917Z</time></trkpt><trkpt lat="43.93315025023278" lon="7.610396286909477"><ele>1028.0</ele><time>2026-04-26T06:22:27.917Z</time></trkpt><trkpt lat="43.93311342882075" lon="7.610187884810509"><ele>1032.0</ele><time>2026-04-26T06:22:32.917Z</time></trkpt><trkpt lat="43.93365356616489" lon="7.6103555644957765"><ele>1037.2</ele><time>2026-04-26T06:22:33.917Z</time></trkpt><trkpt lat="43.93373015387187" lon="7.610250864006232"><ele>1042.4</ele><time>2026-04-26T06:22:34.917Z</time></trkpt><trkpt lat="43.933823202947686" lon="7.61011942872233"><ele>1047.6</ele><time>2026-04-26T06:22:35.917Z</time></trkpt><trkpt lat="43.93390978399425" lon="7.610029131268595"><ele>1052.8</ele><time>2026-04-26T06:22:36.917Z</time></trkpt><trkpt lat="43.933988683272645" lon="7.60997640149951"><ele>1058.0</ele><time>2026-04-26T06:22:37.917Z</time></trkpt><trkpt lat="43.93407833290517" lon="7.609961827203773"><ele>1058.0</ele><time>2026-04-26T06:22:38.917Z</time></trkpt><trkpt lat="43.93415839377008" lon="7.609985610461426"><ele>1058.0</ele><time>2026-04-26T06:22:39.917Z</time></trkpt><trkpt lat="43.93424248208679" lon="7.609983843654981"><ele>1058.0</ele><time>2026-04-26T06:22:40.917Z</time></trkpt><trkpt lat="43.93435014505595" lon="7.6100469059240625"><ele>1058.0</ele><time>2026-04-26T06:22:41.917Z</time></trkpt><trkpt lat="43.934449800921755" lon="7.610175383028654"><ele>1058.0</ele><time>2026-04-26T06:22:42.917Z</time></trkpt><trkpt lat="43.93453385849705" lon="7.610276947719357"><ele>1056.5</ele><time>2026-04-26T06:22:43.917Z</time></trkpt><trkpt lat="43.93464251786535" lon="7.610364037794115"><ele>1055.0</ele><time>2026-04-26T06:22:44.917Z</time></trkpt><trkpt lat="43.93475047351981" lon="7.610464490689337"><ele>1053.5</ele><time>2026-04-26T06:22:45.917Z</time></trkpt><trkpt lat="43.934864016640965" lon="7.610526622033186"><ele>1052.0</ele><time>2026-04-26T06:22:46.917Z</time></trkpt><trkpt lat="43.93500453904341" lon="7.610616464259131"><ele>1058.5</ele><time>2026-04-26T06:22:47.917Z</time></trkpt><trkpt lat="43.935138941428" lon="7.610710619391018"><ele>1065.0</ele><time>2026-04-26T06:22:48.917Z</time></trkpt><trkpt lat="43.93526348456402" lon="7.6107824489950255"><ele>1071.5</ele><time>2026-04-26T06:22:49.917Z</time></trkpt><trkpt lat="43.93537569674473" lon="7.6108679705244455"><ele>1078.0</ele><time>2026-04-26T06:22:50.917Z</time></trkpt><trkpt lat="43.935493712169595" lon="7.610950324459413"><ele>1078.0</ele><time>2026-04-26T06:22:51.917Z</time></trkpt><trkpt lat="43.93559423886855" lon="7.6110274487287635"><ele>1078.0</ele><time>2026-04-26T06:22:52.917Z</time></trkpt><trkpt lat="43.93571091478966" lon="7.6111255958709245"><ele>1078.0</ele><time>2026-04-26T06:22:53.917Z</time></trkpt><trkpt lat="43.935833322476" lon="7.611214680028587"><ele>1078.0</ele><time>2026-04-26T06:22:54.917Z</time></trkpt><trkpt lat="43.935934789150835" lon="7.611319738104555"><ele>1078.75</ele><time>2026-04-26T06:22:55.916Z</time></trkpt><trkpt lat="43.936031288487634" lon="7.611461583453172"><ele>1079.5</ele><time>2026-04-26T06:22:56.916Z</time></trkpt><trkpt lat="43.936139401203135" lon="7.611560571461961"><ele>1080.25</ele><time>2026-04-26T06:22:57.916Z</time></trkpt><trkpt lat="43.93623867521056" lon="7.611653158494748"><ele>1081.0</ele><time>2026-04-26T06:22:58.916Z</time></trkpt><trkpt lat="43.93632362898742" lon="7.611772883746884"><ele>1081.0</ele><time>2026-04-26T06:22:59.916Z</time></trkpt><trkpt lat="43.93639096801015" lon="7.611848907277545"><ele>1081.0</ele><time>2026-04-26T06:23:00.916Z</time></trkpt><trkpt lat="43.93648812947173" lon="7.611882714239583"><ele>1081.0</ele><time>2026-04-26T06:23:01.916Z</time></trkpt><trkpt lat="43.93659143883105" lon="7.61188361319878"><ele>1081.0</ele><time>2026-04-26T06:23:02.916Z</time></trkpt><trkpt lat="43.93667561090083" lon="7.611892179333136"><ele>1081.0</ele><time>2026-04-26T06:23:03.916Z</time></trkpt><trkpt lat="43.93675837577772" lon="7.611898212079267"><ele>1080.6</ele><time>2026-04-26T06:23:04.916Z</time></trkpt><trkpt lat="43.93682701828715" lon="7.611914113962567"><ele>1080.1999999999998</ele><time>2026-04-26T06:23:05.916Z</time></trkpt><trkpt lat="43.936902101542444" lon="7.611952418696261"><ele>1079.8000000000002</ele><time>2026-04-26T06:23:06.916Z</time></trkpt><trkpt lat="43.93697153932006" lon="7.612029261299873"><ele>1079.4</ele><time>2026-04-26T06:23:07.916Z</time></trkpt><trkpt lat="43.9370520186901" lon="7.612132855969568"><ele>1079.0</ele><time>2026-04-26T06:23:08.916Z</time></trkpt><trkpt lat="43.93713325562922" lon="7.612247809373203"><ele>1079.0</ele><time>2026-04-26T06:23:09.916Z</time></trkpt><trkpt lat="43.937217150994464" lon="7.6123561360159675"><ele>1079.0</ele><time>2026-04-26T06:23:10.916Z</time></trkpt><trkpt lat="43.93730911275338" lon="7.612440316506776"><ele>1079.0</ele><time>2026-04-26T06:23:11.916Z</time></trkpt><trkpt lat="43.9374078633719" lon="7.612505641567854"><ele>1079.0</ele><time>2026-04-26T06:23:12.916Z</time></trkpt><trkpt lat="43.93749376135411" lon="7.61255847022727"><ele>1079.0</ele><time>2026-04-26T06:23:13.916Z</time></trkpt><trkpt lat="43.93756474158031" lon="7.612580995415113"><ele>1082.5</ele><time>2026-04-26T06:23:14.916Z</time></trkpt><trkpt lat="43.93763723122766" lon="7.612636620363998"><ele>1086.0</ele><time>2026-04-26T06:23:15.916Z</time></trkpt><trkpt lat="43.93771817492947" lon="7.612749554562179"><ele>1089.5</ele><time>2026-04-26T06:23:16.916Z</time></trkpt><trkpt lat="43.93780021932505" lon="7.61287905596673"><ele>1093.0</ele><time>2026-04-26T06:23:17.916Z</time></trkpt><trkpt lat="43.937913967422865" lon="7.612991979428719"><ele>1093.0</ele><time>2026-04-26T06:23:18.916Z</time></trkpt><trkpt lat="43.93799009210779" lon="7.613111728326626"><ele>1093.0</ele><time>2026-04-26T06:23:19.916Z</time></trkpt><trkpt lat="43.93808189020795" lon="7.613179189628287"><ele>1093.0</ele><time>2026-04-26T06:23:20.916Z</time></trkpt><trkpt lat="43.938161780246276" lon="7.613306035285913"><ele>1093.0</ele><time>2026-04-26T06:23:21.916Z</time></trkpt><trkpt lat="43.9382368209246" lon="7.613446740185246"><ele>1093.0</ele><time>2026-04-26T06:23:22.916Z</time></trkpt><trkpt lat="43.938336340993885" lon="7.613598991950906"><ele>1093.0</ele><time>2026-04-26T06:23:23.916Z</time></trkpt><trkpt lat="43.93840388853053" lon="7.613724766340004"><ele>1093.0</ele><time>2026-04-26T06:23:24.916Z</time></trkpt><trkpt lat="43.938457892978555" lon="7.613846722246318"><ele>1093.0</ele><time>2026-04-26T06:23:25.916Z</time></trkpt><trkpt lat="43.93851697941302" lon="7.613952288704607"><ele>1096.5</ele><time>2026-04-26T06:23:26.916Z</time></trkpt><trkpt lat="43.93857378765581" lon="7.61406656890246"><ele>1100.0</ele><time>2026-04-26T06:23:27.916Z</time></trkpt><trkpt lat="43.9386264997427" lon="7.614166154361053"><ele>1103.5</ele><time>2026-04-26T06:23:28.916Z</time></trkpt><trkpt lat="43.93866753317353" lon="7.614242831077852"><ele>1107.0</ele><time>2026-04-26T06:23:29.916Z</time></trkpt><trkpt lat="43.93869521520553" lon="7.614335137864337"><ele>1110.5</ele><time>2026-04-26T06:23:30.916Z</time></trkpt><trkpt lat="43.93871354269258" lon="7.614462014910579"><ele>1114.0</ele><time>2026-04-26T06:23:31.916Z</time></trkpt><trkpt lat="43.93871915062489" lon="7.614555764120682"><ele>1114.0</ele><time>2026-04-26T06:23:32.916Z</time></trkpt><trkpt lat="43.93872395498667" lon="7.614657980904449"><ele>1114.0</ele><time>2026-04-26T06:23:33.916Z</time></trkpt><trkpt lat="43.9387303319208" lon="7.61477117161794"><ele>1114.0</ele><time>2026-04-26T06:23:35.916Z</time></trkpt><trkpt lat="43.938741693545154" lon="7.614900872622506"><ele>1114.0</ele><time>2026-04-26T06:23:37.918Z</time></trkpt><trkpt lat="43.93875571516368" lon="7.615002136342988"><ele>1114.0</ele><time>2026-04-26T06:23:38.918Z</time></trkpt><trkpt lat="43.93877712880307" lon="7.6151133770360495"><ele>1114.0</ele><time>2026-04-26T06:23:39.918Z</time></trkpt><trkpt lat="43.938808921154624" lon="7.615259768811327"><ele>1111.5</ele><time>2026-04-26T06:23:40.918Z</time></trkpt><trkpt lat="43.93884502073662" lon="7.615439542258002"><ele>1109.0</ele><time>2026-04-26T06:23:41.918Z</time></trkpt><trkpt lat="43.93890229275647" lon="7.615612474635034"><ele>1106.5</ele><time>2026-04-26T06:23:42.918Z</time></trkpt><trkpt lat="43.938947842118154" lon="7.615793912250656"><ele>1104.0</ele><time>2026-04-26T06:23:43.918Z</time></trkpt><trkpt lat="43.93899777645531" lon="7.615954025001014"><ele>1104.0</ele><time>2026-04-26T06:23:44.918Z</time></trkpt><trkpt lat="43.93904739327992" lon="7.616112722925442"><ele>1104.0</ele><time>2026-04-26T06:23:45.918Z</time></trkpt><trkpt lat="43.93908670987139" lon="7.61627888948214"><ele>1104.0</ele><time>2026-04-26T06:23:46.918Z</time></trkpt><trkpt lat="43.93913445250689" lon="7.6164176930767375"><ele>1104.0</ele><time>2026-04-26T06:23:47.918Z</time></trkpt><trkpt lat="43.93918167284872" lon="7.616524198786258"><ele>1108.8</ele><time>2026-04-26T06:23:48.918Z</time></trkpt><trkpt lat="43.939241583451285" lon="7.616598199831419"><ele>1113.6000000000001</ele><time>2026-04-26T06:23:49.918Z</time></trkpt><trkpt lat="43.93931041804135" lon="7.616650452862012"><ele>1118.4</ele><time>2026-04-26T06:23:50.918Z</time></trkpt><trkpt lat="43.939412478299786" lon="7.61662520129322"><ele>1123.2</ele><time>2026-04-26T06:23:51.918Z</time></trkpt><trkpt lat="43.93946897889409" lon="7.616544631389954"><ele>1128.0</ele><time>2026-04-26T06:23:52.918Z</time></trkpt><trkpt lat="43.939333109597115" lon="7.616333434186777"><ele>1128.0</ele><time>2026-04-26T06:23:53.918Z</time></trkpt><trkpt lat="43.93926370692058" lon="7.616275600113891"><ele>1128.0</ele><time>2026-04-26T06:23:54.918Z</time></trkpt><trkpt lat="43.939226712610626" lon="7.6161655783542255"><ele>1128.0</ele><time>2026-04-26T06:23:55.918Z</time></trkpt><trkpt lat="43.93919429587404" lon="7.616057100362373"><ele>1128.0</ele><time>2026-04-26T06:23:56.918Z</time></trkpt><trkpt lat="43.93916256960896" lon="7.615931825765278"><ele>1128.0</ele><time>2026-04-26T06:23:57.917Z</time></trkpt><trkpt lat="43.93912845126583" lon="7.615781794385383"><ele>1124.5</ele><time>2026-04-26T06:23:58.917Z</time></trkpt><trkpt lat="43.939096006844125" lon="7.6156180039312495"><ele>1121.0</ele><time>2026-04-26T06:23:59.917Z</time></trkpt><trkpt lat="43.93905310533852" lon="7.615463665037897"><ele>1117.5</ele><time>2026-04-26T06:24:00.917Z</time></trkpt><trkpt lat="43.93903452767921" lon="7.615288528854257"><ele>1114.0</ele><time>2026-04-26T06:24:01.917Z</time></trkpt><trkpt lat="43.939005400627224" lon="7.6151261214706"><ele>1114.0</ele><time>2026-04-26T06:24:02.917Z</time></trkpt><trkpt lat="43.93900032053625" lon="7.614931296967864"><ele>1114.0</ele><time>2026-04-26T06:24:03.917Z</time></trkpt><trkpt lat="43.939004721986954" lon="7.614750129123183"><ele>1114.0</ele><time>2026-04-26T06:24:04.917Z</time></trkpt><trkpt lat="43.939025123708866" lon="7.614583081532273"><ele>1114.0</ele><time>2026-04-26T06:24:05.917Z</time></trkpt><trkpt lat="43.93903624360312" lon="7.614427705232119"><ele>1116.0</ele><time>2026-04-26T06:24:06.917Z</time></trkpt><trkpt lat="43.93906435307811" lon="7.614253845851482"><ele>1118.0</ele><time>2026-04-26T06:24:07.917Z</time></trkpt><trkpt lat="43.939072776156415" lon="7.614102518168069"><ele>1120.0</ele><time>2026-04-26T06:24:08.917Z</time></trkpt><trkpt lat="43.93905587129921" lon="7.613972658500558"><ele>1122.0</ele><time>2026-04-26T06:24:09.917Z</time></trkpt><trkpt lat="43.93901377047047" lon="7.613864038633516"><ele>1124.0</ele><time>2026-04-26T06:24:10.917Z</time></trkpt><trkpt lat="43.938953983652645" lon="7.613739827995507"><ele>1126.6000000000001</ele><time>2026-04-26T06:24:11.917Z</time></trkpt><trkpt lat="43.938899804305464" lon="7.613604427410761"><ele>1129.2</ele><time>2026-04-26T06:24:12.917Z</time></trkpt><trkpt lat="43.93891886919537" lon="7.613456672373917"><ele>1131.8000000000002</ele><time>2026-04-26T06:24:13.917Z</time></trkpt><trkpt lat="43.93890041558108" lon="7.6133166912575545"><ele>1134.4</ele><time>2026-04-26T06:24:14.917Z</time></trkpt><trkpt lat="43.93885879378522" lon="7.613208024796942"><ele>1137.0</ele><time>2026-04-26T06:24:15.917Z</time></trkpt><trkpt lat="43.938772162053766" lon="7.61317568320195"><ele>1137.0</ele><time>2026-04-26T06:24:16.917Z</time></trkpt><trkpt lat="43.93866906602533" lon="7.612914610148577"><ele>1137.0</ele><time>2026-04-26T06:24:18.917Z</time></trkpt><trkpt lat="43.93867179309676" lon="7.6127541173645925"><ele>1137.0</ele><time>2026-04-26T06:24:19.917Z</time></trkpt><trkpt lat="43.93865806402823" lon="7.61260465116375"><ele>1137.0</ele><time>2026-04-26T06:24:20.917Z</time></trkpt><trkpt lat="43.938626263944265" lon="7.6124579963086925"><ele>1141.0</ele><time>2026-04-26T06:24:21.917Z</time></trkpt><trkpt lat="43.93854551383508" lon="7.612303763201556"><ele>1145.0</ele><time>2026-04-26T06:24:22.917Z</time></trkpt><trkpt lat="43.938494843910064" lon="7.612130417084821"><ele>1149.0</ele><time>2026-04-26T06:24:23.917Z</time></trkpt><trkpt lat="43.93847812778764" lon="7.611949602639211"><ele>1153.0</ele><time>2026-04-26T06:24:24.917Z</time></trkpt><trkpt lat="43.93845232397332" lon="7.611777883671208"><ele>1149.0</ele><time>2026-04-26T06:24:25.917Z</time></trkpt><trkpt lat="43.938411026038466" lon="7.611627862764422"><ele>1145.0</ele><time>2026-04-26T06:24:26.917Z</time></trkpt><trkpt lat="43.93837119831022" lon="7.611528281279918"><ele>1141.0</ele><time>2026-04-26T06:24:27.917Z</time></trkpt><trkpt lat="43.93829977649228" lon="7.611480294026586"><ele>1137.0</ele><time>2026-04-26T06:24:28.917Z</time></trkpt><trkpt lat="43.938229016390025" lon="7.611379266474082"><ele>1133.0</ele><time>2026-04-26T06:24:29.917Z</time></trkpt><trkpt lat="43.93814342332638" lon="7.611288912444111"><ele>1133.0</ele><time>2026-04-26T06:24:30.917Z</time></trkpt><trkpt lat="43.93807488473189" lon="7.611206063009299"><ele>1133.0</ele><time>2026-04-26T06:24:31.917Z</time></trkpt><trkpt lat="43.9380140129299" lon="7.611115984762315"><ele>1133.0</ele><time>2026-04-26T06:24:32.917Z</time></trkpt><trkpt lat="43.937946703537584" lon="7.611007016894222"><ele>1133.0</ele><time>2026-04-26T06:24:33.917Z</time></trkpt><trkpt lat="43.93788057240267" lon="7.610899722642031"><ele>1133.0</ele><time>2026-04-26T06:24:34.917Z</time></trkpt><trkpt lat="43.93781565220376" lon="7.610827815772149"><ele>1132.0</ele><time>2026-04-26T06:24:35.917Z</time></trkpt><trkpt lat="43.93776212793523" lon="7.610708961775291"><ele>1131.0</ele><time>2026-04-26T06:24:37.917Z</time></trkpt><trkpt lat="43.93771364898524" lon="7.610638319216568"><ele>1130.0</ele><time>2026-04-26T06:25:05.917Z</time></trkpt><trkpt lat="43.93764222828679" lon="7.610539629567764"><ele>1129.0</ele><time>2026-04-26T06:25:08.917Z</time></trkpt><trkpt lat="43.93757971652669" lon="7.610459895585753"><ele>1128.0</ele><time>2026-04-26T06:25:09.917Z</time></trkpt><trkpt lat="43.937517157846635" lon="7.61038385159654"><ele>1127.0</ele><time>2026-04-26T06:25:10.917Z</time></trkpt><trkpt lat="43.93744851756474" lon="7.610302335100444"><ele>1131.5</ele><time>2026-04-26T06:25:11.917Z</time></trkpt><trkpt lat="43.937342387465876" lon="7.61018232649483"><ele>1136.0</ele><time>2026-04-26T06:25:12.917Z</time></trkpt><trkpt lat="43.9372379970538" lon="7.610066245457264"><ele>1140.5</ele><time>2026-04-26T06:25:13.917Z</time></trkpt><trkpt lat="43.93712928463803" lon="7.609946080977105"><ele>1145.0</ele><time>2026-04-26T06:25:14.917Z</time></trkpt><trkpt lat="43.93700778996208" lon="7.609811787769372"><ele>1145.0</ele><time>2026-04-26T06:25:15.917Z</time></trkpt><trkpt lat="43.936886950474666" lon="7.609680989468224"><ele>1145.0</ele><time>2026-04-26T06:25:16.917Z</time></trkpt><trkpt lat="43.93678791619864" lon="7.609574586847321"><ele>1145.0</ele><time>2026-04-26T06:25:17.916Z</time></trkpt><trkpt lat="43.93669170809319" lon="7.60946610432673"><ele>1145.0</ele><time>2026-04-26T06:25:18.914Z</time></trkpt><trkpt lat="43.936594559994276" lon="7.609361828556055"><ele>1146.25</ele><time>2026-04-26T06:25:19.913Z</time></trkpt><trkpt lat="43.93651057423677" lon="7.609227281978428"><ele>1147.5</ele><time>2026-04-26T06:25:20.911Z</time></trkpt><trkpt lat="43.93642436797004" lon="7.609081578870541"><ele>1148.75</ele><time>2026-04-26T06:25:21.91Z</time></trkpt><trkpt lat="43.93635128967856" lon="7.608979099106664"><ele>1150.0</ele><time>2026-04-26T06:25:22.908Z</time></trkpt><trkpt lat="43.93626171531846" lon="7.608893075857985"><ele>1150.0</ele><time>2026-04-26T06:25:23.907Z</time></trkpt><trkpt lat="43.9361699203884" lon="7.608813967140097"><ele>1150.0</ele><time>2026-04-26T06:25:24.906Z</time></trkpt><trkpt lat="43.93606637394996" lon="7.608714076441729"><ele>1150.0</ele><time>2026-04-26T06:25:25.905Z</time></trkpt><trkpt lat="43.935940277034774" lon="7.608647142965181"><ele>1150.0</ele><time>2026-04-26T06:25:26.904Z</time></trkpt><trkpt lat="43.935816379421766" lon="7.608557918285258"><ele>1152.0</ele><time>2026-04-26T06:25:27.903Z</time></trkpt><trkpt lat="43.93572218115446" lon="7.608462824833666"><ele>1154.0</ele><time>2026-04-26T06:25:28.902Z</time></trkpt><trkpt lat="43.93563375637201" lon="7.608367112194027"><ele>1156.0</ele><time>2026-04-26T06:25:29.901Z</time></trkpt><trkpt lat="43.93556641778883" lon="7.608264640779261"><ele>1158.0</ele><time>2026-04-26T06:25:30.9Z</time></trkpt><trkpt lat="43.93547037498109" lon="7.608191450730541"><ele>1160.0</ele><time>2026-04-26T06:25:31.899Z</time></trkpt><trkpt lat="43.935367774069" lon="7.6080972411106496"><ele>1160.0</ele><time>2026-04-26T06:25:32.899Z</time></trkpt><trkpt lat="43.935259102156586" lon="7.607996888227194"><ele>1160.0</ele><time>2026-04-26T06:25:33.898Z</time></trkpt><trkpt lat="43.93517942663431" lon="7.607901925671827"><ele>1160.0</ele><time>2026-04-26T06:25:34.897Z</time></trkpt><trkpt lat="43.935089488068044" lon="7.607804257963318"><ele>1160.0</ele><time>2026-04-26T06:25:35.897Z</time></trkpt><trkpt lat="43.934970687961155" lon="7.6076783973125135"><ele>1162.25</ele><time>2026-04-26T06:25:36.896Z</time></trkpt><trkpt lat="43.934842971908544" lon="7.6075700160459405"><ele>1164.5</ele><time>2026-04-26T06:25:37.896Z</time></trkpt><trkpt lat="43.93472642253018" lon="7.607477497391501"><ele>1166.75</ele><time>2026-04-26T06:25:38.895Z</time></trkpt><trkpt lat="43.93463419964261" lon="7.607356914528694"><ele>1169.0</ele><time>2026-04-26T06:25:39.895Z</time></trkpt><trkpt lat="43.93453077686001" lon="7.607272484961295"><ele>1169.0</ele><time>2026-04-26T06:25:40.894Z</time></trkpt><trkpt lat="43.93444355413505" lon="7.607230962701491"><ele>1169.0</ele><time>2026-04-26T06:25:41.894Z</time></trkpt><trkpt lat="43.93436282209426" lon="7.607187755817034"><ele>1169.0</ele><time>2026-04-26T06:25:42.894Z</time></trkpt><trkpt lat="43.93426331282702" lon="7.607169267727946"><ele>1169.0</ele><time>2026-04-26T06:25:43.896Z</time></trkpt><trkpt lat="43.93418710404723" lon="7.607227788055551"><ele>1169.0</ele><time>2026-04-26T06:25:44.895Z</time></trkpt><trkpt lat="43.934100265482705" lon="7.607261342224801"><ele>1167.5</ele><time>2026-04-26T06:25:45.895Z</time></trkpt><trkpt lat="43.93402928528835" lon="7.607290394993524"><ele>1166.0</ele><time>2026-04-26T06:25:46.895Z</time></trkpt><trkpt lat="43.93392434381881" lon="7.607266069157368"><ele>1164.5</ele><time>2026-04-26T06:25:48.894Z</time></trkpt><trkpt lat="43.93388466716288" lon="7.607182804734493"><ele>1163.0</ele><time>2026-04-26T06:25:53.893Z</time></trkpt><trkpt lat="43.933984247685764" lon="7.607189853781621"><ele>1161.5</ele><time>2026-04-26T06:26:24.89Z</time></trkpt><trkpt lat="43.934078815773915" lon="7.6071570383152345"><ele>1160.0</ele><time>2026-04-26T06:26:26.89Z</time></trkpt><trkpt lat="43.93415294566093" lon="7.607140109518752"><ele>1162.25</ele><time>2026-04-26T06:26:27.889Z</time></trkpt><trkpt lat="43.934253229182545" lon="7.607130609032558"><ele>1164.5</ele><time>2026-04-26T06:26:28.889Z</time></trkpt><trkpt lat="43.93436931791063" lon="7.607113273397035"><ele>1166.75</ele><time>2026-04-26T06:26:29.889Z</time></trkpt><trkpt lat="43.93449443538066" lon="7.607113387513461"><ele>1169.0</ele><time>2026-04-26T06:26:30.889Z</time></trkpt><trkpt lat="43.93461240376011" lon="7.60715950793216"><ele>1169.0</ele><time>2026-04-26T06:26:31.889Z</time></trkpt><trkpt lat="43.93472956546811" lon="7.607177744271382"><ele>1169.0</ele><time>2026-04-26T06:26:32.889Z</time></trkpt><trkpt lat="43.93485034904751" lon="7.607223419703252"><ele>1169.0</ele><time>2026-04-26T06:26:33.889Z</time></trkpt><trkpt lat="43.93495873710151" lon="7.6072432869381705"><ele>1169.0</ele><time>2026-04-26T06:26:34.889Z</time></trkpt><trkpt lat="43.93503681824073" lon="7.607291213560241"><ele>1169.0</ele><time>2026-04-26T06:26:35.889Z</time></trkpt><trkpt lat="43.9351181491109" lon="7.607326606612405"><ele>1172.0</ele><time>2026-04-26T06:26:36.889Z</time></trkpt><trkpt lat="43.93522003054881" lon="7.607378197297078"><ele>1175.0</ele><time>2026-04-26T06:26:37.889Z</time></trkpt><trkpt lat="43.93530497151259" lon="7.607414893773426"><ele>1178.0</ele><time>2026-04-26T06:26:38.889Z</time></trkpt><trkpt lat="43.93536926925425" lon="7.607433583127744"><ele>1181.0</ele><time>2026-04-26T06:26:39.889Z</time></trkpt><trkpt lat="43.9354514049152" lon="7.607449491419591"><ele>1184.0</ele><time>2026-04-26T06:26:40.889Z</time></trkpt><trkpt lat="43.93555025048441" lon="7.607462531721732"><ele>1187.0</ele><time>2026-04-26T06:26:41.889Z</time></trkpt><trkpt lat="43.9356685207708" lon="7.6074930102102805"><ele>1187.0</ele><time>2026-04-26T06:26:42.889Z</time></trkpt><trkpt lat="43.93578841207931" lon="7.60750765034649"><ele>1187.0</ele><time>2026-04-26T06:26:43.889Z</time></trkpt><trkpt lat="43.93593628041054" lon="7.6075254500041645"><ele>1187.0</ele><time>2026-04-26T06:26:44.889Z</time></trkpt><trkpt lat="43.936087797014466" lon="7.60754691999511"><ele>1187.0</ele><time>2026-04-26T06:26:45.889Z</time></trkpt><trkpt lat="43.936214671434165" lon="7.607583004260172"><ele>1191.5</ele><time>2026-04-26T06:26:46.889Z</time></trkpt><trkpt lat="43.93634283839194" lon="7.607628205172027"><ele>1196.0</ele><time>2026-04-26T06:26:47.889Z</time></trkpt><trkpt lat="43.936452569585" lon="7.607667510222983"><ele>1200.5</ele><time>2026-04-26T06:26:48.889Z</time></trkpt><trkpt lat="43.936560643059316" lon="7.607723210377503"><ele>1205.0</ele><time>2026-04-26T06:26:49.889Z</time></trkpt><trkpt lat="43.9366724637133" lon="7.607802087961234"><ele>1202.75</ele><time>2026-04-26T06:26:50.889Z</time></trkpt><trkpt lat="43.93678752249024" lon="7.607915569141736"><ele>1200.5</ele><time>2026-04-26T06:26:51.889Z</time></trkpt><trkpt lat="43.93689387872077" lon="7.608037563144396"><ele>1198.25</ele><time>2026-04-26T06:26:52.889Z</time></trkpt><trkpt lat="43.936988328717426" lon="7.608149300519437"><ele>1196.0</ele><time>2026-04-26T06:26:53.889Z</time></trkpt><trkpt lat="43.93706932421191" lon="7.608241611487146"><ele>1196.0</ele><time>2026-04-26T06:26:54.889Z</time></trkpt><trkpt lat="43.937191695675295" lon="7.608361669003985"><ele>1196.0</ele><time>2026-04-26T06:26:55.889Z</time></trkpt><trkpt lat="43.93731457104532" lon="7.608441479065675"><ele>1196.0</ele><time>2026-04-26T06:26:56.889Z</time></trkpt><trkpt lat="43.93744546064926" lon="7.608507504225774"><ele>1196.0</ele><time>2026-04-26T06:26:57.889Z</time></trkpt><trkpt lat="43.937560551191204" lon="7.608530903493326"><ele>1199.25</ele><time>2026-04-26T06:26:58.889Z</time></trkpt><trkpt lat="43.937681133823794" lon="7.6085393761429225"><ele>1202.5</ele><time>2026-04-26T06:26:59.889Z</time></trkpt><trkpt lat="43.937801736461644" lon="7.6085092363499065"><ele>1205.75</ele><time>2026-04-26T06:27:00.889Z</time></trkpt><trkpt lat="43.93792589282019" lon="7.608472886860322"><ele>1209.0</ele><time>2026-04-26T06:27:01.889Z</time></trkpt><trkpt lat="43.938035309578936" lon="7.608435020508139"><ele>1209.0</ele><time>2026-04-26T06:27:02.889Z</time></trkpt><trkpt lat="43.93814241465381" lon="7.608413906291399"><ele>1209.0</ele><time>2026-04-26T06:27:03.889Z</time></trkpt><trkpt lat="43.93825942923498" lon="7.608389401629842"><ele>1209.0</ele><time>2026-04-26T06:27:04.889Z</time></trkpt><trkpt lat="43.93838537839655" lon="7.608369422128006"><ele>1209.0</ele><time>2026-04-26T06:27:05.889Z</time></trkpt><trkpt lat="43.93853345343441" lon="7.608356951663683"><ele>1210.8</ele><time>2026-04-26T06:27:06.888Z</time></trkpt><trkpt lat="43.938665378437875" lon="7.608368092181944"><ele>1212.6000000000001</ele><time>2026-04-26T06:27:07.888Z</time></trkpt><trkpt lat="43.93879998782509" lon="7.608361216609816"><ele>1214.4</ele><time>2026-04-26T06:27:08.888Z</time></trkpt><trkpt lat="43.93888943487894" lon="7.608380526105847"><ele>1216.2</ele><time>2026-04-26T06:27:09.888Z</time></trkpt><trkpt lat="43.93897327361415" lon="7.608424236691617"><ele>1218.0</ele><time>2026-04-26T06:27:10.888Z</time></trkpt><trkpt lat="43.939053850385456" lon="7.608458769953237"><ele>1218.0</ele><time>2026-04-26T06:27:11.888Z</time></trkpt><trkpt lat="43.9391208401602" lon="7.608457960842782"><ele>1218.0</ele><time>2026-04-26T06:27:12.888Z</time></trkpt><trkpt lat="43.939191788605456" lon="7.608458574912587"><ele>1218.0</ele><time>2026-04-26T06:27:13.888Z</time></trkpt><trkpt lat="43.93926918089719" lon="7.608453972783565"><ele>1223.0</ele><time>2026-04-26T06:27:14.888Z</time></trkpt><trkpt lat="43.93935512378034" lon="7.608435349048009"><ele>1223.0</ele><time>2026-04-26T06:27:16.888Z</time></trkpt></trkseg><trkseg><trkpt lat="43.945590224036906" lon="7.612728970177822"><ele>1234.0</ele><time>2026-04-26T06:44:48.892Z</time></trkpt><trkpt lat="43.94565677273555" lon="7.612696936089371"><ele>1234.0</ele><time>2026-04-26T06:44:55.892Z</time></trkpt><trkpt lat="43.94572571886786" lon="7.612704890354274"><ele>1234.0</ele><time>2026-04-26T06:45:05.891Z</time></trkpt><trkpt lat="43.94578870367081" lon="7.612748280560826"><ele>1234.0</ele><time>2026-04-26T06:45:07.891Z</time></trkpt><trkpt lat="43.94585882798114" lon="7.612805002525902"><ele>1234.0</ele><time>2026-04-26T06:45:08.891Z</time></trkpt><trkpt lat="43.94591718549723" lon="7.612843549350791"><ele>1234.0</ele><time>2026-04-26T06:45:09.891Z</time></trkpt><trkpt lat="43.94599795334297" lon="7.612872939074405"><ele>1234.0</ele><time>2026-04-26T06:45:10.891Z</time></trkpt><trkpt lat="43.94605483834487" lon="7.612923020492129"><ele>1232.0</ele><time>2026-04-26T06:45:11.891Z</time></trkpt><trkpt lat="43.94618154302779" lon="7.612977365146104"><ele>1230.0</ele><time>2026-04-26T06:45:13.891Z</time></trkpt><trkpt lat="43.94624830498027" lon="7.613018900703513"><ele>1228.0</ele><time>2026-04-26T06:45:14.891Z</time></trkpt><trkpt lat="43.946336514752936" lon="7.613040926100863"><ele>1226.0</ele><time>2026-04-26T06:45:16.891Z</time></trkpt><trkpt lat="43.94643230589306" lon="7.613093678778532"><ele>1224.0</ele><time>2026-04-26T06:45:18.891Z</time></trkpt><trkpt lat="43.94653436632297" lon="7.613120463852716"><ele>1224.0</ele><time>2026-04-26T06:45:19.891Z</time></trkpt><trkpt lat="43.94661014973495" lon="7.6131245501462805"><ele>1224.0</ele><time>2026-04-26T06:45:20.891Z</time></trkpt><trkpt lat="43.946694757904744" lon="7.61312181826156"><ele>1224.0</ele><time>2026-04-26T06:45:21.891Z</time></trkpt><trkpt lat="43.946785230025306" lon="7.613108410591833"><ele>1224.0</ele><time>2026-04-26T06:45:22.891Z</time></trkpt><trkpt lat="43.946862637125086" lon="7.6130858705062066"><ele>1224.0</ele><time>2026-04-26T06:45:23.891Z</time></trkpt><trkpt lat="43.94694934209025" lon="7.613055869642213"><ele>1224.0</ele><time>2026-04-26T06:45:24.891Z</time></trkpt><trkpt lat="43.94704631984049" lon="7.612992179356535"><ele>1221.4</ele><time>2026-04-26T06:45:25.891Z</time></trkpt><trkpt lat="43.947142069773406" lon="7.612974164646106"><ele>1218.8000000000002</ele><time>2026-04-26T06:45:26.891Z</time></trkpt><trkpt lat="43.94722853952593" lon="7.612934398480564"><ele>1216.1999999999998</ele><time>2026-04-26T06:45:27.891Z</time></trkpt><trkpt lat="43.947333626668204" lon="7.612877725267707"><ele>1213.6</ele><time>2026-04-26T06:45:28.891Z</time></trkpt><trkpt lat="43.9474501634002" lon="7.612835404383977"><ele>1211.0</ele><time>2026-04-26T06:45:29.891Z</time></trkpt><trkpt lat="43.94752075138172" lon="7.612779379651311"><ele>1213.5</ele><time>2026-04-26T06:45:30.891Z</time></trkpt><trkpt lat="43.947585029131005" lon="7.612714501088211"><ele>1216.0</ele><time>2026-04-26T06:45:31.891Z</time></trkpt><trkpt lat="43.94763461150553" lon="7.61263841942211"><ele>1218.5</ele><time>2026-04-26T06:45:32.891Z</time></trkpt><trkpt lat="43.947727214752724" lon="7.612548650838099"><ele>1221.0</ele><time>2026-04-26T06:45:33.891Z</time></trkpt><trkpt lat="43.9478040760144" lon="7.612509568596433"><ele>1223.5</ele><time>2026-04-26T06:45:34.891Z</time></trkpt><trkpt lat="43.94788193756321" lon="7.612444650695043"><ele>1226.0</ele><time>2026-04-26T06:45:35.891Z</time></trkpt><trkpt lat="43.9479453472108" lon="7.612391781120018"><ele>1226.0</ele><time>2026-04-26T06:45:36.891Z</time></trkpt><trkpt lat="43.9479988127176" lon="7.612331198188602"><ele>1226.0</ele><time>2026-04-26T06:45:37.891Z</time></trkpt><trkpt lat="43.94807697972214" lon="7.612292948898511"><ele>1226.0</ele><time>2026-04-26T06:45:38.891Z</time></trkpt><trkpt lat="43.94816431183112" lon="7.61227161949995"><ele>1226.0</ele><time>2026-04-26T06:45:39.891Z</time></trkpt><trkpt lat="43.94824908413538" lon="7.612181377449927"><ele>1226.0</ele><time>2026-04-26T06:45:40.891Z</time></trkpt><trkpt lat="43.94835550096059" lon="7.612162525928738"><ele>1226.6</ele><time>2026-04-26T06:45:41.891Z</time></trkpt><trkpt lat="43.948464746920465" lon="7.6121779588247"><ele>1227.1999999999998</ele><time>2026-04-26T06:45:42.891Z</time></trkpt><trkpt lat="43.948561240894485" lon="7.612203741399717"><ele>1227.8000000000002</ele><time>2026-04-26T06:45:43.891Z</time></trkpt><trkpt lat="43.948665114116984" lon="7.612238985297183"><ele>1228.4</ele><time>2026-04-26T06:45:44.891Z</time></trkpt><trkpt lat="43.9487729289631" lon="7.61228550060979"><ele>1229.0</ele><time>2026-04-26T06:45:45.891Z</time></trkpt><trkpt lat="43.94886061157098" lon="7.612340476190678"><ele>1229.0</ele><time>2026-04-26T06:45:46.891Z</time></trkpt><trkpt lat="43.948929065402346" lon="7.61239097416236"><ele>1229.0</ele><time>2026-04-26T06:45:47.891Z</time></trkpt><trkpt lat="43.949023768181064" lon="7.6124604526491435"><ele>1229.0</ele><time>2026-04-26T06:45:48.891Z</time></trkpt><trkpt lat="43.94914072511386" lon="7.612514177279316"><ele>1229.0</ele><time>2026-04-26T06:45:50.891Z</time></trkpt><trkpt lat="43.94920613026782" lon="7.612511992452789"><ele>1229.0</ele><time>2026-04-26T06:45:51.89Z</time></trkpt><trkpt lat="43.949288497745904" lon="7.612534113384421"><ele>1229.2</ele><time>2026-04-26T06:45:52.89Z</time></trkpt><trkpt lat="43.94939465570745" lon="7.612521324779848"><ele>1229.4</ele><time>2026-04-26T06:45:53.89Z</time></trkpt><trkpt lat="43.949502257949504" lon="7.6124999274502105"><ele>1229.6</ele><time>2026-04-26T06:45:54.89Z</time></trkpt><trkpt lat="43.94958324155993" lon="7.612458670072552"><ele>1229.8</ele><time>2026-04-26T06:45:55.89Z</time></trkpt><trkpt lat="43.949671668094695" lon="7.612457493032398"><ele>1230.0</ele><time>2026-04-26T06:45:56.89Z</time></trkpt><trkpt lat="43.94976106164018" lon="7.612444883237737"><ele>1230.0</ele><time>2026-04-26T06:45:57.89Z</time></trkpt><trkpt lat="43.94984672776701" lon="7.6124122446141556"><ele>1230.0</ele><time>2026-04-26T06:45:58.89Z</time></trkpt><trkpt lat="43.949934274646616" lon="7.612395384184219"><ele>1230.0</ele><time>2026-04-26T06:45:59.89Z</time></trkpt><trkpt lat="43.95001618286397" lon="7.612371886988194"><ele>1230.0</ele><time>2026-04-26T06:46:00.89Z</time></trkpt><trkpt lat="43.9501000951229" lon="7.612330676334371"><ele>1230.0</ele><time>2026-04-26T06:46:01.89Z</time></trkpt><trkpt lat="43.950196424384835" lon="7.612310566623252"><ele>1230.0</ele><time>2026-04-26T06:46:02.89Z</time></trkpt><trkpt lat="43.950286051385035" lon="7.612274475263216"><ele>1227.0</ele><time>2026-04-26T06:46:03.89Z</time></trkpt><trkpt lat="43.95037933906329" lon="7.612232643558181"><ele>1224.0</ele><time>2026-04-26T06:46:04.89Z</time></trkpt><trkpt lat="43.95046462634958" lon="7.6121776052637875"><ele>1221.0</ele><time>2026-04-26T06:46:05.89Z</time></trkpt><trkpt lat="43.95056237930618" lon="7.612122229629786"><ele>1218.0</ele><time>2026-04-26T06:46:06.89Z</time></trkpt><trkpt lat="43.95066457692156" lon="7.6120690231970665"><ele>1215.0</ele><time>2026-04-26T06:46:07.89Z</time></trkpt><trkpt lat="43.95076559830503" lon="7.612040029085672"><ele>1215.0</ele><time>2026-04-26T06:46:08.89Z</time></trkpt><trkpt lat="43.950855388366364" lon="7.612025540143702"><ele>1215.0</ele><time>2026-04-26T06:46:09.892Z</time></trkpt><trkpt lat="43.95094822354733" lon="7.612008462917485"><ele>1215.0</ele><time>2026-04-26T06:46:10.892Z</time></trkpt><trkpt lat="43.951037149324165" lon="7.611988846895702"><ele>1215.0</ele><time>2026-04-26T06:46:11.892Z</time></trkpt><trkpt lat="43.95110799656749" lon="7.6119465771832315"><ele>1215.0</ele><time>2026-04-26T06:46:12.892Z</time></trkpt><trkpt lat="43.951183383705775" lon="7.611934718150237"><ele>1215.0</ele><time>2026-04-26T06:46:13.892Z</time></trkpt><trkpt lat="43.95126303187572" lon="7.611919914038098"><ele>1217.4</ele><time>2026-04-26T06:46:14.892Z</time></trkpt><trkpt lat="43.95136013436108" lon="7.6118950685135385"><ele>1219.8</ele><time>2026-04-26T06:46:15.892Z</time></trkpt><trkpt lat="43.95145484687272" lon="7.611858108390344"><ele>1222.2</ele><time>2026-04-26T06:46:16.892Z</time></trkpt><trkpt lat="43.95155356608377" lon="7.611855962533543"><ele>1224.6</ele><time>2026-04-26T06:46:17.892Z</time></trkpt><trkpt lat="43.95164865167684" lon="7.611815217351626"><ele>1227.0</ele><time>2026-04-26T06:46:18.892Z</time></trkpt><trkpt lat="43.95175703901429" lon="7.611808324802832"><ele>1227.6666666666667</ele><time>2026-04-26T06:46:19.892Z</time></trkpt><trkpt lat="43.95184224913485" lon="7.611818890796003"><ele>1228.3333333333333</ele><time>2026-04-26T06:46:20.892Z</time></trkpt><trkpt lat="43.95191838610726" lon="7.611842539908037"><ele>1229.0</ele><time>2026-04-26T06:46:21.891Z</time></trkpt><trkpt lat="43.95199512589156" lon="7.611864974812419"><ele>1229.6666666666665</ele><time>2026-04-26T06:46:22.892Z</time></trkpt><trkpt lat="43.952064029637135" lon="7.6118843137946595"><ele>1230.3333333333333</ele><time>2026-04-26T06:46:23.892Z</time></trkpt><trkpt lat="43.95213539218414" lon="7.611863470218612"><ele>1231.0</ele><time>2026-04-26T06:46:24.892Z</time></trkpt><trkpt lat="43.95222216481873" lon="7.611831016939395"><ele>1231.0</ele><time>2026-04-26T06:46:25.892Z</time></trkpt><trkpt lat="43.952316106533665" lon="7.6118110771189"><ele>1231.0</ele><time>2026-04-26T06:46:26.892Z</time></trkpt><trkpt lat="43.95239489691906" lon="7.611781524370842"><ele>1231.0</ele><time>2026-04-26T06:46:27.892Z</time></trkpt><trkpt lat="43.952471263065206" lon="7.611760377506512"><ele>1231.0</ele><time>2026-04-26T06:46:28.892Z</time></trkpt><trkpt lat="43.95254347290612" lon="7.611727006351259"><ele>1231.0</ele><time>2026-04-26T06:46:29.892Z</time></trkpt><trkpt lat="43.95261566263519" lon="7.611703793406039"><ele>1231.0</ele><time>2026-04-26T06:46:30.892Z</time></trkpt><trkpt lat="43.9526799530258" lon="7.611690478158486"><ele>1230.7142857142858</ele><time>2026-04-26T06:46:31.892Z</time></trkpt><trkpt lat="43.95277733486459" lon="7.611654376911572"><ele>1230.4285714285716</ele><time>2026-04-26T06:46:33.892Z</time></trkpt><trkpt lat="43.952858832507694" lon="7.611628881408767"><ele>1230.1428571428573</ele><time>2026-04-26T06:46:35.892Z</time></trkpt><trkpt lat="43.95292464304652" lon="7.611627553938688"><ele>1229.857142857143</ele><time>2026-04-26T06:46:37.892Z</time></trkpt><trkpt lat="43.95299005315651" lon="7.611601038673102"><ele>1229.5714285714287</ele><time>2026-04-26T06:46:39.892Z</time></trkpt><trkpt lat="43.95304987835429" lon="7.611572497269178"><ele>1229.2857142857144</ele><time>2026-04-26T06:46:41.892Z</time></trkpt><trkpt lat="43.953107076596076" lon="7.611532024121458"><ele>1229.0</ele><time>2026-04-26T06:46:43.892Z</time></trkpt><trkpt lat="43.95319983936251" lon="7.61149821575966"><ele>1229.0000000000002</ele><time>2026-04-26T06:46:46.892Z</time></trkpt><trkpt lat="43.953262646214746" lon="7.611472619396813"><ele>1229.0</ele><time>2026-04-26T06:46:48.892Z</time></trkpt><trkpt lat="43.95333170556994" lon="7.611469686470956"><ele>1229.0</ele><time>2026-04-26T06:46:51.892Z</time></trkpt><trkpt lat="43.95339572755807" lon="7.611442952808266"><ele>1229.0</ele><time>2026-04-26T06:46:58.891Z</time></trkpt><trkpt lat="43.95345973945305" lon="7.6114224078136"><ele>1229.0</ele><time>2026-04-26T06:47:00.891Z</time></trkpt><trkpt lat="43.953525686685694" lon="7.611412543716267"><ele>1229.0000000000002</ele><time>2026-04-26T06:47:03.891Z</time></trkpt><trkpt lat="43.953598271571245" lon="7.611396788854827"><ele>1229.0</ele><time>2026-04-26T06:47:05.891Z</time></trkpt><trkpt lat="43.953681640592364" lon="7.611381087820509"><ele>1230.5</ele><time>2026-04-26T06:47:07.891Z</time></trkpt><trkpt lat="43.95375260922485" lon="7.611371631771276"><ele>1232.0</ele><time>2026-04-26T06:47:10.891Z</time></trkpt><trkpt lat="43.95385690164933" lon="7.611360640318199"><ele>1233.5</ele><time>2026-04-26T06:47:12.891Z</time></trkpt><trkpt lat="43.95393575705005" lon="7.611351301897006"><ele>1235.0</ele><time>2026-04-26T06:47:14.891Z</time></trkpt><trkpt lat="43.95400375214203" lon="7.611338676737472"><ele>1236.5</ele><time>2026-04-26T06:47:16.891Z</time></trkpt><trkpt lat="43.95407191628644" lon="7.611316151122981"><ele>1238.0</ele><time>2026-04-26T06:47:19.891Z</time></trkpt><trkpt lat="43.95415196219347" lon="7.611264915838964"><ele>1238.4</ele><time>2026-04-26T06:47:22.891Z</time></trkpt><trkpt lat="43.95421997959993" lon="7.611207057657529"><ele>1238.8</ele><time>2026-04-26T06:47:25.891Z</time></trkpt><trkpt lat="43.95430047800608" lon="7.611138627653139"><ele>1239.2</ele><time>2026-04-26T06:47:27.891Z</time></trkpt><trkpt lat="43.95437386025425" lon="7.611026071912408"><ele>1239.6</ele><time>2026-04-26T06:47:29.891Z</time></trkpt><trkpt lat="43.954522234416544" lon="7.610967084912273"><ele>1240.0</ele><time>2026-04-26T06:47:30.891Z</time></trkpt><trkpt lat="43.95465594452684" lon="7.610921341866384"><ele>1244.0</ele><time>2026-04-26T06:47:32.891Z</time></trkpt><trkpt lat="43.954571025628276" lon="7.610878135792626"><ele>1248.0</ele><time>2026-04-26T06:47:33.891Z</time></trkpt><trkpt lat="43.95507255046197" lon="7.611445565961629"><ele>1248.0</ele><time>2026-04-26T06:47:36.891Z</time></trkpt><trkpt lat="43.95513936860137" lon="7.611453747625298"><ele>1248.0</ele><time>2026-04-26T06:47:37.891Z</time></trkpt><trkpt lat="43.95524733561604" lon="7.611483569578609"><ele>1248.0</ele><time>2026-04-26T06:47:39.891Z</time></trkpt><trkpt lat="43.95531546818063" lon="7.611490873101754"><ele>1248.0</ele><time>2026-04-26T06:47:40.891Z</time></trkpt><trkpt lat="43.95536841177647" lon="7.611539112686034"><ele>1248.0</ele><time>2026-04-26T06:47:41.891Z</time></trkpt><trkpt lat="43.955480997279565" lon="7.611642927383833"><ele>1248.0</ele><time>2026-04-26T06:47:43.891Z</time></trkpt><trkpt lat="43.955525923522984" lon="7.611710921336676"><ele>1248.0</ele><time>2026-04-26T06:47:44.891Z</time></trkpt><trkpt lat="43.955605806670086" lon="7.611809996433602"><ele>1248.0</ele><time>2026-04-26T06:47:46.891Z</time></trkpt><trkpt lat="43.955686092257714" lon="7.611848384927151"><ele>1248.0</ele><time>2026-04-26T06:47:48.891Z</time></trkpt><trkpt lat="43.95574134501958" lon="7.611903796581928"><ele>1248.0</ele><time>2026-04-26T06:47:49.891Z</time></trkpt><trkpt lat="43.95581919672654" lon="7.612025589923764"><ele>1248.0</ele><time>2026-04-26T06:47:51.891Z</time></trkpt><trkpt lat="43.955886246103205" lon="7.612100093134927"><ele>1247.0</ele><time>2026-04-26T06:47:53.89Z</time></trkpt><trkpt lat="43.95594255203841" lon="7.6121540990520655"><ele>1246.0</ele><time>2026-04-26T06:47:55.89Z</time></trkpt><trkpt lat="43.95599716682994" lon="7.612253733307822"><ele>1245.0</ele><time>2026-04-26T06:47:57.89Z</time></trkpt><trkpt lat="43.95606909078312" lon="7.612284709223684"><ele>1244.0</ele><time>2026-04-26T06:48:00.89Z</time></trkpt><trkpt lat="43.95611632473482" lon="7.612221513039168"><ele>1243.0</ele><time>2026-04-26T06:48:12.89Z</time></trkpt><trkpt lat="43.956070848163485" lon="7.61210695124895"><ele>1242.0</ele><time>2026-04-26T06:48:15.892Z</time></trkpt><trkpt lat="43.956028958170066" lon="7.612016617609047"><ele>1242.0</ele><time>2026-04-26T06:48:17.892Z</time></trkpt><trkpt lat="43.955971269478546" lon="7.6119507288377894"><ele>1242.0</ele><time>2026-04-26T06:48:19.892Z</time></trkpt><trkpt lat="43.95592272796471" lon="7.612025591841385"><ele>1242.0</ele><time>2026-04-26T06:48:23.892Z</time></trkpt><trkpt lat="43.95597955087644" lon="7.612131836785643"><ele>1242.0</ele><time>2026-04-26T06:48:26.892Z</time></trkpt><trkpt lat="43.95607212080501" lon="7.612205381158446"><ele>1242.0</ele><time>2026-04-26T06:48:28.892Z</time></trkpt><trkpt lat="43.956160214358285" lon="7.612272685103056"><ele>1242.0</ele><time>2026-04-26T06:48:30.892Z</time></trkpt><trkpt lat="43.95621395187658" lon="7.61235900431287"><ele>1242.0</ele><time>2026-04-26T06:48:34.892Z</time></trkpt><trkpt lat="43.956245766605605" lon="7.612440520712299"><ele>1242.0</ele><time>2026-04-26T06:48:37.892Z</time></trkpt><trkpt lat="43.95630448945591" lon="7.612500052470476"><ele>1242.0</ele><time>2026-04-26T06:48:40.892Z</time></trkpt><trkpt lat="43.95637242564475" lon="7.612519245007013"><ele>1242.0</ele><time>2026-04-26T06:48:42.892Z</time></trkpt><trkpt lat="43.95642344814088" lon="7.612575990701318"><ele>1242.0</ele><time>2026-04-26T06:48:44.892Z</time></trkpt><trkpt lat="43.95649296126235" lon="7.6126753004757415"><ele>1242.0</ele><time>2026-04-26T06:48:47.892Z</time></trkpt><trkpt lat="43.9565501498306" lon="7.61277564770497"><ele>1242.0</ele><time>2026-04-26T06:48:49.892Z</time></trkpt><trkpt lat="43.95659763599912" lon="7.612870252948061"><ele>1242.0</ele><time>2026-04-26T06:48:52.892Z</time></trkpt><trkpt lat="43.956667805363466" lon="7.6129210119305695"><ele>1242.0</ele><time>2026-04-26T06:48:54.892Z</time></trkpt><trkpt lat="43.956710590316916" lon="7.613002906635066"><ele>1242.0</ele><time>2026-04-26T06:48:57.892Z</time></trkpt><trkpt lat="43.9567798714847" lon="7.613056880344028"><ele>1242.0</ele><time>2026-04-26T06:49:00.892Z</time></trkpt><trkpt lat="43.9568329992147" lon="7.613120005623718"><ele>1238.1666666666667</ele><time>2026-04-26T06:49:04.892Z</time></trkpt><trkpt lat="43.956889029288945" lon="7.613187824534024"><ele>1234.3333333333333</ele><time>2026-04-26T06:49:10.892Z</time></trkpt><trkpt lat="43.95694295395234" lon="7.613240439434719"><ele>1230.5</ele><time>2026-04-26T06:49:15.891Z</time></trkpt><trkpt lat="43.95699447050885" lon="7.613329976089847"><ele>1226.6666666666665</ele><time>2026-04-26T06:49:22.891Z</time></trkpt><trkpt lat="43.95704953314217" lon="7.61339627594154"><ele>1222.8333333333333</ele><time>2026-04-26T06:49:26.891Z</time></trkpt><trkpt lat="43.957107036637574" lon="7.613475402853965"><ele>1219.0</ele><time>2026-04-26T06:49:29.891Z</time></trkpt><trkpt lat="43.95717030994163" lon="7.6135426436081906"><ele>1219.0</ele><time>2026-04-26T06:49:32.891Z</time></trkpt><trkpt lat="43.95722283526585" lon="7.613628009245521"><ele>1219.0</ele><time>2026-04-26T06:49:35.891Z</time></trkpt><trkpt lat="43.957279666920336" lon="7.613707606437894"><ele>1219.0</ele><time>2026-04-26T06:49:37.891Z</time></trkpt><trkpt lat="43.95734854760899" lon="7.613783227720731"><ele>1219.0</ele><time>2026-04-26T06:49:39.891Z</time></trkpt><trkpt lat="43.95743518019257" lon="7.613801824638256"><ele>1219.0</ele><time>2026-04-26T06:49:42.891Z</time></trkpt><trkpt lat="43.957507534553756" lon="7.6138186751311485"><ele>1219.0</ele><time>2026-04-26T06:49:44.891Z</time></trkpt><trkpt lat="43.95759891391874" lon="7.613861332190179"><ele>1217.142857142857</ele><time>2026-04-26T06:49:47.891Z</time></trkpt><trkpt lat="43.957657681583086" lon="7.613903910385022"><ele>1215.2857142857142</ele><time>2026-04-26T06:49:49.891Z</time></trkpt><trkpt lat="43.95771900315856" lon="7.61396055415607"><ele>1213.4285714285716</ele><time>2026-04-26T06:49:52.891Z</time></trkpt><trkpt lat="43.95778184954062" lon="7.613999141080958"><ele>1211.5714285714284</ele><time>2026-04-26T06:49:58.891Z</time></trkpt><trkpt lat="43.95783947387359" lon="7.614042588435976"><ele>1209.7142857142856</ele><time>2026-04-26T06:50:03.891Z</time></trkpt><trkpt lat="43.95788806249631" lon="7.614111485294592"><ele>1207.857142857143</ele><time>2026-04-26T06:50:22.892Z</time></trkpt><trkpt lat="43.95790709391354" lon="7.614197140706498"><ele>1206.0</ele><time>2026-04-26T06:50:28.892Z</time></trkpt><trkpt lat="43.957945607295684" lon="7.614339364030478"><ele>1206.0</ele><time>2026-04-26T06:50:59.891Z</time></trkpt><trkpt lat="43.95802221624772" lon="7.6143782289983735"><ele>1206.0</ele><time>2026-04-26T06:52:57.892Z</time></trkpt><trkpt lat="43.958032532564616" lon="7.614474928171803"><ele>1206.0</ele><time>2026-04-26T06:53:14.892Z</time></trkpt><trkpt lat="43.9580458948735" lon="7.614600744380685"><ele>1206.0</ele><time>2026-04-26T06:53:30.892Z</time></trkpt><trkpt lat="43.95805610879124" lon="7.614698082032897"><ele>1206.0</ele><time>2026-04-26T06:53:34.892Z</time></trkpt><trkpt lat="43.95801194768866" lon="7.614760723923799"><ele>1206.0</ele><time>2026-04-26T06:53:41.891Z</time></trkpt><trkpt lat="43.95800437802858" lon="7.614849553058444"><ele>1206.0</ele><time>2026-04-26T06:53:53.891Z</time></trkpt><trkpt lat="43.95800690453157" lon="7.614952956390264"><ele>1205.1666666666667</ele><time>2026-04-26T06:54:09.891Z</time></trkpt><trkpt lat="43.958048828320706" lon="7.615038433127171"><ele>1204.3333333333333</ele><time>2026-04-26T06:54:13.891Z</time></trkpt><trkpt lat="43.95808054648831" lon="7.615126833368411"><ele>1203.5</ele><time>2026-04-26T06:54:18.891Z</time></trkpt><trkpt lat="43.958104171420295" lon="7.615235865203728"><ele>1202.6666666666665</ele><time>2026-04-26T06:54:23.891Z</time></trkpt><trkpt lat="43.958143432310614" lon="7.615333477225621"><ele>1201.8333333333333</ele><time>2026-04-26T06:54:27.891Z</time></trkpt><trkpt lat="43.958202137427776" lon="7.6154152219074085"><ele>1201.0</ele><time>2026-04-26T06:54:30.891Z</time></trkpt><trkpt lat="43.95826344537175" lon="7.615479509492948"><ele>1200.1666666666665</ele><time>2026-04-26T06:54:33.892Z</time></trkpt><trkpt lat="43.958319493620564" lon="7.615555375826095"><ele>1199.3333333333333</ele><time>2026-04-26T06:54:36.893Z</time></trkpt><trkpt lat="43.958370458899395" lon="7.615653835819229"><ele>1198.5</ele><time>2026-04-26T06:54:40.892Z</time></trkpt><trkpt lat="43.95841638086383" lon="7.615747910785152"><ele>1197.6666666666667</ele><time>2026-04-26T06:54:43.893Z</time></trkpt><trkpt lat="43.95847471025323" lon="7.615831956765756"><ele>1196.8333333333335</ele><time>2026-04-26T06:54:46.892Z</time></trkpt><trkpt lat="43.95854122258214" lon="7.615882861659356"><ele>1196.0</ele><time>2026-04-26T06:54:48.892Z</time></trkpt><trkpt lat="43.95860933828262" lon="7.615939290240078"><ele>1193.0</ele><time>2026-04-26T06:54:51.892Z</time></trkpt><trkpt lat="43.9586621554913" lon="7.616005816863238"><ele>1190.0</ele><time>2026-04-26T06:54:56.892Z</time></trkpt><trkpt lat="43.95871412971974" lon="7.616058053569859"><ele>1187.0</ele><time>2026-04-26T06:55:01.892Z</time></trkpt><trkpt lat="43.95876415568125" lon="7.616111207153647"><ele>1184.0</ele><time>2026-04-26T06:55:06.892Z</time></trkpt><trkpt lat="43.958818710116574" lon="7.616170313575522"><ele>1181.0</ele><time>2026-04-26T06:55:09.892Z</time></trkpt><trkpt lat="43.958857535547615" lon="7.6162442288683785"><ele>1178.0</ele><time>2026-04-26T06:55:12.892Z</time></trkpt><trkpt lat="43.958922639256414" lon="7.616311287387688"><ele>1175.0</ele><time>2026-04-26T06:55:15.892Z</time></trkpt><trkpt lat="43.95894406090848" lon="7.616404199705316"><ele>1175.0</ele><time>2026-04-26T06:55:18.892Z</time></trkpt><trkpt lat="43.95898114068995" lon="7.616497332984248"><ele>1175.0</ele><time>2026-04-26T06:55:22.892Z</time></trkpt><trkpt lat="43.95902191943181" lon="7.616576188884281"><ele>1175.0</ele><time>2026-04-26T06:55:25.892Z</time></trkpt><trkpt lat="43.95904781451358" lon="7.616678968355436"><ele>1175.0</ele><time>2026-04-26T06:55:30.892Z</time></trkpt><trkpt lat="43.959084133737036" lon="7.616763008124871"><ele>1175.0</ele><time>2026-04-26T06:55:33.892Z</time></trkpt><trkpt lat="43.95909047793548" lon="7.61687591028273"><ele>1175.0</ele><time>2026-04-26T06:55:37.892Z</time></trkpt><trkpt lat="43.95912316776582" lon="7.6170019935897795"><ele>1174.142857142857</ele><time>2026-04-26T06:55:40.891Z</time></trkpt><trkpt lat="43.95912863979078" lon="7.617104307682343"><ele>1173.2857142857142</ele><time>2026-04-26T06:55:43.891Z</time></trkpt><trkpt lat="43.959140868041736" lon="7.617222907833652"><ele>1172.4285714285716</ele><time>2026-04-26T06:55:46.891Z</time></trkpt><trkpt lat="43.95916427304386" lon="7.6173267734283865"><ele>1171.5714285714284</ele><time>2026-04-26T06:55:49.891Z</time></trkpt><trkpt lat="43.95917176628648" lon="7.61741511187547"><ele>1170.7142857142858</ele><time>2026-04-26T06:55:52.891Z</time></trkpt><trkpt lat="43.95917720391433" lon="7.617509031736294"><ele>1169.857142857143</ele><time>2026-04-26T06:55:57.891Z</time></trkpt><trkpt lat="43.9591940849714" lon="7.617598830300414"><ele>1169.0</ele><time>2026-04-26T06:56:00.891Z</time></trkpt><trkpt lat="43.95920762988108" lon="7.617724478507483"><ele>1168.142857142857</ele><time>2026-04-26T06:56:04.891Z</time></trkpt><trkpt lat="43.95920850717737" lon="7.617833396279279"><ele>1167.2857142857142</ele><time>2026-04-26T06:56:07.891Z</time></trkpt><trkpt lat="43.95922620815396" lon="7.617935891910796"><ele>1166.4285714285716</ele><time>2026-04-26T06:56:10.891Z</time></trkpt><trkpt lat="43.95924911171167" lon="7.6180540781355015"><ele>1165.5714285714284</ele><time>2026-04-26T06:56:12.891Z</time></trkpt><trkpt lat="43.959243455914844" lon="7.61814128322598"><ele>1164.7142857142858</ele><time>2026-04-26T06:56:23.891Z</time></trkpt><trkpt lat="43.95925947593486" lon="7.618239199623987"><ele>1163.857142857143</ele><time>2026-04-26T06:56:27.891Z</time></trkpt><trkpt lat="43.95926915961844" lon="7.618336274716959"><ele>1163.0</ele><time>2026-04-26T06:59:12.918Z</time></trkpt><trkpt lat="43.95928629515412" lon="7.618468972770951"><ele>1163.0</ele><time>2026-04-26T06:59:15.917Z</time></trkpt><trkpt lat="43.95924525115842" lon="7.61858764915818"><ele>1163.0</ele><time>2026-04-26T06:59:17.917Z</time></trkpt><trkpt lat="43.95919840270636" lon="7.618735210477409"><ele>1163.0</ele><time>2026-04-26T06:59:19.917Z</time></trkpt><trkpt lat="43.95914102946987" lon="7.618886593002392"><ele>1163.0</ele><time>2026-04-26T06:59:21.917Z</time></trkpt><trkpt lat="43.95911675998939" lon="7.61896922212635"><ele>1163.0</ele><time>2026-04-26T06:59:22.917Z</time></trkpt><trkpt lat="43.959108770682185" lon="7.619089264029826"><ele>1162.8333333333335</ele><time>2026-04-26T06:59:23.917Z</time></trkpt><trkpt lat="43.959097417229685" lon="7.619180179088644"><ele>1162.6666666666667</ele><time>2026-04-26T06:59:24.917Z</time></trkpt><trkpt lat="43.95909368136427" lon="7.619365469732748"><ele>1162.5</ele><time>2026-04-26T06:59:26.917Z</time></trkpt><trkpt lat="43.95908418405873" lon="7.619452395323166"><ele>1162.3333333333333</ele><time>2026-04-26T06:59:27.917Z</time></trkpt><trkpt lat="43.95902833080745" lon="7.619525314927666"><ele>1162.1666666666665</ele><time>2026-04-26T06:59:28.917Z</time></trkpt><trkpt lat="43.95897217839118" lon="7.619612964769698"><ele>1162.0</ele><time>2026-04-26T06:59:29.917Z</time></trkpt><trkpt lat="43.95892487063097" lon="7.619707338486366"><ele>1164.3333333333333</ele><time>2026-04-26T06:59:30.917Z</time></trkpt><trkpt lat="43.958893443830064" lon="7.619823308987632"><ele>1166.6666666666665</ele><time>2026-04-26T06:59:31.917Z</time></trkpt><trkpt lat="43.958868742318415" lon="7.619927165330617"><ele>1169.0</ele><time>2026-04-26T06:59:32.917Z</time></trkpt><trkpt lat="43.95886577544246" lon="7.620026771138457"><ele>1171.3333333333333</ele><time>2026-04-26T06:59:33.917Z</time></trkpt><trkpt lat="43.95885090444376" lon="7.6201213815618845"><ele>1173.6666666666667</ele><time>2026-04-26T06:59:34.917Z</time></trkpt><trkpt lat="43.9588132828537" lon="7.620287621802832"><ele>1176.0</ele><time>2026-04-26T06:59:36.917Z</time></trkpt><trkpt lat="43.958812850651796" lon="7.620387077018983"><ele>1179.3999999999999</ele><time>2026-04-26T06:59:37.917Z</time></trkpt><trkpt lat="43.95880331172345" lon="7.620513249293969"><ele>1182.8</ele><time>2026-04-26T06:59:38.917Z</time></trkpt><trkpt lat="43.958787975321634" lon="7.620618088976971"><ele>1186.1999999999998</ele><time>2026-04-26T06:59:39.917Z</time></trkpt><trkpt lat="43.95877097059367" lon="7.620731964664772"><ele>1189.6</ele><time>2026-04-26T06:59:40.917Z</time></trkpt><trkpt lat="43.95875713890766" lon="7.62084752221505"><ele>1193.0</ele><time>2026-04-26T06:59:41.917Z</time></trkpt><trkpt lat="43.95873190998252" lon="7.621015561259141"><ele>1193.0</ele><time>2026-04-26T06:59:43.917Z</time></trkpt><trkpt lat="43.958714946780226" lon="7.621116182123231"><ele>1193.0</ele><time>2026-04-26T06:59:44.917Z</time></trkpt><trkpt lat="43.95869438574796" lon="7.621223304741644"><ele>1193.0</ele><time>2026-04-26T06:59:45.917Z</time></trkpt><trkpt lat="43.95869772086611" lon="7.621394489959978"><ele>1193.0</ele><time>2026-04-26T06:59:47.917Z</time></trkpt><trkpt lat="43.95867881048215" lon="7.621482907301438"><ele>1193.0</ele><time>2026-04-26T06:59:48.917Z</time></trkpt><trkpt lat="43.95865034171969" lon="7.6216296185143015"><ele>1193.4</ele><time>2026-04-26T06:59:50.917Z</time></trkpt><trkpt lat="43.95864281840058" lon="7.621722432497774"><ele>1193.8</ele><time>2026-04-26T06:59:51.917Z</time></trkpt><trkpt lat="43.9586533293275" lon="7.621904550346718"><ele>1194.2</ele><time>2026-04-26T06:59:53.917Z</time></trkpt><trkpt lat="43.95865806575234" lon="7.6220182837604735"><ele>1194.6</ele><time>2026-04-26T06:59:54.917Z</time></trkpt><trkpt lat="43.95867207817412" lon="7.622113629670874"><ele>1195.0</ele><time>2026-04-26T06:59:55.917Z</time></trkpt><trkpt lat="43.958709779686" lon="7.62228050808681"><ele>1195.0</ele><time>2026-04-26T06:59:57.917Z</time></trkpt><trkpt lat="43.95875618969841" lon="7.622351562254807"><ele>1195.0</ele><time>2026-04-26T06:59:58.917Z</time></trkpt><trkpt lat="43.958801948817566" lon="7.6224270426496625"><ele>1195.0</ele><time>2026-04-26T06:59:59.917Z</time></trkpt><trkpt lat="43.95884664334042" lon="7.62250005470027"><ele>1195.0</ele><time>2026-04-26T07:00:00.917Z</time></trkpt><trkpt lat="43.95890924719996" lon="7.622638473074969"><ele>1195.0</ele><time>2026-04-26T07:00:02.917Z</time></trkpt><trkpt lat="43.95895068963426" lon="7.6227244613185"><ele>1195.0</ele><time>2026-04-26T07:00:03.917Z</time></trkpt><trkpt lat="43.958983195858764" lon="7.6228139131731085"><ele>1193.2</ele><time>2026-04-26T07:00:04.917Z</time></trkpt><trkpt lat="43.95902022359249" lon="7.622891478164785"><ele>1191.4</ele><time>2026-04-26T07:00:05.917Z</time></trkpt><trkpt lat="43.95907813895207" lon="7.6230383343924455"><ele>1189.6</ele><time>2026-04-26T07:00:07.917Z</time></trkpt><trkpt lat="43.95911090890452" lon="7.623195773376822"><ele>1187.8</ele><time>2026-04-26T07:00:09.917Z</time></trkpt><trkpt lat="43.95914879313242" lon="7.6233464809769185"><ele>1186.0</ele><time>2026-04-26T07:00:11.917Z</time></trkpt><trkpt lat="43.95918183953515" lon="7.623424846069344"><ele>1186.0</ele><time>2026-04-26T07:00:12.917Z</time></trkpt><trkpt lat="43.95919649741755" lon="7.623522022889872"><ele>1186.0</ele><time>2026-04-26T07:00:13.917Z</time></trkpt><trkpt lat="43.959205473479955" lon="7.623610492779123"><ele>1186.0</ele><time>2026-04-26T07:00:14.917Z</time></trkpt><trkpt lat="43.95918604285286" lon="7.623708246542222"><ele>1186.0</ele><time>2026-04-26T07:00:15.917Z</time></trkpt><trkpt lat="43.95914944211603" lon="7.623787406208334"><ele>1186.0</ele><time>2026-04-26T07:00:16.917Z</time></trkpt><trkpt lat="43.95909267670104" lon="7.623850575988821"><ele>1186.0</ele><time>2026-04-26T07:00:17.917Z</time></trkpt><trkpt lat="43.95898279958128" lon="7.623975306564749"><ele>1188.1666666666665</ele><time>2026-04-26T07:00:19.917Z</time></trkpt><trkpt lat="43.95892578177414" lon="7.624056471573633"><ele>1190.3333333333333</ele><time>2026-04-26T07:00:20.917Z</time></trkpt><trkpt lat="43.95889297630561" lon="7.624148185074025"><ele>1192.5</ele><time>2026-04-26T07:00:21.917Z</time></trkpt><trkpt lat="43.95886342940252" lon="7.624236051283654"><ele>1194.6666666666667</ele><time>2026-04-26T07:00:22.917Z</time></trkpt><trkpt lat="43.958799289640865" lon="7.62440889329488"><ele>1196.8333333333335</ele><time>2026-04-26T07:00:24.917Z</time></trkpt><trkpt lat="43.95878256236829" lon="7.624496936453446"><ele>1199.0</ele><time>2026-04-26T07:00:25.917Z</time></trkpt><trkpt lat="43.95875017143881" lon="7.624582149353084"><ele>1204.8</ele><time>2026-04-26T07:00:26.917Z</time></trkpt><trkpt lat="43.9587081085311" lon="7.624757564980088"><ele>1210.6000000000001</ele><time>2026-04-26T07:00:28.917Z</time></trkpt><trkpt lat="43.95869008272788" lon="7.624844976909234"><ele>1216.4</ele><time>2026-04-26T07:00:29.917Z</time></trkpt><trkpt lat="43.95861327498788" lon="7.624974715467986"><ele>1222.2</ele><time>2026-04-26T07:00:31.917Z</time></trkpt><trkpt lat="43.95855517260451" lon="7.6250273966008955"><ele>1228.0</ele><time>2026-04-26T07:00:32.917Z</time></trkpt><trkpt lat="43.95849073811895" lon="7.6250897227505385"><ele>1228.0</ele><time>2026-04-26T07:00:33.916Z</time></trkpt><trkpt lat="43.958404135849534" lon="7.625219686011136"><ele>1228.0</ele><time>2026-04-26T07:00:35.916Z</time></trkpt><trkpt lat="43.95836623901301" lon="7.6253057970280675"><ele>1228.0</ele><time>2026-04-26T07:00:36.916Z</time></trkpt><trkpt lat="43.958336839548465" lon="7.625389305473791"><ele>1228.0</ele><time>2026-04-26T07:00:37.916Z</time></trkpt><trkpt lat="43.95830940898551" lon="7.625481384905498"><ele>1228.0</ele><time>2026-04-26T07:00:38.916Z</time></trkpt><trkpt lat="43.958272274887435" lon="7.625643766776948"><ele>1226.8333333333333</ele><time>2026-04-26T07:00:40.916Z</time></trkpt><trkpt lat="43.95825269385827" lon="7.625734010215738"><ele>1225.6666666666665</ele><time>2026-04-26T07:00:41.916Z</time></trkpt><trkpt lat="43.958246173833324" lon="7.625827529280266"><ele>1224.5</ele><time>2026-04-26T07:00:42.916Z</time></trkpt><trkpt lat="43.95823857595518" lon="7.625929637871691"><ele>1223.3333333333333</ele><time>2026-04-26T07:00:43.916Z</time></trkpt><trkpt lat="43.95818823114031" lon="7.626100693523536"><ele>1222.1666666666667</ele><time>2026-04-26T07:00:45.916Z</time></trkpt><trkpt lat="43.958173327575906" lon="7.626204232164165"><ele>1221.0</ele><time>2026-04-26T07:00:46.916Z</time></trkpt><trkpt lat="43.95812524089418" lon="7.626355727530384"><ele>1221.0</ele><time>2026-04-26T07:00:48.916Z</time></trkpt><trkpt lat="43.958106630809596" lon="7.626464899535885"><ele>1221.0</ele><time>2026-04-26T07:00:49.918Z</time></trkpt><trkpt lat="43.95808630217502" lon="7.6265619477938245"><ele>1221.0</ele><time>2026-04-26T07:00:50.918Z</time></trkpt><trkpt lat="43.958062193072664" lon="7.6266551203199535"><ele>1221.0</ele><time>2026-04-26T07:00:51.918Z</time></trkpt><trkpt lat="43.95803912946802" lon="7.626747962747356"><ele>1221.0</ele><time>2026-04-26T07:00:52.919Z</time></trkpt><trkpt lat="43.958004912033765" lon="7.626897651670085"><ele>1221.0</ele><time>2026-04-26T07:00:54.918Z</time></trkpt><trkpt lat="43.957982871967054" lon="7.626991936496335"><ele>1224.0</ele><time>2026-04-26T07:00:55.919Z</time></trkpt><trkpt lat="43.95794168399575" lon="7.627157391861769"><ele>1227.0</ele><time>2026-04-26T07:00:57.918Z</time></trkpt><trkpt lat="43.95792471238665" lon="7.627351123076066"><ele>1230.0</ele><time>2026-04-26T07:00:59.918Z</time></trkpt><trkpt lat="43.95790345788585" lon="7.6274591338193645"><ele>1233.0</ele><time>2026-04-26T07:01:00.918Z</time></trkpt><trkpt lat="43.957902677393115" lon="7.627552976922683"><ele>1236.0</ele><time>2026-04-26T07:01:01.919Z</time></trkpt><trkpt lat="43.95791234211568" lon="7.627644978700529"><ele>1236.0</ele><time>2026-04-26T07:01:03.918Z</time></trkpt><trkpt lat="43.95790219933129" lon="7.6277602918379195"><ele>1236.0</ele><time>2026-04-26T07:09:38.921Z</time></trkpt><trkpt lat="43.95790457369058" lon="7.627862588545217"><ele>1236.0</ele><time>2026-04-26T07:09:40.921Z</time></trkpt><trkpt lat="43.95791331113042" lon="7.627997672967807"><ele>1236.0</ele><time>2026-04-26T07:09:42.921Z</time></trkpt><trkpt lat="43.957913794461774" lon="7.628127770019582"><ele>1236.0</ele><time>2026-04-26T07:09:44.921Z</time></trkpt><trkpt lat="43.957917756886346" lon="7.628257917185503"><ele>1236.0</ele><time>2026-04-26T07:09:46.921Z</time></trkpt><trkpt lat="43.957897453507854" lon="7.628406743197584"><ele>1237.0</ele><time>2026-04-26T07:09:48.92Z</time></trkpt><trkpt lat="43.95787870040095" lon="7.6285352480364175"><ele>1238.0</ele><time>2026-04-26T07:09:50.92Z</time></trkpt><trkpt lat="43.95787483521776" lon="7.628691207346937"><ele>1239.0</ele><time>2026-04-26T07:09:52.92Z</time></trkpt><trkpt lat="43.95788794100813" lon="7.628847930088536"><ele>1240.0</ele><time>2026-04-26T07:09:54.92Z</time></trkpt><trkpt lat="43.957919224512814" lon="7.628989437535651"><ele>1241.0</ele><time>2026-04-26T07:09:56.92Z</time></trkpt><trkpt lat="43.95796683416286" lon="7.629108996744887"><ele>1241.0</ele><time>2026-04-26T07:09:58.92Z</time></trkpt><trkpt lat="43.95805112425628" lon="7.629205822996541"><ele>1241.0</ele><time>2026-04-26T07:10:00.92Z</time></trkpt><trkpt lat="43.95812210715803" lon="7.629302407624837"><ele>1241.0</ele><time>2026-04-26T07:10:02.92Z</time></trkpt><trkpt lat="43.958200014208984" lon="7.629417922606626"><ele>1241.0</ele><time>2026-04-26T07:10:04.92Z</time></trkpt><trkpt lat="43.95825323434265" lon="7.629465279808891"><ele>1241.0</ele><time>2026-04-26T07:10:05.92Z</time></trkpt><trkpt lat="43.9583094363818" lon="7.62957503723843"><ele>1248.6</ele><time>2026-04-26T07:10:07.92Z</time></trkpt><trkpt lat="43.95837724509104" lon="7.62968133174422"><ele>1256.1999999999998</ele><time>2026-04-26T07:10:09.92Z</time></trkpt><trkpt lat="43.958406348758125" lon="7.629764837431638"><ele>1263.8000000000002</ele><time>2026-04-26T07:10:10.92Z</time></trkpt><trkpt lat="43.95848138085351" lon="7.629892692199274"><ele>1271.4</ele><time>2026-04-26T07:10:12.92Z</time></trkpt><trkpt lat="43.95856269591462" lon="7.630017367448498"><ele>1279.0</ele><time>2026-04-26T07:10:14.92Z</time></trkpt><trkpt lat="43.95860555200296" lon="7.630089472928162"><ele>1279.0</ele><time>2026-04-26T07:10:15.92Z</time></trkpt><trkpt lat="43.95868900952135" lon="7.630242056526336"><ele>1279.0</ele><time>2026-04-26T07:10:17.92Z</time></trkpt><trkpt lat="43.95873900578454" lon="7.63032324508304"><ele>1279.0</ele><time>2026-04-26T07:10:18.92Z</time></trkpt><trkpt lat="43.95877928200744" lon="7.630414729980211"><ele>1279.0</ele><time>2026-04-26T07:10:19.92Z</time></trkpt><trkpt lat="43.95881522768414" lon="7.630495485561624"><ele>1279.0</ele><time>2026-04-26T07:10:20.92Z</time></trkpt><trkpt lat="43.95886017258354" lon="7.630561531933012"><ele>1279.0</ele><time>2026-04-26T07:10:21.92Z</time></trkpt><trkpt lat="43.95891134059461" lon="7.630641802278515"><ele>1275.1666666666665</ele><time>2026-04-26T07:10:22.92Z</time></trkpt><trkpt lat="43.9589646764245" lon="7.630697014498066"><ele>1271.3333333333333</ele><time>2026-04-26T07:10:23.92Z</time></trkpt><trkpt lat="43.95900560968529" lon="7.630767295557499"><ele>1267.5</ele><time>2026-04-26T07:10:24.92Z</time></trkpt><trkpt lat="43.95904078478777" lon="7.630856160683006"><ele>1263.6666666666667</ele><time>2026-04-26T07:10:25.92Z</time></trkpt><trkpt lat="43.95909606745476" lon="7.630993811483142"><ele>1259.8333333333335</ele><time>2026-04-26T07:10:27.92Z</time></trkpt><trkpt lat="43.9591487219541" lon="7.631071601317547"><ele>1256.0</ele><time>2026-04-26T07:10:28.92Z</time></trkpt><trkpt lat="43.95920875126646" lon="7.6311135507965195"><ele>1260.6666666666667</ele><time>2026-04-26T07:10:29.92Z</time></trkpt><trkpt lat="43.95927090675239" lon="7.631246808435856"><ele>1265.3333333333335</ele><time>2026-04-26T07:10:31.92Z</time></trkpt><trkpt lat="43.959297692449674" lon="7.631335498921412"><ele>1270.0</ele><time>2026-04-26T07:10:32.92Z</time></trkpt><trkpt lat="43.959323545741924" lon="7.631417010591523"><ele>1274.6666666666667</ele><time>2026-04-26T07:10:33.92Z</time></trkpt><trkpt lat="43.95938741103553" lon="7.631529690303219"><ele>1279.3333333333333</ele><time>2026-04-26T07:10:35.92Z</time></trkpt><trkpt lat="43.95941477618764" lon="7.631652627538675"><ele>1284.0</ele><time>2026-04-26T07:10:37.92Z</time></trkpt><trkpt lat="43.959456933450355" lon="7.6317533789883045"><ele>1284.0</ele><time>2026-04-26T07:10:38.92Z</time></trkpt><trkpt lat="43.95950596704842" lon="7.631839427521465"><ele>1284.0</ele><time>2026-04-26T07:10:39.92Z</time></trkpt><trkpt lat="43.95954240234815" lon="7.631940828271649"><ele>1284.0</ele><time>2026-04-26T07:10:40.92Z</time></trkpt><trkpt lat="43.959555644174046" lon="7.632038744462854"><ele>1284.0</ele><time>2026-04-26T07:10:41.92Z</time></trkpt><trkpt lat="43.95955903144297" lon="7.632130219200587"><ele>1284.0</ele><time>2026-04-26T07:10:42.92Z</time></trkpt><trkpt lat="43.95957443493634" lon="7.632240766706967"><ele>1284.0</ele><time>2026-04-26T07:10:43.92Z</time></trkpt><trkpt lat="43.95961872079948" lon="7.632321568630646"><ele>1280.6000000000001</ele><time>2026-04-26T07:10:44.92Z</time></trkpt><trkpt lat="43.95965626721908" lon="7.632485430087932"><ele>1277.2</ele><time>2026-04-26T07:10:46.92Z</time></trkpt><trkpt lat="43.95967648892804" lon="7.632598807872145"><ele>1273.8000000000002</ele><time>2026-04-26T07:10:47.92Z</time></trkpt><trkpt lat="43.95969926318765" lon="7.632701456761314"><ele>1270.4</ele><time>2026-04-26T07:10:48.92Z</time></trkpt><trkpt lat="43.959707962955676" lon="7.632839846973182"><ele>1267.0</ele><time>2026-04-26T07:10:49.92Z</time></trkpt><trkpt lat="43.959730554145615" lon="7.632938176596512"><ele>1268.1666666666665</ele><time>2026-04-26T07:10:50.92Z</time></trkpt><trkpt lat="43.95976125734954" lon="7.63303799105618"><ele>1269.3333333333333</ele><time>2026-04-26T07:10:51.92Z</time></trkpt><trkpt lat="43.95981054899027" lon="7.633093895303117"><ele>1270.5</ele><time>2026-04-26T07:10:52.92Z</time></trkpt><trkpt lat="43.959898264098676" lon="7.633126312848418"><ele>1271.6666666666667</ele><time>2026-04-26T07:10:54.92Z</time></trkpt><trkpt lat="43.95998435637486" lon="7.6330984742146715"><ele>1272.8333333333335</ele><time>2026-04-26T07:10:56.92Z</time></trkpt><trkpt lat="43.9600828730494" lon="7.633063123018147"><ele>1274.0</ele><time>2026-04-26T07:10:58.92Z</time></trkpt><trkpt lat="43.96018005912338" lon="7.63303483949523"><ele>1274.0</ele><time>2026-04-26T07:11:00.92Z</time></trkpt><trkpt lat="43.96029920295186" lon="7.633078701330197"><ele>1274.0</ele><time>2026-04-26T07:11:02.92Z</time></trkpt><trkpt lat="43.960376156534586" lon="7.63315619522027"><ele>1274.0</ele><time>2026-04-26T07:11:04.92Z</time></trkpt><trkpt lat="43.96044216649262" lon="7.6332041532280135"><ele>1274.0</ele><time>2026-04-26T07:11:05.919Z</time></trkpt><trkpt lat="43.96051347516601" lon="7.633230376826598"><ele>1274.0</ele><time>2026-04-26T07:11:06.919Z</time></trkpt><trkpt lat="43.96057621938708" lon="7.633265128136287"><ele>1274.0</ele><time>2026-04-26T07:11:07.919Z</time></trkpt><trkpt lat="43.960678629042036" lon="7.633348052120554"><ele>1274.0</ele><time>2026-04-26T07:11:09.919Z</time></trkpt><trkpt lat="43.96075326457441" lon="7.633376206697158"><ele>1274.0</ele><time>2026-04-26T07:11:10.919Z</time></trkpt><trkpt lat="43.96081995778614" lon="7.633398680233328"><ele>1274.0</ele><time>2026-04-26T07:11:11.919Z</time></trkpt><trkpt lat="43.96089103245679" lon="7.633416690756007"><ele>1274.0</ele><time>2026-04-26T07:11:12.919Z</time></trkpt><trkpt lat="43.9609547795314" lon="7.633428821980258"><ele>1274.0</ele><time>2026-04-26T07:11:13.919Z</time></trkpt><trkpt lat="43.961023114736044" lon="7.633448385985987"><ele>1274.0</ele><time>2026-04-26T07:11:14.919Z</time></trkpt><trkpt lat="43.96109287906034" lon="7.633477554000734"><ele>1274.0</ele><time>2026-04-26T07:11:15.919Z</time></trkpt><trkpt lat="43.96115738087607" lon="7.633502955952154"><ele>1273.8</ele><time>2026-04-26T07:11:16.919Z</time></trkpt><trkpt lat="43.96122528276971" lon="7.633545719515763"><ele>1273.6000000000001</ele><time>2026-04-26T07:11:17.921Z</time></trkpt><trkpt lat="43.961283476482095" lon="7.633589746580538"><ele>1273.4</ele><time>2026-04-26T07:11:18.921Z</time></trkpt><trkpt lat="43.96137407030241" lon="7.633664353861835"><ele>1273.2</ele><time>2026-04-26T07:11:20.922Z</time></trkpt><trkpt lat="43.96148269501244" lon="7.63375589046997"><ele>1273.0</ele><time>2026-04-26T07:11:22.921Z</time></trkpt><trkpt lat="43.961572650149776" lon="7.6338433336156095"><ele>1273.0</ele><time>2026-04-26T07:11:24.921Z</time></trkpt><trkpt lat="43.961667801840385" lon="7.633961664588472"><ele>1273.0</ele><time>2026-04-26T07:11:26.921Z</time></trkpt><trkpt lat="43.961700923728976" lon="7.634041323169704"><ele>1273.0</ele><time>2026-04-26T07:11:27.922Z</time></trkpt><trkpt lat="43.961734769529826" lon="7.634181898221661"><ele>1273.0</ele><time>2026-04-26T07:11:29.921Z</time></trkpt><trkpt lat="43.96180319765504" lon="7.634295706607984"><ele>1273.0</ele><time>2026-04-26T07:11:31.921Z</time></trkpt><trkpt lat="43.96186455295296" lon="7.634366448412968"><ele>1275.0</ele><time>2026-04-26T07:11:33.921Z</time></trkpt><trkpt lat="43.96195555434736" lon="7.63444587917955"><ele>1277.0</ele><time>2026-04-26T07:11:35.921Z</time></trkpt><trkpt lat="43.96204305677372" lon="7.634501491748281"><ele>1279.0</ele><time>2026-04-26T07:11:37.921Z</time></trkpt><trkpt lat="43.96211308949842" lon="7.634587491342797"><ele>1281.0</ele><time>2026-04-26T07:11:39.921Z</time></trkpt><trkpt lat="43.96216057149859" lon="7.63465636009279"><ele>1283.0</ele><time>2026-04-26T07:11:40.921Z</time></trkpt><trkpt lat="43.96224923992663" lon="7.634737685409307"><ele>1283.0</ele><time>2026-04-26T07:11:42.921Z</time></trkpt><trkpt lat="43.9623383161625" lon="7.634757325483457"><ele>1283.0</ele><time>2026-04-26T07:11:44.921Z</time></trkpt><trkpt lat="43.962456290352996" lon="7.634788015808835"><ele>1283.0</ele><time>2026-04-26T07:11:46.921Z</time></trkpt><trkpt lat="43.962540215678814" lon="7.634803927748236"><ele>1283.0</ele><time>2026-04-26T07:11:48.921Z</time></trkpt><trkpt lat="43.96262445686116" lon="7.634904737571004"><ele>1283.0</ele><time>2026-04-26T07:11:50.921Z</time></trkpt><trkpt lat="43.96265884679767" lon="7.634979547068326"><ele>1290.0</ele><time>2026-04-26T07:11:51.921Z</time></trkpt><trkpt lat="43.96271395028938" lon="7.635109726707854"><ele>1297.0</ele><time>2026-04-26T07:11:53.92Z</time></trkpt><trkpt lat="43.962832969175295" lon="7.635177864370764"><ele>1304.0</ele><time>2026-04-26T07:11:55.92Z</time></trkpt><trkpt lat="43.96291847804577" lon="7.635216454166133"><ele>1311.0</ele><time>2026-04-26T07:11:57.92Z</time></trkpt><trkpt lat="43.96298450776013" lon="7.635232558886438"><ele>1318.0</ele><time>2026-04-26T07:11:58.92Z</time></trkpt><trkpt lat="43.963082327108964" lon="7.6352732105551615"><ele>1312.2</ele><time>2026-04-26T07:12:00.92Z</time></trkpt><trkpt lat="43.963188686949046" lon="7.635325659376095"><ele>1306.4</ele><time>2026-04-26T07:12:02.92Z</time></trkpt><trkpt lat="43.96329994400104" lon="7.635379365428772"><ele>1300.6000000000001</ele><time>2026-04-26T07:12:04.92Z</time></trkpt><trkpt lat="43.96339205185125" lon="7.635459322597423"><ele>1294.8000000000002</ele><time>2026-04-26T07:12:06.92Z</time></trkpt><trkpt lat="43.9634955023037" lon="7.635490883710313"><ele>1289.0</ele><time>2026-04-26T07:12:08.92Z</time></trkpt><trkpt lat="43.96357887378206" lon="7.635482630833875"><ele>1289.0</ele><time>2026-04-26T07:12:10.92Z</time></trkpt><trkpt lat="43.96365298403153" lon="7.635435675015071"><ele>1289.0</ele><time>2026-04-26T07:12:12.92Z</time></trkpt><trkpt lat="43.96370911773555" lon="7.635383527114276"><ele>1289.0</ele><time>2026-04-26T07:12:14.92Z</time></trkpt><trkpt lat="43.963808089637766" lon="7.635317838973063"><ele>1289.0</ele><time>2026-04-26T07:12:16.92Z</time></trkpt><trkpt lat="43.96386952055719" lon="7.6352728810879364"><ele>1289.0</ele><time>2026-04-26T07:12:17.92Z</time></trkpt><trkpt lat="43.9639711837962" lon="7.635236979180093"><ele>1289.0</ele><time>2026-04-26T07:12:19.92Z</time></trkpt><trkpt lat="43.96407381058657" lon="7.635185980066878"><ele>1298.4</ele><time>2026-04-26T07:12:21.92Z</time></trkpt><trkpt lat="43.96414046422078" lon="7.635177644646121"><ele>1307.8000000000002</ele><time>2026-04-26T07:12:22.92Z</time></trkpt><trkpt lat="43.96425656926548" lon="7.635204216459338"><ele>1317.1999999999998</ele><time>2026-04-26T07:12:24.92Z</time></trkpt><trkpt lat="43.964374248289246" lon="7.635252125097596"><ele>1326.6</ele><time>2026-04-26T07:12:26.92Z</time></trkpt><trkpt lat="43.96446611108678" lon="7.635274259129038"><ele>1336.0</ele><time>2026-04-26T07:12:28.92Z</time></trkpt><trkpt lat="43.964551799024434" lon="7.6352361556659885"><ele>1337.0</ele><time>2026-04-26T07:12:30.92Z</time></trkpt><trkpt lat="43.96462859853157" lon="7.635209828184171"><ele>1338.0</ele><time>2026-04-26T07:12:32.92Z</time></trkpt><trkpt lat="43.964700771206836" lon="7.635173555048385"><ele>1339.0</ele><time>2026-04-26T07:12:34.92Z</time></trkpt><trkpt lat="43.96480634730423" lon="7.635196467262431"><ele>1340.0</ele><time>2026-04-26T07:12:36.92Z</time></trkpt><trkpt lat="43.96487387827117" lon="7.635196479973923"><ele>1341.0</ele><time>2026-04-26T07:12:38.918Z</time></trkpt><trkpt lat="43.964942866209974" lon="7.635187427886223"><ele>1342.0</ele><time>2026-04-26T07:12:40.914Z</time></trkpt><trkpt lat="43.965021817314806" lon="7.6351825555363115"><ele>1346.8</ele><time>2026-04-26T07:12:42.911Z</time></trkpt><trkpt lat="43.96511489091692" lon="7.63517046717923"><ele>1351.6</ele><time>2026-04-26T07:12:44.909Z</time></trkpt><trkpt lat="43.9652117843754" lon="7.635194665867622"><ele>1356.3999999999999</ele><time>2026-04-26T07:12:47.905Z</time></trkpt><trkpt lat="43.96527735622023" lon="7.635215818287552"><ele>1361.1999999999998</ele><time>2026-04-26T07:12:49.903Z</time></trkpt><trkpt lat="43.965404158329925" lon="7.63522686382634"><ele>1366.0</ele><time>2026-04-26T07:13:07.894Z</time></trkpt><trkpt lat="43.96547435617251" lon="7.635254488190641"><ele>1366.0</ele><time>2026-04-26T07:13:15.892Z</time></trkpt></trkseg></trk></gpx>